<?xml version="1.0" encoding="UTF-8" standalone="no" ?>
<gpx xmlns="http://www.topografix.com/GPX/1/1" xmlns:xsi="http://www.w3.org/2001/XMLSchema-instance" xsi:schemaLocation="http://www.topografix.com/GPX/1/1 http://www.topografix.com/GPX/1/1/gpx.xsd" version="1.1" creator="VisuGPX - https://www.visugpx.com">
  <metadata>
    <name>Mauresque20kms</name>
  </metadata>
  <trk>
    <name><![CDATA[20 km Mauresque]]></name>
    <trkseg>
      <trkpt lat="43.42796" lon="6.42829">
        <ele>51</ele>
        <time>2022-10-14T14:23:43+02:00</time>
      </trkpt>
      <trkpt lat="43.42796" lon="6.42829">
        <ele>51</ele>
        <time>2022-10-14T14:23:43+02:00</time>
      </trkpt>
      <trkpt lat="43.428" lon="6.42832">
        <ele>51</ele>
        <time>2022-10-14T14:23:43+02:00</time>
      </trkpt>
      <trkpt lat="43.42805" lon="6.42835">
        <ele>50</ele>
        <time>2022-10-14T14:23:43+02:00</time>
      </trkpt>
      <trkpt lat="43.42809" lon="6.42838">
        <ele>50</ele>
        <time>2022-10-14T14:23:43+02:00</time>
      </trkpt>
      <trkpt lat="43.42813" lon="6.42841">
        <ele>50</ele>
        <time>2022-10-14T14:23:43+02:00</time>
      </trkpt>
      <trkpt lat="43.42817" lon="6.42844">
        <ele>49</ele>
        <time>2022-10-14T14:23:43+02:00</time>
      </trkpt>
      <trkpt lat="43.42821" lon="6.42848">
        <ele>49</ele>
        <time>2022-10-14T14:23:43+02:00</time>
      </trkpt>
      <trkpt lat="43.42825" lon="6.42853">
        <ele>49</ele>
        <time>2022-10-14T14:23:43+02:00</time>
      </trkpt>
      <trkpt lat="43.42829" lon="6.42857">
        <ele>49</ele>
        <time>2022-10-14T14:23:43+02:00</time>
      </trkpt>
      <trkpt lat="43.42834" lon="6.42858">
        <ele>49</ele>
        <time>2022-10-14T14:23:43+02:00</time>
      </trkpt>
      <trkpt lat="43.42838" lon="6.4286">
        <ele>49</ele>
        <time>2022-10-14T14:23:43+02:00</time>
      </trkpt>
      <trkpt lat="43.4284" lon="6.42862">
        <ele>49</ele>
        <time>2022-10-14T14:23:43+02:00</time>
      </trkpt>
      <trkpt lat="43.42844" lon="6.42863">
        <ele>49</ele>
        <time>2022-10-14T14:23:43+02:00</time>
      </trkpt>
      <trkpt lat="43.42847" lon="6.42862">
        <ele>49</ele>
        <time>2022-10-14T14:23:43+02:00</time>
      </trkpt>
      <trkpt lat="43.42849" lon="6.42861">
        <ele>50</ele>
        <time>2022-10-14T14:23:43+02:00</time>
      </trkpt>
      <trkpt lat="43.42851" lon="6.4286">
        <ele>50</ele>
        <time>2022-10-14T14:23:43+02:00</time>
      </trkpt>
      <trkpt lat="43.42853" lon="6.4286">
        <ele>50</ele>
        <time>2022-10-14T14:23:43+02:00</time>
      </trkpt>
      <trkpt lat="43.42856" lon="6.42859">
        <ele>50</ele>
        <time>2022-10-14T14:23:43+02:00</time>
      </trkpt>
      <trkpt lat="43.42859" lon="6.42858">
        <ele>49</ele>
        <time>2022-10-14T14:23:43+02:00</time>
      </trkpt>
      <trkpt lat="43.42862" lon="6.42857">
        <ele>49</ele>
        <time>2022-10-14T14:23:43+02:00</time>
      </trkpt>
      <trkpt lat="43.42866" lon="6.42857">
        <ele>49</ele>
        <time>2022-10-14T14:23:43+02:00</time>
      </trkpt>
      <trkpt lat="43.4287" lon="6.42857">
        <ele>50</ele>
        <time>2022-10-14T14:23:43+02:00</time>
      </trkpt>
      <trkpt lat="43.42873" lon="6.42857">
        <ele>51</ele>
        <time>2022-10-14T14:23:43+02:00</time>
      </trkpt>
      <trkpt lat="43.42876" lon="6.42857">
        <ele>51</ele>
        <time>2022-10-14T14:23:43+02:00</time>
      </trkpt>
      <trkpt lat="43.42879" lon="6.42856">
        <ele>51</ele>
        <time>2022-10-14T14:23:43+02:00</time>
      </trkpt>
      <trkpt lat="43.42882" lon="6.42855">
        <ele>51</ele>
        <time>2022-10-14T14:23:43+02:00</time>
      </trkpt>
      <trkpt lat="43.42885" lon="6.42854">
        <ele>51</ele>
        <time>2022-10-14T14:23:43+02:00</time>
      </trkpt>
      <trkpt lat="43.4289" lon="6.42852">
        <ele>51</ele>
        <time>2022-10-14T14:23:43+02:00</time>
      </trkpt>
      <trkpt lat="43.42894" lon="6.42849">
        <ele>51</ele>
        <time>2022-10-14T14:23:43+02:00</time>
      </trkpt>
      <trkpt lat="43.42899" lon="6.42847">
        <ele>50</ele>
        <time>2022-10-14T14:23:43+02:00</time>
      </trkpt>
      <trkpt lat="43.42904" lon="6.42844">
        <ele>50</ele>
        <time>2022-10-14T14:23:43+02:00</time>
      </trkpt>
      <trkpt lat="43.42908" lon="6.42842">
        <ele>50</ele>
        <time>2022-10-14T14:23:43+02:00</time>
      </trkpt>
      <trkpt lat="43.42913" lon="6.42839">
        <ele>50</ele>
        <time>2022-10-14T14:23:43+02:00</time>
      </trkpt>
      <trkpt lat="43.42918" lon="6.42837">
        <ele>50</ele>
        <time>2022-10-14T14:23:43+02:00</time>
      </trkpt>
      <trkpt lat="43.42923" lon="6.42833">
        <ele>49</ele>
        <time>2022-10-14T14:23:43+02:00</time>
      </trkpt>
      <trkpt lat="43.42928" lon="6.42829">
        <ele>49</ele>
        <time>2022-10-14T14:23:43+02:00</time>
      </trkpt>
      <trkpt lat="43.42931" lon="6.42825">
        <ele>49</ele>
        <time>2022-10-14T14:23:43+02:00</time>
      </trkpt>
      <trkpt lat="43.42936" lon="6.42821">
        <ele>49</ele>
        <time>2022-10-14T14:23:43+02:00</time>
      </trkpt>
      <trkpt lat="43.42939" lon="6.42816">
        <ele>49</ele>
        <time>2022-10-14T14:23:43+02:00</time>
      </trkpt>
      <trkpt lat="43.42943" lon="6.42811">
        <ele>49</ele>
        <time>2022-10-14T14:23:43+02:00</time>
      </trkpt>
      <trkpt lat="43.42946" lon="6.42805">
        <ele>49</ele>
        <time>2022-10-14T14:23:43+02:00</time>
      </trkpt>
      <trkpt lat="43.42949" lon="6.42801">
        <ele>49</ele>
        <time>2022-10-14T14:23:43+02:00</time>
      </trkpt>
      <trkpt lat="43.42953" lon="6.42797">
        <ele>50</ele>
        <time>2022-10-14T14:23:43+02:00</time>
      </trkpt>
      <trkpt lat="43.42956" lon="6.42792">
        <ele>50</ele>
        <time>2022-10-14T14:23:43+02:00</time>
      </trkpt>
      <trkpt lat="43.4296" lon="6.42788">
        <ele>50</ele>
        <time>2022-10-14T14:23:43+02:00</time>
      </trkpt>
      <trkpt lat="43.42963" lon="6.42782">
        <ele>50</ele>
        <time>2022-10-14T14:23:43+02:00</time>
      </trkpt>
      <trkpt lat="43.42965" lon="6.42776">
        <ele>49</ele>
        <time>2022-10-14T14:23:43+02:00</time>
      </trkpt>
      <trkpt lat="43.42968" lon="6.42769">
        <ele>49</ele>
        <time>2022-10-14T14:23:43+02:00</time>
      </trkpt>
      <trkpt lat="43.42971" lon="6.42762">
        <ele>49</ele>
        <time>2022-10-14T14:23:43+02:00</time>
      </trkpt>
      <trkpt lat="43.42973" lon="6.42755">
        <ele>49</ele>
        <time>2022-10-14T14:23:43+02:00</time>
      </trkpt>
      <trkpt lat="43.42976" lon="6.42749">
        <ele>50</ele>
        <time>2022-10-14T14:23:43+02:00</time>
      </trkpt>
      <trkpt lat="43.42979" lon="6.42744">
        <ele>50</ele>
        <time>2022-10-14T14:23:43+02:00</time>
      </trkpt>
      <trkpt lat="43.42982" lon="6.42738">
        <ele>50</ele>
        <time>2022-10-14T14:23:43+02:00</time>
      </trkpt>
      <trkpt lat="43.42984" lon="6.42732">
        <ele>50</ele>
        <time>2022-10-14T14:23:43+02:00</time>
      </trkpt>
      <trkpt lat="43.42987" lon="6.42726">
        <ele>50</ele>
        <time>2022-10-14T14:23:43+02:00</time>
      </trkpt>
      <trkpt lat="43.42989" lon="6.42719">
        <ele>50</ele>
        <time>2022-10-14T14:23:43+02:00</time>
      </trkpt>
      <trkpt lat="43.42992" lon="6.42713">
        <ele>50</ele>
        <time>2022-10-14T14:23:43+02:00</time>
      </trkpt>
      <trkpt lat="43.42995" lon="6.42708">
        <ele>49</ele>
        <time>2022-10-14T14:23:43+02:00</time>
      </trkpt>
      <trkpt lat="43.42998" lon="6.42703">
        <ele>49</ele>
        <time>2022-10-14T14:23:43+02:00</time>
      </trkpt>
      <trkpt lat="43.43002" lon="6.42698">
        <ele>49</ele>
        <time>2022-10-14T14:23:43+02:00</time>
      </trkpt>
      <trkpt lat="43.43005" lon="6.42693">
        <ele>49</ele>
        <time>2022-10-14T14:23:43+02:00</time>
      </trkpt>
      <trkpt lat="43.43009" lon="6.42689">
        <ele>49</ele>
        <time>2022-10-14T14:23:43+02:00</time>
      </trkpt>
      <trkpt lat="43.43012" lon="6.42686">
        <ele>50</ele>
        <time>2022-10-14T14:23:43+02:00</time>
      </trkpt>
      <trkpt lat="43.43015" lon="6.42681">
        <ele>50</ele>
        <time>2022-10-14T14:23:43+02:00</time>
      </trkpt>
      <trkpt lat="43.43017" lon="6.42676">
        <ele>50</ele>
        <time>2022-10-14T14:23:43+02:00</time>
      </trkpt>
      <trkpt lat="43.43021" lon="6.42671">
        <ele>50</ele>
        <time>2022-10-14T14:23:43+02:00</time>
      </trkpt>
      <trkpt lat="43.43025" lon="6.42666">
        <ele>49</ele>
        <time>2022-10-14T14:23:43+02:00</time>
      </trkpt>
      <trkpt lat="43.43028" lon="6.4266">
        <ele>49</ele>
        <time>2022-10-14T14:23:43+02:00</time>
      </trkpt>
      <trkpt lat="43.43032" lon="6.42655">
        <ele>49</ele>
        <time>2022-10-14T14:23:43+02:00</time>
      </trkpt>
      <trkpt lat="43.43036" lon="6.4265">
        <ele>49</ele>
        <time>2022-10-14T14:23:43+02:00</time>
      </trkpt>
      <trkpt lat="43.43041" lon="6.42646">
        <ele>48</ele>
        <time>2022-10-14T14:23:43+02:00</time>
      </trkpt>
      <trkpt lat="43.43045" lon="6.42641">
        <ele>48</ele>
        <time>2022-10-14T14:23:43+02:00</time>
      </trkpt>
      <trkpt lat="43.4305" lon="6.42636">
        <ele>48</ele>
        <time>2022-10-14T14:23:43+02:00</time>
      </trkpt>
      <trkpt lat="43.43055" lon="6.42633">
        <ele>48</ele>
        <time>2022-10-14T14:23:43+02:00</time>
      </trkpt>
      <trkpt lat="43.43059" lon="6.42629">
        <ele>49</ele>
        <time>2022-10-14T14:23:43+02:00</time>
      </trkpt>
      <trkpt lat="43.43064" lon="6.42626">
        <ele>49</ele>
        <time>2022-10-14T14:23:43+02:00</time>
      </trkpt>
      <trkpt lat="43.43068" lon="6.42624">
        <ele>49</ele>
        <time>2022-10-14T14:23:43+02:00</time>
      </trkpt>
      <trkpt lat="43.43073" lon="6.42621">
        <ele>49</ele>
        <time>2022-10-14T14:23:43+02:00</time>
      </trkpt>
      <trkpt lat="43.43077" lon="6.42618">
        <ele>48</ele>
        <time>2022-10-14T14:23:43+02:00</time>
      </trkpt>
      <trkpt lat="43.43081" lon="6.42615">
        <ele>48</ele>
        <time>2022-10-14T14:23:43+02:00</time>
      </trkpt>
      <trkpt lat="43.43086" lon="6.42612">
        <ele>48</ele>
        <time>2022-10-14T14:23:43+02:00</time>
      </trkpt>
      <trkpt lat="43.43091" lon="6.4261">
        <ele>49</ele>
        <time>2022-10-14T14:23:43+02:00</time>
      </trkpt>
      <trkpt lat="43.43096" lon="6.42609">
        <ele>49</ele>
        <time>2022-10-14T14:23:43+02:00</time>
      </trkpt>
      <trkpt lat="43.43101" lon="6.42609">
        <ele>49</ele>
        <time>2022-10-14T14:23:43+02:00</time>
      </trkpt>
      <trkpt lat="43.43106" lon="6.42612">
        <ele>49</ele>
        <time>2022-10-14T14:23:43+02:00</time>
      </trkpt>
      <trkpt lat="43.4311" lon="6.42615">
        <ele>49</ele>
        <time>2022-10-14T14:23:43+02:00</time>
      </trkpt>
      <trkpt lat="43.43115" lon="6.42618">
        <ele>49</ele>
        <time>2022-10-14T14:23:43+02:00</time>
      </trkpt>
      <trkpt lat="43.4312" lon="6.4262">
        <ele>49</ele>
        <time>2022-10-14T14:23:43+02:00</time>
      </trkpt>
      <trkpt lat="43.43124" lon="6.42622">
        <ele>49</ele>
        <time>2022-10-14T14:23:43+02:00</time>
      </trkpt>
      <trkpt lat="43.43128" lon="6.42624">
        <ele>49</ele>
        <time>2022-10-14T14:23:43+02:00</time>
      </trkpt>
      <trkpt lat="43.43132" lon="6.42623">
        <ele>50</ele>
        <time>2022-10-14T14:23:43+02:00</time>
      </trkpt>
      <trkpt lat="43.43137" lon="6.42623">
        <ele>50</ele>
        <time>2022-10-14T14:23:43+02:00</time>
      </trkpt>
      <trkpt lat="43.43141" lon="6.42622">
        <ele>50</ele>
        <time>2022-10-14T14:23:43+02:00</time>
      </trkpt>
      <trkpt lat="43.43146" lon="6.42622">
        <ele>49</ele>
        <time>2022-10-14T14:23:43+02:00</time>
      </trkpt>
      <trkpt lat="43.4315" lon="6.42622">
        <ele>49</ele>
        <time>2022-10-14T14:23:43+02:00</time>
      </trkpt>
      <trkpt lat="43.43154" lon="6.42621">
        <ele>49</ele>
        <time>2022-10-14T14:23:43+02:00</time>
      </trkpt>
      <trkpt lat="43.43158" lon="6.4262">
        <ele>49</ele>
        <time>2022-10-14T14:23:43+02:00</time>
      </trkpt>
      <trkpt lat="43.43164" lon="6.42619">
        <ele>49</ele>
        <time>2022-10-14T14:23:43+02:00</time>
      </trkpt>
      <trkpt lat="43.43168" lon="6.42618">
        <ele>49</ele>
        <time>2022-10-14T14:23:43+02:00</time>
      </trkpt>
      <trkpt lat="43.43173" lon="6.42618">
        <ele>49</ele>
        <time>2022-10-14T14:23:43+02:00</time>
      </trkpt>
      <trkpt lat="43.43178" lon="6.42618">
        <ele>49</ele>
        <time>2022-10-14T14:23:43+02:00</time>
      </trkpt>
      <trkpt lat="43.43183" lon="6.42619">
        <ele>48</ele>
        <time>2022-10-14T14:23:43+02:00</time>
      </trkpt>
      <trkpt lat="43.43188" lon="6.42619">
        <ele>49</ele>
        <time>2022-10-14T14:23:43+02:00</time>
      </trkpt>
      <trkpt lat="43.43194" lon="6.42619">
        <ele>49</ele>
        <time>2022-10-14T14:23:43+02:00</time>
      </trkpt>
      <trkpt lat="43.43199" lon="6.42617">
        <ele>49</ele>
        <time>2022-10-14T14:23:43+02:00</time>
      </trkpt>
      <trkpt lat="43.43205" lon="6.42617">
        <ele>48</ele>
        <time>2022-10-14T14:23:43+02:00</time>
      </trkpt>
      <trkpt lat="43.4321" lon="6.42615">
        <ele>48</ele>
        <time>2022-10-14T14:23:43+02:00</time>
      </trkpt>
      <trkpt lat="43.43214" lon="6.42616">
        <ele>48</ele>
        <time>2022-10-14T14:23:43+02:00</time>
      </trkpt>
      <trkpt lat="43.43219" lon="6.42617">
        <ele>48</ele>
        <time>2022-10-14T14:23:43+02:00</time>
      </trkpt>
      <trkpt lat="43.43224" lon="6.4262">
        <ele>49</ele>
        <time>2022-10-14T14:23:43+02:00</time>
      </trkpt>
      <trkpt lat="43.43228" lon="6.42624">
        <ele>49</ele>
        <time>2022-10-14T14:23:43+02:00</time>
      </trkpt>
      <trkpt lat="43.4323" lon="6.42627">
        <ele>49</ele>
        <time>2022-10-14T14:23:43+02:00</time>
      </trkpt>
      <trkpt lat="43.43233" lon="6.42631">
        <ele>49</ele>
        <time>2022-10-14T14:23:43+02:00</time>
      </trkpt>
      <trkpt lat="43.43236" lon="6.42635">
        <ele>50</ele>
        <time>2022-10-14T14:23:43+02:00</time>
      </trkpt>
      <trkpt lat="43.43239" lon="6.42637">
        <ele>52</ele>
        <time>2022-10-14T14:23:43+02:00</time>
      </trkpt>
      <trkpt lat="43.43243" lon="6.42638">
        <ele>52</ele>
        <time>2022-10-14T14:23:43+02:00</time>
      </trkpt>
      <trkpt lat="43.43247" lon="6.42639">
        <ele>52</ele>
        <time>2022-10-14T14:23:43+02:00</time>
      </trkpt>
      <trkpt lat="43.43252" lon="6.4264">
        <ele>51</ele>
        <time>2022-10-14T14:23:43+02:00</time>
      </trkpt>
      <trkpt lat="43.43258" lon="6.4264">
        <ele>51</ele>
        <time>2022-10-14T14:23:43+02:00</time>
      </trkpt>
      <trkpt lat="43.43263" lon="6.42639">
        <ele>51</ele>
        <time>2022-10-14T14:23:43+02:00</time>
      </trkpt>
      <trkpt lat="43.43269" lon="6.42639">
        <ele>51</ele>
        <time>2022-10-14T14:23:43+02:00</time>
      </trkpt>
      <trkpt lat="43.43274" lon="6.42639">
        <ele>51</ele>
        <time>2022-10-14T14:23:43+02:00</time>
      </trkpt>
      <trkpt lat="43.43279" lon="6.42639">
        <ele>51</ele>
        <time>2022-10-14T14:23:43+02:00</time>
      </trkpt>
      <trkpt lat="43.43285" lon="6.42639">
        <ele>51</ele>
        <time>2022-10-14T14:23:43+02:00</time>
      </trkpt>
      <trkpt lat="43.4329" lon="6.42639">
        <ele>51</ele>
        <time>2022-10-14T14:23:43+02:00</time>
      </trkpt>
      <trkpt lat="43.43294" lon="6.42639">
        <ele>51</ele>
        <time>2022-10-14T14:23:43+02:00</time>
      </trkpt>
      <trkpt lat="43.43298" lon="6.42638">
        <ele>51</ele>
        <time>2022-10-14T14:23:43+02:00</time>
      </trkpt>
      <trkpt lat="43.43304" lon="6.42637">
        <ele>51</ele>
        <time>2022-10-14T14:23:43+02:00</time>
      </trkpt>
      <trkpt lat="43.43309" lon="6.42636">
        <ele>51</ele>
        <time>2022-10-14T14:23:43+02:00</time>
      </trkpt>
      <trkpt lat="43.43314" lon="6.42635">
        <ele>51</ele>
        <time>2022-10-14T14:23:43+02:00</time>
      </trkpt>
      <trkpt lat="43.4332" lon="6.42634">
        <ele>50</ele>
        <time>2022-10-14T14:23:43+02:00</time>
      </trkpt>
      <trkpt lat="43.43327" lon="6.42633">
        <ele>50</ele>
        <time>2022-10-14T14:23:43+02:00</time>
      </trkpt>
      <trkpt lat="43.43332" lon="6.42632">
        <ele>50</ele>
        <time>2022-10-14T14:23:43+02:00</time>
      </trkpt>
      <trkpt lat="43.43339" lon="6.42631">
        <ele>49</ele>
        <time>2022-10-14T14:23:43+02:00</time>
      </trkpt>
      <trkpt lat="43.43345" lon="6.4263">
        <ele>49</ele>
        <time>2022-10-14T14:23:43+02:00</time>
      </trkpt>
      <trkpt lat="43.43352" lon="6.4263">
        <ele>49</ele>
        <time>2022-10-14T14:23:43+02:00</time>
      </trkpt>
      <trkpt lat="43.43358" lon="6.42631">
        <ele>49</ele>
        <time>2022-10-14T14:23:43+02:00</time>
      </trkpt>
      <trkpt lat="43.43363" lon="6.42634">
        <ele>49</ele>
        <time>2022-10-14T14:23:43+02:00</time>
      </trkpt>
      <trkpt lat="43.43367" lon="6.42639">
        <ele>51</ele>
        <time>2022-10-14T14:23:43+02:00</time>
      </trkpt>
      <trkpt lat="43.43369" lon="6.42643">
        <ele>51</ele>
        <time>2022-10-14T14:23:43+02:00</time>
      </trkpt>
      <trkpt lat="43.43369" lon="6.42648">
        <ele>51</ele>
        <time>2022-10-14T14:23:43+02:00</time>
      </trkpt>
      <trkpt lat="43.43368" lon="6.42652">
        <ele>51</ele>
        <time>2022-10-14T14:23:43+02:00</time>
      </trkpt>
      <trkpt lat="43.43368" lon="6.42657">
        <ele>52</ele>
        <time>2022-10-14T14:23:43+02:00</time>
      </trkpt>
      <trkpt lat="43.43367" lon="6.42662">
        <ele>52</ele>
        <time>2022-10-14T14:23:43+02:00</time>
      </trkpt>
      <trkpt lat="43.43366" lon="6.42668">
        <ele>52</ele>
        <time>2022-10-14T14:23:43+02:00</time>
      </trkpt>
      <trkpt lat="43.43365" lon="6.42673">
        <ele>52</ele>
        <time>2022-10-14T14:23:43+02:00</time>
      </trkpt>
      <trkpt lat="43.43364" lon="6.42678">
        <ele>52</ele>
        <time>2022-10-14T14:23:43+02:00</time>
      </trkpt>
      <trkpt lat="43.43363" lon="6.42684">
        <ele>52</ele>
        <time>2022-10-14T14:23:43+02:00</time>
      </trkpt>
      <trkpt lat="43.43362" lon="6.42689">
        <ele>52</ele>
        <time>2022-10-14T14:23:43+02:00</time>
      </trkpt>
      <trkpt lat="43.43361" lon="6.42695">
        <ele>52</ele>
        <time>2022-10-14T14:23:43+02:00</time>
      </trkpt>
      <trkpt lat="43.4336" lon="6.42701">
        <ele>52</ele>
        <time>2022-10-14T14:23:43+02:00</time>
      </trkpt>
      <trkpt lat="43.43359" lon="6.42707">
        <ele>52</ele>
        <time>2022-10-14T14:23:43+02:00</time>
      </trkpt>
      <trkpt lat="43.43358" lon="6.42713">
        <ele>52</ele>
        <time>2022-10-14T14:23:43+02:00</time>
      </trkpt>
      <trkpt lat="43.43357" lon="6.42719">
        <ele>52</ele>
        <time>2022-10-14T14:23:43+02:00</time>
      </trkpt>
      <trkpt lat="43.43356" lon="6.42725">
        <ele>52</ele>
        <time>2022-10-14T14:23:43+02:00</time>
      </trkpt>
      <trkpt lat="43.43355" lon="6.4273">
        <ele>52</ele>
        <time>2022-10-14T14:23:43+02:00</time>
      </trkpt>
      <trkpt lat="43.43354" lon="6.42736">
        <ele>52</ele>
        <time>2022-10-14T14:23:43+02:00</time>
      </trkpt>
      <trkpt lat="43.43354" lon="6.42743">
        <ele>53</ele>
        <time>2022-10-14T14:23:43+02:00</time>
      </trkpt>
      <trkpt lat="43.43353" lon="6.42749">
        <ele>52</ele>
        <time>2022-10-14T14:23:43+02:00</time>
      </trkpt>
      <trkpt lat="43.43353" lon="6.42755">
        <ele>52</ele>
        <time>2022-10-14T14:23:43+02:00</time>
      </trkpt>
      <trkpt lat="43.43352" lon="6.42762">
        <ele>52</ele>
        <time>2022-10-14T14:23:43+02:00</time>
      </trkpt>
      <trkpt lat="43.43352" lon="6.42768">
        <ele>52</ele>
        <time>2022-10-14T14:23:43+02:00</time>
      </trkpt>
      <trkpt lat="43.43351" lon="6.42775">
        <ele>53</ele>
        <time>2022-10-14T14:23:43+02:00</time>
      </trkpt>
      <trkpt lat="43.43351" lon="6.42782">
        <ele>53</ele>
        <time>2022-10-14T14:23:43+02:00</time>
      </trkpt>
      <trkpt lat="43.43351" lon="6.4279">
        <ele>53</ele>
        <time>2022-10-14T14:23:43+02:00</time>
      </trkpt>
      <trkpt lat="43.4335" lon="6.42797">
        <ele>52</ele>
        <time>2022-10-14T14:23:43+02:00</time>
      </trkpt>
      <trkpt lat="43.43349" lon="6.42804">
        <ele>52</ele>
        <time>2022-10-14T14:23:43+02:00</time>
      </trkpt>
      <trkpt lat="43.43349" lon="6.42811">
        <ele>52</ele>
        <time>2022-10-14T14:23:43+02:00</time>
      </trkpt>
      <trkpt lat="43.43349" lon="6.42818">
        <ele>52</ele>
        <time>2022-10-14T14:23:43+02:00</time>
      </trkpt>
      <trkpt lat="43.43349" lon="6.42825">
        <ele>52</ele>
        <time>2022-10-14T14:23:43+02:00</time>
      </trkpt>
      <trkpt lat="43.43349" lon="6.42831">
        <ele>52</ele>
        <time>2022-10-14T14:23:43+02:00</time>
      </trkpt>
      <trkpt lat="43.43349" lon="6.42838">
        <ele>52</ele>
        <time>2022-10-14T14:23:43+02:00</time>
      </trkpt>
      <trkpt lat="43.43348" lon="6.42845">
        <ele>52</ele>
        <time>2022-10-14T14:23:43+02:00</time>
      </trkpt>
      <trkpt lat="43.43347" lon="6.42851">
        <ele>52</ele>
        <time>2022-10-14T14:23:43+02:00</time>
      </trkpt>
      <trkpt lat="43.43347" lon="6.42857">
        <ele>52</ele>
        <time>2022-10-14T14:23:43+02:00</time>
      </trkpt>
      <trkpt lat="43.43346" lon="6.42864">
        <ele>52</ele>
        <time>2022-10-14T14:23:43+02:00</time>
      </trkpt>
      <trkpt lat="43.43346" lon="6.42871">
        <ele>52</ele>
        <time>2022-10-14T14:23:43+02:00</time>
      </trkpt>
      <trkpt lat="43.43346" lon="6.42877">
        <ele>52</ele>
        <time>2022-10-14T14:23:43+02:00</time>
      </trkpt>
      <trkpt lat="43.43346" lon="6.42884">
        <ele>51</ele>
        <time>2022-10-14T14:23:43+02:00</time>
      </trkpt>
      <trkpt lat="43.43345" lon="6.42891">
        <ele>51</ele>
        <time>2022-10-14T14:23:43+02:00</time>
      </trkpt>
      <trkpt lat="43.43345" lon="6.42897">
        <ele>51</ele>
        <time>2022-10-14T14:23:43+02:00</time>
      </trkpt>
      <trkpt lat="43.43345" lon="6.42903">
        <ele>51</ele>
        <time>2022-10-14T14:23:43+02:00</time>
      </trkpt>
      <trkpt lat="43.43345" lon="6.42909">
        <ele>52</ele>
        <time>2022-10-14T14:23:43+02:00</time>
      </trkpt>
      <trkpt lat="43.43344" lon="6.42915">
        <ele>52</ele>
        <time>2022-10-14T14:23:43+02:00</time>
      </trkpt>
      <trkpt lat="43.43344" lon="6.42921">
        <ele>52</ele>
        <time>2022-10-14T14:23:43+02:00</time>
      </trkpt>
      <trkpt lat="43.43344" lon="6.42927">
        <ele>52</ele>
        <time>2022-10-14T14:23:43+02:00</time>
      </trkpt>
      <trkpt lat="43.43343" lon="6.42934">
        <ele>51</ele>
        <time>2022-10-14T14:23:43+02:00</time>
      </trkpt>
      <trkpt lat="43.43343" lon="6.4294">
        <ele>51</ele>
        <time>2022-10-14T14:23:43+02:00</time>
      </trkpt>
      <trkpt lat="43.43342" lon="6.42946">
        <ele>51</ele>
        <time>2022-10-14T14:23:43+02:00</time>
      </trkpt>
      <trkpt lat="43.43342" lon="6.42952">
        <ele>51</ele>
        <time>2022-10-14T14:23:43+02:00</time>
      </trkpt>
      <trkpt lat="43.43341" lon="6.42957">
        <ele>52</ele>
        <time>2022-10-14T14:23:43+02:00</time>
      </trkpt>
      <trkpt lat="43.43341" lon="6.4296">
        <ele>52</ele>
        <time>2022-10-14T14:23:43+02:00</time>
      </trkpt>
      <trkpt lat="43.43342" lon="6.42963">
        <ele>52</ele>
        <time>2022-10-14T14:23:43+02:00</time>
      </trkpt>
      <trkpt lat="43.43343" lon="6.42965">
        <ele>52</ele>
        <time>2022-10-14T14:23:43+02:00</time>
      </trkpt>
      <trkpt lat="43.43345" lon="6.42967">
        <ele>52</ele>
        <time>2022-10-14T14:23:43+02:00</time>
      </trkpt>
      <trkpt lat="43.43347" lon="6.42969">
        <ele>52</ele>
        <time>2022-10-14T14:23:43+02:00</time>
      </trkpt>
      <trkpt lat="43.4335" lon="6.4297">
        <ele>52</ele>
        <time>2022-10-14T14:23:43+02:00</time>
      </trkpt>
      <trkpt lat="43.43353" lon="6.42973">
        <ele>52</ele>
        <time>2022-10-14T14:23:43+02:00</time>
      </trkpt>
      <trkpt lat="43.43355" lon="6.42976">
        <ele>52</ele>
        <time>2022-10-14T14:23:43+02:00</time>
      </trkpt>
      <trkpt lat="43.43356" lon="6.42981">
        <ele>52</ele>
        <time>2022-10-14T14:23:43+02:00</time>
      </trkpt>
      <trkpt lat="43.43356" lon="6.42986">
        <ele>52</ele>
        <time>2022-10-14T14:23:43+02:00</time>
      </trkpt>
      <trkpt lat="43.43356" lon="6.42991">
        <ele>52</ele>
        <time>2022-10-14T14:23:43+02:00</time>
      </trkpt>
      <trkpt lat="43.43355" lon="6.42996">
        <ele>52</ele>
        <time>2022-10-14T14:23:43+02:00</time>
      </trkpt>
      <trkpt lat="43.43354" lon="6.43002">
        <ele>52</ele>
        <time>2022-10-14T14:23:43+02:00</time>
      </trkpt>
      <trkpt lat="43.43353" lon="6.43007">
        <ele>52</ele>
        <time>2022-10-14T14:23:43+02:00</time>
      </trkpt>
      <trkpt lat="43.43352" lon="6.43013">
        <ele>52</ele>
        <time>2022-10-14T14:23:43+02:00</time>
      </trkpt>
      <trkpt lat="43.43352" lon="6.43019">
        <ele>52</ele>
        <time>2022-10-14T14:23:43+02:00</time>
      </trkpt>
      <trkpt lat="43.43351" lon="6.43025">
        <ele>52</ele>
        <time>2022-10-14T14:23:43+02:00</time>
      </trkpt>
      <trkpt lat="43.4335" lon="6.43031">
        <ele>52</ele>
        <time>2022-10-14T14:23:43+02:00</time>
      </trkpt>
      <trkpt lat="43.43349" lon="6.43037">
        <ele>52</ele>
        <time>2022-10-14T14:23:43+02:00</time>
      </trkpt>
      <trkpt lat="43.43348" lon="6.43043">
        <ele>52</ele>
        <time>2022-10-14T14:23:43+02:00</time>
      </trkpt>
      <trkpt lat="43.43347" lon="6.4305">
        <ele>52</ele>
        <time>2022-10-14T14:23:43+02:00</time>
      </trkpt>
      <trkpt lat="43.43347" lon="6.43056">
        <ele>52</ele>
        <time>2022-10-14T14:23:43+02:00</time>
      </trkpt>
      <trkpt lat="43.43346" lon="6.43062">
        <ele>52</ele>
        <time>2022-10-14T14:23:43+02:00</time>
      </trkpt>
      <trkpt lat="43.43345" lon="6.43069">
        <ele>51</ele>
        <time>2022-10-14T14:23:43+02:00</time>
      </trkpt>
      <trkpt lat="43.43344" lon="6.43075">
        <ele>51</ele>
        <time>2022-10-14T14:23:43+02:00</time>
      </trkpt>
      <trkpt lat="43.43344" lon="6.43081">
        <ele>51</ele>
        <time>2022-10-14T14:23:43+02:00</time>
      </trkpt>
      <trkpt lat="43.43342" lon="6.43087">
        <ele>52</ele>
        <time>2022-10-14T14:23:43+02:00</time>
      </trkpt>
      <trkpt lat="43.43342" lon="6.43094">
        <ele>52</ele>
        <time>2022-10-14T14:23:43+02:00</time>
      </trkpt>
      <trkpt lat="43.43341" lon="6.431">
        <ele>52</ele>
        <time>2022-10-14T14:23:43+02:00</time>
      </trkpt>
      <trkpt lat="43.43341" lon="6.43106">
        <ele>52</ele>
        <time>2022-10-14T14:23:43+02:00</time>
      </trkpt>
      <trkpt lat="43.4334" lon="6.43113">
        <ele>52</ele>
        <time>2022-10-14T14:23:43+02:00</time>
      </trkpt>
      <trkpt lat="43.43339" lon="6.43119">
        <ele>53</ele>
        <time>2022-10-14T14:23:43+02:00</time>
      </trkpt>
      <trkpt lat="43.43337" lon="6.43125">
        <ele>53</ele>
        <time>2022-10-14T14:23:43+02:00</time>
      </trkpt>
      <trkpt lat="43.43337" lon="6.43132">
        <ele>53</ele>
        <time>2022-10-14T14:23:43+02:00</time>
      </trkpt>
      <trkpt lat="43.43336" lon="6.43138">
        <ele>53</ele>
        <time>2022-10-14T14:23:43+02:00</time>
      </trkpt>
      <trkpt lat="43.43335" lon="6.43145">
        <ele>53</ele>
        <time>2022-10-14T14:23:43+02:00</time>
      </trkpt>
      <trkpt lat="43.43334" lon="6.43151">
        <ele>53</ele>
        <time>2022-10-14T14:23:43+02:00</time>
      </trkpt>
      <trkpt lat="43.43333" lon="6.43157">
        <ele>53</ele>
        <time>2022-10-14T14:23:43+02:00</time>
      </trkpt>
      <trkpt lat="43.43332" lon="6.43163">
        <ele>53</ele>
        <time>2022-10-14T14:23:43+02:00</time>
      </trkpt>
      <trkpt lat="43.43331" lon="6.43169">
        <ele>53</ele>
        <time>2022-10-14T14:23:43+02:00</time>
      </trkpt>
      <trkpt lat="43.4333" lon="6.43176">
        <ele>53</ele>
        <time>2022-10-14T14:23:43+02:00</time>
      </trkpt>
      <trkpt lat="43.4333" lon="6.43182">
        <ele>53</ele>
        <time>2022-10-14T14:23:43+02:00</time>
      </trkpt>
      <trkpt lat="43.43329" lon="6.43189">
        <ele>53</ele>
        <time>2022-10-14T14:23:43+02:00</time>
      </trkpt>
      <trkpt lat="43.43328" lon="6.43195">
        <ele>54</ele>
        <time>2022-10-14T14:23:43+02:00</time>
      </trkpt>
      <trkpt lat="43.43327" lon="6.43201">
        <ele>54</ele>
        <time>2022-10-14T14:23:43+02:00</time>
      </trkpt>
      <trkpt lat="43.43326" lon="6.43207">
        <ele>54</ele>
        <time>2022-10-14T14:23:43+02:00</time>
      </trkpt>
      <trkpt lat="43.43325" lon="6.43213">
        <ele>54</ele>
        <time>2022-10-14T14:23:43+02:00</time>
      </trkpt>
      <trkpt lat="43.43325" lon="6.43219">
        <ele>54</ele>
        <time>2022-10-14T14:23:43+02:00</time>
      </trkpt>
      <trkpt lat="43.43324" lon="6.43225">
        <ele>54</ele>
        <time>2022-10-14T14:23:43+02:00</time>
      </trkpt>
      <trkpt lat="43.43323" lon="6.43232">
        <ele>54</ele>
        <time>2022-10-14T14:23:43+02:00</time>
      </trkpt>
      <trkpt lat="43.43323" lon="6.43238">
        <ele>54</ele>
        <time>2022-10-14T14:23:43+02:00</time>
      </trkpt>
      <trkpt lat="43.43323" lon="6.43244">
        <ele>54</ele>
        <time>2022-10-14T14:23:43+02:00</time>
      </trkpt>
      <trkpt lat="43.43323" lon="6.43249">
        <ele>54</ele>
        <time>2022-10-14T14:23:43+02:00</time>
      </trkpt>
      <trkpt lat="43.43323" lon="6.43255">
        <ele>54</ele>
        <time>2022-10-14T14:23:43+02:00</time>
      </trkpt>
      <trkpt lat="43.43322" lon="6.4326">
        <ele>54</ele>
        <time>2022-10-14T14:23:43+02:00</time>
      </trkpt>
      <trkpt lat="43.43322" lon="6.43265">
        <ele>54</ele>
        <time>2022-10-14T14:23:43+02:00</time>
      </trkpt>
      <trkpt lat="43.43322" lon="6.4327">
        <ele>54</ele>
        <time>2022-10-14T14:23:43+02:00</time>
      </trkpt>
      <trkpt lat="43.43322" lon="6.43274">
        <ele>54</ele>
        <time>2022-10-14T14:23:43+02:00</time>
      </trkpt>
      <trkpt lat="43.43322" lon="6.43277">
        <ele>55</ele>
        <time>2022-10-14T14:23:43+02:00</time>
      </trkpt>
      <trkpt lat="43.43324" lon="6.4328">
        <ele>54</ele>
        <time>2022-10-14T14:23:43+02:00</time>
      </trkpt>
      <trkpt lat="43.43327" lon="6.43281">
        <ele>54</ele>
        <time>2022-10-14T14:23:43+02:00</time>
      </trkpt>
      <trkpt lat="43.4333" lon="6.43282">
        <ele>54</ele>
        <time>2022-10-14T14:23:43+02:00</time>
      </trkpt>
      <trkpt lat="43.43334" lon="6.43282">
        <ele>54</ele>
        <time>2022-10-14T14:23:43+02:00</time>
      </trkpt>
      <trkpt lat="43.43338" lon="6.43281">
        <ele>54</ele>
        <time>2022-10-14T14:23:43+02:00</time>
      </trkpt>
      <trkpt lat="43.43341" lon="6.43281">
        <ele>54</ele>
        <time>2022-10-14T14:23:43+02:00</time>
      </trkpt>
      <trkpt lat="43.43346" lon="6.43281">
        <ele>54</ele>
        <time>2022-10-14T14:23:43+02:00</time>
      </trkpt>
      <trkpt lat="43.4335" lon="6.43282">
        <ele>54</ele>
        <time>2022-10-14T14:23:43+02:00</time>
      </trkpt>
      <trkpt lat="43.43354" lon="6.43282">
        <ele>53</ele>
        <time>2022-10-14T14:23:43+02:00</time>
      </trkpt>
      <trkpt lat="43.43358" lon="6.43282">
        <ele>53</ele>
        <time>2022-10-14T14:23:43+02:00</time>
      </trkpt>
      <trkpt lat="43.43363" lon="6.43282">
        <ele>53</ele>
        <time>2022-10-14T14:23:43+02:00</time>
      </trkpt>
      <trkpt lat="43.43367" lon="6.43282">
        <ele>54</ele>
        <time>2022-10-14T14:23:43+02:00</time>
      </trkpt>
      <trkpt lat="43.4337" lon="6.43282">
        <ele>56</ele>
        <time>2022-10-14T14:23:43+02:00</time>
      </trkpt>
      <trkpt lat="43.43372" lon="6.43283">
        <ele>56</ele>
        <time>2022-10-14T14:23:43+02:00</time>
      </trkpt>
      <trkpt lat="43.43373" lon="6.43285">
        <ele>56</ele>
        <time>2022-10-14T14:23:43+02:00</time>
      </trkpt>
      <trkpt lat="43.43373" lon="6.43289">
        <ele>56</ele>
        <time>2022-10-14T14:23:43+02:00</time>
      </trkpt>
      <trkpt lat="43.43372" lon="6.43293">
        <ele>56</ele>
        <time>2022-10-14T14:23:43+02:00</time>
      </trkpt>
      <trkpt lat="43.43372" lon="6.43296">
        <ele>56</ele>
        <time>2022-10-14T14:23:43+02:00</time>
      </trkpt>
      <trkpt lat="43.43373" lon="6.43299">
        <ele>56</ele>
        <time>2022-10-14T14:23:43+02:00</time>
      </trkpt>
      <trkpt lat="43.43375" lon="6.43305">
        <ele>55</ele>
        <time>2022-10-14T14:23:43+02:00</time>
      </trkpt>
      <trkpt lat="43.43372" lon="6.43309">
        <ele>55</ele>
        <time>2022-10-14T14:23:43+02:00</time>
      </trkpt>
      <trkpt lat="43.43371" lon="6.43315">
        <ele>55</ele>
        <time>2022-10-14T14:23:43+02:00</time>
      </trkpt>
      <trkpt lat="43.43369" lon="6.43321">
        <ele>55</ele>
        <time>2022-10-14T14:23:43+02:00</time>
      </trkpt>
      <trkpt lat="43.43367" lon="6.43326">
        <ele>55</ele>
        <time>2022-10-14T14:23:43+02:00</time>
      </trkpt>
      <trkpt lat="43.43365" lon="6.43333">
        <ele>56</ele>
        <time>2022-10-14T14:23:43+02:00</time>
      </trkpt>
      <trkpt lat="43.43363" lon="6.43338">
        <ele>56</ele>
        <time>2022-10-14T14:23:43+02:00</time>
      </trkpt>
      <trkpt lat="43.43362" lon="6.43344">
        <ele>56</ele>
        <time>2022-10-14T14:23:43+02:00</time>
      </trkpt>
      <trkpt lat="43.43361" lon="6.43349">
        <ele>56</ele>
        <time>2022-10-14T14:23:43+02:00</time>
      </trkpt>
      <trkpt lat="43.4336" lon="6.43354">
        <ele>57</ele>
        <time>2022-10-14T14:23:43+02:00</time>
      </trkpt>
      <trkpt lat="43.43359" lon="6.43359">
        <ele>57</ele>
        <time>2022-10-14T14:23:43+02:00</time>
      </trkpt>
      <trkpt lat="43.43358" lon="6.43365">
        <ele>57</ele>
        <time>2022-10-14T14:23:43+02:00</time>
      </trkpt>
      <trkpt lat="43.43356" lon="6.43371">
        <ele>57</ele>
        <time>2022-10-14T14:23:43+02:00</time>
      </trkpt>
      <trkpt lat="43.43355" lon="6.43376">
        <ele>57</ele>
        <time>2022-10-14T14:23:43+02:00</time>
      </trkpt>
      <trkpt lat="43.43353" lon="6.43382">
        <ele>57</ele>
        <time>2022-10-14T14:23:43+02:00</time>
      </trkpt>
      <trkpt lat="43.4335" lon="6.43386">
        <ele>57</ele>
        <time>2022-10-14T14:23:43+02:00</time>
      </trkpt>
      <trkpt lat="43.43345" lon="6.43388">
        <ele>57</ele>
        <time>2022-10-14T14:23:43+02:00</time>
      </trkpt>
      <trkpt lat="43.4334" lon="6.43387">
        <ele>57</ele>
        <time>2022-10-14T14:23:43+02:00</time>
      </trkpt>
      <trkpt lat="43.43336" lon="6.43385">
        <ele>57</ele>
        <time>2022-10-14T14:23:43+02:00</time>
      </trkpt>
      <trkpt lat="43.43331" lon="6.43383">
        <ele>57</ele>
        <time>2022-10-14T14:23:43+02:00</time>
      </trkpt>
      <trkpt lat="43.43327" lon="6.4338">
        <ele>56</ele>
        <time>2022-10-14T14:23:43+02:00</time>
      </trkpt>
      <trkpt lat="43.43323" lon="6.43377">
        <ele>56</ele>
        <time>2022-10-14T14:23:43+02:00</time>
      </trkpt>
      <trkpt lat="43.43319" lon="6.43374">
        <ele>56</ele>
        <time>2022-10-14T14:23:43+02:00</time>
      </trkpt>
      <trkpt lat="43.43315" lon="6.43371">
        <ele>56</ele>
        <time>2022-10-14T14:23:43+02:00</time>
      </trkpt>
      <trkpt lat="43.43311" lon="6.43367">
        <ele>56</ele>
        <time>2022-10-14T14:23:43+02:00</time>
      </trkpt>
      <trkpt lat="43.43307" lon="6.43364">
        <ele>56</ele>
        <time>2022-10-14T14:23:43+02:00</time>
      </trkpt>
      <trkpt lat="43.43303" lon="6.43361">
        <ele>56</ele>
        <time>2022-10-14T14:23:43+02:00</time>
      </trkpt>
      <trkpt lat="43.43299" lon="6.43357">
        <ele>56</ele>
        <time>2022-10-14T14:23:43+02:00</time>
      </trkpt>
      <trkpt lat="43.43295" lon="6.43354">
        <ele>56</ele>
        <time>2022-10-14T14:23:43+02:00</time>
      </trkpt>
      <trkpt lat="43.43291" lon="6.43351">
        <ele>56</ele>
        <time>2022-10-14T14:23:43+02:00</time>
      </trkpt>
      <trkpt lat="43.43287" lon="6.43349">
        <ele>56</ele>
        <time>2022-10-14T14:23:43+02:00</time>
      </trkpt>
      <trkpt lat="43.43283" lon="6.43346">
        <ele>56</ele>
        <time>2022-10-14T14:23:43+02:00</time>
      </trkpt>
      <trkpt lat="43.43279" lon="6.43344">
        <ele>56</ele>
        <time>2022-10-14T14:23:43+02:00</time>
      </trkpt>
      <trkpt lat="43.43274" lon="6.43343">
        <ele>58</ele>
        <time>2022-10-14T14:23:43+02:00</time>
      </trkpt>
      <trkpt lat="43.4327" lon="6.43342">
        <ele>58</ele>
        <time>2022-10-14T14:23:43+02:00</time>
      </trkpt>
      <trkpt lat="43.43265" lon="6.43341">
        <ele>58</ele>
        <time>2022-10-14T14:23:43+02:00</time>
      </trkpt>
      <trkpt lat="43.43261" lon="6.43341">
        <ele>59</ele>
        <time>2022-10-14T14:23:43+02:00</time>
      </trkpt>
      <trkpt lat="43.43257" lon="6.43341">
        <ele>60</ele>
        <time>2022-10-14T14:23:43+02:00</time>
      </trkpt>
      <trkpt lat="43.43253" lon="6.43342">
        <ele>60</ele>
        <time>2022-10-14T14:23:43+02:00</time>
      </trkpt>
      <trkpt lat="43.43249" lon="6.43343">
        <ele>60</ele>
        <time>2022-10-14T14:23:43+02:00</time>
      </trkpt>
      <trkpt lat="43.43245" lon="6.43344">
        <ele>60</ele>
        <time>2022-10-14T14:23:43+02:00</time>
      </trkpt>
      <trkpt lat="43.43242" lon="6.43346">
        <ele>60</ele>
        <time>2022-10-14T14:23:43+02:00</time>
      </trkpt>
      <trkpt lat="43.43238" lon="6.43347">
        <ele>60</ele>
        <time>2022-10-14T14:23:43+02:00</time>
      </trkpt>
      <trkpt lat="43.43234" lon="6.43349">
        <ele>60</ele>
        <time>2022-10-14T14:23:43+02:00</time>
      </trkpt>
      <trkpt lat="43.4323" lon="6.4335">
        <ele>61</ele>
        <time>2022-10-14T14:23:43+02:00</time>
      </trkpt>
      <trkpt lat="43.43227" lon="6.43352">
        <ele>62</ele>
        <time>2022-10-14T14:23:43+02:00</time>
      </trkpt>
      <trkpt lat="43.43223" lon="6.43353">
        <ele>62</ele>
        <time>2022-10-14T14:23:43+02:00</time>
      </trkpt>
      <trkpt lat="43.43219" lon="6.43354">
        <ele>62</ele>
        <time>2022-10-14T14:23:43+02:00</time>
      </trkpt>
      <trkpt lat="43.43215" lon="6.43355">
        <ele>63</ele>
        <time>2022-10-14T14:23:43+02:00</time>
      </trkpt>
      <trkpt lat="43.43212" lon="6.43356">
        <ele>63</ele>
        <time>2022-10-14T14:23:43+02:00</time>
      </trkpt>
      <trkpt lat="43.43208" lon="6.43358">
        <ele>63</ele>
        <time>2022-10-14T14:23:43+02:00</time>
      </trkpt>
      <trkpt lat="43.43205" lon="6.43359">
        <ele>63</ele>
        <time>2022-10-14T14:23:43+02:00</time>
      </trkpt>
      <trkpt lat="43.43202" lon="6.4336">
        <ele>64</ele>
        <time>2022-10-14T14:23:43+02:00</time>
      </trkpt>
      <trkpt lat="43.43199" lon="6.43362">
        <ele>65</ele>
        <time>2022-10-14T14:23:43+02:00</time>
      </trkpt>
      <trkpt lat="43.43195" lon="6.43363">
        <ele>65</ele>
        <time>2022-10-14T14:23:43+02:00</time>
      </trkpt>
      <trkpt lat="43.43191" lon="6.43364">
        <ele>65</ele>
        <time>2022-10-14T14:23:43+02:00</time>
      </trkpt>
      <trkpt lat="43.43187" lon="6.43365">
        <ele>65</ele>
        <time>2022-10-14T14:23:43+02:00</time>
      </trkpt>
      <trkpt lat="43.43183" lon="6.43367">
        <ele>64</ele>
        <time>2022-10-14T14:23:43+02:00</time>
      </trkpt>
      <trkpt lat="43.43179" lon="6.43369">
        <ele>64</ele>
        <time>2022-10-14T14:23:43+02:00</time>
      </trkpt>
      <trkpt lat="43.43175" lon="6.43371">
        <ele>64</ele>
        <time>2022-10-14T14:23:43+02:00</time>
      </trkpt>
      <trkpt lat="43.4317" lon="6.43372">
        <ele>64</ele>
        <time>2022-10-14T14:23:43+02:00</time>
      </trkpt>
      <trkpt lat="43.43166" lon="6.43374">
        <ele>64</ele>
        <time>2022-10-14T14:23:43+02:00</time>
      </trkpt>
      <trkpt lat="43.43161" lon="6.43375">
        <ele>64</ele>
        <time>2022-10-14T14:23:43+02:00</time>
      </trkpt>
      <trkpt lat="43.43157" lon="6.43377">
        <ele>64</ele>
        <time>2022-10-14T14:23:43+02:00</time>
      </trkpt>
      <trkpt lat="43.43152" lon="6.43379">
        <ele>63</ele>
        <time>2022-10-14T14:23:43+02:00</time>
      </trkpt>
      <trkpt lat="43.43148" lon="6.43381">
        <ele>62</ele>
        <time>2022-10-14T14:23:43+02:00</time>
      </trkpt>
      <trkpt lat="43.43144" lon="6.43383">
        <ele>62</ele>
        <time>2022-10-14T14:23:43+02:00</time>
      </trkpt>
      <trkpt lat="43.43139" lon="6.43385">
        <ele>62</ele>
        <time>2022-10-14T14:23:43+02:00</time>
      </trkpt>
      <trkpt lat="43.43135" lon="6.43388">
        <ele>63</ele>
        <time>2022-10-14T14:23:43+02:00</time>
      </trkpt>
      <trkpt lat="43.4313" lon="6.43391">
        <ele>63</ele>
        <time>2022-10-14T14:23:43+02:00</time>
      </trkpt>
      <trkpt lat="43.43126" lon="6.43394">
        <ele>63</ele>
        <time>2022-10-14T14:23:43+02:00</time>
      </trkpt>
      <trkpt lat="43.43122" lon="6.43397">
        <ele>63</ele>
        <time>2022-10-14T14:23:43+02:00</time>
      </trkpt>
      <trkpt lat="43.43118" lon="6.43401">
        <ele>63</ele>
        <time>2022-10-14T14:23:43+02:00</time>
      </trkpt>
      <trkpt lat="43.43114" lon="6.43405">
        <ele>64</ele>
        <time>2022-10-14T14:23:43+02:00</time>
      </trkpt>
      <trkpt lat="43.43111" lon="6.43409">
        <ele>64</ele>
        <time>2022-10-14T14:23:43+02:00</time>
      </trkpt>
      <trkpt lat="43.43107" lon="6.43415">
        <ele>64</ele>
        <time>2022-10-14T14:23:43+02:00</time>
      </trkpt>
      <trkpt lat="43.43104" lon="6.43421">
        <ele>63</ele>
        <time>2022-10-14T14:23:43+02:00</time>
      </trkpt>
      <trkpt lat="43.431" lon="6.43427">
        <ele>61</ele>
        <time>2022-10-14T14:23:43+02:00</time>
      </trkpt>
      <trkpt lat="43.43097" lon="6.43434">
        <ele>61</ele>
        <time>2022-10-14T14:23:43+02:00</time>
      </trkpt>
      <trkpt lat="43.43094" lon="6.43441">
        <ele>61</ele>
        <time>2022-10-14T14:23:43+02:00</time>
      </trkpt>
      <trkpt lat="43.43091" lon="6.43449">
        <ele>60</ele>
        <time>2022-10-14T14:23:43+02:00</time>
      </trkpt>
      <trkpt lat="43.43088" lon="6.43456">
        <ele>60</ele>
        <time>2022-10-14T14:23:43+02:00</time>
      </trkpt>
      <trkpt lat="43.43085" lon="6.43464">
        <ele>60</ele>
        <time>2022-10-14T14:23:43+02:00</time>
      </trkpt>
      <trkpt lat="43.43083" lon="6.43472">
        <ele>60</ele>
        <time>2022-10-14T14:23:43+02:00</time>
      </trkpt>
      <trkpt lat="43.4308" lon="6.43479">
        <ele>60</ele>
        <time>2022-10-14T14:23:43+02:00</time>
      </trkpt>
      <trkpt lat="43.43078" lon="6.43486">
        <ele>60</ele>
        <time>2022-10-14T14:23:43+02:00</time>
      </trkpt>
      <trkpt lat="43.43075" lon="6.43492">
        <ele>60</ele>
        <time>2022-10-14T14:23:43+02:00</time>
      </trkpt>
      <trkpt lat="43.43073" lon="6.43497">
        <ele>60</ele>
        <time>2022-10-14T14:23:43+02:00</time>
      </trkpt>
      <trkpt lat="43.4307" lon="6.43502">
        <ele>61</ele>
        <time>2022-10-14T14:23:43+02:00</time>
      </trkpt>
      <trkpt lat="43.43067" lon="6.43505">
        <ele>60</ele>
        <time>2022-10-14T14:23:43+02:00</time>
      </trkpt>
      <trkpt lat="43.43065" lon="6.43508">
        <ele>60</ele>
        <time>2022-10-14T14:23:43+02:00</time>
      </trkpt>
      <trkpt lat="43.43063" lon="6.4351">
        <ele>60</ele>
        <time>2022-10-14T14:23:43+02:00</time>
      </trkpt>
      <trkpt lat="43.43063" lon="6.43511">
        <ele>60</ele>
        <time>2022-10-14T14:23:43+02:00</time>
      </trkpt>
      <trkpt lat="43.43062" lon="6.43512">
        <ele>60</ele>
        <time>2022-10-14T14:23:43+02:00</time>
      </trkpt>
      <trkpt lat="43.43062" lon="6.43512">
        <ele>60</ele>
        <time>2022-10-14T14:23:43+02:00</time>
      </trkpt>
      <trkpt lat="43.43062" lon="6.43512">
        <ele>60</ele>
        <time>2022-10-14T14:23:43+02:00</time>
      </trkpt>
      <trkpt lat="43.43062" lon="6.43512">
        <ele>60</ele>
        <time>2022-10-14T14:23:43+02:00</time>
      </trkpt>
      <trkpt lat="43.43062" lon="6.43512">
        <ele>60</ele>
        <time>2022-10-14T14:23:43+02:00</time>
      </trkpt>
      <trkpt lat="43.43062" lon="6.43512">
        <ele>60</ele>
        <time>2022-10-14T14:23:43+02:00</time>
      </trkpt>
      <trkpt lat="43.43062" lon="6.43512">
        <ele>60</ele>
        <time>2022-10-14T14:23:43+02:00</time>
      </trkpt>
      <trkpt lat="43.43062" lon="6.43512">
        <ele>60</ele>
        <time>2022-10-14T14:23:43+02:00</time>
      </trkpt>
      <trkpt lat="43.43062" lon="6.43512">
        <ele>61</ele>
        <time>2022-10-14T14:23:43+02:00</time>
      </trkpt>
      <trkpt lat="43.43062" lon="6.43512">
        <ele>61</ele>
        <time>2022-10-14T14:23:43+02:00</time>
      </trkpt>
      <trkpt lat="43.43062" lon="6.43512">
        <ele>61</ele>
        <time>2022-10-14T14:23:43+02:00</time>
      </trkpt>
      <trkpt lat="43.43062" lon="6.43512">
        <ele>61</ele>
        <time>2022-10-14T14:23:43+02:00</time>
      </trkpt>
      <trkpt lat="43.43062" lon="6.43512">
        <ele>60</ele>
        <time>2022-10-14T14:23:43+02:00</time>
      </trkpt>
      <trkpt lat="43.43062" lon="6.43512">
        <ele>60</ele>
        <time>2022-10-14T14:23:43+02:00</time>
      </trkpt>
      <trkpt lat="43.43062" lon="6.43512">
        <ele>60</ele>
        <time>2022-10-14T14:23:43+02:00</time>
      </trkpt>
      <trkpt lat="43.43062" lon="6.43513">
        <ele>60</ele>
        <time>2022-10-14T14:23:43+02:00</time>
      </trkpt>
      <trkpt lat="43.43061" lon="6.43516">
        <ele>60</ele>
        <time>2022-10-14T14:23:43+02:00</time>
      </trkpt>
      <trkpt lat="43.43059" lon="6.43518">
        <ele>60</ele>
        <time>2022-10-14T14:23:43+02:00</time>
      </trkpt>
      <trkpt lat="43.43055" lon="6.4352">
        <ele>60</ele>
        <time>2022-10-14T14:23:43+02:00</time>
      </trkpt>
      <trkpt lat="43.43051" lon="6.43522">
        <ele>59</ele>
        <time>2022-10-14T14:23:43+02:00</time>
      </trkpt>
      <trkpt lat="43.43047" lon="6.43525">
        <ele>58</ele>
        <time>2022-10-14T14:23:43+02:00</time>
      </trkpt>
      <trkpt lat="43.43043" lon="6.43529">
        <ele>58</ele>
        <time>2022-10-14T14:23:43+02:00</time>
      </trkpt>
      <trkpt lat="43.43039" lon="6.43534">
        <ele>58</ele>
        <time>2022-10-14T14:23:43+02:00</time>
      </trkpt>
      <trkpt lat="43.43035" lon="6.43539">
        <ele>58</ele>
        <time>2022-10-14T14:23:43+02:00</time>
      </trkpt>
      <trkpt lat="43.43031" lon="6.43545">
        <ele>59</ele>
        <time>2022-10-14T14:23:43+02:00</time>
      </trkpt>
      <trkpt lat="43.43027" lon="6.4355">
        <ele>59</ele>
        <time>2022-10-14T14:23:43+02:00</time>
      </trkpt>
      <trkpt lat="43.43023" lon="6.43556">
        <ele>59</ele>
        <time>2022-10-14T14:23:43+02:00</time>
      </trkpt>
      <trkpt lat="43.4302" lon="6.43562">
        <ele>59</ele>
        <time>2022-10-14T14:23:43+02:00</time>
      </trkpt>
      <trkpt lat="43.43016" lon="6.43568">
        <ele>59</ele>
        <time>2022-10-14T14:23:43+02:00</time>
      </trkpt>
      <trkpt lat="43.43012" lon="6.43574">
        <ele>59</ele>
        <time>2022-10-14T14:23:43+02:00</time>
      </trkpt>
      <trkpt lat="43.43008" lon="6.43581">
        <ele>59</ele>
        <time>2022-10-14T14:23:43+02:00</time>
      </trkpt>
      <trkpt lat="43.43004" lon="6.43587">
        <ele>58</ele>
        <time>2022-10-14T14:23:43+02:00</time>
      </trkpt>
      <trkpt lat="43.43001" lon="6.43594">
        <ele>58</ele>
        <time>2022-10-14T14:23:43+02:00</time>
      </trkpt>
      <trkpt lat="43.42997" lon="6.43601">
        <ele>58</ele>
        <time>2022-10-14T14:23:43+02:00</time>
      </trkpt>
      <trkpt lat="43.42993" lon="6.43607">
        <ele>58</ele>
        <time>2022-10-14T14:23:43+02:00</time>
      </trkpt>
      <trkpt lat="43.42991" lon="6.43614">
        <ele>58</ele>
        <time>2022-10-14T14:23:43+02:00</time>
      </trkpt>
      <trkpt lat="43.42987" lon="6.43622">
        <ele>58</ele>
        <time>2022-10-14T14:23:43+02:00</time>
      </trkpt>
      <trkpt lat="43.42985" lon="6.43629">
        <ele>58</ele>
        <time>2022-10-14T14:23:43+02:00</time>
      </trkpt>
      <trkpt lat="43.42982" lon="6.43637">
        <ele>58</ele>
        <time>2022-10-14T14:23:43+02:00</time>
      </trkpt>
      <trkpt lat="43.42979" lon="6.43645">
        <ele>57</ele>
        <time>2022-10-14T14:23:43+02:00</time>
      </trkpt>
      <trkpt lat="43.42977" lon="6.43653">
        <ele>58</ele>
        <time>2022-10-14T14:23:43+02:00</time>
      </trkpt>
      <trkpt lat="43.42974" lon="6.43661">
        <ele>58</ele>
        <time>2022-10-14T14:23:43+02:00</time>
      </trkpt>
      <trkpt lat="43.42972" lon="6.43669">
        <ele>58</ele>
        <time>2022-10-14T14:23:43+02:00</time>
      </trkpt>
      <trkpt lat="43.42969" lon="6.43677">
        <ele>58</ele>
        <time>2022-10-14T14:23:43+02:00</time>
      </trkpt>
      <trkpt lat="43.42967" lon="6.43685">
        <ele>58</ele>
        <time>2022-10-14T14:23:43+02:00</time>
      </trkpt>
      <trkpt lat="43.42965" lon="6.43693">
        <ele>58</ele>
        <time>2022-10-14T14:23:43+02:00</time>
      </trkpt>
      <trkpt lat="43.42963" lon="6.43701">
        <ele>58</ele>
        <time>2022-10-14T14:23:43+02:00</time>
      </trkpt>
      <trkpt lat="43.42962" lon="6.43709">
        <ele>59</ele>
        <time>2022-10-14T14:23:43+02:00</time>
      </trkpt>
      <trkpt lat="43.4296" lon="6.43717">
        <ele>59</ele>
        <time>2022-10-14T14:23:43+02:00</time>
      </trkpt>
      <trkpt lat="43.42958" lon="6.43725">
        <ele>59</ele>
        <time>2022-10-14T14:23:43+02:00</time>
      </trkpt>
      <trkpt lat="43.42957" lon="6.43732">
        <ele>59</ele>
        <time>2022-10-14T14:23:43+02:00</time>
      </trkpt>
      <trkpt lat="43.42956" lon="6.43741">
        <ele>60</ele>
        <time>2022-10-14T14:23:43+02:00</time>
      </trkpt>
      <trkpt lat="43.42955" lon="6.43749">
        <ele>61</ele>
        <time>2022-10-14T14:23:43+02:00</time>
      </trkpt>
      <trkpt lat="43.42954" lon="6.43757">
        <ele>61</ele>
        <time>2022-10-14T14:23:43+02:00</time>
      </trkpt>
      <trkpt lat="43.42953" lon="6.43766">
        <ele>61</ele>
        <time>2022-10-14T14:23:43+02:00</time>
      </trkpt>
      <trkpt lat="43.42952" lon="6.43774">
        <ele>60</ele>
        <time>2022-10-14T14:23:43+02:00</time>
      </trkpt>
      <trkpt lat="43.42952" lon="6.43783">
        <ele>59</ele>
        <time>2022-10-14T14:23:43+02:00</time>
      </trkpt>
      <trkpt lat="43.42951" lon="6.43791">
        <ele>59</ele>
        <time>2022-10-14T14:23:43+02:00</time>
      </trkpt>
      <trkpt lat="43.42952" lon="6.438">
        <ele>59</ele>
        <time>2022-10-14T14:23:43+02:00</time>
      </trkpt>
      <trkpt lat="43.42952" lon="6.43808">
        <ele>60</ele>
        <time>2022-10-14T14:23:43+02:00</time>
      </trkpt>
      <trkpt lat="43.42952" lon="6.43817">
        <ele>61</ele>
        <time>2022-10-14T14:23:43+02:00</time>
      </trkpt>
      <trkpt lat="43.42953" lon="6.43825">
        <ele>61</ele>
        <time>2022-10-14T14:23:43+02:00</time>
      </trkpt>
      <trkpt lat="43.42953" lon="6.43833">
        <ele>61</ele>
        <time>2022-10-14T14:23:43+02:00</time>
      </trkpt>
      <trkpt lat="43.42954" lon="6.43841">
        <ele>61</ele>
        <time>2022-10-14T14:23:43+02:00</time>
      </trkpt>
      <trkpt lat="43.42954" lon="6.43849">
        <ele>60</ele>
        <time>2022-10-14T14:23:43+02:00</time>
      </trkpt>
      <trkpt lat="43.42954" lon="6.43857">
        <ele>60</ele>
        <time>2022-10-14T14:23:43+02:00</time>
      </trkpt>
      <trkpt lat="43.42954" lon="6.43865">
        <ele>60</ele>
        <time>2022-10-14T14:23:43+02:00</time>
      </trkpt>
      <trkpt lat="43.42955" lon="6.43872">
        <ele>61</ele>
        <time>2022-10-14T14:23:43+02:00</time>
      </trkpt>
      <trkpt lat="43.42955" lon="6.43879">
        <ele>62</ele>
        <time>2022-10-14T14:23:43+02:00</time>
      </trkpt>
      <trkpt lat="43.42955" lon="6.43887">
        <ele>62</ele>
        <time>2022-10-14T14:23:43+02:00</time>
      </trkpt>
      <trkpt lat="43.42955" lon="6.43894">
        <ele>62</ele>
        <time>2022-10-14T14:23:43+02:00</time>
      </trkpt>
      <trkpt lat="43.42954" lon="6.43902">
        <ele>62</ele>
        <time>2022-10-14T14:23:43+02:00</time>
      </trkpt>
      <trkpt lat="43.42953" lon="6.43909">
        <ele>62</ele>
        <time>2022-10-14T14:23:43+02:00</time>
      </trkpt>
      <trkpt lat="43.42952" lon="6.43916">
        <ele>62</ele>
        <time>2022-10-14T14:23:43+02:00</time>
      </trkpt>
      <trkpt lat="43.42951" lon="6.43924">
        <ele>62</ele>
        <time>2022-10-14T14:23:43+02:00</time>
      </trkpt>
      <trkpt lat="43.4295" lon="6.43931">
        <ele>62</ele>
        <time>2022-10-14T14:23:43+02:00</time>
      </trkpt>
      <trkpt lat="43.42948" lon="6.43939">
        <ele>62</ele>
        <time>2022-10-14T14:23:43+02:00</time>
      </trkpt>
      <trkpt lat="43.42947" lon="6.43947">
        <ele>62</ele>
        <time>2022-10-14T14:23:43+02:00</time>
      </trkpt>
      <trkpt lat="43.42945" lon="6.43954">
        <ele>62</ele>
        <time>2022-10-14T14:23:43+02:00</time>
      </trkpt>
      <trkpt lat="43.42941" lon="6.4396">
        <ele>62</ele>
        <time>2022-10-14T14:23:43+02:00</time>
      </trkpt>
      <trkpt lat="43.42937" lon="6.43967">
        <ele>62</ele>
        <time>2022-10-14T14:23:43+02:00</time>
      </trkpt>
      <trkpt lat="43.42933" lon="6.43972">
        <ele>62</ele>
        <time>2022-10-14T14:23:43+02:00</time>
      </trkpt>
      <trkpt lat="43.42928" lon="6.43978">
        <ele>62</ele>
        <time>2022-10-14T14:23:43+02:00</time>
      </trkpt>
      <trkpt lat="43.42924" lon="6.43983">
        <ele>62</ele>
        <time>2022-10-14T14:23:43+02:00</time>
      </trkpt>
      <trkpt lat="43.42919" lon="6.43989">
        <ele>62</ele>
        <time>2022-10-14T14:23:43+02:00</time>
      </trkpt>
      <trkpt lat="43.42914" lon="6.43994">
        <ele>62</ele>
        <time>2022-10-14T14:23:43+02:00</time>
      </trkpt>
      <trkpt lat="43.42909" lon="6.43999">
        <ele>62</ele>
        <time>2022-10-14T14:23:43+02:00</time>
      </trkpt>
      <trkpt lat="43.42905" lon="6.44004">
        <ele>62</ele>
        <time>2022-10-14T14:23:43+02:00</time>
      </trkpt>
      <trkpt lat="43.429" lon="6.44009">
        <ele>62</ele>
        <time>2022-10-14T14:23:43+02:00</time>
      </trkpt>
      <trkpt lat="43.42895" lon="6.44014">
        <ele>62</ele>
        <time>2022-10-14T14:23:43+02:00</time>
      </trkpt>
      <trkpt lat="43.4289" lon="6.44019">
        <ele>62</ele>
        <time>2022-10-14T14:23:43+02:00</time>
      </trkpt>
      <trkpt lat="43.42885" lon="6.44023">
        <ele>62</ele>
        <time>2022-10-14T14:23:43+02:00</time>
      </trkpt>
      <trkpt lat="43.4288" lon="6.44027">
        <ele>62</ele>
        <time>2022-10-14T14:23:43+02:00</time>
      </trkpt>
      <trkpt lat="43.42875" lon="6.44031">
        <ele>62</ele>
        <time>2022-10-14T14:23:43+02:00</time>
      </trkpt>
      <trkpt lat="43.4287" lon="6.44035">
        <ele>62</ele>
        <time>2022-10-14T14:23:43+02:00</time>
      </trkpt>
      <trkpt lat="43.42865" lon="6.44038">
        <ele>63</ele>
        <time>2022-10-14T14:23:43+02:00</time>
      </trkpt>
      <trkpt lat="43.4286" lon="6.44041">
        <ele>64</ele>
        <time>2022-10-14T14:23:43+02:00</time>
      </trkpt>
      <trkpt lat="43.42854" lon="6.44044">
        <ele>64</ele>
        <time>2022-10-14T14:23:43+02:00</time>
      </trkpt>
      <trkpt lat="43.42849" lon="6.44047">
        <ele>64</ele>
        <time>2022-10-14T14:23:43+02:00</time>
      </trkpt>
      <trkpt lat="43.42844" lon="6.4405">
        <ele>65</ele>
        <time>2022-10-14T14:23:43+02:00</time>
      </trkpt>
      <trkpt lat="43.42839" lon="6.44054">
        <ele>64</ele>
        <time>2022-10-14T14:23:43+02:00</time>
      </trkpt>
      <trkpt lat="43.42834" lon="6.44059">
        <ele>64</ele>
        <time>2022-10-14T14:23:43+02:00</time>
      </trkpt>
      <trkpt lat="43.4283" lon="6.44064">
        <ele>64</ele>
        <time>2022-10-14T14:23:43+02:00</time>
      </trkpt>
      <trkpt lat="43.42826" lon="6.44069">
        <ele>65</ele>
        <time>2022-10-14T14:23:43+02:00</time>
      </trkpt>
      <trkpt lat="43.42823" lon="6.44074">
        <ele>65</ele>
        <time>2022-10-14T14:23:43+02:00</time>
      </trkpt>
      <trkpt lat="43.42819" lon="6.4408">
        <ele>65</ele>
        <time>2022-10-14T14:23:43+02:00</time>
      </trkpt>
      <trkpt lat="43.42815" lon="6.44085">
        <ele>65</ele>
        <time>2022-10-14T14:23:43+02:00</time>
      </trkpt>
      <trkpt lat="43.42811" lon="6.44091">
        <ele>66</ele>
        <time>2022-10-14T14:23:43+02:00</time>
      </trkpt>
      <trkpt lat="43.42807" lon="6.44096">
        <ele>66</ele>
        <time>2022-10-14T14:23:43+02:00</time>
      </trkpt>
      <trkpt lat="43.42803" lon="6.44102">
        <ele>66</ele>
        <time>2022-10-14T14:23:43+02:00</time>
      </trkpt>
      <trkpt lat="43.428" lon="6.44107">
        <ele>66</ele>
        <time>2022-10-14T14:23:43+02:00</time>
      </trkpt>
      <trkpt lat="43.42796" lon="6.44113">
        <ele>66</ele>
        <time>2022-10-14T14:23:43+02:00</time>
      </trkpt>
      <trkpt lat="43.42793" lon="6.44118">
        <ele>66</ele>
        <time>2022-10-14T14:23:43+02:00</time>
      </trkpt>
      <trkpt lat="43.42789" lon="6.44124">
        <ele>66</ele>
        <time>2022-10-14T14:23:43+02:00</time>
      </trkpt>
      <trkpt lat="43.42786" lon="6.4413">
        <ele>66</ele>
        <time>2022-10-14T14:23:43+02:00</time>
      </trkpt>
      <trkpt lat="43.42782" lon="6.44136">
        <ele>66</ele>
        <time>2022-10-14T14:23:43+02:00</time>
      </trkpt>
      <trkpt lat="43.42779" lon="6.44143">
        <ele>66</ele>
        <time>2022-10-14T14:23:43+02:00</time>
      </trkpt>
      <trkpt lat="43.42776" lon="6.4415">
        <ele>66</ele>
        <time>2022-10-14T14:23:43+02:00</time>
      </trkpt>
      <trkpt lat="43.42774" lon="6.44156">
        <ele>66</ele>
        <time>2022-10-14T14:23:43+02:00</time>
      </trkpt>
      <trkpt lat="43.42771" lon="6.44163">
        <ele>66</ele>
        <time>2022-10-14T14:23:43+02:00</time>
      </trkpt>
      <trkpt lat="43.4277" lon="6.4417">
        <ele>66</ele>
        <time>2022-10-14T14:23:43+02:00</time>
      </trkpt>
      <trkpt lat="43.42768" lon="6.44177">
        <ele>66</ele>
        <time>2022-10-14T14:23:43+02:00</time>
      </trkpt>
      <trkpt lat="43.42766" lon="6.44184">
        <ele>66</ele>
        <time>2022-10-14T14:23:43+02:00</time>
      </trkpt>
      <trkpt lat="43.42764" lon="6.4419">
        <ele>66</ele>
        <time>2022-10-14T14:23:43+02:00</time>
      </trkpt>
      <trkpt lat="43.42762" lon="6.44197">
        <ele>67</ele>
        <time>2022-10-14T14:23:43+02:00</time>
      </trkpt>
      <trkpt lat="43.42761" lon="6.44204">
        <ele>67</ele>
        <time>2022-10-14T14:23:43+02:00</time>
      </trkpt>
      <trkpt lat="43.4276" lon="6.4421">
        <ele>67</ele>
        <time>2022-10-14T14:23:43+02:00</time>
      </trkpt>
      <trkpt lat="43.42759" lon="6.44217">
        <ele>68</ele>
        <time>2022-10-14T14:23:43+02:00</time>
      </trkpt>
      <trkpt lat="43.42757" lon="6.44223">
        <ele>70</ele>
        <time>2022-10-14T14:23:43+02:00</time>
      </trkpt>
      <trkpt lat="43.42756" lon="6.44229">
        <ele>70</ele>
        <time>2022-10-14T14:23:43+02:00</time>
      </trkpt>
      <trkpt lat="43.42755" lon="6.44235">
        <ele>70</ele>
        <time>2022-10-14T14:23:43+02:00</time>
      </trkpt>
      <trkpt lat="43.42754" lon="6.44241">
        <ele>71</ele>
        <time>2022-10-14T14:23:43+02:00</time>
      </trkpt>
      <trkpt lat="43.42753" lon="6.44246">
        <ele>71</ele>
        <time>2022-10-14T14:23:43+02:00</time>
      </trkpt>
      <trkpt lat="43.42753" lon="6.44252">
        <ele>71</ele>
        <time>2022-10-14T14:23:43+02:00</time>
      </trkpt>
      <trkpt lat="43.42753" lon="6.44257">
        <ele>71</ele>
        <time>2022-10-14T14:23:43+02:00</time>
      </trkpt>
      <trkpt lat="43.42754" lon="6.44263">
        <ele>71</ele>
        <time>2022-10-14T14:23:43+02:00</time>
      </trkpt>
      <trkpt lat="43.42754" lon="6.44268">
        <ele>71</ele>
        <time>2022-10-14T14:23:43+02:00</time>
      </trkpt>
      <trkpt lat="43.42755" lon="6.44274">
        <ele>71</ele>
        <time>2022-10-14T14:23:43+02:00</time>
      </trkpt>
      <trkpt lat="43.42756" lon="6.44279">
        <ele>71</ele>
        <time>2022-10-14T14:23:43+02:00</time>
      </trkpt>
      <trkpt lat="43.42757" lon="6.44284">
        <ele>72</ele>
        <time>2022-10-14T14:23:43+02:00</time>
      </trkpt>
      <trkpt lat="43.42759" lon="6.4429">
        <ele>72</ele>
        <time>2022-10-14T14:23:43+02:00</time>
      </trkpt>
      <trkpt lat="43.4276" lon="6.44295">
        <ele>72</ele>
        <time>2022-10-14T14:23:43+02:00</time>
      </trkpt>
      <trkpt lat="43.42762" lon="6.443">
        <ele>72</ele>
        <time>2022-10-14T14:23:43+02:00</time>
      </trkpt>
      <trkpt lat="43.42763" lon="6.44305">
        <ele>73</ele>
        <time>2022-10-14T14:23:43+02:00</time>
      </trkpt>
      <trkpt lat="43.42765" lon="6.44311">
        <ele>73</ele>
        <time>2022-10-14T14:23:43+02:00</time>
      </trkpt>
      <trkpt lat="43.42766" lon="6.44316">
        <ele>73</ele>
        <time>2022-10-14T14:23:43+02:00</time>
      </trkpt>
      <trkpt lat="43.42767" lon="6.44322">
        <ele>73</ele>
        <time>2022-10-14T14:23:43+02:00</time>
      </trkpt>
      <trkpt lat="43.42768" lon="6.44327">
        <ele>73</ele>
        <time>2022-10-14T14:23:43+02:00</time>
      </trkpt>
      <trkpt lat="43.42768" lon="6.44333">
        <ele>74</ele>
        <time>2022-10-14T14:23:43+02:00</time>
      </trkpt>
      <trkpt lat="43.42769" lon="6.44339">
        <ele>74</ele>
        <time>2022-10-14T14:23:43+02:00</time>
      </trkpt>
      <trkpt lat="43.42769" lon="6.44344">
        <ele>74</ele>
        <time>2022-10-14T14:23:43+02:00</time>
      </trkpt>
      <trkpt lat="43.42769" lon="6.4435">
        <ele>75</ele>
        <time>2022-10-14T14:23:43+02:00</time>
      </trkpt>
      <trkpt lat="43.42769" lon="6.44356">
        <ele>75</ele>
        <time>2022-10-14T14:23:43+02:00</time>
      </trkpt>
      <trkpt lat="43.42768" lon="6.44361">
        <ele>75</ele>
        <time>2022-10-14T14:23:43+02:00</time>
      </trkpt>
      <trkpt lat="43.42768" lon="6.44367">
        <ele>75</ele>
        <time>2022-10-14T14:23:43+02:00</time>
      </trkpt>
      <trkpt lat="43.42767" lon="6.44373">
        <ele>75</ele>
        <time>2022-10-14T14:23:43+02:00</time>
      </trkpt>
      <trkpt lat="43.42766" lon="6.44379">
        <ele>75</ele>
        <time>2022-10-14T14:23:43+02:00</time>
      </trkpt>
      <trkpt lat="43.42765" lon="6.44384">
        <ele>75</ele>
        <time>2022-10-14T14:23:43+02:00</time>
      </trkpt>
      <trkpt lat="43.42764" lon="6.4439">
        <ele>75</ele>
        <time>2022-10-14T14:23:43+02:00</time>
      </trkpt>
      <trkpt lat="43.42763" lon="6.44396">
        <ele>76</ele>
        <time>2022-10-14T14:23:43+02:00</time>
      </trkpt>
      <trkpt lat="43.42761" lon="6.44401">
        <ele>76</ele>
        <time>2022-10-14T14:23:43+02:00</time>
      </trkpt>
      <trkpt lat="43.4276" lon="6.44407">
        <ele>76</ele>
        <time>2022-10-14T14:23:43+02:00</time>
      </trkpt>
      <trkpt lat="43.42758" lon="6.44412">
        <ele>76</ele>
        <time>2022-10-14T14:23:43+02:00</time>
      </trkpt>
      <trkpt lat="43.42757" lon="6.44417">
        <ele>77</ele>
        <time>2022-10-14T14:23:43+02:00</time>
      </trkpt>
      <trkpt lat="43.42755" lon="6.44422">
        <ele>77</ele>
        <time>2022-10-14T14:23:43+02:00</time>
      </trkpt>
      <trkpt lat="43.42753" lon="6.44427">
        <ele>77</ele>
        <time>2022-10-14T14:23:43+02:00</time>
      </trkpt>
      <trkpt lat="43.42751" lon="6.44432">
        <ele>77</ele>
        <time>2022-10-14T14:23:43+02:00</time>
      </trkpt>
      <trkpt lat="43.42749" lon="6.44437">
        <ele>77</ele>
        <time>2022-10-14T14:23:43+02:00</time>
      </trkpt>
      <trkpt lat="43.42747" lon="6.44442">
        <ele>78</ele>
        <time>2022-10-14T14:23:43+02:00</time>
      </trkpt>
      <trkpt lat="43.42745" lon="6.44447">
        <ele>78</ele>
        <time>2022-10-14T14:23:43+02:00</time>
      </trkpt>
      <trkpt lat="43.42743" lon="6.44451">
        <ele>78</ele>
        <time>2022-10-14T14:23:43+02:00</time>
      </trkpt>
      <trkpt lat="43.4274" lon="6.44456">
        <ele>78</ele>
        <time>2022-10-14T14:23:43+02:00</time>
      </trkpt>
      <trkpt lat="43.42738" lon="6.44461">
        <ele>78</ele>
        <time>2022-10-14T14:23:43+02:00</time>
      </trkpt>
      <trkpt lat="43.42736" lon="6.44465">
        <ele>78</ele>
        <time>2022-10-14T14:23:43+02:00</time>
      </trkpt>
      <trkpt lat="43.42734" lon="6.4447">
        <ele>78</ele>
        <time>2022-10-14T14:23:43+02:00</time>
      </trkpt>
      <trkpt lat="43.42732" lon="6.44474">
        <ele>78</ele>
        <time>2022-10-14T14:23:43+02:00</time>
      </trkpt>
      <trkpt lat="43.4273" lon="6.44479">
        <ele>79</ele>
        <time>2022-10-14T14:23:43+02:00</time>
      </trkpt>
      <trkpt lat="43.42728" lon="6.44483">
        <ele>79</ele>
        <time>2022-10-14T14:23:43+02:00</time>
      </trkpt>
      <trkpt lat="43.42726" lon="6.44488">
        <ele>79</ele>
        <time>2022-10-14T14:23:43+02:00</time>
      </trkpt>
      <trkpt lat="43.42724" lon="6.44492">
        <ele>80</ele>
        <time>2022-10-14T14:23:43+02:00</time>
      </trkpt>
      <trkpt lat="43.42722" lon="6.44496">
        <ele>80</ele>
        <time>2022-10-14T14:23:43+02:00</time>
      </trkpt>
      <trkpt lat="43.42719" lon="6.44501">
        <ele>80</ele>
        <time>2022-10-14T14:23:43+02:00</time>
      </trkpt>
      <trkpt lat="43.42717" lon="6.44505">
        <ele>80</ele>
        <time>2022-10-14T14:23:43+02:00</time>
      </trkpt>
      <trkpt lat="43.42715" lon="6.4451">
        <ele>80</ele>
        <time>2022-10-14T14:23:43+02:00</time>
      </trkpt>
      <trkpt lat="43.42713" lon="6.44514">
        <ele>80</ele>
        <time>2022-10-14T14:23:43+02:00</time>
      </trkpt>
      <trkpt lat="43.42711" lon="6.44518">
        <ele>80</ele>
        <time>2022-10-14T14:23:43+02:00</time>
      </trkpt>
      <trkpt lat="43.42709" lon="6.44523">
        <ele>80</ele>
        <time>2022-10-14T14:23:43+02:00</time>
      </trkpt>
      <trkpt lat="43.42706" lon="6.44527">
        <ele>81</ele>
        <time>2022-10-14T14:23:43+02:00</time>
      </trkpt>
      <trkpt lat="43.42704" lon="6.44531">
        <ele>81</ele>
        <time>2022-10-14T14:23:43+02:00</time>
      </trkpt>
      <trkpt lat="43.42702" lon="6.44535">
        <ele>81</ele>
        <time>2022-10-14T14:23:43+02:00</time>
      </trkpt>
      <trkpt lat="43.42699" lon="6.44539">
        <ele>81</ele>
        <time>2022-10-14T14:23:43+02:00</time>
      </trkpt>
      <trkpt lat="43.42696" lon="6.44542">
        <ele>81</ele>
        <time>2022-10-14T14:23:43+02:00</time>
      </trkpt>
      <trkpt lat="43.42693" lon="6.44546">
        <ele>82</ele>
        <time>2022-10-14T14:23:43+02:00</time>
      </trkpt>
      <trkpt lat="43.42691" lon="6.4455">
        <ele>82</ele>
        <time>2022-10-14T14:23:43+02:00</time>
      </trkpt>
      <trkpt lat="43.4269" lon="6.44555">
        <ele>82</ele>
        <time>2022-10-14T14:23:43+02:00</time>
      </trkpt>
      <trkpt lat="43.42689" lon="6.4456">
        <ele>82</ele>
        <time>2022-10-14T14:23:43+02:00</time>
      </trkpt>
      <trkpt lat="43.42687" lon="6.44565">
        <ele>82</ele>
        <time>2022-10-14T14:23:43+02:00</time>
      </trkpt>
      <trkpt lat="43.42685" lon="6.4457">
        <ele>82</ele>
        <time>2022-10-14T14:23:43+02:00</time>
      </trkpt>
      <trkpt lat="43.42683" lon="6.44575">
        <ele>82</ele>
        <time>2022-10-14T14:23:43+02:00</time>
      </trkpt>
      <trkpt lat="43.42681" lon="6.4458">
        <ele>83</ele>
        <time>2022-10-14T14:23:43+02:00</time>
      </trkpt>
      <trkpt lat="43.42679" lon="6.44585">
        <ele>83</ele>
        <time>2022-10-14T14:23:43+02:00</time>
      </trkpt>
      <trkpt lat="43.42677" lon="6.44589">
        <ele>83</ele>
        <time>2022-10-14T14:23:43+02:00</time>
      </trkpt>
      <trkpt lat="43.42675" lon="6.44594">
        <ele>83</ele>
        <time>2022-10-14T14:23:43+02:00</time>
      </trkpt>
      <trkpt lat="43.42673" lon="6.44599">
        <ele>84</ele>
        <time>2022-10-14T14:23:43+02:00</time>
      </trkpt>
      <trkpt lat="43.42671" lon="6.44604">
        <ele>84</ele>
        <time>2022-10-14T14:23:43+02:00</time>
      </trkpt>
      <trkpt lat="43.42669" lon="6.44609">
        <ele>84</ele>
        <time>2022-10-14T14:23:43+02:00</time>
      </trkpt>
      <trkpt lat="43.42667" lon="6.44614">
        <ele>84</ele>
        <time>2022-10-14T14:23:43+02:00</time>
      </trkpt>
      <trkpt lat="43.42664" lon="6.44618">
        <ele>85</ele>
        <time>2022-10-14T14:23:43+02:00</time>
      </trkpt>
      <trkpt lat="43.42662" lon="6.44623">
        <ele>84</ele>
        <time>2022-10-14T14:23:43+02:00</time>
      </trkpt>
      <trkpt lat="43.4266" lon="6.44628">
        <ele>84</ele>
        <time>2022-10-14T14:23:43+02:00</time>
      </trkpt>
      <trkpt lat="43.42658" lon="6.44633">
        <ele>84</ele>
        <time>2022-10-14T14:23:43+02:00</time>
      </trkpt>
      <trkpt lat="43.42656" lon="6.44638">
        <ele>85</ele>
        <time>2022-10-14T14:23:43+02:00</time>
      </trkpt>
      <trkpt lat="43.42653" lon="6.44642">
        <ele>85</ele>
        <time>2022-10-14T14:23:43+02:00</time>
      </trkpt>
      <trkpt lat="43.42651" lon="6.44646">
        <ele>85</ele>
        <time>2022-10-14T14:23:43+02:00</time>
      </trkpt>
      <trkpt lat="43.42648" lon="6.4465">
        <ele>85</ele>
        <time>2022-10-14T14:23:43+02:00</time>
      </trkpt>
      <trkpt lat="43.42645" lon="6.44654">
        <ele>86</ele>
        <time>2022-10-14T14:23:43+02:00</time>
      </trkpt>
      <trkpt lat="43.42642" lon="6.44657">
        <ele>87</ele>
        <time>2022-10-14T14:23:43+02:00</time>
      </trkpt>
      <trkpt lat="43.42639" lon="6.4466">
        <ele>87</ele>
        <time>2022-10-14T14:23:43+02:00</time>
      </trkpt>
      <trkpt lat="43.42635" lon="6.44663">
        <ele>87</ele>
        <time>2022-10-14T14:23:43+02:00</time>
      </trkpt>
      <trkpt lat="43.42631" lon="6.44666">
        <ele>86</ele>
        <time>2022-10-14T14:23:43+02:00</time>
      </trkpt>
      <trkpt lat="43.42627" lon="6.44667">
        <ele>86</ele>
        <time>2022-10-14T14:23:43+02:00</time>
      </trkpt>
      <trkpt lat="43.42623" lon="6.44669">
        <ele>86</ele>
        <time>2022-10-14T14:23:43+02:00</time>
      </trkpt>
      <trkpt lat="43.42618" lon="6.4467">
        <ele>86</ele>
        <time>2022-10-14T14:23:43+02:00</time>
      </trkpt>
      <trkpt lat="43.42613" lon="6.44671">
        <ele>85</ele>
        <time>2022-10-14T14:23:43+02:00</time>
      </trkpt>
      <trkpt lat="43.42608" lon="6.44671">
        <ele>84</ele>
        <time>2022-10-14T14:23:43+02:00</time>
      </trkpt>
      <trkpt lat="43.42603" lon="6.44671">
        <ele>84</ele>
        <time>2022-10-14T14:23:43+02:00</time>
      </trkpt>
      <trkpt lat="43.42597" lon="6.4467">
        <ele>84</ele>
        <time>2022-10-14T14:23:43+02:00</time>
      </trkpt>
      <trkpt lat="43.42591" lon="6.4467">
        <ele>83</ele>
        <time>2022-10-14T14:23:43+02:00</time>
      </trkpt>
      <trkpt lat="43.42584" lon="6.44669">
        <ele>80</ele>
        <time>2022-10-14T14:23:43+02:00</time>
      </trkpt>
      <trkpt lat="43.42576" lon="6.44669">
        <ele>80</ele>
        <time>2022-10-14T14:23:43+02:00</time>
      </trkpt>
      <trkpt lat="43.42569" lon="6.44669">
        <ele>80</ele>
        <time>2022-10-14T14:23:43+02:00</time>
      </trkpt>
      <trkpt lat="43.42559" lon="6.4467">
        <ele>79</ele>
        <time>2022-10-14T14:23:43+02:00</time>
      </trkpt>
      <trkpt lat="43.4255" lon="6.44673">
        <ele>76</ele>
        <time>2022-10-14T14:23:43+02:00</time>
      </trkpt>
      <trkpt lat="43.42542" lon="6.44677">
        <ele>76</ele>
        <time>2022-10-14T14:23:43+02:00</time>
      </trkpt>
      <trkpt lat="43.42533" lon="6.44682">
        <ele>76</ele>
        <time>2022-10-14T14:23:43+02:00</time>
      </trkpt>
      <trkpt lat="43.42525" lon="6.44688">
        <ele>76</ele>
        <time>2022-10-14T14:23:43+02:00</time>
      </trkpt>
      <trkpt lat="43.42518" lon="6.44692">
        <ele>77</ele>
        <time>2022-10-14T14:23:43+02:00</time>
      </trkpt>
      <trkpt lat="43.4251" lon="6.44691">
        <ele>77</ele>
        <time>2022-10-14T14:23:43+02:00</time>
      </trkpt>
      <trkpt lat="43.42504" lon="6.4469">
        <ele>77</ele>
        <time>2022-10-14T14:23:43+02:00</time>
      </trkpt>
      <trkpt lat="43.42498" lon="6.4469">
        <ele>78</ele>
        <time>2022-10-14T14:23:43+02:00</time>
      </trkpt>
      <trkpt lat="43.42494" lon="6.44692">
        <ele>81</ele>
        <time>2022-10-14T14:23:43+02:00</time>
      </trkpt>
      <trkpt lat="43.4249" lon="6.44695">
        <ele>81</ele>
        <time>2022-10-14T14:23:43+02:00</time>
      </trkpt>
      <trkpt lat="43.42486" lon="6.44698">
        <ele>81</ele>
        <time>2022-10-14T14:23:43+02:00</time>
      </trkpt>
      <trkpt lat="43.42483" lon="6.447">
        <ele>82</ele>
        <time>2022-10-14T14:23:43+02:00</time>
      </trkpt>
      <trkpt lat="43.42479" lon="6.44703">
        <ele>83</ele>
        <time>2022-10-14T14:23:43+02:00</time>
      </trkpt>
      <trkpt lat="43.42476" lon="6.44705">
        <ele>83</ele>
        <time>2022-10-14T14:23:43+02:00</time>
      </trkpt>
      <trkpt lat="43.42472" lon="6.44706">
        <ele>83</ele>
        <time>2022-10-14T14:23:43+02:00</time>
      </trkpt>
      <trkpt lat="43.42469" lon="6.44707">
        <ele>83</ele>
        <time>2022-10-14T14:23:43+02:00</time>
      </trkpt>
      <trkpt lat="43.42465" lon="6.44708">
        <ele>83</ele>
        <time>2022-10-14T14:23:43+02:00</time>
      </trkpt>
      <trkpt lat="43.42461" lon="6.44708">
        <ele>83</ele>
        <time>2022-10-14T14:23:43+02:00</time>
      </trkpt>
      <trkpt lat="43.42457" lon="6.44708">
        <ele>83</ele>
        <time>2022-10-14T14:23:43+02:00</time>
      </trkpt>
      <trkpt lat="43.42453" lon="6.44708">
        <ele>83</ele>
        <time>2022-10-14T14:23:43+02:00</time>
      </trkpt>
      <trkpt lat="43.42449" lon="6.44708">
        <ele>84</ele>
        <time>2022-10-14T14:23:43+02:00</time>
      </trkpt>
      <trkpt lat="43.42446" lon="6.44707">
        <ele>84</ele>
        <time>2022-10-14T14:23:43+02:00</time>
      </trkpt>
      <trkpt lat="43.42442" lon="6.44707">
        <ele>84</ele>
        <time>2022-10-14T14:23:43+02:00</time>
      </trkpt>
      <trkpt lat="43.42438" lon="6.44705">
        <ele>84</ele>
        <time>2022-10-14T14:23:43+02:00</time>
      </trkpt>
      <trkpt lat="43.42434" lon="6.44704">
        <ele>86</ele>
        <time>2022-10-14T14:23:43+02:00</time>
      </trkpt>
      <trkpt lat="43.42431" lon="6.44701">
        <ele>86</ele>
        <time>2022-10-14T14:23:43+02:00</time>
      </trkpt>
      <trkpt lat="43.42428" lon="6.44699">
        <ele>86</ele>
        <time>2022-10-14T14:23:43+02:00</time>
      </trkpt>
      <trkpt lat="43.42425" lon="6.44697">
        <ele>87</ele>
        <time>2022-10-14T14:23:43+02:00</time>
      </trkpt>
      <trkpt lat="43.42422" lon="6.44695">
        <ele>87</ele>
        <time>2022-10-14T14:23:43+02:00</time>
      </trkpt>
      <trkpt lat="43.4242" lon="6.44693">
        <ele>87</ele>
        <time>2022-10-14T14:23:43+02:00</time>
      </trkpt>
      <trkpt lat="43.42417" lon="6.44691">
        <ele>87</ele>
        <time>2022-10-14T14:23:43+02:00</time>
      </trkpt>
      <trkpt lat="43.42414" lon="6.4469">
        <ele>88</ele>
        <time>2022-10-14T14:23:43+02:00</time>
      </trkpt>
      <trkpt lat="43.42412" lon="6.44689">
        <ele>89</ele>
        <time>2022-10-14T14:23:43+02:00</time>
      </trkpt>
      <trkpt lat="43.42409" lon="6.44691">
        <ele>89</ele>
        <time>2022-10-14T14:23:43+02:00</time>
      </trkpt>
      <trkpt lat="43.42406" lon="6.44693">
        <ele>89</ele>
        <time>2022-10-14T14:23:43+02:00</time>
      </trkpt>
      <trkpt lat="43.42404" lon="6.44695">
        <ele>90</ele>
        <time>2022-10-14T14:23:43+02:00</time>
      </trkpt>
      <trkpt lat="43.42402" lon="6.44699">
        <ele>91</ele>
        <time>2022-10-14T14:23:43+02:00</time>
      </trkpt>
      <trkpt lat="43.42399" lon="6.44702">
        <ele>91</ele>
        <time>2022-10-14T14:23:43+02:00</time>
      </trkpt>
      <trkpt lat="43.42397" lon="6.44706">
        <ele>91</ele>
        <time>2022-10-14T14:23:43+02:00</time>
      </trkpt>
      <trkpt lat="43.42395" lon="6.4471">
        <ele>92</ele>
        <time>2022-10-14T14:23:43+02:00</time>
      </trkpt>
      <trkpt lat="43.42393" lon="6.44714">
        <ele>92</ele>
        <time>2022-10-14T14:23:43+02:00</time>
      </trkpt>
      <trkpt lat="43.42391" lon="6.44717">
        <ele>92</ele>
        <time>2022-10-14T14:23:43+02:00</time>
      </trkpt>
      <trkpt lat="43.42388" lon="6.44721">
        <ele>92</ele>
        <time>2022-10-14T14:23:43+02:00</time>
      </trkpt>
      <trkpt lat="43.42386" lon="6.44725">
        <ele>93</ele>
        <time>2022-10-14T14:23:43+02:00</time>
      </trkpt>
      <trkpt lat="43.42384" lon="6.44729">
        <ele>93</ele>
        <time>2022-10-14T14:23:43+02:00</time>
      </trkpt>
      <trkpt lat="43.42382" lon="6.44733">
        <ele>93</ele>
        <time>2022-10-14T14:23:43+02:00</time>
      </trkpt>
      <trkpt lat="43.4238" lon="6.44737">
        <ele>93</ele>
        <time>2022-10-14T14:23:43+02:00</time>
      </trkpt>
      <trkpt lat="43.42378" lon="6.44741">
        <ele>93</ele>
        <time>2022-10-14T14:23:43+02:00</time>
      </trkpt>
      <trkpt lat="43.42375" lon="6.44746">
        <ele>93</ele>
        <time>2022-10-14T14:23:43+02:00</time>
      </trkpt>
      <trkpt lat="43.42372" lon="6.4475">
        <ele>93</ele>
        <time>2022-10-14T14:23:43+02:00</time>
      </trkpt>
      <trkpt lat="43.42369" lon="6.44755">
        <ele>93</ele>
        <time>2022-10-14T14:23:43+02:00</time>
      </trkpt>
      <trkpt lat="43.42366" lon="6.4476">
        <ele>92</ele>
        <time>2022-10-14T14:23:43+02:00</time>
      </trkpt>
      <trkpt lat="43.42363" lon="6.44765">
        <ele>92</ele>
        <time>2022-10-14T14:23:43+02:00</time>
      </trkpt>
      <trkpt lat="43.42359" lon="6.44769">
        <ele>92</ele>
        <time>2022-10-14T14:23:43+02:00</time>
      </trkpt>
      <trkpt lat="43.42355" lon="6.44774">
        <ele>92</ele>
        <time>2022-10-14T14:23:43+02:00</time>
      </trkpt>
      <trkpt lat="43.42351" lon="6.44779">
        <ele>91</ele>
        <time>2022-10-14T14:23:43+02:00</time>
      </trkpt>
      <trkpt lat="43.42347" lon="6.44784">
        <ele>92</ele>
        <time>2022-10-14T14:23:43+02:00</time>
      </trkpt>
      <trkpt lat="43.42344" lon="6.4479">
        <ele>92</ele>
        <time>2022-10-14T14:23:43+02:00</time>
      </trkpt>
      <trkpt lat="43.42341" lon="6.44795">
        <ele>92</ele>
        <time>2022-10-14T14:23:43+02:00</time>
      </trkpt>
      <trkpt lat="43.42338" lon="6.448">
        <ele>93</ele>
        <time>2022-10-14T14:23:43+02:00</time>
      </trkpt>
      <trkpt lat="43.42336" lon="6.44805">
        <ele>93</ele>
        <time>2022-10-14T14:23:43+02:00</time>
      </trkpt>
      <trkpt lat="43.42333" lon="6.4481">
        <ele>93</ele>
        <time>2022-10-14T14:23:43+02:00</time>
      </trkpt>
      <trkpt lat="43.42331" lon="6.44815">
        <ele>93</ele>
        <time>2022-10-14T14:23:43+02:00</time>
      </trkpt>
      <trkpt lat="43.42328" lon="6.4482">
        <ele>94</ele>
        <time>2022-10-14T14:23:43+02:00</time>
      </trkpt>
      <trkpt lat="43.42326" lon="6.44825">
        <ele>94</ele>
        <time>2022-10-14T14:23:43+02:00</time>
      </trkpt>
      <trkpt lat="43.42324" lon="6.4483">
        <ele>94</ele>
        <time>2022-10-14T14:23:43+02:00</time>
      </trkpt>
      <trkpt lat="43.42321" lon="6.44835">
        <ele>94</ele>
        <time>2022-10-14T14:23:43+02:00</time>
      </trkpt>
      <trkpt lat="43.42319" lon="6.44839">
        <ele>95</ele>
        <time>2022-10-14T14:23:43+02:00</time>
      </trkpt>
      <trkpt lat="43.42317" lon="6.44843">
        <ele>95</ele>
        <time>2022-10-14T14:23:43+02:00</time>
      </trkpt>
      <trkpt lat="43.42315" lon="6.44847">
        <ele>95</ele>
        <time>2022-10-14T14:23:43+02:00</time>
      </trkpt>
      <trkpt lat="43.42312" lon="6.44851">
        <ele>95</ele>
        <time>2022-10-14T14:23:43+02:00</time>
      </trkpt>
      <trkpt lat="43.4231" lon="6.44855">
        <ele>96</ele>
        <time>2022-10-14T14:23:43+02:00</time>
      </trkpt>
      <trkpt lat="43.42307" lon="6.44859">
        <ele>96</ele>
        <time>2022-10-14T14:23:43+02:00</time>
      </trkpt>
      <trkpt lat="43.42304" lon="6.44862">
        <ele>96</ele>
        <time>2022-10-14T14:23:43+02:00</time>
      </trkpt>
      <trkpt lat="43.42302" lon="6.44866">
        <ele>96</ele>
        <time>2022-10-14T14:23:43+02:00</time>
      </trkpt>
      <trkpt lat="43.423" lon="6.44869">
        <ele>96</ele>
        <time>2022-10-14T14:23:43+02:00</time>
      </trkpt>
      <trkpt lat="43.42297" lon="6.44873">
        <ele>96</ele>
        <time>2022-10-14T14:23:43+02:00</time>
      </trkpt>
      <trkpt lat="43.42294" lon="6.44876">
        <ele>96</ele>
        <time>2022-10-14T14:23:43+02:00</time>
      </trkpt>
      <trkpt lat="43.42292" lon="6.4488">
        <ele>96</ele>
        <time>2022-10-14T14:23:43+02:00</time>
      </trkpt>
      <trkpt lat="43.42289" lon="6.44884">
        <ele>96</ele>
        <time>2022-10-14T14:23:43+02:00</time>
      </trkpt>
      <trkpt lat="43.42287" lon="6.44887">
        <ele>97</ele>
        <time>2022-10-14T14:23:43+02:00</time>
      </trkpt>
      <trkpt lat="43.42284" lon="6.44891">
        <ele>97</ele>
        <time>2022-10-14T14:23:43+02:00</time>
      </trkpt>
      <trkpt lat="43.42282" lon="6.44895">
        <ele>97</ele>
        <time>2022-10-14T14:23:43+02:00</time>
      </trkpt>
      <trkpt lat="43.4228" lon="6.44899">
        <ele>97</ele>
        <time>2022-10-14T14:23:43+02:00</time>
      </trkpt>
      <trkpt lat="43.42278" lon="6.44903">
        <ele>98</ele>
        <time>2022-10-14T14:23:43+02:00</time>
      </trkpt>
      <trkpt lat="43.42276" lon="6.44908">
        <ele>98</ele>
        <time>2022-10-14T14:23:43+02:00</time>
      </trkpt>
      <trkpt lat="43.42274" lon="6.44912">
        <ele>98</ele>
        <time>2022-10-14T14:23:43+02:00</time>
      </trkpt>
      <trkpt lat="43.42272" lon="6.44916">
        <ele>98</ele>
        <time>2022-10-14T14:23:43+02:00</time>
      </trkpt>
      <trkpt lat="43.42269" lon="6.4492">
        <ele>99</ele>
        <time>2022-10-14T14:23:43+02:00</time>
      </trkpt>
      <trkpt lat="43.42267" lon="6.44924">
        <ele>99</ele>
        <time>2022-10-14T14:23:43+02:00</time>
      </trkpt>
      <trkpt lat="43.42265" lon="6.44929">
        <ele>99</ele>
        <time>2022-10-14T14:23:43+02:00</time>
      </trkpt>
      <trkpt lat="43.42262" lon="6.44933">
        <ele>99</ele>
        <time>2022-10-14T14:23:43+02:00</time>
      </trkpt>
      <trkpt lat="43.4226" lon="6.44938">
        <ele>99</ele>
        <time>2022-10-14T14:23:43+02:00</time>
      </trkpt>
      <trkpt lat="43.42258" lon="6.44942">
        <ele>99</ele>
        <time>2022-10-14T14:23:43+02:00</time>
      </trkpt>
      <trkpt lat="43.42255" lon="6.44947">
        <ele>99</ele>
        <time>2022-10-14T14:23:43+02:00</time>
      </trkpt>
      <trkpt lat="43.42253" lon="6.44951">
        <ele>100</ele>
        <time>2022-10-14T14:23:43+02:00</time>
      </trkpt>
      <trkpt lat="43.42252" lon="6.44955">
        <ele>101</ele>
        <time>2022-10-14T14:23:43+02:00</time>
      </trkpt>
      <trkpt lat="43.4225" lon="6.44959">
        <ele>101</ele>
        <time>2022-10-14T14:23:43+02:00</time>
      </trkpt>
      <trkpt lat="43.42248" lon="6.44963">
        <ele>101</ele>
        <time>2022-10-14T14:23:43+02:00</time>
      </trkpt>
      <trkpt lat="43.42246" lon="6.44966">
        <ele>102</ele>
        <time>2022-10-14T14:23:43+02:00</time>
      </trkpt>
      <trkpt lat="43.42245" lon="6.4497">
        <ele>102</ele>
        <time>2022-10-14T14:23:43+02:00</time>
      </trkpt>
      <trkpt lat="43.42243" lon="6.44973">
        <ele>102</ele>
        <time>2022-10-14T14:23:43+02:00</time>
      </trkpt>
      <trkpt lat="43.42241" lon="6.44977">
        <ele>102</ele>
        <time>2022-10-14T14:23:43+02:00</time>
      </trkpt>
      <trkpt lat="43.4224" lon="6.4498">
        <ele>103</ele>
        <time>2022-10-14T14:23:43+02:00</time>
      </trkpt>
      <trkpt lat="43.42238" lon="6.44983">
        <ele>104</ele>
        <time>2022-10-14T14:23:43+02:00</time>
      </trkpt>
      <trkpt lat="43.42236" lon="6.44987">
        <ele>104</ele>
        <time>2022-10-14T14:23:43+02:00</time>
      </trkpt>
      <trkpt lat="43.42234" lon="6.44991">
        <ele>104</ele>
        <time>2022-10-14T14:23:43+02:00</time>
      </trkpt>
      <trkpt lat="43.42232" lon="6.44994">
        <ele>104</ele>
        <time>2022-10-14T14:23:43+02:00</time>
      </trkpt>
      <trkpt lat="43.4223" lon="6.44997">
        <ele>105</ele>
        <time>2022-10-14T14:23:43+02:00</time>
      </trkpt>
      <trkpt lat="43.42227" lon="6.45">
        <ele>105</ele>
        <time>2022-10-14T14:23:43+02:00</time>
      </trkpt>
      <trkpt lat="43.42225" lon="6.45003">
        <ele>105</ele>
        <time>2022-10-14T14:23:43+02:00</time>
      </trkpt>
      <trkpt lat="43.42222" lon="6.45007">
        <ele>105</ele>
        <time>2022-10-14T14:23:43+02:00</time>
      </trkpt>
      <trkpt lat="43.4222" lon="6.4501">
        <ele>105</ele>
        <time>2022-10-14T14:23:43+02:00</time>
      </trkpt>
      <trkpt lat="43.42217" lon="6.45013">
        <ele>105</ele>
        <time>2022-10-14T14:23:43+02:00</time>
      </trkpt>
      <trkpt lat="43.42215" lon="6.45016">
        <ele>105</ele>
        <time>2022-10-14T14:23:43+02:00</time>
      </trkpt>
      <trkpt lat="43.42212" lon="6.45019">
        <ele>106</ele>
        <time>2022-10-14T14:23:43+02:00</time>
      </trkpt>
      <trkpt lat="43.42209" lon="6.45022">
        <ele>106</ele>
        <time>2022-10-14T14:23:43+02:00</time>
      </trkpt>
      <trkpt lat="43.42206" lon="6.45025">
        <ele>106</ele>
        <time>2022-10-14T14:23:43+02:00</time>
      </trkpt>
      <trkpt lat="43.42204" lon="6.45028">
        <ele>106</ele>
        <time>2022-10-14T14:23:43+02:00</time>
      </trkpt>
      <trkpt lat="43.42201" lon="6.45031">
        <ele>106</ele>
        <time>2022-10-14T14:23:43+02:00</time>
      </trkpt>
      <trkpt lat="43.42199" lon="6.45034">
        <ele>106</ele>
        <time>2022-10-14T14:23:43+02:00</time>
      </trkpt>
      <trkpt lat="43.42196" lon="6.45038">
        <ele>106</ele>
        <time>2022-10-14T14:23:43+02:00</time>
      </trkpt>
      <trkpt lat="43.42193" lon="6.45041">
        <ele>106</ele>
        <time>2022-10-14T14:23:43+02:00</time>
      </trkpt>
      <trkpt lat="43.42191" lon="6.45044">
        <ele>106</ele>
        <time>2022-10-14T14:23:43+02:00</time>
      </trkpt>
      <trkpt lat="43.42188" lon="6.45048">
        <ele>107</ele>
        <time>2022-10-14T14:23:43+02:00</time>
      </trkpt>
      <trkpt lat="43.42186" lon="6.45052">
        <ele>107</ele>
        <time>2022-10-14T14:23:43+02:00</time>
      </trkpt>
      <trkpt lat="43.42184" lon="6.45055">
        <ele>107</ele>
        <time>2022-10-14T14:23:43+02:00</time>
      </trkpt>
      <trkpt lat="43.42182" lon="6.45059">
        <ele>107</ele>
        <time>2022-10-14T14:23:43+02:00</time>
      </trkpt>
      <trkpt lat="43.42179" lon="6.45062">
        <ele>108</ele>
        <time>2022-10-14T14:23:43+02:00</time>
      </trkpt>
      <trkpt lat="43.42177" lon="6.45066">
        <ele>108</ele>
        <time>2022-10-14T14:23:43+02:00</time>
      </trkpt>
      <trkpt lat="43.42175" lon="6.45069">
        <ele>108</ele>
        <time>2022-10-14T14:23:43+02:00</time>
      </trkpt>
      <trkpt lat="43.42173" lon="6.45073">
        <ele>108</ele>
        <time>2022-10-14T14:23:43+02:00</time>
      </trkpt>
      <trkpt lat="43.42171" lon="6.45077">
        <ele>108</ele>
        <time>2022-10-14T14:23:43+02:00</time>
      </trkpt>
      <trkpt lat="43.42169" lon="6.4508">
        <ele>108</ele>
        <time>2022-10-14T14:23:43+02:00</time>
      </trkpt>
      <trkpt lat="43.42167" lon="6.45084">
        <ele>108</ele>
        <time>2022-10-14T14:23:43+02:00</time>
      </trkpt>
      <trkpt lat="43.42166" lon="6.45087">
        <ele>109</ele>
        <time>2022-10-14T14:23:43+02:00</time>
      </trkpt>
      <trkpt lat="43.42163" lon="6.4509">
        <ele>109</ele>
        <time>2022-10-14T14:23:43+02:00</time>
      </trkpt>
      <trkpt lat="43.42161" lon="6.45093">
        <ele>109</ele>
        <time>2022-10-14T14:23:43+02:00</time>
      </trkpt>
      <trkpt lat="43.4216" lon="6.45096">
        <ele>109</ele>
        <time>2022-10-14T14:23:43+02:00</time>
      </trkpt>
      <trkpt lat="43.42158" lon="6.45099">
        <ele>110</ele>
        <time>2022-10-14T14:23:43+02:00</time>
      </trkpt>
      <trkpt lat="43.42156" lon="6.45102">
        <ele>111</ele>
        <time>2022-10-14T14:23:43+02:00</time>
      </trkpt>
      <trkpt lat="43.42154" lon="6.45105">
        <ele>111</ele>
        <time>2022-10-14T14:23:43+02:00</time>
      </trkpt>
      <trkpt lat="43.42152" lon="6.45108">
        <ele>111</ele>
        <time>2022-10-14T14:23:43+02:00</time>
      </trkpt>
      <trkpt lat="43.42151" lon="6.45111">
        <ele>112</ele>
        <time>2022-10-14T14:23:43+02:00</time>
      </trkpt>
      <trkpt lat="43.42149" lon="6.45114">
        <ele>113</ele>
        <time>2022-10-14T14:23:43+02:00</time>
      </trkpt>
      <trkpt lat="43.42148" lon="6.45118">
        <ele>113</ele>
        <time>2022-10-14T14:23:43+02:00</time>
      </trkpt>
      <trkpt lat="43.42146" lon="6.45121">
        <ele>113</ele>
        <time>2022-10-14T14:23:43+02:00</time>
      </trkpt>
      <trkpt lat="43.42145" lon="6.45124">
        <ele>114</ele>
        <time>2022-10-14T14:23:43+02:00</time>
      </trkpt>
      <trkpt lat="43.42143" lon="6.45126">
        <ele>114</ele>
        <time>2022-10-14T14:23:43+02:00</time>
      </trkpt>
      <trkpt lat="43.42142" lon="6.45129">
        <ele>114</ele>
        <time>2022-10-14T14:23:43+02:00</time>
      </trkpt>
      <trkpt lat="43.4214" lon="6.45132">
        <ele>114</ele>
        <time>2022-10-14T14:23:43+02:00</time>
      </trkpt>
      <trkpt lat="43.42138" lon="6.45134">
        <ele>115</ele>
        <time>2022-10-14T14:23:43+02:00</time>
      </trkpt>
      <trkpt lat="43.42137" lon="6.45137">
        <ele>117</ele>
        <time>2022-10-14T14:23:43+02:00</time>
      </trkpt>
      <trkpt lat="43.42135" lon="6.45139">
        <ele>117</ele>
        <time>2022-10-14T14:23:43+02:00</time>
      </trkpt>
      <trkpt lat="43.42133" lon="6.45142">
        <ele>117</ele>
        <time>2022-10-14T14:23:43+02:00</time>
      </trkpt>
      <trkpt lat="43.42132" lon="6.45145">
        <ele>117</ele>
        <time>2022-10-14T14:23:43+02:00</time>
      </trkpt>
      <trkpt lat="43.4213" lon="6.45148">
        <ele>117</ele>
        <time>2022-10-14T14:23:43+02:00</time>
      </trkpt>
      <trkpt lat="43.42129" lon="6.4515">
        <ele>117</ele>
        <time>2022-10-14T14:23:43+02:00</time>
      </trkpt>
      <trkpt lat="43.42127" lon="6.45153">
        <ele>117</ele>
        <time>2022-10-14T14:23:43+02:00</time>
      </trkpt>
      <trkpt lat="43.42126" lon="6.45155">
        <ele>118</ele>
        <time>2022-10-14T14:23:43+02:00</time>
      </trkpt>
      <trkpt lat="43.42124" lon="6.45158">
        <ele>119</ele>
        <time>2022-10-14T14:23:43+02:00</time>
      </trkpt>
      <trkpt lat="43.42123" lon="6.45161">
        <ele>119</ele>
        <time>2022-10-14T14:23:43+02:00</time>
      </trkpt>
      <trkpt lat="43.42121" lon="6.45163">
        <ele>119</ele>
        <time>2022-10-14T14:23:43+02:00</time>
      </trkpt>
      <trkpt lat="43.42119" lon="6.45165">
        <ele>119</ele>
        <time>2022-10-14T14:23:43+02:00</time>
      </trkpt>
      <trkpt lat="43.42118" lon="6.45168">
        <ele>119</ele>
        <time>2022-10-14T14:23:43+02:00</time>
      </trkpt>
      <trkpt lat="43.42116" lon="6.4517">
        <ele>119</ele>
        <time>2022-10-14T14:23:43+02:00</time>
      </trkpt>
      <trkpt lat="43.42114" lon="6.45173">
        <ele>119</ele>
        <time>2022-10-14T14:23:43+02:00</time>
      </trkpt>
      <trkpt lat="43.42113" lon="6.45176">
        <ele>120</ele>
        <time>2022-10-14T14:23:43+02:00</time>
      </trkpt>
      <trkpt lat="43.42111" lon="6.45178">
        <ele>120</ele>
        <time>2022-10-14T14:23:43+02:00</time>
      </trkpt>
      <trkpt lat="43.4211" lon="6.45181">
        <ele>120</ele>
        <time>2022-10-14T14:23:43+02:00</time>
      </trkpt>
      <trkpt lat="43.42108" lon="6.45184">
        <ele>120</ele>
        <time>2022-10-14T14:23:43+02:00</time>
      </trkpt>
      <trkpt lat="43.42107" lon="6.45187">
        <ele>121</ele>
        <time>2022-10-14T14:23:43+02:00</time>
      </trkpt>
      <trkpt lat="43.42105" lon="6.4519">
        <ele>121</ele>
        <time>2022-10-14T14:23:43+02:00</time>
      </trkpt>
      <trkpt lat="43.42104" lon="6.45193">
        <ele>121</ele>
        <time>2022-10-14T14:23:43+02:00</time>
      </trkpt>
      <trkpt lat="43.42103" lon="6.45197">
        <ele>121</ele>
        <time>2022-10-14T14:23:43+02:00</time>
      </trkpt>
      <trkpt lat="43.42101" lon="6.452">
        <ele>122</ele>
        <time>2022-10-14T14:23:43+02:00</time>
      </trkpt>
      <trkpt lat="43.421" lon="6.45203">
        <ele>122</ele>
        <time>2022-10-14T14:23:43+02:00</time>
      </trkpt>
      <trkpt lat="43.42098" lon="6.45207">
        <ele>122</ele>
        <time>2022-10-14T14:23:43+02:00</time>
      </trkpt>
      <trkpt lat="43.42097" lon="6.4521">
        <ele>122</ele>
        <time>2022-10-14T14:23:43+02:00</time>
      </trkpt>
      <trkpt lat="43.42096" lon="6.45214">
        <ele>123</ele>
        <time>2022-10-14T14:23:43+02:00</time>
      </trkpt>
      <trkpt lat="43.42094" lon="6.45217">
        <ele>123</ele>
        <time>2022-10-14T14:23:43+02:00</time>
      </trkpt>
      <trkpt lat="43.42093" lon="6.4522">
        <ele>123</ele>
        <time>2022-10-14T14:23:43+02:00</time>
      </trkpt>
      <trkpt lat="43.42092" lon="6.45224">
        <ele>123</ele>
        <time>2022-10-14T14:23:43+02:00</time>
      </trkpt>
      <trkpt lat="43.42091" lon="6.45227">
        <ele>123</ele>
        <time>2022-10-14T14:23:43+02:00</time>
      </trkpt>
      <trkpt lat="43.42091" lon="6.45231">
        <ele>124</ele>
        <time>2022-10-14T14:23:43+02:00</time>
      </trkpt>
      <trkpt lat="43.4209" lon="6.45234">
        <ele>124</ele>
        <time>2022-10-14T14:23:43+02:00</time>
      </trkpt>
      <trkpt lat="43.4209" lon="6.45238">
        <ele>124</ele>
        <time>2022-10-14T14:23:43+02:00</time>
      </trkpt>
      <trkpt lat="43.42089" lon="6.45242">
        <ele>124</ele>
        <time>2022-10-14T14:23:43+02:00</time>
      </trkpt>
      <trkpt lat="43.42089" lon="6.45246">
        <ele>125</ele>
        <time>2022-10-14T14:23:43+02:00</time>
      </trkpt>
      <trkpt lat="43.4209" lon="6.4525">
        <ele>125</ele>
        <time>2022-10-14T14:23:43+02:00</time>
      </trkpt>
      <trkpt lat="43.4209" lon="6.45254">
        <ele>125</ele>
        <time>2022-10-14T14:23:43+02:00</time>
      </trkpt>
      <trkpt lat="43.42091" lon="6.45258">
        <ele>125</ele>
        <time>2022-10-14T14:23:43+02:00</time>
      </trkpt>
      <trkpt lat="43.42092" lon="6.45262">
        <ele>125</ele>
        <time>2022-10-14T14:23:43+02:00</time>
      </trkpt>
      <trkpt lat="43.42092" lon="6.45266">
        <ele>125</ele>
        <time>2022-10-14T14:23:43+02:00</time>
      </trkpt>
      <trkpt lat="43.42092" lon="6.4527">
        <ele>125</ele>
        <time>2022-10-14T14:23:43+02:00</time>
      </trkpt>
      <trkpt lat="43.42092" lon="6.45274">
        <ele>125</ele>
        <time>2022-10-14T14:23:43+02:00</time>
      </trkpt>
      <trkpt lat="43.42092" lon="6.45278">
        <ele>125</ele>
        <time>2022-10-14T14:23:43+02:00</time>
      </trkpt>
      <trkpt lat="43.42092" lon="6.45283">
        <ele>125</ele>
        <time>2022-10-14T14:23:43+02:00</time>
      </trkpt>
      <trkpt lat="43.42092" lon="6.45286">
        <ele>125</ele>
        <time>2022-10-14T14:23:43+02:00</time>
      </trkpt>
      <trkpt lat="43.42092" lon="6.4529">
        <ele>125</ele>
        <time>2022-10-14T14:23:43+02:00</time>
      </trkpt>
      <trkpt lat="43.42092" lon="6.45293">
        <ele>126</ele>
        <time>2022-10-14T14:23:43+02:00</time>
      </trkpt>
      <trkpt lat="43.42092" lon="6.45297">
        <ele>126</ele>
        <time>2022-10-14T14:23:43+02:00</time>
      </trkpt>
      <trkpt lat="43.42092" lon="6.45301">
        <ele>126</ele>
        <time>2022-10-14T14:23:43+02:00</time>
      </trkpt>
      <trkpt lat="43.42092" lon="6.45304">
        <ele>126</ele>
        <time>2022-10-14T14:23:43+02:00</time>
      </trkpt>
      <trkpt lat="43.42093" lon="6.45309">
        <ele>126</ele>
        <time>2022-10-14T14:23:43+02:00</time>
      </trkpt>
      <trkpt lat="43.42094" lon="6.45313">
        <ele>126</ele>
        <time>2022-10-14T14:23:43+02:00</time>
      </trkpt>
      <trkpt lat="43.42094" lon="6.45319">
        <ele>126</ele>
        <time>2022-10-14T14:23:43+02:00</time>
      </trkpt>
      <trkpt lat="43.42095" lon="6.45324">
        <ele>125</ele>
        <time>2022-10-14T14:23:43+02:00</time>
      </trkpt>
      <trkpt lat="43.42096" lon="6.4533">
        <ele>125</ele>
        <time>2022-10-14T14:23:43+02:00</time>
      </trkpt>
      <trkpt lat="43.42097" lon="6.45336">
        <ele>125</ele>
        <time>2022-10-14T14:23:43+02:00</time>
      </trkpt>
      <trkpt lat="43.42097" lon="6.45341">
        <ele>125</ele>
        <time>2022-10-14T14:23:43+02:00</time>
      </trkpt>
      <trkpt lat="43.42098" lon="6.45347">
        <ele>125</ele>
        <time>2022-10-14T14:23:43+02:00</time>
      </trkpt>
      <trkpt lat="43.421" lon="6.45353">
        <ele>125</ele>
        <time>2022-10-14T14:23:43+02:00</time>
      </trkpt>
      <trkpt lat="43.42101" lon="6.45359">
        <ele>125</ele>
        <time>2022-10-14T14:23:43+02:00</time>
      </trkpt>
      <trkpt lat="43.42102" lon="6.45365">
        <ele>125</ele>
        <time>2022-10-14T14:23:43+02:00</time>
      </trkpt>
      <trkpt lat="43.42104" lon="6.45371">
        <ele>125</ele>
        <time>2022-10-14T14:23:43+02:00</time>
      </trkpt>
      <trkpt lat="43.42106" lon="6.45376">
        <ele>125</ele>
        <time>2022-10-14T14:23:43+02:00</time>
      </trkpt>
      <trkpt lat="43.42108" lon="6.45381">
        <ele>125</ele>
        <time>2022-10-14T14:23:43+02:00</time>
      </trkpt>
      <trkpt lat="43.4211" lon="6.45386">
        <ele>125</ele>
        <time>2022-10-14T14:23:43+02:00</time>
      </trkpt>
      <trkpt lat="43.42112" lon="6.45392">
        <ele>126</ele>
        <time>2022-10-14T14:23:43+02:00</time>
      </trkpt>
      <trkpt lat="43.42114" lon="6.45396">
        <ele>125</ele>
        <time>2022-10-14T14:23:43+02:00</time>
      </trkpt>
      <trkpt lat="43.42116" lon="6.45401">
        <ele>125</ele>
        <time>2022-10-14T14:23:43+02:00</time>
      </trkpt>
      <trkpt lat="43.42119" lon="6.45406">
        <ele>125</ele>
        <time>2022-10-14T14:23:43+02:00</time>
      </trkpt>
      <trkpt lat="43.42121" lon="6.4541">
        <ele>125</ele>
        <time>2022-10-14T14:23:43+02:00</time>
      </trkpt>
      <trkpt lat="43.42124" lon="6.45413">
        <ele>126</ele>
        <time>2022-10-14T14:23:43+02:00</time>
      </trkpt>
      <trkpt lat="43.42128" lon="6.45416">
        <ele>126</ele>
        <time>2022-10-14T14:23:43+02:00</time>
      </trkpt>
      <trkpt lat="43.42131" lon="6.45418">
        <ele>126</ele>
        <time>2022-10-14T14:23:43+02:00</time>
      </trkpt>
      <trkpt lat="43.42134" lon="6.45421">
        <ele>126</ele>
        <time>2022-10-14T14:23:43+02:00</time>
      </trkpt>
      <trkpt lat="43.42137" lon="6.45424">
        <ele>127</ele>
        <time>2022-10-14T14:23:43+02:00</time>
      </trkpt>
      <trkpt lat="43.4214" lon="6.45426">
        <ele>127</ele>
        <time>2022-10-14T14:23:43+02:00</time>
      </trkpt>
      <trkpt lat="43.42143" lon="6.45426">
        <ele>127</ele>
        <time>2022-10-14T14:23:43+02:00</time>
      </trkpt>
      <trkpt lat="43.42147" lon="6.45427">
        <ele>127</ele>
        <time>2022-10-14T14:23:43+02:00</time>
      </trkpt>
      <trkpt lat="43.4215" lon="6.45427">
        <ele>128</ele>
        <time>2022-10-14T14:23:43+02:00</time>
      </trkpt>
      <trkpt lat="43.42153" lon="6.45428">
        <ele>128</ele>
        <time>2022-10-14T14:23:43+02:00</time>
      </trkpt>
      <trkpt lat="43.42156" lon="6.45428">
        <ele>128</ele>
        <time>2022-10-14T14:23:43+02:00</time>
      </trkpt>
      <trkpt lat="43.42158" lon="6.45429">
        <ele>129</ele>
        <time>2022-10-14T14:23:43+02:00</time>
      </trkpt>
      <trkpt lat="43.42161" lon="6.4543">
        <ele>129</ele>
        <time>2022-10-14T14:23:43+02:00</time>
      </trkpt>
      <trkpt lat="43.42163" lon="6.45431">
        <ele>129</ele>
        <time>2022-10-14T14:23:43+02:00</time>
      </trkpt>
      <trkpt lat="43.42165" lon="6.45433">
        <ele>129</ele>
        <time>2022-10-14T14:23:43+02:00</time>
      </trkpt>
      <trkpt lat="43.42167" lon="6.45433">
        <ele>130</ele>
        <time>2022-10-14T14:23:43+02:00</time>
      </trkpt>
      <trkpt lat="43.4217" lon="6.45434">
        <ele>131</ele>
        <time>2022-10-14T14:23:43+02:00</time>
      </trkpt>
      <trkpt lat="43.42172" lon="6.45434">
        <ele>131</ele>
        <time>2022-10-14T14:23:43+02:00</time>
      </trkpt>
      <trkpt lat="43.42174" lon="6.45434">
        <ele>131</ele>
        <time>2022-10-14T14:23:43+02:00</time>
      </trkpt>
      <trkpt lat="43.42177" lon="6.45435">
        <ele>132</ele>
        <time>2022-10-14T14:23:43+02:00</time>
      </trkpt>
      <trkpt lat="43.42179" lon="6.45435">
        <ele>133</ele>
        <time>2022-10-14T14:23:43+02:00</time>
      </trkpt>
      <trkpt lat="43.42181" lon="6.45435">
        <ele>133</ele>
        <time>2022-10-14T14:23:43+02:00</time>
      </trkpt>
      <trkpt lat="43.42183" lon="6.45436">
        <ele>133</ele>
        <time>2022-10-14T14:23:43+02:00</time>
      </trkpt>
      <trkpt lat="43.42185" lon="6.45437">
        <ele>134</ele>
        <time>2022-10-14T14:23:43+02:00</time>
      </trkpt>
      <trkpt lat="43.42186" lon="6.45439">
        <ele>134</ele>
        <time>2022-10-14T14:23:43+02:00</time>
      </trkpt>
      <trkpt lat="43.42186" lon="6.45441">
        <ele>134</ele>
        <time>2022-10-14T14:23:43+02:00</time>
      </trkpt>
      <trkpt lat="43.42185" lon="6.45443">
        <ele>134</ele>
        <time>2022-10-14T14:23:43+02:00</time>
      </trkpt>
      <trkpt lat="43.42183" lon="6.45446">
        <ele>133</ele>
        <time>2022-10-14T14:23:43+02:00</time>
      </trkpt>
      <trkpt lat="43.42181" lon="6.4545">
        <ele>133</ele>
        <time>2022-10-14T14:23:43+02:00</time>
      </trkpt>
      <trkpt lat="43.42178" lon="6.45455">
        <ele>133</ele>
        <time>2022-10-14T14:23:43+02:00</time>
      </trkpt>
      <trkpt lat="43.42174" lon="6.45459">
        <ele>133</ele>
        <time>2022-10-14T14:23:43+02:00</time>
      </trkpt>
      <trkpt lat="43.4217" lon="6.45465">
        <ele>132</ele>
        <time>2022-10-14T14:23:43+02:00</time>
      </trkpt>
      <trkpt lat="43.42167" lon="6.4547">
        <ele>130</ele>
        <time>2022-10-14T14:23:43+02:00</time>
      </trkpt>
      <trkpt lat="43.42165" lon="6.45474">
        <ele>130</ele>
        <time>2022-10-14T14:23:43+02:00</time>
      </trkpt>
      <trkpt lat="43.42166" lon="6.45478">
        <ele>130</ele>
        <time>2022-10-14T14:23:43+02:00</time>
      </trkpt>
      <trkpt lat="43.42165" lon="6.45482">
        <ele>130</ele>
        <time>2022-10-14T14:23:43+02:00</time>
      </trkpt>
      <trkpt lat="43.42162" lon="6.45484">
        <ele>130</ele>
        <time>2022-10-14T14:23:43+02:00</time>
      </trkpt>
      <trkpt lat="43.4216" lon="6.45488">
        <ele>130</ele>
        <time>2022-10-14T14:23:43+02:00</time>
      </trkpt>
      <trkpt lat="43.42157" lon="6.45492">
        <ele>130</ele>
        <time>2022-10-14T14:23:43+02:00</time>
      </trkpt>
      <trkpt lat="43.42156" lon="6.45498">
        <ele>129</ele>
        <time>2022-10-14T14:23:43+02:00</time>
      </trkpt>
      <trkpt lat="43.42156" lon="6.45504">
        <ele>128</ele>
        <time>2022-10-14T14:23:43+02:00</time>
      </trkpt>
      <trkpt lat="43.42154" lon="6.4551">
        <ele>128</ele>
        <time>2022-10-14T14:23:43+02:00</time>
      </trkpt>
      <trkpt lat="43.42151" lon="6.45514">
        <ele>128</ele>
        <time>2022-10-14T14:23:43+02:00</time>
      </trkpt>
      <trkpt lat="43.42148" lon="6.45516">
        <ele>127</ele>
        <time>2022-10-14T14:23:43+02:00</time>
      </trkpt>
      <trkpt lat="43.42147" lon="6.4552">
        <ele>126</ele>
        <time>2022-10-14T14:23:43+02:00</time>
      </trkpt>
      <trkpt lat="43.42147" lon="6.45525">
        <ele>126</ele>
        <time>2022-10-14T14:23:43+02:00</time>
      </trkpt>
      <trkpt lat="43.42144" lon="6.4553">
        <ele>126</ele>
        <time>2022-10-14T14:23:43+02:00</time>
      </trkpt>
      <trkpt lat="43.42141" lon="6.45537">
        <ele>125</ele>
        <time>2022-10-14T14:23:43+02:00</time>
      </trkpt>
      <trkpt lat="43.4214" lon="6.45545">
        <ele>121</ele>
        <time>2022-10-14T14:23:43+02:00</time>
      </trkpt>
      <trkpt lat="43.4214" lon="6.45553">
        <ele>121</ele>
        <time>2022-10-14T14:23:43+02:00</time>
      </trkpt>
      <trkpt lat="43.4214" lon="6.45561">
        <ele>121</ele>
        <time>2022-10-14T14:23:43+02:00</time>
      </trkpt>
      <trkpt lat="43.42139" lon="6.45567">
        <ele>121</ele>
        <time>2022-10-14T14:23:43+02:00</time>
      </trkpt>
      <trkpt lat="43.4214" lon="6.45574">
        <ele>120</ele>
        <time>2022-10-14T14:23:43+02:00</time>
      </trkpt>
      <trkpt lat="43.42139" lon="6.45581">
        <ele>120</ele>
        <time>2022-10-14T14:23:43+02:00</time>
      </trkpt>
      <trkpt lat="43.42141" lon="6.45587">
        <ele>120</ele>
        <time>2022-10-14T14:23:43+02:00</time>
      </trkpt>
      <trkpt lat="43.42142" lon="6.45591">
        <ele>120</ele>
        <time>2022-10-14T14:23:43+02:00</time>
      </trkpt>
      <trkpt lat="43.4214" lon="6.45592">
        <ele>121</ele>
        <time>2022-10-14T14:23:43+02:00</time>
      </trkpt>
      <trkpt lat="43.42137" lon="6.45593">
        <ele>121</ele>
        <time>2022-10-14T14:23:43+02:00</time>
      </trkpt>
      <trkpt lat="43.42134" lon="6.45595">
        <ele>121</ele>
        <time>2022-10-14T14:23:43+02:00</time>
      </trkpt>
      <trkpt lat="43.42131" lon="6.45599">
        <ele>121</ele>
        <time>2022-10-14T14:23:43+02:00</time>
      </trkpt>
      <trkpt lat="43.42127" lon="6.45605">
        <ele>120</ele>
        <time>2022-10-14T14:23:43+02:00</time>
      </trkpt>
      <trkpt lat="43.42124" lon="6.45609">
        <ele>120</ele>
        <time>2022-10-14T14:23:43+02:00</time>
      </trkpt>
      <trkpt lat="43.4212" lon="6.45613">
        <ele>120</ele>
        <time>2022-10-14T14:23:43+02:00</time>
      </trkpt>
      <trkpt lat="43.42115" lon="6.45617">
        <ele>119</ele>
        <time>2022-10-14T14:23:43+02:00</time>
      </trkpt>
      <trkpt lat="43.4211" lon="6.45622">
        <ele>117</ele>
        <time>2022-10-14T14:23:43+02:00</time>
      </trkpt>
      <trkpt lat="43.42106" lon="6.45626">
        <ele>117</ele>
        <time>2022-10-14T14:23:43+02:00</time>
      </trkpt>
      <trkpt lat="43.42102" lon="6.45632">
        <ele>117</ele>
        <time>2022-10-14T14:23:43+02:00</time>
      </trkpt>
      <trkpt lat="43.42101" lon="6.45638">
        <ele>117</ele>
        <time>2022-10-14T14:23:43+02:00</time>
      </trkpt>
      <trkpt lat="43.421" lon="6.45644">
        <ele>118</ele>
        <time>2022-10-14T14:23:43+02:00</time>
      </trkpt>
      <trkpt lat="43.421" lon="6.4565">
        <ele>118</ele>
        <time>2022-10-14T14:23:43+02:00</time>
      </trkpt>
      <trkpt lat="43.42099" lon="6.45657">
        <ele>118</ele>
        <time>2022-10-14T14:23:43+02:00</time>
      </trkpt>
      <trkpt lat="43.42098" lon="6.45664">
        <ele>117</ele>
        <time>2022-10-14T14:23:43+02:00</time>
      </trkpt>
      <trkpt lat="43.42095" lon="6.45672">
        <ele>113</ele>
        <time>2022-10-14T14:23:43+02:00</time>
      </trkpt>
      <trkpt lat="43.42092" lon="6.45679">
        <ele>113</ele>
        <time>2022-10-14T14:23:43+02:00</time>
      </trkpt>
      <trkpt lat="43.4209" lon="6.45686">
        <ele>113</ele>
        <time>2022-10-14T14:23:43+02:00</time>
      </trkpt>
      <trkpt lat="43.42089" lon="6.45692">
        <ele>113</ele>
        <time>2022-10-14T14:23:43+02:00</time>
      </trkpt>
      <trkpt lat="43.42088" lon="6.45698">
        <ele>113</ele>
        <time>2022-10-14T14:23:43+02:00</time>
      </trkpt>
      <trkpt lat="43.42085" lon="6.45705">
        <ele>113</ele>
        <time>2022-10-14T14:23:43+02:00</time>
      </trkpt>
      <trkpt lat="43.42082" lon="6.45711">
        <ele>113</ele>
        <time>2022-10-14T14:23:43+02:00</time>
      </trkpt>
      <trkpt lat="43.42079" lon="6.45717">
        <ele>113</ele>
        <time>2022-10-14T14:23:43+02:00</time>
      </trkpt>
      <trkpt lat="43.42076" lon="6.45725">
        <ele>109</ele>
        <time>2022-10-14T14:23:43+02:00</time>
      </trkpt>
      <trkpt lat="43.42073" lon="6.45732">
        <ele>109</ele>
        <time>2022-10-14T14:23:43+02:00</time>
      </trkpt>
      <trkpt lat="43.42071" lon="6.4574">
        <ele>109</ele>
        <time>2022-10-14T14:23:43+02:00</time>
      </trkpt>
      <trkpt lat="43.42069" lon="6.45747">
        <ele>110</ele>
        <time>2022-10-14T14:23:43+02:00</time>
      </trkpt>
      <trkpt lat="43.42066" lon="6.45754">
        <ele>107</ele>
        <time>2022-10-14T14:23:43+02:00</time>
      </trkpt>
      <trkpt lat="43.42062" lon="6.45763">
        <ele>107</ele>
        <time>2022-10-14T14:23:43+02:00</time>
      </trkpt>
      <trkpt lat="43.42059" lon="6.45773">
        <ele>107</ele>
        <time>2022-10-14T14:23:43+02:00</time>
      </trkpt>
      <trkpt lat="43.42056" lon="6.45782">
        <ele>108</ele>
        <time>2022-10-14T14:23:43+02:00</time>
      </trkpt>
      <trkpt lat="43.42053" lon="6.45789">
        <ele>108</ele>
        <time>2022-10-14T14:23:43+02:00</time>
      </trkpt>
      <trkpt lat="43.42047" lon="6.45793">
        <ele>108</ele>
        <time>2022-10-14T14:23:43+02:00</time>
      </trkpt>
      <trkpt lat="43.42041" lon="6.45799">
        <ele>108</ele>
        <time>2022-10-14T14:23:43+02:00</time>
      </trkpt>
      <trkpt lat="43.42035" lon="6.45805">
        <ele>107</ele>
        <time>2022-10-14T14:23:43+02:00</time>
      </trkpt>
      <trkpt lat="43.4203" lon="6.45811">
        <ele>105</ele>
        <time>2022-10-14T14:23:43+02:00</time>
      </trkpt>
      <trkpt lat="43.42027" lon="6.45818">
        <ele>105</ele>
        <time>2022-10-14T14:23:43+02:00</time>
      </trkpt>
      <trkpt lat="43.42026" lon="6.45827">
        <ele>105</ele>
        <time>2022-10-14T14:23:43+02:00</time>
      </trkpt>
      <trkpt lat="43.42026" lon="6.45837">
        <ele>104</ele>
        <time>2022-10-14T14:23:43+02:00</time>
      </trkpt>
      <trkpt lat="43.42026" lon="6.45846">
        <ele>103</ele>
        <time>2022-10-14T14:23:43+02:00</time>
      </trkpt>
      <trkpt lat="43.42025" lon="6.45854">
        <ele>103</ele>
        <time>2022-10-14T14:23:43+02:00</time>
      </trkpt>
      <trkpt lat="43.42021" lon="6.45858">
        <ele>103</ele>
        <time>2022-10-14T14:23:43+02:00</time>
      </trkpt>
      <trkpt lat="43.42016" lon="6.45862">
        <ele>103</ele>
        <time>2022-10-14T14:23:43+02:00</time>
      </trkpt>
      <trkpt lat="43.42013" lon="6.45866">
        <ele>103</ele>
        <time>2022-10-14T14:23:43+02:00</time>
      </trkpt>
      <trkpt lat="43.42009" lon="6.45872">
        <ele>103</ele>
        <time>2022-10-14T14:23:43+02:00</time>
      </trkpt>
      <trkpt lat="43.42006" lon="6.45877">
        <ele>103</ele>
        <time>2022-10-14T14:23:43+02:00</time>
      </trkpt>
      <trkpt lat="43.42004" lon="6.45884">
        <ele>103</ele>
        <time>2022-10-14T14:23:43+02:00</time>
      </trkpt>
      <trkpt lat="43.42002" lon="6.45891">
        <ele>102</ele>
        <time>2022-10-14T14:23:43+02:00</time>
      </trkpt>
      <trkpt lat="43.41999" lon="6.45896">
        <ele>102</ele>
        <time>2022-10-14T14:23:43+02:00</time>
      </trkpt>
      <trkpt lat="43.41995" lon="6.459">
        <ele>102</ele>
        <time>2022-10-14T14:23:43+02:00</time>
      </trkpt>
      <trkpt lat="43.41993" lon="6.45906">
        <ele>102</ele>
        <time>2022-10-14T14:23:43+02:00</time>
      </trkpt>
      <trkpt lat="43.41994" lon="6.45912">
        <ele>101</ele>
        <time>2022-10-14T14:23:43+02:00</time>
      </trkpt>
      <trkpt lat="43.41991" lon="6.45916">
        <ele>101</ele>
        <time>2022-10-14T14:23:43+02:00</time>
      </trkpt>
      <trkpt lat="43.41988" lon="6.45919">
        <ele>101</ele>
        <time>2022-10-14T14:23:43+02:00</time>
      </trkpt>
      <trkpt lat="43.41986" lon="6.45923">
        <ele>101</ele>
        <time>2022-10-14T14:23:43+02:00</time>
      </trkpt>
      <trkpt lat="43.41986" lon="6.45928">
        <ele>99</ele>
        <time>2022-10-14T14:23:43+02:00</time>
      </trkpt>
      <trkpt lat="43.41986" lon="6.45934">
        <ele>99</ele>
        <time>2022-10-14T14:23:43+02:00</time>
      </trkpt>
      <trkpt lat="43.41985" lon="6.45939">
        <ele>99</ele>
        <time>2022-10-14T14:23:43+02:00</time>
      </trkpt>
      <trkpt lat="43.41984" lon="6.45945">
        <ele>98</ele>
        <time>2022-10-14T14:23:43+02:00</time>
      </trkpt>
      <trkpt lat="43.4198" lon="6.45949">
        <ele>96</ele>
        <time>2022-10-14T14:23:43+02:00</time>
      </trkpt>
      <trkpt lat="43.41977" lon="6.45953">
        <ele>96</ele>
        <time>2022-10-14T14:23:43+02:00</time>
      </trkpt>
      <trkpt lat="43.41976" lon="6.45958">
        <ele>96</ele>
        <time>2022-10-14T14:23:43+02:00</time>
      </trkpt>
      <trkpt lat="43.41976" lon="6.45962">
        <ele>96</ele>
        <time>2022-10-14T14:23:43+02:00</time>
      </trkpt>
      <trkpt lat="43.41977" lon="6.45967">
        <ele>96</ele>
        <time>2022-10-14T14:23:43+02:00</time>
      </trkpt>
      <trkpt lat="43.41978" lon="6.45971">
        <ele>96</ele>
        <time>2022-10-14T14:23:43+02:00</time>
      </trkpt>
      <trkpt lat="43.41978" lon="6.45975">
        <ele>96</ele>
        <time>2022-10-14T14:23:43+02:00</time>
      </trkpt>
      <trkpt lat="43.41979" lon="6.45979">
        <ele>96</ele>
        <time>2022-10-14T14:23:43+02:00</time>
      </trkpt>
      <trkpt lat="43.4198" lon="6.45984">
        <ele>95</ele>
        <time>2022-10-14T14:23:43+02:00</time>
      </trkpt>
      <trkpt lat="43.4198" lon="6.45989">
        <ele>95</ele>
        <time>2022-10-14T14:23:43+02:00</time>
      </trkpt>
      <trkpt lat="43.4198" lon="6.45994">
        <ele>95</ele>
        <time>2022-10-14T14:23:43+02:00</time>
      </trkpt>
      <trkpt lat="43.41979" lon="6.46">
        <ele>95</ele>
        <time>2022-10-14T14:23:43+02:00</time>
      </trkpt>
      <trkpt lat="43.41979" lon="6.46005">
        <ele>95</ele>
        <time>2022-10-14T14:23:43+02:00</time>
      </trkpt>
      <trkpt lat="43.41978" lon="6.4601">
        <ele>95</ele>
        <time>2022-10-14T14:23:43+02:00</time>
      </trkpt>
      <trkpt lat="43.41977" lon="6.46015">
        <ele>95</ele>
        <time>2022-10-14T14:23:43+02:00</time>
      </trkpt>
      <trkpt lat="43.41975" lon="6.4602">
        <ele>95</ele>
        <time>2022-10-14T14:23:43+02:00</time>
      </trkpt>
      <trkpt lat="43.41973" lon="6.46025">
        <ele>96</ele>
        <time>2022-10-14T14:23:43+02:00</time>
      </trkpt>
      <trkpt lat="43.4197" lon="6.46029">
        <ele>96</ele>
        <time>2022-10-14T14:23:43+02:00</time>
      </trkpt>
      <trkpt lat="43.41967" lon="6.46034">
        <ele>96</ele>
        <time>2022-10-14T14:23:43+02:00</time>
      </trkpt>
      <trkpt lat="43.41964" lon="6.46039">
        <ele>95</ele>
        <time>2022-10-14T14:23:43+02:00</time>
      </trkpt>
      <trkpt lat="43.4196" lon="6.46045">
        <ele>94</ele>
        <time>2022-10-14T14:23:43+02:00</time>
      </trkpt>
      <trkpt lat="43.41956" lon="6.4605">
        <ele>94</ele>
        <time>2022-10-14T14:23:43+02:00</time>
      </trkpt>
      <trkpt lat="43.41952" lon="6.46055">
        <ele>94</ele>
        <time>2022-10-14T14:23:43+02:00</time>
      </trkpt>
      <trkpt lat="43.41948" lon="6.4606">
        <ele>93</ele>
        <time>2022-10-14T14:23:43+02:00</time>
      </trkpt>
      <trkpt lat="43.41944" lon="6.46065">
        <ele>94</ele>
        <time>2022-10-14T14:23:43+02:00</time>
      </trkpt>
      <trkpt lat="43.4194" lon="6.4607">
        <ele>94</ele>
        <time>2022-10-14T14:23:43+02:00</time>
      </trkpt>
      <trkpt lat="43.41936" lon="6.46076">
        <ele>94</ele>
        <time>2022-10-14T14:23:43+02:00</time>
      </trkpt>
      <trkpt lat="43.41931" lon="6.46083">
        <ele>93</ele>
        <time>2022-10-14T14:23:43+02:00</time>
      </trkpt>
      <trkpt lat="43.41928" lon="6.46091">
        <ele>91</ele>
        <time>2022-10-14T14:23:43+02:00</time>
      </trkpt>
      <trkpt lat="43.41924" lon="6.46099">
        <ele>91</ele>
        <time>2022-10-14T14:23:43+02:00</time>
      </trkpt>
      <trkpt lat="43.41921" lon="6.46108">
        <ele>91</ele>
        <time>2022-10-14T14:23:43+02:00</time>
      </trkpt>
      <trkpt lat="43.41917" lon="6.46118">
        <ele>90</ele>
        <time>2022-10-14T14:23:43+02:00</time>
      </trkpt>
      <trkpt lat="43.41914" lon="6.46127">
        <ele>89</ele>
        <time>2022-10-14T14:23:43+02:00</time>
      </trkpt>
      <trkpt lat="43.4191" lon="6.46137">
        <ele>89</ele>
        <time>2022-10-14T14:23:43+02:00</time>
      </trkpt>
      <trkpt lat="43.41906" lon="6.46147">
        <ele>89</ele>
        <time>2022-10-14T14:23:43+02:00</time>
      </trkpt>
      <trkpt lat="43.41901" lon="6.46156">
        <ele>88</ele>
        <time>2022-10-14T14:23:43+02:00</time>
      </trkpt>
      <trkpt lat="43.41896" lon="6.46164">
        <ele>86</ele>
        <time>2022-10-14T14:23:43+02:00</time>
      </trkpt>
      <trkpt lat="43.4189" lon="6.46172">
        <ele>86</ele>
        <time>2022-10-14T14:23:43+02:00</time>
      </trkpt>
      <trkpt lat="43.41884" lon="6.4618">
        <ele>86</ele>
        <time>2022-10-14T14:23:43+02:00</time>
      </trkpt>
      <trkpt lat="43.41878" lon="6.46188">
        <ele>85</ele>
        <time>2022-10-14T14:23:43+02:00</time>
      </trkpt>
      <trkpt lat="43.41873" lon="6.46199">
        <ele>83</ele>
        <time>2022-10-14T14:23:43+02:00</time>
      </trkpt>
      <trkpt lat="43.41869" lon="6.46209">
        <ele>83</ele>
        <time>2022-10-14T14:23:43+02:00</time>
      </trkpt>
      <trkpt lat="43.41865" lon="6.4622">
        <ele>83</ele>
        <time>2022-10-14T14:23:43+02:00</time>
      </trkpt>
      <trkpt lat="43.4186" lon="6.4623">
        <ele>82</ele>
        <time>2022-10-14T14:23:43+02:00</time>
      </trkpt>
      <trkpt lat="43.41855" lon="6.46241">
        <ele>81</ele>
        <time>2022-10-14T14:23:43+02:00</time>
      </trkpt>
      <trkpt lat="43.4185" lon="6.46251">
        <ele>81</ele>
        <time>2022-10-14T14:23:43+02:00</time>
      </trkpt>
      <trkpt lat="43.41845" lon="6.4626">
        <ele>81</ele>
        <time>2022-10-14T14:23:43+02:00</time>
      </trkpt>
      <trkpt lat="43.41839" lon="6.46268">
        <ele>81</ele>
        <time>2022-10-14T14:23:43+02:00</time>
      </trkpt>
      <trkpt lat="43.41833" lon="6.46277">
        <ele>80</ele>
        <time>2022-10-14T14:23:43+02:00</time>
      </trkpt>
      <trkpt lat="43.41827" lon="6.46286">
        <ele>80</ele>
        <time>2022-10-14T14:23:43+02:00</time>
      </trkpt>
      <trkpt lat="43.41821" lon="6.46296">
        <ele>80</ele>
        <time>2022-10-14T14:23:43+02:00</time>
      </trkpt>
      <trkpt lat="43.41814" lon="6.46306">
        <ele>80</ele>
        <time>2022-10-14T14:23:43+02:00</time>
      </trkpt>
      <trkpt lat="43.41807" lon="6.46316">
        <ele>76</ele>
        <time>2022-10-14T14:23:43+02:00</time>
      </trkpt>
      <trkpt lat="43.418" lon="6.46325">
        <ele>76</ele>
        <time>2022-10-14T14:23:43+02:00</time>
      </trkpt>
      <trkpt lat="43.41793" lon="6.46333">
        <ele>76</ele>
        <time>2022-10-14T14:23:43+02:00</time>
      </trkpt>
      <trkpt lat="43.41786" lon="6.46341">
        <ele>76</ele>
        <time>2022-10-14T14:23:43+02:00</time>
      </trkpt>
      <trkpt lat="43.4178" lon="6.46347">
        <ele>76</ele>
        <time>2022-10-14T14:23:43+02:00</time>
      </trkpt>
      <trkpt lat="43.41776" lon="6.46351">
        <ele>76</ele>
        <time>2022-10-14T14:23:43+02:00</time>
      </trkpt>
      <trkpt lat="43.41772" lon="6.46353">
        <ele>76</ele>
        <time>2022-10-14T14:23:43+02:00</time>
      </trkpt>
      <trkpt lat="43.41769" lon="6.46356">
        <ele>77</ele>
        <time>2022-10-14T14:23:43+02:00</time>
      </trkpt>
      <trkpt lat="43.41765" lon="6.46358">
        <ele>76</ele>
        <time>2022-10-14T14:23:43+02:00</time>
      </trkpt>
      <trkpt lat="43.4176" lon="6.46363">
        <ele>76</ele>
        <time>2022-10-14T14:23:43+02:00</time>
      </trkpt>
      <trkpt lat="43.41757" lon="6.46368">
        <ele>76</ele>
        <time>2022-10-14T14:23:43+02:00</time>
      </trkpt>
      <trkpt lat="43.41755" lon="6.46375">
        <ele>76</ele>
        <time>2022-10-14T14:23:43+02:00</time>
      </trkpt>
      <trkpt lat="43.41753" lon="6.4638">
        <ele>77</ele>
        <time>2022-10-14T14:23:43+02:00</time>
      </trkpt>
      <trkpt lat="43.4175" lon="6.46385">
        <ele>77</ele>
        <time>2022-10-14T14:23:43+02:00</time>
      </trkpt>
      <trkpt lat="43.41748" lon="6.46391">
        <ele>77</ele>
        <time>2022-10-14T14:23:43+02:00</time>
      </trkpt>
      <trkpt lat="43.41746" lon="6.46397">
        <ele>76</ele>
        <time>2022-10-14T14:23:43+02:00</time>
      </trkpt>
      <trkpt lat="43.41745" lon="6.46404">
        <ele>75</ele>
        <time>2022-10-14T14:23:43+02:00</time>
      </trkpt>
      <trkpt lat="43.41744" lon="6.46411">
        <ele>75</ele>
        <time>2022-10-14T14:23:43+02:00</time>
      </trkpt>
      <trkpt lat="43.41744" lon="6.46418">
        <ele>75</ele>
        <time>2022-10-14T14:23:43+02:00</time>
      </trkpt>
      <trkpt lat="43.41743" lon="6.46424">
        <ele>75</ele>
        <time>2022-10-14T14:23:43+02:00</time>
      </trkpt>
      <trkpt lat="43.41743" lon="6.46431">
        <ele>75</ele>
        <time>2022-10-14T14:23:43+02:00</time>
      </trkpt>
      <trkpt lat="43.41743" lon="6.46437">
        <ele>75</ele>
        <time>2022-10-14T14:23:43+02:00</time>
      </trkpt>
      <trkpt lat="43.41743" lon="6.46444">
        <ele>75</ele>
        <time>2022-10-14T14:23:43+02:00</time>
      </trkpt>
      <trkpt lat="43.41742" lon="6.4645">
        <ele>75</ele>
        <time>2022-10-14T14:23:43+02:00</time>
      </trkpt>
      <trkpt lat="43.41742" lon="6.46457">
        <ele>75</ele>
        <time>2022-10-14T14:23:43+02:00</time>
      </trkpt>
      <trkpt lat="43.41742" lon="6.46464">
        <ele>75</ele>
        <time>2022-10-14T14:23:43+02:00</time>
      </trkpt>
      <trkpt lat="43.41742" lon="6.4647">
        <ele>75</ele>
        <time>2022-10-14T14:23:43+02:00</time>
      </trkpt>
      <trkpt lat="43.41741" lon="6.46477">
        <ele>74</ele>
        <time>2022-10-14T14:23:43+02:00</time>
      </trkpt>
      <trkpt lat="43.41741" lon="6.46484">
        <ele>74</ele>
        <time>2022-10-14T14:23:43+02:00</time>
      </trkpt>
      <trkpt lat="43.41741" lon="6.46491">
        <ele>74</ele>
        <time>2022-10-14T14:23:43+02:00</time>
      </trkpt>
      <trkpt lat="43.41741" lon="6.46498">
        <ele>74</ele>
        <time>2022-10-14T14:23:43+02:00</time>
      </trkpt>
      <trkpt lat="43.41741" lon="6.46505">
        <ele>74</ele>
        <time>2022-10-14T14:23:43+02:00</time>
      </trkpt>
      <trkpt lat="43.41741" lon="6.46513">
        <ele>73</ele>
        <time>2022-10-14T14:23:43+02:00</time>
      </trkpt>
      <trkpt lat="43.41741" lon="6.46521">
        <ele>73</ele>
        <time>2022-10-14T14:23:43+02:00</time>
      </trkpt>
      <trkpt lat="43.4174" lon="6.4653">
        <ele>73</ele>
        <time>2022-10-14T14:23:43+02:00</time>
      </trkpt>
      <trkpt lat="43.41739" lon="6.4654">
        <ele>72</ele>
        <time>2022-10-14T14:23:43+02:00</time>
      </trkpt>
      <trkpt lat="43.41737" lon="6.46549">
        <ele>69</ele>
        <time>2022-10-14T14:23:43+02:00</time>
      </trkpt>
      <trkpt lat="43.41734" lon="6.4656">
        <ele>69</ele>
        <time>2022-10-14T14:23:43+02:00</time>
      </trkpt>
      <trkpt lat="43.41731" lon="6.4657">
        <ele>69</ele>
        <time>2022-10-14T14:23:43+02:00</time>
      </trkpt>
      <trkpt lat="43.41729" lon="6.46582">
        <ele>68</ele>
        <time>2022-10-14T14:23:43+02:00</time>
      </trkpt>
      <trkpt lat="43.41726" lon="6.46593">
        <ele>65</ele>
        <time>2022-10-14T14:23:43+02:00</time>
      </trkpt>
      <trkpt lat="43.41723" lon="6.46605">
        <ele>65</ele>
        <time>2022-10-14T14:23:43+02:00</time>
      </trkpt>
      <trkpt lat="43.4172" lon="6.46618">
        <ele>65</ele>
        <time>2022-10-14T14:23:43+02:00</time>
      </trkpt>
      <trkpt lat="43.41718" lon="6.46632">
        <ele>64</ele>
        <time>2022-10-14T14:23:43+02:00</time>
      </trkpt>
      <trkpt lat="43.41714" lon="6.46645">
        <ele>59</ele>
        <time>2022-10-14T14:23:43+02:00</time>
      </trkpt>
      <trkpt lat="43.41711" lon="6.46658">
        <ele>59</ele>
        <time>2022-10-14T14:23:43+02:00</time>
      </trkpt>
      <trkpt lat="43.41708" lon="6.46671">
        <ele>59</ele>
        <time>2022-10-14T14:23:43+02:00</time>
      </trkpt>
      <trkpt lat="43.41703" lon="6.46683">
        <ele>58</ele>
        <time>2022-10-14T14:23:43+02:00</time>
      </trkpt>
      <trkpt lat="43.41697" lon="6.46693">
        <ele>57</ele>
        <time>2022-10-14T14:23:43+02:00</time>
      </trkpt>
      <trkpt lat="43.41691" lon="6.46702">
        <ele>57</ele>
        <time>2022-10-14T14:23:43+02:00</time>
      </trkpt>
      <trkpt lat="43.41684" lon="6.46711">
        <ele>57</ele>
        <time>2022-10-14T14:23:43+02:00</time>
      </trkpt>
      <trkpt lat="43.41679" lon="6.4672">
        <ele>58</ele>
        <time>2022-10-14T14:23:43+02:00</time>
      </trkpt>
      <trkpt lat="43.41674" lon="6.46729">
        <ele>59</ele>
        <time>2022-10-14T14:23:43+02:00</time>
      </trkpt>
      <trkpt lat="43.41671" lon="6.46737">
        <ele>59</ele>
        <time>2022-10-14T14:23:43+02:00</time>
      </trkpt>
      <trkpt lat="43.41668" lon="6.46745">
        <ele>59</ele>
        <time>2022-10-14T14:23:43+02:00</time>
      </trkpt>
      <trkpt lat="43.41665" lon="6.46753">
        <ele>60</ele>
        <time>2022-10-14T14:23:43+02:00</time>
      </trkpt>
      <trkpt lat="43.41662" lon="6.46761">
        <ele>61</ele>
        <time>2022-10-14T14:23:43+02:00</time>
      </trkpt>
      <trkpt lat="43.41659" lon="6.46768">
        <ele>61</ele>
        <time>2022-10-14T14:23:43+02:00</time>
      </trkpt>
      <trkpt lat="43.41656" lon="6.46775">
        <ele>61</ele>
        <time>2022-10-14T14:23:43+02:00</time>
      </trkpt>
      <trkpt lat="43.41653" lon="6.46782">
        <ele>60</ele>
        <time>2022-10-14T14:23:43+02:00</time>
      </trkpt>
      <trkpt lat="43.4165" lon="6.46789">
        <ele>61</ele>
        <time>2022-10-14T14:23:43+02:00</time>
      </trkpt>
      <trkpt lat="43.41647" lon="6.46796">
        <ele>61</ele>
        <time>2022-10-14T14:23:43+02:00</time>
      </trkpt>
      <trkpt lat="43.41644" lon="6.46803">
        <ele>61</ele>
        <time>2022-10-14T14:23:43+02:00</time>
      </trkpt>
      <trkpt lat="43.4164" lon="6.4681">
        <ele>61</ele>
        <time>2022-10-14T14:23:43+02:00</time>
      </trkpt>
      <trkpt lat="43.41637" lon="6.46817">
        <ele>61</ele>
        <time>2022-10-14T14:23:43+02:00</time>
      </trkpt>
      <trkpt lat="43.41634" lon="6.46823">
        <ele>61</ele>
        <time>2022-10-14T14:23:43+02:00</time>
      </trkpt>
      <trkpt lat="43.4163" lon="6.46829">
        <ele>61</ele>
        <time>2022-10-14T14:23:43+02:00</time>
      </trkpt>
      <trkpt lat="43.41627" lon="6.46835">
        <ele>62</ele>
        <time>2022-10-14T14:23:43+02:00</time>
      </trkpt>
      <trkpt lat="43.41624" lon="6.46842">
        <ele>62</ele>
        <time>2022-10-14T14:23:43+02:00</time>
      </trkpt>
      <trkpt lat="43.4162" lon="6.46848">
        <ele>62</ele>
        <time>2022-10-14T14:23:43+02:00</time>
      </trkpt>
      <trkpt lat="43.41617" lon="6.46854">
        <ele>62</ele>
        <time>2022-10-14T14:23:43+02:00</time>
      </trkpt>
      <trkpt lat="43.41615" lon="6.4686">
        <ele>62</ele>
        <time>2022-10-14T14:23:43+02:00</time>
      </trkpt>
      <trkpt lat="43.41612" lon="6.46867">
        <ele>62</ele>
        <time>2022-10-14T14:23:43+02:00</time>
      </trkpt>
      <trkpt lat="43.41609" lon="6.46873">
        <ele>62</ele>
        <time>2022-10-14T14:23:43+02:00</time>
      </trkpt>
      <trkpt lat="43.41606" lon="6.46879">
        <ele>62</ele>
        <time>2022-10-14T14:23:43+02:00</time>
      </trkpt>
      <trkpt lat="43.41603" lon="6.46886">
        <ele>61</ele>
        <time>2022-10-14T14:23:43+02:00</time>
      </trkpt>
      <trkpt lat="43.416" lon="6.46892">
        <ele>61</ele>
        <time>2022-10-14T14:23:43+02:00</time>
      </trkpt>
      <trkpt lat="43.41597" lon="6.46899">
        <ele>61</ele>
        <time>2022-10-14T14:23:43+02:00</time>
      </trkpt>
      <trkpt lat="43.41594" lon="6.46907">
        <ele>61</ele>
        <time>2022-10-14T14:23:43+02:00</time>
      </trkpt>
      <trkpt lat="43.4159" lon="6.46914">
        <ele>60</ele>
        <time>2022-10-14T14:23:43+02:00</time>
      </trkpt>
      <trkpt lat="43.41587" lon="6.46922">
        <ele>59</ele>
        <time>2022-10-14T14:23:43+02:00</time>
      </trkpt>
      <trkpt lat="43.41584" lon="6.46931">
        <ele>59</ele>
        <time>2022-10-14T14:23:43+02:00</time>
      </trkpt>
      <trkpt lat="43.41582" lon="6.46939">
        <ele>59</ele>
        <time>2022-10-14T14:23:43+02:00</time>
      </trkpt>
      <trkpt lat="43.41582" lon="6.46948">
        <ele>59</ele>
        <time>2022-10-14T14:23:43+02:00</time>
      </trkpt>
      <trkpt lat="43.41584" lon="6.46954">
        <ele>60</ele>
        <time>2022-10-14T14:23:43+02:00</time>
      </trkpt>
      <trkpt lat="43.41585" lon="6.46961">
        <ele>60</ele>
        <time>2022-10-14T14:23:43+02:00</time>
      </trkpt>
      <trkpt lat="43.41586" lon="6.46968">
        <ele>60</ele>
        <time>2022-10-14T14:23:43+02:00</time>
      </trkpt>
      <trkpt lat="43.41587" lon="6.46976">
        <ele>59</ele>
        <time>2022-10-14T14:23:43+02:00</time>
      </trkpt>
      <trkpt lat="43.41587" lon="6.46983">
        <ele>57</ele>
        <time>2022-10-14T14:23:43+02:00</time>
      </trkpt>
      <trkpt lat="43.41586" lon="6.46991">
        <ele>57</ele>
        <time>2022-10-14T14:23:43+02:00</time>
      </trkpt>
      <trkpt lat="43.41585" lon="6.47">
        <ele>57</ele>
        <time>2022-10-14T14:23:43+02:00</time>
      </trkpt>
      <trkpt lat="43.41583" lon="6.47007">
        <ele>57</ele>
        <time>2022-10-14T14:23:43+02:00</time>
      </trkpt>
      <trkpt lat="43.41579" lon="6.47014">
        <ele>57</ele>
        <time>2022-10-14T14:23:43+02:00</time>
      </trkpt>
      <trkpt lat="43.41577" lon="6.47022">
        <ele>57</ele>
        <time>2022-10-14T14:23:43+02:00</time>
      </trkpt>
      <trkpt lat="43.41573" lon="6.47028">
        <ele>57</ele>
        <time>2022-10-14T14:23:43+02:00</time>
      </trkpt>
      <trkpt lat="43.4157" lon="6.47034">
        <ele>57</ele>
        <time>2022-10-14T14:23:43+02:00</time>
      </trkpt>
      <trkpt lat="43.41568" lon="6.47039">
        <ele>57</ele>
        <time>2022-10-14T14:23:43+02:00</time>
      </trkpt>
      <trkpt lat="43.41565" lon="6.47043">
        <ele>57</ele>
        <time>2022-10-14T14:23:43+02:00</time>
      </trkpt>
      <trkpt lat="43.41563" lon="6.47048">
        <ele>57</ele>
        <time>2022-10-14T14:23:43+02:00</time>
      </trkpt>
      <trkpt lat="43.41561" lon="6.47055">
        <ele>57</ele>
        <time>2022-10-14T14:23:43+02:00</time>
      </trkpt>
      <trkpt lat="43.41559" lon="6.47061">
        <ele>56</ele>
        <time>2022-10-14T14:23:43+02:00</time>
      </trkpt>
      <trkpt lat="43.41556" lon="6.47067">
        <ele>56</ele>
        <time>2022-10-14T14:23:43+02:00</time>
      </trkpt>
      <trkpt lat="43.41554" lon="6.47074">
        <ele>56</ele>
        <time>2022-10-14T14:23:43+02:00</time>
      </trkpt>
      <trkpt lat="43.41553" lon="6.47081">
        <ele>56</ele>
        <time>2022-10-14T14:23:43+02:00</time>
      </trkpt>
      <trkpt lat="43.41553" lon="6.47088">
        <ele>55</ele>
        <time>2022-10-14T14:23:43+02:00</time>
      </trkpt>
      <trkpt lat="43.41551" lon="6.47095">
        <ele>55</ele>
        <time>2022-10-14T14:23:43+02:00</time>
      </trkpt>
      <trkpt lat="43.41548" lon="6.47102">
        <ele>55</ele>
        <time>2022-10-14T14:23:43+02:00</time>
      </trkpt>
      <trkpt lat="43.41545" lon="6.47107">
        <ele>55</ele>
        <time>2022-10-14T14:23:43+02:00</time>
      </trkpt>
      <trkpt lat="43.41542" lon="6.47114">
        <ele>54</ele>
        <time>2022-10-14T14:23:43+02:00</time>
      </trkpt>
      <trkpt lat="43.41541" lon="6.47121">
        <ele>54</ele>
        <time>2022-10-14T14:23:43+02:00</time>
      </trkpt>
      <trkpt lat="43.41542" lon="6.47126">
        <ele>54</ele>
        <time>2022-10-14T14:23:43+02:00</time>
      </trkpt>
      <trkpt lat="43.41541" lon="6.47132">
        <ele>54</ele>
        <time>2022-10-14T14:23:43+02:00</time>
      </trkpt>
      <trkpt lat="43.41537" lon="6.47137">
        <ele>54</ele>
        <time>2022-10-14T14:23:43+02:00</time>
      </trkpt>
      <trkpt lat="43.41533" lon="6.47141">
        <ele>54</ele>
        <time>2022-10-14T14:23:43+02:00</time>
      </trkpt>
      <trkpt lat="43.4153" lon="6.47145">
        <ele>54</ele>
        <time>2022-10-14T14:23:43+02:00</time>
      </trkpt>
      <trkpt lat="43.41529" lon="6.4715">
        <ele>54</ele>
        <time>2022-10-14T14:23:43+02:00</time>
      </trkpt>
      <trkpt lat="43.41527" lon="6.47156">
        <ele>55</ele>
        <time>2022-10-14T14:23:43+02:00</time>
      </trkpt>
      <trkpt lat="43.41524" lon="6.47163">
        <ele>55</ele>
        <time>2022-10-14T14:23:43+02:00</time>
      </trkpt>
      <trkpt lat="43.41522" lon="6.47169">
        <ele>55</ele>
        <time>2022-10-14T14:23:43+02:00</time>
      </trkpt>
      <trkpt lat="43.41523" lon="6.47175">
        <ele>54</ele>
        <time>2022-10-14T14:23:43+02:00</time>
      </trkpt>
      <trkpt lat="43.41526" lon="6.47182">
        <ele>52</ele>
        <time>2022-10-14T14:23:43+02:00</time>
      </trkpt>
      <trkpt lat="43.4153" lon="6.47189">
        <ele>52</ele>
        <time>2022-10-14T14:23:43+02:00</time>
      </trkpt>
      <trkpt lat="43.41532" lon="6.47195">
        <ele>52</ele>
        <time>2022-10-14T14:23:43+02:00</time>
      </trkpt>
      <trkpt lat="43.41534" lon="6.47199">
        <ele>52</ele>
        <time>2022-10-14T14:23:43+02:00</time>
      </trkpt>
      <trkpt lat="43.41538" lon="6.47203">
        <ele>53</ele>
        <time>2022-10-14T14:23:43+02:00</time>
      </trkpt>
      <trkpt lat="43.41542" lon="6.47205">
        <ele>53</ele>
        <time>2022-10-14T14:23:43+02:00</time>
      </trkpt>
      <trkpt lat="43.41547" lon="6.47204">
        <ele>53</ele>
        <time>2022-10-14T14:23:43+02:00</time>
      </trkpt>
      <trkpt lat="43.41552" lon="6.47204">
        <ele>53</ele>
        <time>2022-10-14T14:23:43+02:00</time>
      </trkpt>
      <trkpt lat="43.41557" lon="6.47204">
        <ele>53</ele>
        <time>2022-10-14T14:23:43+02:00</time>
      </trkpt>
      <trkpt lat="43.41563" lon="6.47207">
        <ele>53</ele>
        <time>2022-10-14T14:23:43+02:00</time>
      </trkpt>
      <trkpt lat="43.41568" lon="6.4721">
        <ele>53</ele>
        <time>2022-10-14T14:23:43+02:00</time>
      </trkpt>
      <trkpt lat="43.41574" lon="6.47214">
        <ele>52</ele>
        <time>2022-10-14T14:23:43+02:00</time>
      </trkpt>
      <trkpt lat="43.41579" lon="6.47219">
        <ele>50</ele>
        <time>2022-10-14T14:23:43+02:00</time>
      </trkpt>
      <trkpt lat="43.41584" lon="6.47224">
        <ele>50</ele>
        <time>2022-10-14T14:23:43+02:00</time>
      </trkpt>
      <trkpt lat="43.41589" lon="6.4723">
        <ele>50</ele>
        <time>2022-10-14T14:23:43+02:00</time>
      </trkpt>
      <trkpt lat="43.41592" lon="6.47237">
        <ele>49</ele>
        <time>2022-10-14T14:23:43+02:00</time>
      </trkpt>
      <trkpt lat="43.41597" lon="6.47241">
        <ele>48</ele>
        <time>2022-10-14T14:23:43+02:00</time>
      </trkpt>
      <trkpt lat="43.41602" lon="6.47245">
        <ele>48</ele>
        <time>2022-10-14T14:23:43+02:00</time>
      </trkpt>
      <trkpt lat="43.41605" lon="6.4725">
        <ele>48</ele>
        <time>2022-10-14T14:23:43+02:00</time>
      </trkpt>
      <trkpt lat="43.41608" lon="6.47256">
        <ele>48</ele>
        <time>2022-10-14T14:23:43+02:00</time>
      </trkpt>
      <trkpt lat="43.4161" lon="6.47263">
        <ele>47</ele>
        <time>2022-10-14T14:23:43+02:00</time>
      </trkpt>
      <trkpt lat="43.4161" lon="6.4727">
        <ele>47</ele>
        <time>2022-10-14T14:23:43+02:00</time>
      </trkpt>
      <trkpt lat="43.4161" lon="6.47279">
        <ele>47</ele>
        <time>2022-10-14T14:23:43+02:00</time>
      </trkpt>
      <trkpt lat="43.41608" lon="6.47287">
        <ele>47</ele>
        <time>2022-10-14T14:23:43+02:00</time>
      </trkpt>
      <trkpt lat="43.41606" lon="6.47293">
        <ele>45</ele>
        <time>2022-10-14T14:23:43+02:00</time>
      </trkpt>
      <trkpt lat="43.41603" lon="6.47296">
        <ele>45</ele>
        <time>2022-10-14T14:23:43+02:00</time>
      </trkpt>
      <trkpt lat="43.41602" lon="6.47301">
        <ele>45</ele>
        <time>2022-10-14T14:23:43+02:00</time>
      </trkpt>
      <trkpt lat="43.41601" lon="6.47306">
        <ele>45</ele>
        <time>2022-10-14T14:23:43+02:00</time>
      </trkpt>
      <trkpt lat="43.41601" lon="6.4731">
        <ele>43</ele>
        <time>2022-10-14T14:23:43+02:00</time>
      </trkpt>
      <trkpt lat="43.41599" lon="6.47313">
        <ele>43</ele>
        <time>2022-10-14T14:23:43+02:00</time>
      </trkpt>
      <trkpt lat="43.41594" lon="6.47313">
        <ele>43</ele>
        <time>2022-10-14T14:23:43+02:00</time>
      </trkpt>
      <trkpt lat="43.41588" lon="6.47314">
        <ele>42</ele>
        <time>2022-10-14T14:23:43+02:00</time>
      </trkpt>
      <trkpt lat="43.41584" lon="6.47317">
        <ele>40</ele>
        <time>2022-10-14T14:23:43+02:00</time>
      </trkpt>
      <trkpt lat="43.41582" lon="6.4732">
        <ele>40</ele>
        <time>2022-10-14T14:23:43+02:00</time>
      </trkpt>
      <trkpt lat="43.4158" lon="6.47325">
        <ele>40</ele>
        <time>2022-10-14T14:23:43+02:00</time>
      </trkpt>
      <trkpt lat="43.41578" lon="6.47329">
        <ele>40</ele>
        <time>2022-10-14T14:23:43+02:00</time>
      </trkpt>
      <trkpt lat="43.41575" lon="6.47335">
        <ele>37</ele>
        <time>2022-10-14T14:23:43+02:00</time>
      </trkpt>
      <trkpt lat="43.41573" lon="6.47341">
        <ele>37</ele>
        <time>2022-10-14T14:23:43+02:00</time>
      </trkpt>
      <trkpt lat="43.4157" lon="6.47345">
        <ele>37</ele>
        <time>2022-10-14T14:23:43+02:00</time>
      </trkpt>
      <trkpt lat="43.41568" lon="6.47349">
        <ele>38</ele>
        <time>2022-10-14T14:23:43+02:00</time>
      </trkpt>
      <trkpt lat="43.41565" lon="6.47353">
        <ele>38</ele>
        <time>2022-10-14T14:23:43+02:00</time>
      </trkpt>
      <trkpt lat="43.41564" lon="6.47357">
        <ele>38</ele>
        <time>2022-10-14T14:23:43+02:00</time>
      </trkpt>
      <trkpt lat="43.41564" lon="6.47362">
        <ele>38</ele>
        <time>2022-10-14T14:23:43+02:00</time>
      </trkpt>
      <trkpt lat="43.41563" lon="6.47366">
        <ele>38</ele>
        <time>2022-10-14T14:23:43+02:00</time>
      </trkpt>
      <trkpt lat="43.41562" lon="6.47371">
        <ele>39</ele>
        <time>2022-10-14T14:23:43+02:00</time>
      </trkpt>
      <trkpt lat="43.4156" lon="6.47375">
        <ele>39</ele>
        <time>2022-10-14T14:23:43+02:00</time>
      </trkpt>
      <trkpt lat="43.41558" lon="6.47378">
        <ele>39</ele>
        <time>2022-10-14T14:23:43+02:00</time>
      </trkpt>
      <trkpt lat="43.41555" lon="6.47381">
        <ele>38</ele>
        <time>2022-10-14T14:23:43+02:00</time>
      </trkpt>
      <trkpt lat="43.41551" lon="6.47383">
        <ele>38</ele>
        <time>2022-10-14T14:23:43+02:00</time>
      </trkpt>
      <trkpt lat="43.41547" lon="6.47385">
        <ele>38</ele>
        <time>2022-10-14T14:23:43+02:00</time>
      </trkpt>
      <trkpt lat="43.41543" lon="6.47387">
        <ele>38</ele>
        <time>2022-10-14T14:23:43+02:00</time>
      </trkpt>
      <trkpt lat="43.41538" lon="6.47389">
        <ele>37</ele>
        <time>2022-10-14T14:23:43+02:00</time>
      </trkpt>
      <trkpt lat="43.41533" lon="6.47391">
        <ele>37</ele>
        <time>2022-10-14T14:23:43+02:00</time>
      </trkpt>
      <trkpt lat="43.41528" lon="6.47393">
        <ele>37</ele>
        <time>2022-10-14T14:23:43+02:00</time>
      </trkpt>
      <trkpt lat="43.41523" lon="6.47396">
        <ele>37</ele>
        <time>2022-10-14T14:23:43+02:00</time>
      </trkpt>
      <trkpt lat="43.41519" lon="6.47398">
        <ele>36</ele>
        <time>2022-10-14T14:23:43+02:00</time>
      </trkpt>
      <trkpt lat="43.41513" lon="6.474">
        <ele>36</ele>
        <time>2022-10-14T14:23:43+02:00</time>
      </trkpt>
      <trkpt lat="43.41508" lon="6.47401">
        <ele>36</ele>
        <time>2022-10-14T14:23:43+02:00</time>
      </trkpt>
      <trkpt lat="43.41503" lon="6.47402">
        <ele>36</ele>
        <time>2022-10-14T14:23:43+02:00</time>
      </trkpt>
      <trkpt lat="43.41497" lon="6.47404">
        <ele>36</ele>
        <time>2022-10-14T14:23:43+02:00</time>
      </trkpt>
      <trkpt lat="43.41492" lon="6.47406">
        <ele>37</ele>
        <time>2022-10-14T14:23:43+02:00</time>
      </trkpt>
      <trkpt lat="43.41487" lon="6.47409">
        <ele>37</ele>
        <time>2022-10-14T14:23:43+02:00</time>
      </trkpt>
      <trkpt lat="43.41482" lon="6.47412">
        <ele>37</ele>
        <time>2022-10-14T14:23:43+02:00</time>
      </trkpt>
      <trkpt lat="43.41477" lon="6.47416">
        <ele>36</ele>
        <time>2022-10-14T14:23:43+02:00</time>
      </trkpt>
      <trkpt lat="43.41472" lon="6.47421">
        <ele>36</ele>
        <time>2022-10-14T14:23:43+02:00</time>
      </trkpt>
      <trkpt lat="43.41467" lon="6.47425">
        <ele>36</ele>
        <time>2022-10-14T14:23:43+02:00</time>
      </trkpt>
      <trkpt lat="43.41463" lon="6.4743">
        <ele>36</ele>
        <time>2022-10-14T14:23:43+02:00</time>
      </trkpt>
      <trkpt lat="43.41458" lon="6.47435">
        <ele>36</ele>
        <time>2022-10-14T14:23:43+02:00</time>
      </trkpt>
      <trkpt lat="43.41453" lon="6.47439">
        <ele>35</ele>
        <time>2022-10-14T14:23:43+02:00</time>
      </trkpt>
      <trkpt lat="43.41448" lon="6.47443">
        <ele>35</ele>
        <time>2022-10-14T14:23:43+02:00</time>
      </trkpt>
      <trkpt lat="43.41443" lon="6.47446">
        <ele>35</ele>
        <time>2022-10-14T14:23:43+02:00</time>
      </trkpt>
      <trkpt lat="43.41438" lon="6.47449">
        <ele>35</ele>
        <time>2022-10-14T14:23:43+02:00</time>
      </trkpt>
      <trkpt lat="43.41432" lon="6.47451">
        <ele>35</ele>
        <time>2022-10-14T14:23:43+02:00</time>
      </trkpt>
      <trkpt lat="43.41427" lon="6.47454">
        <ele>35</ele>
        <time>2022-10-14T14:23:43+02:00</time>
      </trkpt>
      <trkpt lat="43.41422" lon="6.47456">
        <ele>35</ele>
        <time>2022-10-14T14:23:43+02:00</time>
      </trkpt>
      <trkpt lat="43.41416" lon="6.47459">
        <ele>35</ele>
        <time>2022-10-14T14:23:43+02:00</time>
      </trkpt>
      <trkpt lat="43.41411" lon="6.47462">
        <ele>37</ele>
        <time>2022-10-14T14:23:43+02:00</time>
      </trkpt>
      <trkpt lat="43.41406" lon="6.47464">
        <ele>37</ele>
        <time>2022-10-14T14:23:43+02:00</time>
      </trkpt>
      <trkpt lat="43.414" lon="6.47467">
        <ele>37</ele>
        <time>2022-10-14T14:23:43+02:00</time>
      </trkpt>
      <trkpt lat="43.41396" lon="6.47469">
        <ele>37</ele>
        <time>2022-10-14T14:23:43+02:00</time>
      </trkpt>
      <trkpt lat="43.41391" lon="6.4747">
        <ele>37</ele>
        <time>2022-10-14T14:23:43+02:00</time>
      </trkpt>
      <trkpt lat="43.41387" lon="6.47471">
        <ele>37</ele>
        <time>2022-10-14T14:23:43+02:00</time>
      </trkpt>
      <trkpt lat="43.41383" lon="6.47471">
        <ele>37</ele>
        <time>2022-10-14T14:23:43+02:00</time>
      </trkpt>
      <trkpt lat="43.41378" lon="6.47471">
        <ele>37</ele>
        <time>2022-10-14T14:23:43+02:00</time>
      </trkpt>
      <trkpt lat="43.41374" lon="6.47473">
        <ele>36</ele>
        <time>2022-10-14T14:23:43+02:00</time>
      </trkpt>
      <trkpt lat="43.41369" lon="6.47474">
        <ele>36</ele>
        <time>2022-10-14T14:23:43+02:00</time>
      </trkpt>
      <trkpt lat="43.41363" lon="6.47477">
        <ele>36</ele>
        <time>2022-10-14T14:23:43+02:00</time>
      </trkpt>
      <trkpt lat="43.41358" lon="6.4748">
        <ele>37</ele>
        <time>2022-10-14T14:23:43+02:00</time>
      </trkpt>
      <trkpt lat="43.41353" lon="6.47482">
        <ele>38</ele>
        <time>2022-10-14T14:23:43+02:00</time>
      </trkpt>
      <trkpt lat="43.41348" lon="6.47485">
        <ele>38</ele>
        <time>2022-10-14T14:23:43+02:00</time>
      </trkpt>
      <trkpt lat="43.41343" lon="6.47487">
        <ele>38</ele>
        <time>2022-10-14T14:23:43+02:00</time>
      </trkpt>
      <trkpt lat="43.41339" lon="6.4749">
        <ele>38</ele>
        <time>2022-10-14T14:23:43+02:00</time>
      </trkpt>
      <trkpt lat="43.41335" lon="6.47494">
        <ele>38</ele>
        <time>2022-10-14T14:23:43+02:00</time>
      </trkpt>
      <trkpt lat="43.41331" lon="6.47496">
        <ele>38</ele>
        <time>2022-10-14T14:23:43+02:00</time>
      </trkpt>
      <trkpt lat="43.41327" lon="6.47499">
        <ele>38</ele>
        <time>2022-10-14T14:23:43+02:00</time>
      </trkpt>
      <trkpt lat="43.41322" lon="6.47501">
        <ele>38</ele>
        <time>2022-10-14T14:23:43+02:00</time>
      </trkpt>
      <trkpt lat="43.41317" lon="6.47502">
        <ele>35</ele>
        <time>2022-10-14T14:23:43+02:00</time>
      </trkpt>
      <trkpt lat="43.41312" lon="6.47501">
        <ele>35</ele>
        <time>2022-10-14T14:23:43+02:00</time>
      </trkpt>
      <trkpt lat="43.41307" lon="6.47498">
        <ele>35</ele>
        <time>2022-10-14T14:23:43+02:00</time>
      </trkpt>
      <trkpt lat="43.41302" lon="6.47494">
        <ele>35</ele>
        <time>2022-10-14T14:23:43+02:00</time>
      </trkpt>
      <trkpt lat="43.41298" lon="6.4749">
        <ele>34</ele>
        <time>2022-10-14T14:23:43+02:00</time>
      </trkpt>
      <trkpt lat="43.41294" lon="6.47487">
        <ele>34</ele>
        <time>2022-10-14T14:23:43+02:00</time>
      </trkpt>
      <trkpt lat="43.4129" lon="6.47484">
        <ele>34</ele>
        <time>2022-10-14T14:23:43+02:00</time>
      </trkpt>
      <trkpt lat="43.41287" lon="6.47482">
        <ele>35</ele>
        <time>2022-10-14T14:23:43+02:00</time>
      </trkpt>
      <trkpt lat="43.41283" lon="6.4748">
        <ele>35</ele>
        <time>2022-10-14T14:23:43+02:00</time>
      </trkpt>
      <trkpt lat="43.41279" lon="6.4748">
        <ele>35</ele>
        <time>2022-10-14T14:23:43+02:00</time>
      </trkpt>
      <trkpt lat="43.41274" lon="6.47482">
        <ele>35</ele>
        <time>2022-10-14T14:23:43+02:00</time>
      </trkpt>
      <trkpt lat="43.4127" lon="6.47484">
        <ele>35</ele>
        <time>2022-10-14T14:23:43+02:00</time>
      </trkpt>
      <trkpt lat="43.41266" lon="6.47486">
        <ele>34</ele>
        <time>2022-10-14T14:23:43+02:00</time>
      </trkpt>
      <trkpt lat="43.41262" lon="6.4749">
        <ele>34</ele>
        <time>2022-10-14T14:23:43+02:00</time>
      </trkpt>
      <trkpt lat="43.41259" lon="6.47496">
        <ele>34</ele>
        <time>2022-10-14T14:23:43+02:00</time>
      </trkpt>
      <trkpt lat="43.41256" lon="6.47502">
        <ele>34</ele>
        <time>2022-10-14T14:23:43+02:00</time>
      </trkpt>
      <trkpt lat="43.41252" lon="6.47507">
        <ele>34</ele>
        <time>2022-10-14T14:23:43+02:00</time>
      </trkpt>
      <trkpt lat="43.41248" lon="6.47512">
        <ele>34</ele>
        <time>2022-10-14T14:23:43+02:00</time>
      </trkpt>
      <trkpt lat="43.41244" lon="6.47515">
        <ele>34</ele>
        <time>2022-10-14T14:23:43+02:00</time>
      </trkpt>
      <trkpt lat="43.41239" lon="6.47517">
        <ele>34</ele>
        <time>2022-10-14T14:23:43+02:00</time>
      </trkpt>
      <trkpt lat="43.41235" lon="6.47518">
        <ele>35</ele>
        <time>2022-10-14T14:23:43+02:00</time>
      </trkpt>
      <trkpt lat="43.4123" lon="6.47518">
        <ele>35</ele>
        <time>2022-10-14T14:23:43+02:00</time>
      </trkpt>
      <trkpt lat="43.41225" lon="6.47517">
        <ele>35</ele>
        <time>2022-10-14T14:23:43+02:00</time>
      </trkpt>
      <trkpt lat="43.4122" lon="6.47516">
        <ele>35</ele>
        <time>2022-10-14T14:23:43+02:00</time>
      </trkpt>
      <trkpt lat="43.41216" lon="6.47514">
        <ele>34</ele>
        <time>2022-10-14T14:23:43+02:00</time>
      </trkpt>
      <trkpt lat="43.41212" lon="6.47512">
        <ele>34</ele>
        <time>2022-10-14T14:23:43+02:00</time>
      </trkpt>
      <trkpt lat="43.41208" lon="6.4751">
        <ele>34</ele>
        <time>2022-10-14T14:23:43+02:00</time>
      </trkpt>
      <trkpt lat="43.41204" lon="6.47509">
        <ele>35</ele>
        <time>2022-10-14T14:23:43+02:00</time>
      </trkpt>
      <trkpt lat="43.41201" lon="6.47508">
        <ele>37</ele>
        <time>2022-10-14T14:23:43+02:00</time>
      </trkpt>
      <trkpt lat="43.412" lon="6.47507">
        <ele>37</ele>
        <time>2022-10-14T14:23:43+02:00</time>
      </trkpt>
      <trkpt lat="43.41198" lon="6.47505">
        <ele>37</ele>
        <time>2022-10-14T14:23:43+02:00</time>
      </trkpt>
      <trkpt lat="43.41197" lon="6.47505">
        <ele>37</ele>
        <time>2022-10-14T14:23:43+02:00</time>
      </trkpt>
      <trkpt lat="43.41196" lon="6.47505">
        <ele>37</ele>
        <time>2022-10-14T14:23:43+02:00</time>
      </trkpt>
      <trkpt lat="43.41194" lon="6.47504">
        <ele>37</ele>
        <time>2022-10-14T14:23:43+02:00</time>
      </trkpt>
      <trkpt lat="43.41192" lon="6.47502">
        <ele>37</ele>
        <time>2022-10-14T14:23:43+02:00</time>
      </trkpt>
      <trkpt lat="43.41189" lon="6.475">
        <ele>36</ele>
        <time>2022-10-14T14:23:43+02:00</time>
      </trkpt>
      <trkpt lat="43.41186" lon="6.47498">
        <ele>36</ele>
        <time>2022-10-14T14:23:43+02:00</time>
      </trkpt>
      <trkpt lat="43.41183" lon="6.47496">
        <ele>36</ele>
        <time>2022-10-14T14:23:43+02:00</time>
      </trkpt>
      <trkpt lat="43.41179" lon="6.47494">
        <ele>36</ele>
        <time>2022-10-14T14:23:43+02:00</time>
      </trkpt>
      <trkpt lat="43.41176" lon="6.47491">
        <ele>35</ele>
        <time>2022-10-14T14:23:43+02:00</time>
      </trkpt>
      <trkpt lat="43.41172" lon="6.47488">
        <ele>36</ele>
        <time>2022-10-14T14:23:43+02:00</time>
      </trkpt>
      <trkpt lat="43.41169" lon="6.47486">
        <ele>36</ele>
        <time>2022-10-14T14:23:43+02:00</time>
      </trkpt>
      <trkpt lat="43.41167" lon="6.47483">
        <ele>36</ele>
        <time>2022-10-14T14:23:43+02:00</time>
      </trkpt>
      <trkpt lat="43.41163" lon="6.4748">
        <ele>35</ele>
        <time>2022-10-14T14:23:43+02:00</time>
      </trkpt>
      <trkpt lat="43.4116" lon="6.47479">
        <ele>37</ele>
        <time>2022-10-14T14:23:43+02:00</time>
      </trkpt>
      <trkpt lat="43.41157" lon="6.47477">
        <ele>37</ele>
        <time>2022-10-14T14:23:43+02:00</time>
      </trkpt>
      <trkpt lat="43.41154" lon="6.47476">
        <ele>37</ele>
        <time>2022-10-14T14:23:43+02:00</time>
      </trkpt>
      <trkpt lat="43.4115" lon="6.47475">
        <ele>36</ele>
        <time>2022-10-14T14:23:43+02:00</time>
      </trkpt>
      <trkpt lat="43.41147" lon="6.47473">
        <ele>35</ele>
        <time>2022-10-14T14:23:43+02:00</time>
      </trkpt>
      <trkpt lat="43.41143" lon="6.47472">
        <ele>35</ele>
        <time>2022-10-14T14:23:43+02:00</time>
      </trkpt>
      <trkpt lat="43.4114" lon="6.47471">
        <ele>35</ele>
        <time>2022-10-14T14:23:43+02:00</time>
      </trkpt>
      <trkpt lat="43.41136" lon="6.47471">
        <ele>36</ele>
        <time>2022-10-14T14:23:43+02:00</time>
      </trkpt>
      <trkpt lat="43.41132" lon="6.47469">
        <ele>35</ele>
        <time>2022-10-14T14:23:43+02:00</time>
      </trkpt>
      <trkpt lat="43.41128" lon="6.47466">
        <ele>35</ele>
        <time>2022-10-14T14:23:43+02:00</time>
      </trkpt>
      <trkpt lat="43.41125" lon="6.47463">
        <ele>35</ele>
        <time>2022-10-14T14:23:43+02:00</time>
      </trkpt>
      <trkpt lat="43.41122" lon="6.4746">
        <ele>35</ele>
        <time>2022-10-14T14:23:43+02:00</time>
      </trkpt>
      <trkpt lat="43.4112" lon="6.47458">
        <ele>36</ele>
        <time>2022-10-14T14:23:43+02:00</time>
      </trkpt>
      <trkpt lat="43.41118" lon="6.47458">
        <ele>36</ele>
        <time>2022-10-14T14:23:43+02:00</time>
      </trkpt>
      <trkpt lat="43.41117" lon="6.47458">
        <ele>36</ele>
        <time>2022-10-14T14:23:43+02:00</time>
      </trkpt>
      <trkpt lat="43.41115" lon="6.47459">
        <ele>36</ele>
        <time>2022-10-14T14:23:43+02:00</time>
      </trkpt>
      <trkpt lat="43.41113" lon="6.47459">
        <ele>36</ele>
        <time>2022-10-14T14:23:43+02:00</time>
      </trkpt>
      <trkpt lat="43.41111" lon="6.47458">
        <ele>36</ele>
        <time>2022-10-14T14:23:43+02:00</time>
      </trkpt>
      <trkpt lat="43.41111" lon="6.47456">
        <ele>36</ele>
        <time>2022-10-14T14:23:43+02:00</time>
      </trkpt>
      <trkpt lat="43.4111" lon="6.47455">
        <ele>36</ele>
        <time>2022-10-14T14:23:43+02:00</time>
      </trkpt>
      <trkpt lat="43.4111" lon="6.47454">
        <ele>36</ele>
        <time>2022-10-14T14:23:43+02:00</time>
      </trkpt>
      <trkpt lat="43.4111" lon="6.47453">
        <ele>36</ele>
        <time>2022-10-14T14:23:43+02:00</time>
      </trkpt>
      <trkpt lat="43.4111" lon="6.47451">
        <ele>36</ele>
        <time>2022-10-14T14:23:43+02:00</time>
      </trkpt>
      <trkpt lat="43.4111" lon="6.4745">
        <ele>36</ele>
        <time>2022-10-14T14:23:43+02:00</time>
      </trkpt>
      <trkpt lat="43.4111" lon="6.47449">
        <ele>36</ele>
        <time>2022-10-14T14:23:43+02:00</time>
      </trkpt>
      <trkpt lat="43.41109" lon="6.47447">
        <ele>36</ele>
        <time>2022-10-14T14:23:43+02:00</time>
      </trkpt>
      <trkpt lat="43.41109" lon="6.47445">
        <ele>36</ele>
        <time>2022-10-14T14:23:43+02:00</time>
      </trkpt>
      <trkpt lat="43.41107" lon="6.47442">
        <ele>35</ele>
        <time>2022-10-14T14:23:43+02:00</time>
      </trkpt>
      <trkpt lat="43.41105" lon="6.47439">
        <ele>35</ele>
        <time>2022-10-14T14:23:43+02:00</time>
      </trkpt>
      <trkpt lat="43.41103" lon="6.47437">
        <ele>35</ele>
        <time>2022-10-14T14:23:43+02:00</time>
      </trkpt>
      <trkpt lat="43.41101" lon="6.47434">
        <ele>35</ele>
        <time>2022-10-14T14:23:43+02:00</time>
      </trkpt>
      <trkpt lat="43.41098" lon="6.47431">
        <ele>35</ele>
        <time>2022-10-14T14:23:43+02:00</time>
      </trkpt>
      <trkpt lat="43.41096" lon="6.47429">
        <ele>36</ele>
        <time>2022-10-14T14:23:43+02:00</time>
      </trkpt>
      <trkpt lat="43.41094" lon="6.47427">
        <ele>36</ele>
        <time>2022-10-14T14:23:43+02:00</time>
      </trkpt>
      <trkpt lat="43.41092" lon="6.47426">
        <ele>36</ele>
        <time>2022-10-14T14:23:43+02:00</time>
      </trkpt>
      <trkpt lat="43.41091" lon="6.47425">
        <ele>36</ele>
        <time>2022-10-14T14:23:43+02:00</time>
      </trkpt>
      <trkpt lat="43.4109" lon="6.47424">
        <ele>36</ele>
        <time>2022-10-14T14:23:43+02:00</time>
      </trkpt>
      <trkpt lat="43.41088" lon="6.47422">
        <ele>36</ele>
        <time>2022-10-14T14:23:43+02:00</time>
      </trkpt>
      <trkpt lat="43.41087" lon="6.47421">
        <ele>36</ele>
        <time>2022-10-14T14:23:43+02:00</time>
      </trkpt>
      <trkpt lat="43.41086" lon="6.47418">
        <ele>36</ele>
        <time>2022-10-14T14:23:43+02:00</time>
      </trkpt>
      <trkpt lat="43.41085" lon="6.47415">
        <ele>35</ele>
        <time>2022-10-14T14:23:43+02:00</time>
      </trkpt>
      <trkpt lat="43.41084" lon="6.47412">
        <ele>35</ele>
        <time>2022-10-14T14:23:43+02:00</time>
      </trkpt>
      <trkpt lat="43.41082" lon="6.47409">
        <ele>35</ele>
        <time>2022-10-14T14:23:43+02:00</time>
      </trkpt>
      <trkpt lat="43.4108" lon="6.47405">
        <ele>35</ele>
        <time>2022-10-14T14:23:43+02:00</time>
      </trkpt>
      <trkpt lat="43.41078" lon="6.47401">
        <ele>35</ele>
        <time>2022-10-14T14:23:43+02:00</time>
      </trkpt>
      <trkpt lat="43.41076" lon="6.47396">
        <ele>35</ele>
        <time>2022-10-14T14:23:43+02:00</time>
      </trkpt>
      <trkpt lat="43.41074" lon="6.47392">
        <ele>35</ele>
        <time>2022-10-14T14:23:43+02:00</time>
      </trkpt>
      <trkpt lat="43.41072" lon="6.47387">
        <ele>35</ele>
        <time>2022-10-14T14:23:43+02:00</time>
      </trkpt>
      <trkpt lat="43.4107" lon="6.47383">
        <ele>37</ele>
        <time>2022-10-14T14:23:43+02:00</time>
      </trkpt>
      <trkpt lat="43.41069" lon="6.47378">
        <ele>37</ele>
        <time>2022-10-14T14:23:43+02:00</time>
      </trkpt>
      <trkpt lat="43.41067" lon="6.47373">
        <ele>37</ele>
        <time>2022-10-14T14:23:43+02:00</time>
      </trkpt>
      <trkpt lat="43.41064" lon="6.47369">
        <ele>36</ele>
        <time>2022-10-14T14:23:43+02:00</time>
      </trkpt>
      <trkpt lat="43.41059" lon="6.47365">
        <ele>33</ele>
        <time>2022-10-14T14:23:43+02:00</time>
      </trkpt>
      <trkpt lat="43.41056" lon="6.47361">
        <ele>33</ele>
        <time>2022-10-14T14:23:43+02:00</time>
      </trkpt>
      <trkpt lat="43.41052" lon="6.47357">
        <ele>33</ele>
        <time>2022-10-14T14:23:43+02:00</time>
      </trkpt>
      <trkpt lat="43.41048" lon="6.47353">
        <ele>33</ele>
        <time>2022-10-14T14:23:43+02:00</time>
      </trkpt>
      <trkpt lat="43.41044" lon="6.4735">
        <ele>33</ele>
        <time>2022-10-14T14:23:43+02:00</time>
      </trkpt>
      <trkpt lat="43.41041" lon="6.47347">
        <ele>33</ele>
        <time>2022-10-14T14:23:43+02:00</time>
      </trkpt>
      <trkpt lat="43.41038" lon="6.47344">
        <ele>33</ele>
        <time>2022-10-14T14:23:43+02:00</time>
      </trkpt>
      <trkpt lat="43.41035" lon="6.47341">
        <ele>33</ele>
        <time>2022-10-14T14:23:43+02:00</time>
      </trkpt>
      <trkpt lat="43.41032" lon="6.47338">
        <ele>32</ele>
        <time>2022-10-14T14:23:43+02:00</time>
      </trkpt>
      <trkpt lat="43.4103" lon="6.47335">
        <ele>32</ele>
        <time>2022-10-14T14:23:43+02:00</time>
      </trkpt>
      <trkpt lat="43.41025" lon="6.47332">
        <ele>32</ele>
        <time>2022-10-14T14:23:43+02:00</time>
      </trkpt>
      <trkpt lat="43.41022" lon="6.47329">
        <ele>32</ele>
        <time>2022-10-14T14:23:43+02:00</time>
      </trkpt>
      <trkpt lat="43.41018" lon="6.47327">
        <ele>32</ele>
        <time>2022-10-14T14:23:43+02:00</time>
      </trkpt>
      <trkpt lat="43.41015" lon="6.47326">
        <ele>32</ele>
        <time>2022-10-14T14:23:43+02:00</time>
      </trkpt>
      <trkpt lat="43.41012" lon="6.47325">
        <ele>32</ele>
        <time>2022-10-14T14:23:43+02:00</time>
      </trkpt>
      <trkpt lat="43.41009" lon="6.47323">
        <ele>32</ele>
        <time>2022-10-14T14:23:43+02:00</time>
      </trkpt>
      <trkpt lat="43.41005" lon="6.47321">
        <ele>32</ele>
        <time>2022-10-14T14:23:43+02:00</time>
      </trkpt>
      <trkpt lat="43.41002" lon="6.47321">
        <ele>32</ele>
        <time>2022-10-14T14:23:43+02:00</time>
      </trkpt>
      <trkpt lat="43.40998" lon="6.4732">
        <ele>32</ele>
        <time>2022-10-14T14:23:43+02:00</time>
      </trkpt>
      <trkpt lat="43.40995" lon="6.4732">
        <ele>32</ele>
        <time>2022-10-14T14:23:43+02:00</time>
      </trkpt>
      <trkpt lat="43.40992" lon="6.4732">
        <ele>32</ele>
        <time>2022-10-14T14:23:43+02:00</time>
      </trkpt>
      <trkpt lat="43.40989" lon="6.47321">
        <ele>32</ele>
        <time>2022-10-14T14:23:43+02:00</time>
      </trkpt>
      <trkpt lat="43.40987" lon="6.47323">
        <ele>32</ele>
        <time>2022-10-14T14:23:43+02:00</time>
      </trkpt>
      <trkpt lat="43.40985" lon="6.47323">
        <ele>33</ele>
        <time>2022-10-14T14:23:43+02:00</time>
      </trkpt>
      <trkpt lat="43.40983" lon="6.47324">
        <ele>33</ele>
        <time>2022-10-14T14:23:43+02:00</time>
      </trkpt>
      <trkpt lat="43.40983" lon="6.47324">
        <ele>33</ele>
        <time>2022-10-14T14:23:43+02:00</time>
      </trkpt>
      <trkpt lat="43.40983" lon="6.47324">
        <ele>33</ele>
        <time>2022-10-14T14:23:43+02:00</time>
      </trkpt>
      <trkpt lat="43.40983" lon="6.47324">
        <ele>33</ele>
        <time>2022-10-14T14:23:43+02:00</time>
      </trkpt>
      <trkpt lat="43.40983" lon="6.47324">
        <ele>33</ele>
        <time>2022-10-14T14:23:43+02:00</time>
      </trkpt>
      <trkpt lat="43.40983" lon="6.47324">
        <ele>33</ele>
        <time>2022-10-14T14:23:43+02:00</time>
      </trkpt>
      <trkpt lat="43.40983" lon="6.47324">
        <ele>33</ele>
        <time>2022-10-14T14:23:43+02:00</time>
      </trkpt>
      <trkpt lat="43.40983" lon="6.47324">
        <ele>33</ele>
        <time>2022-10-14T14:23:43+02:00</time>
      </trkpt>
      <trkpt lat="43.40983" lon="6.47324">
        <ele>33</ele>
        <time>2022-10-14T14:23:43+02:00</time>
      </trkpt>
      <trkpt lat="43.40983" lon="6.47324">
        <ele>33</ele>
        <time>2022-10-14T14:23:43+02:00</time>
      </trkpt>
      <trkpt lat="43.40982" lon="6.47324">
        <ele>33</ele>
        <time>2022-10-14T14:23:43+02:00</time>
      </trkpt>
      <trkpt lat="43.40982" lon="6.47324">
        <ele>33</ele>
        <time>2022-10-14T14:23:43+02:00</time>
      </trkpt>
      <trkpt lat="43.40982" lon="6.47324">
        <ele>33</ele>
        <time>2022-10-14T14:23:43+02:00</time>
      </trkpt>
      <trkpt lat="43.40982" lon="6.47324">
        <ele>33</ele>
        <time>2022-10-14T14:23:43+02:00</time>
      </trkpt>
      <trkpt lat="43.40982" lon="6.47324">
        <ele>33</ele>
        <time>2022-10-14T14:23:43+02:00</time>
      </trkpt>
      <trkpt lat="43.40982" lon="6.47324">
        <ele>33</ele>
        <time>2022-10-14T14:23:43+02:00</time>
      </trkpt>
      <trkpt lat="43.40982" lon="6.47324">
        <ele>32</ele>
        <time>2022-10-14T14:23:43+02:00</time>
      </trkpt>
      <trkpt lat="43.40982" lon="6.47324">
        <ele>32</ele>
        <time>2022-10-14T14:23:43+02:00</time>
      </trkpt>
      <trkpt lat="43.40982" lon="6.47324">
        <ele>32</ele>
        <time>2022-10-14T14:23:43+02:00</time>
      </trkpt>
      <trkpt lat="43.40982" lon="6.47324">
        <ele>33</ele>
        <time>2022-10-14T14:23:43+02:00</time>
      </trkpt>
      <trkpt lat="43.40982" lon="6.47324">
        <ele>33</ele>
        <time>2022-10-14T14:23:43+02:00</time>
      </trkpt>
      <trkpt lat="43.40982" lon="6.47324">
        <ele>33</ele>
        <time>2022-10-14T14:23:43+02:00</time>
      </trkpt>
      <trkpt lat="43.40977" lon="6.47326">
        <ele>33</ele>
        <time>2022-10-14T14:23:43+02:00</time>
      </trkpt>
      <trkpt lat="43.40976" lon="6.47327">
        <ele>33</ele>
        <time>2022-10-14T14:23:43+02:00</time>
      </trkpt>
      <trkpt lat="43.40976" lon="6.47328">
        <ele>33</ele>
        <time>2022-10-14T14:23:43+02:00</time>
      </trkpt>
      <trkpt lat="43.40975" lon="6.47329">
        <ele>33</ele>
        <time>2022-10-14T14:23:43+02:00</time>
      </trkpt>
      <trkpt lat="43.40974" lon="6.47329">
        <ele>33</ele>
        <time>2022-10-14T14:23:43+02:00</time>
      </trkpt>
      <trkpt lat="43.40973" lon="6.4733">
        <ele>33</ele>
        <time>2022-10-14T14:23:43+02:00</time>
      </trkpt>
      <trkpt lat="43.40971" lon="6.47329">
        <ele>32</ele>
        <time>2022-10-14T14:23:43+02:00</time>
      </trkpt>
      <trkpt lat="43.40969" lon="6.47328">
        <ele>32</ele>
        <time>2022-10-14T14:23:43+02:00</time>
      </trkpt>
      <trkpt lat="43.40966" lon="6.47328">
        <ele>32</ele>
        <time>2022-10-14T14:23:43+02:00</time>
      </trkpt>
      <trkpt lat="43.40964" lon="6.47328">
        <ele>32</ele>
        <time>2022-10-14T14:23:43+02:00</time>
      </trkpt>
      <trkpt lat="43.4096" lon="6.47327">
        <ele>32</ele>
        <time>2022-10-14T14:23:43+02:00</time>
      </trkpt>
      <trkpt lat="43.40957" lon="6.47327">
        <ele>32</ele>
        <time>2022-10-14T14:23:43+02:00</time>
      </trkpt>
      <trkpt lat="43.40954" lon="6.47326">
        <ele>32</ele>
        <time>2022-10-14T14:23:43+02:00</time>
      </trkpt>
      <trkpt lat="43.40951" lon="6.47326">
        <ele>32</ele>
        <time>2022-10-14T14:23:43+02:00</time>
      </trkpt>
      <trkpt lat="43.40949" lon="6.47325">
        <ele>32</ele>
        <time>2022-10-14T14:23:43+02:00</time>
      </trkpt>
      <trkpt lat="43.40946" lon="6.47324">
        <ele>32</ele>
        <time>2022-10-14T14:23:43+02:00</time>
      </trkpt>
      <trkpt lat="43.40944" lon="6.47324">
        <ele>32</ele>
        <time>2022-10-14T14:23:43+02:00</time>
      </trkpt>
      <trkpt lat="43.40943" lon="6.47323">
        <ele>32</ele>
        <time>2022-10-14T14:23:43+02:00</time>
      </trkpt>
      <trkpt lat="43.40941" lon="6.47322">
        <ele>32</ele>
        <time>2022-10-14T14:23:43+02:00</time>
      </trkpt>
      <trkpt lat="43.40939" lon="6.47321">
        <ele>32</ele>
        <time>2022-10-14T14:23:43+02:00</time>
      </trkpt>
      <trkpt lat="43.40937" lon="6.47321">
        <ele>32</ele>
        <time>2022-10-14T14:23:43+02:00</time>
      </trkpt>
      <trkpt lat="43.40936" lon="6.4732">
        <ele>32</ele>
        <time>2022-10-14T14:23:43+02:00</time>
      </trkpt>
      <trkpt lat="43.40934" lon="6.4732">
        <ele>32</ele>
        <time>2022-10-14T14:23:43+02:00</time>
      </trkpt>
      <trkpt lat="43.40933" lon="6.47319">
        <ele>32</ele>
        <time>2022-10-14T14:23:43+02:00</time>
      </trkpt>
      <trkpt lat="43.40931" lon="6.47319">
        <ele>32</ele>
        <time>2022-10-14T14:23:43+02:00</time>
      </trkpt>
      <trkpt lat="43.4093" lon="6.47318">
        <ele>32</ele>
        <time>2022-10-14T14:23:43+02:00</time>
      </trkpt>
      <trkpt lat="43.40928" lon="6.47317">
        <ele>32</ele>
        <time>2022-10-14T14:23:43+02:00</time>
      </trkpt>
      <trkpt lat="43.40926" lon="6.47316">
        <ele>32</ele>
        <time>2022-10-14T14:23:43+02:00</time>
      </trkpt>
      <trkpt lat="43.40924" lon="6.47314">
        <ele>32</ele>
        <time>2022-10-14T14:23:43+02:00</time>
      </trkpt>
      <trkpt lat="43.40922" lon="6.47313">
        <ele>32</ele>
        <time>2022-10-14T14:23:43+02:00</time>
      </trkpt>
      <trkpt lat="43.40919" lon="6.47312">
        <ele>33</ele>
        <time>2022-10-14T14:23:43+02:00</time>
      </trkpt>
      <trkpt lat="43.40917" lon="6.47312">
        <ele>33</ele>
        <time>2022-10-14T14:23:43+02:00</time>
      </trkpt>
      <trkpt lat="43.40914" lon="6.4731">
        <ele>33</ele>
        <time>2022-10-14T14:23:43+02:00</time>
      </trkpt>
      <trkpt lat="43.40911" lon="6.47308">
        <ele>33</ele>
        <time>2022-10-14T14:23:43+02:00</time>
      </trkpt>
      <trkpt lat="43.40908" lon="6.47306">
        <ele>32</ele>
        <time>2022-10-14T14:23:43+02:00</time>
      </trkpt>
      <trkpt lat="43.40905" lon="6.47306">
        <ele>32</ele>
        <time>2022-10-14T14:23:43+02:00</time>
      </trkpt>
      <trkpt lat="43.40901" lon="6.47306">
        <ele>32</ele>
        <time>2022-10-14T14:23:43+02:00</time>
      </trkpt>
      <trkpt lat="43.40898" lon="6.47307">
        <ele>32</ele>
        <time>2022-10-14T14:23:43+02:00</time>
      </trkpt>
      <trkpt lat="43.40895" lon="6.4731">
        <ele>32</ele>
        <time>2022-10-14T14:23:43+02:00</time>
      </trkpt>
      <trkpt lat="43.40892" lon="6.47313">
        <ele>32</ele>
        <time>2022-10-14T14:23:43+02:00</time>
      </trkpt>
      <trkpt lat="43.40891" lon="6.47317">
        <ele>32</ele>
        <time>2022-10-14T14:23:43+02:00</time>
      </trkpt>
      <trkpt lat="43.40889" lon="6.4732">
        <ele>33</ele>
        <time>2022-10-14T14:23:43+02:00</time>
      </trkpt>
      <trkpt lat="43.40887" lon="6.47323">
        <ele>33</ele>
        <time>2022-10-14T14:23:43+02:00</time>
      </trkpt>
      <trkpt lat="43.40885" lon="6.47327">
        <ele>33</ele>
        <time>2022-10-14T14:23:43+02:00</time>
      </trkpt>
      <trkpt lat="43.40884" lon="6.4733">
        <ele>33</ele>
        <time>2022-10-14T14:23:43+02:00</time>
      </trkpt>
      <trkpt lat="43.40882" lon="6.47332">
        <ele>33</ele>
        <time>2022-10-14T14:23:43+02:00</time>
      </trkpt>
      <trkpt lat="43.40879" lon="6.47334">
        <ele>32</ele>
        <time>2022-10-14T14:23:43+02:00</time>
      </trkpt>
      <trkpt lat="43.40877" lon="6.47333">
        <ele>32</ele>
        <time>2022-10-14T14:23:43+02:00</time>
      </trkpt>
      <trkpt lat="43.40875" lon="6.47332">
        <ele>32</ele>
        <time>2022-10-14T14:23:43+02:00</time>
      </trkpt>
      <trkpt lat="43.40873" lon="6.47331">
        <ele>32</ele>
        <time>2022-10-14T14:23:43+02:00</time>
      </trkpt>
      <trkpt lat="43.4087" lon="6.4733">
        <ele>32</ele>
        <time>2022-10-14T14:23:43+02:00</time>
      </trkpt>
      <trkpt lat="43.4087" lon="6.47331">
        <ele>32</ele>
        <time>2022-10-14T14:23:43+02:00</time>
      </trkpt>
      <trkpt lat="43.40869" lon="6.47331">
        <ele>32</ele>
        <time>2022-10-14T14:23:43+02:00</time>
      </trkpt>
      <trkpt lat="43.40869" lon="6.47331">
        <ele>32</ele>
        <time>2022-10-14T14:23:43+02:00</time>
      </trkpt>
      <trkpt lat="43.40868" lon="6.47331">
        <ele>31</ele>
        <time>2022-10-14T14:23:43+02:00</time>
      </trkpt>
      <trkpt lat="43.40868" lon="6.47331">
        <ele>31</ele>
        <time>2022-10-14T14:23:43+02:00</time>
      </trkpt>
      <trkpt lat="43.40867" lon="6.47332">
        <ele>31</ele>
        <time>2022-10-14T14:23:43+02:00</time>
      </trkpt>
      <trkpt lat="43.40867" lon="6.47332">
        <ele>32</ele>
        <time>2022-10-14T14:23:43+02:00</time>
      </trkpt>
      <trkpt lat="43.40866" lon="6.47332">
        <ele>31</ele>
        <time>2022-10-14T14:23:43+02:00</time>
      </trkpt>
      <trkpt lat="43.40866" lon="6.47332">
        <ele>31</ele>
        <time>2022-10-14T14:23:43+02:00</time>
      </trkpt>
      <trkpt lat="43.40866" lon="6.47333">
        <ele>31</ele>
        <time>2022-10-14T14:23:43+02:00</time>
      </trkpt>
      <trkpt lat="43.40865" lon="6.47333">
        <ele>32</ele>
        <time>2022-10-14T14:23:43+02:00</time>
      </trkpt>
      <trkpt lat="43.40865" lon="6.47333">
        <ele>32</ele>
        <time>2022-10-14T14:23:43+02:00</time>
      </trkpt>
      <trkpt lat="43.40864" lon="6.47333">
        <ele>32</ele>
        <time>2022-10-14T14:23:43+02:00</time>
      </trkpt>
      <trkpt lat="43.40864" lon="6.47334">
        <ele>32</ele>
        <time>2022-10-14T14:23:43+02:00</time>
      </trkpt>
      <trkpt lat="43.40863" lon="6.47334">
        <ele>32</ele>
        <time>2022-10-14T14:23:43+02:00</time>
      </trkpt>
      <trkpt lat="43.40863" lon="6.47334">
        <ele>32</ele>
        <time>2022-10-14T14:23:43+02:00</time>
      </trkpt>
      <trkpt lat="43.40862" lon="6.47334">
        <ele>32</ele>
        <time>2022-10-14T14:23:43+02:00</time>
      </trkpt>
      <trkpt lat="43.40857" lon="6.47338">
        <ele>32</ele>
        <time>2022-10-14T14:23:43+02:00</time>
      </trkpt>
      <trkpt lat="43.40857" lon="6.47338">
        <ele>31</ele>
        <time>2022-10-14T14:23:43+02:00</time>
      </trkpt>
      <trkpt lat="43.40857" lon="6.47338">
        <ele>31</ele>
        <time>2022-10-14T14:23:43+02:00</time>
      </trkpt>
      <trkpt lat="43.40857" lon="6.47338">
        <ele>31</ele>
        <time>2022-10-14T14:23:43+02:00</time>
      </trkpt>
      <trkpt lat="43.40857" lon="6.47338">
        <ele>31</ele>
        <time>2022-10-14T14:23:43+02:00</time>
      </trkpt>
      <trkpt lat="43.40857" lon="6.47338">
        <ele>31</ele>
        <time>2022-10-14T14:23:43+02:00</time>
      </trkpt>
      <trkpt lat="43.40857" lon="6.47338">
        <ele>31</ele>
        <time>2022-10-14T14:23:43+02:00</time>
      </trkpt>
      <trkpt lat="43.40857" lon="6.47338">
        <ele>31</ele>
        <time>2022-10-14T14:23:43+02:00</time>
      </trkpt>
      <trkpt lat="43.40849" lon="6.47345">
        <ele>31</ele>
        <time>2022-10-14T14:23:43+02:00</time>
      </trkpt>
      <trkpt lat="43.40849" lon="6.47347">
        <ele>31</ele>
        <time>2022-10-14T14:23:43+02:00</time>
      </trkpt>
      <trkpt lat="43.40848" lon="6.47348">
        <ele>30</ele>
        <time>2022-10-14T14:23:43+02:00</time>
      </trkpt>
      <trkpt lat="43.40847" lon="6.4735">
        <ele>30</ele>
        <time>2022-10-14T14:23:43+02:00</time>
      </trkpt>
      <trkpt lat="43.40846" lon="6.47351">
        <ele>30</ele>
        <time>2022-10-14T14:23:43+02:00</time>
      </trkpt>
      <trkpt lat="43.40845" lon="6.47352">
        <ele>31</ele>
        <time>2022-10-14T14:23:43+02:00</time>
      </trkpt>
      <trkpt lat="43.40844" lon="6.47354">
        <ele>30</ele>
        <time>2022-10-14T14:23:43+02:00</time>
      </trkpt>
      <trkpt lat="43.40842" lon="6.47356">
        <ele>30</ele>
        <time>2022-10-14T14:23:43+02:00</time>
      </trkpt>
      <trkpt lat="43.40841" lon="6.47358">
        <ele>30</ele>
        <time>2022-10-14T14:23:43+02:00</time>
      </trkpt>
      <trkpt lat="43.40839" lon="6.47359">
        <ele>31</ele>
        <time>2022-10-14T14:23:43+02:00</time>
      </trkpt>
      <trkpt lat="43.40836" lon="6.47359">
        <ele>32</ele>
        <time>2022-10-14T14:23:43+02:00</time>
      </trkpt>
      <trkpt lat="43.40834" lon="6.47359">
        <ele>32</ele>
        <time>2022-10-14T14:23:43+02:00</time>
      </trkpt>
      <trkpt lat="43.40831" lon="6.47357">
        <ele>32</ele>
        <time>2022-10-14T14:23:43+02:00</time>
      </trkpt>
      <trkpt lat="43.40829" lon="6.47356">
        <ele>32</ele>
        <time>2022-10-14T14:23:43+02:00</time>
      </trkpt>
      <trkpt lat="43.40826" lon="6.47354">
        <ele>31</ele>
        <time>2022-10-14T14:23:43+02:00</time>
      </trkpt>
      <trkpt lat="43.40824" lon="6.47351">
        <ele>31</ele>
        <time>2022-10-14T14:23:43+02:00</time>
      </trkpt>
      <trkpt lat="43.40821" lon="6.4735">
        <ele>31</ele>
        <time>2022-10-14T14:23:43+02:00</time>
      </trkpt>
      <trkpt lat="43.40819" lon="6.47348">
        <ele>31</ele>
        <time>2022-10-14T14:23:43+02:00</time>
      </trkpt>
      <trkpt lat="43.40816" lon="6.47346">
        <ele>32</ele>
        <time>2022-10-14T14:23:43+02:00</time>
      </trkpt>
      <trkpt lat="43.40813" lon="6.47344">
        <ele>32</ele>
        <time>2022-10-14T14:23:43+02:00</time>
      </trkpt>
      <trkpt lat="43.4081" lon="6.47343">
        <ele>32</ele>
        <time>2022-10-14T14:23:43+02:00</time>
      </trkpt>
      <trkpt lat="43.40807" lon="6.47342">
        <ele>32</ele>
        <time>2022-10-14T14:23:43+02:00</time>
      </trkpt>
      <trkpt lat="43.40804" lon="6.47342">
        <ele>31</ele>
        <time>2022-10-14T14:23:43+02:00</time>
      </trkpt>
      <trkpt lat="43.40802" lon="6.4734">
        <ele>31</ele>
        <time>2022-10-14T14:23:43+02:00</time>
      </trkpt>
      <trkpt lat="43.408" lon="6.47339">
        <ele>31</ele>
        <time>2022-10-14T14:23:43+02:00</time>
      </trkpt>
      <trkpt lat="43.40797" lon="6.47338">
        <ele>32</ele>
        <time>2022-10-14T14:23:43+02:00</time>
      </trkpt>
      <trkpt lat="43.40795" lon="6.47336">
        <ele>33</ele>
        <time>2022-10-14T14:23:43+02:00</time>
      </trkpt>
      <trkpt lat="43.40792" lon="6.47335">
        <ele>33</ele>
        <time>2022-10-14T14:23:43+02:00</time>
      </trkpt>
      <trkpt lat="43.4079" lon="6.47334">
        <ele>33</ele>
        <time>2022-10-14T14:23:43+02:00</time>
      </trkpt>
      <trkpt lat="43.40787" lon="6.47333">
        <ele>33</ele>
        <time>2022-10-14T14:23:43+02:00</time>
      </trkpt>
      <trkpt lat="43.40784" lon="6.47332">
        <ele>32</ele>
        <time>2022-10-14T14:23:43+02:00</time>
      </trkpt>
      <trkpt lat="43.40782" lon="6.4733">
        <ele>32</ele>
        <time>2022-10-14T14:23:43+02:00</time>
      </trkpt>
      <trkpt lat="43.4078" lon="6.47327">
        <ele>32</ele>
        <time>2022-10-14T14:23:43+02:00</time>
      </trkpt>
      <trkpt lat="43.40777" lon="6.47325">
        <ele>32</ele>
        <time>2022-10-14T14:23:43+02:00</time>
      </trkpt>
      <trkpt lat="43.40774" lon="6.47323">
        <ele>32</ele>
        <time>2022-10-14T14:23:43+02:00</time>
      </trkpt>
      <trkpt lat="43.40772" lon="6.47321">
        <ele>32</ele>
        <time>2022-10-14T14:23:43+02:00</time>
      </trkpt>
      <trkpt lat="43.40769" lon="6.47318">
        <ele>32</ele>
        <time>2022-10-14T14:23:43+02:00</time>
      </trkpt>
      <trkpt lat="43.40766" lon="6.47315">
        <ele>32</ele>
        <time>2022-10-14T14:23:43+02:00</time>
      </trkpt>
      <trkpt lat="43.40763" lon="6.47314">
        <ele>32</ele>
        <time>2022-10-14T14:23:43+02:00</time>
      </trkpt>
      <trkpt lat="43.4076" lon="6.47311">
        <ele>32</ele>
        <time>2022-10-14T14:23:43+02:00</time>
      </trkpt>
      <trkpt lat="43.40757" lon="6.47309">
        <ele>32</ele>
        <time>2022-10-14T14:23:43+02:00</time>
      </trkpt>
      <trkpt lat="43.40753" lon="6.47307">
        <ele>32</ele>
        <time>2022-10-14T14:23:43+02:00</time>
      </trkpt>
      <trkpt lat="43.4075" lon="6.47306">
        <ele>33</ele>
        <time>2022-10-14T14:23:43+02:00</time>
      </trkpt>
      <trkpt lat="43.40746" lon="6.47303">
        <ele>33</ele>
        <time>2022-10-14T14:23:43+02:00</time>
      </trkpt>
      <trkpt lat="43.40743" lon="6.47301">
        <ele>33</ele>
        <time>2022-10-14T14:23:43+02:00</time>
      </trkpt>
      <trkpt lat="43.40739" lon="6.473">
        <ele>33</ele>
        <time>2022-10-14T14:23:43+02:00</time>
      </trkpt>
      <trkpt lat="43.40735" lon="6.47299">
        <ele>33</ele>
        <time>2022-10-14T14:23:43+02:00</time>
      </trkpt>
      <trkpt lat="43.40731" lon="6.47297">
        <ele>33</ele>
        <time>2022-10-14T14:23:43+02:00</time>
      </trkpt>
      <trkpt lat="43.40728" lon="6.47295">
        <ele>33</ele>
        <time>2022-10-14T14:23:43+02:00</time>
      </trkpt>
      <trkpt lat="43.40725" lon="6.47293">
        <ele>33</ele>
        <time>2022-10-14T14:23:43+02:00</time>
      </trkpt>
      <trkpt lat="43.40721" lon="6.4729">
        <ele>33</ele>
        <time>2022-10-14T14:23:43+02:00</time>
      </trkpt>
      <trkpt lat="43.40718" lon="6.47287">
        <ele>33</ele>
        <time>2022-10-14T14:23:43+02:00</time>
      </trkpt>
      <trkpt lat="43.40714" lon="6.47286">
        <ele>33</ele>
        <time>2022-10-14T14:23:43+02:00</time>
      </trkpt>
      <trkpt lat="43.4071" lon="6.47284">
        <ele>33</ele>
        <time>2022-10-14T14:23:43+02:00</time>
      </trkpt>
      <trkpt lat="43.40706" lon="6.47282">
        <ele>32</ele>
        <time>2022-10-14T14:23:43+02:00</time>
      </trkpt>
      <trkpt lat="43.40702" lon="6.47279">
        <ele>32</ele>
        <time>2022-10-14T14:23:43+02:00</time>
      </trkpt>
      <trkpt lat="43.40699" lon="6.47276">
        <ele>32</ele>
        <time>2022-10-14T14:23:43+02:00</time>
      </trkpt>
      <trkpt lat="43.40696" lon="6.47272">
        <ele>32</ele>
        <time>2022-10-14T14:23:43+02:00</time>
      </trkpt>
      <trkpt lat="43.40693" lon="6.47268">
        <ele>33</ele>
        <time>2022-10-14T14:23:43+02:00</time>
      </trkpt>
      <trkpt lat="43.4069" lon="6.47264">
        <ele>33</ele>
        <time>2022-10-14T14:23:43+02:00</time>
      </trkpt>
      <trkpt lat="43.40687" lon="6.4726">
        <ele>33</ele>
        <time>2022-10-14T14:23:43+02:00</time>
      </trkpt>
      <trkpt lat="43.40684" lon="6.47256">
        <ele>33</ele>
        <time>2022-10-14T14:23:43+02:00</time>
      </trkpt>
      <trkpt lat="43.4068" lon="6.47252">
        <ele>34</ele>
        <time>2022-10-14T14:23:43+02:00</time>
      </trkpt>
      <trkpt lat="43.40676" lon="6.47249">
        <ele>34</ele>
        <time>2022-10-14T14:23:43+02:00</time>
      </trkpt>
      <trkpt lat="43.40673" lon="6.47246">
        <ele>34</ele>
        <time>2022-10-14T14:23:43+02:00</time>
      </trkpt>
      <trkpt lat="43.40669" lon="6.47244">
        <ele>34</ele>
        <time>2022-10-14T14:23:43+02:00</time>
      </trkpt>
      <trkpt lat="43.40665" lon="6.47242">
        <ele>34</ele>
        <time>2022-10-14T14:23:43+02:00</time>
      </trkpt>
      <trkpt lat="43.40661" lon="6.4724">
        <ele>34</ele>
        <time>2022-10-14T14:23:43+02:00</time>
      </trkpt>
      <trkpt lat="43.40657" lon="6.47239">
        <ele>34</ele>
        <time>2022-10-14T14:23:43+02:00</time>
      </trkpt>
      <trkpt lat="43.40653" lon="6.47237">
        <ele>34</ele>
        <time>2022-10-14T14:23:43+02:00</time>
      </trkpt>
      <trkpt lat="43.40649" lon="6.47236">
        <ele>35</ele>
        <time>2022-10-14T14:23:43+02:00</time>
      </trkpt>
      <trkpt lat="43.40644" lon="6.47234">
        <ele>35</ele>
        <time>2022-10-14T14:23:43+02:00</time>
      </trkpt>
      <trkpt lat="43.4064" lon="6.47232">
        <ele>35</ele>
        <time>2022-10-14T14:23:43+02:00</time>
      </trkpt>
      <trkpt lat="43.40636" lon="6.4723">
        <ele>35</ele>
        <time>2022-10-14T14:23:43+02:00</time>
      </trkpt>
      <trkpt lat="43.40632" lon="6.47228">
        <ele>34</ele>
        <time>2022-10-14T14:23:43+02:00</time>
      </trkpt>
      <trkpt lat="43.40628" lon="6.47226">
        <ele>34</ele>
        <time>2022-10-14T14:23:43+02:00</time>
      </trkpt>
      <trkpt lat="43.40624" lon="6.47224">
        <ele>34</ele>
        <time>2022-10-14T14:23:43+02:00</time>
      </trkpt>
      <trkpt lat="43.40619" lon="6.47222">
        <ele>35</ele>
        <time>2022-10-14T14:23:43+02:00</time>
      </trkpt>
      <trkpt lat="43.40615" lon="6.47221">
        <ele>35</ele>
        <time>2022-10-14T14:23:43+02:00</time>
      </trkpt>
      <trkpt lat="43.40611" lon="6.47219">
        <ele>35</ele>
        <time>2022-10-14T14:23:43+02:00</time>
      </trkpt>
      <trkpt lat="43.40606" lon="6.47218">
        <ele>35</ele>
        <time>2022-10-14T14:23:43+02:00</time>
      </trkpt>
      <trkpt lat="43.40602" lon="6.47216">
        <ele>34</ele>
        <time>2022-10-14T14:23:43+02:00</time>
      </trkpt>
      <trkpt lat="43.40597" lon="6.47214">
        <ele>34</ele>
        <time>2022-10-14T14:23:43+02:00</time>
      </trkpt>
      <trkpt lat="43.40593" lon="6.47213">
        <ele>34</ele>
        <time>2022-10-14T14:23:43+02:00</time>
      </trkpt>
      <trkpt lat="43.40588" lon="6.47213">
        <ele>34</ele>
        <time>2022-10-14T14:23:43+02:00</time>
      </trkpt>
      <trkpt lat="43.40583" lon="6.47212">
        <ele>34</ele>
        <time>2022-10-14T14:23:43+02:00</time>
      </trkpt>
      <trkpt lat="43.40578" lon="6.47212">
        <ele>33</ele>
        <time>2022-10-14T14:23:43+02:00</time>
      </trkpt>
      <trkpt lat="43.40574" lon="6.4721">
        <ele>33</ele>
        <time>2022-10-14T14:23:43+02:00</time>
      </trkpt>
      <trkpt lat="43.40569" lon="6.47208">
        <ele>33</ele>
        <time>2022-10-14T14:23:43+02:00</time>
      </trkpt>
      <trkpt lat="43.40565" lon="6.47207">
        <ele>33</ele>
        <time>2022-10-14T14:23:43+02:00</time>
      </trkpt>
      <trkpt lat="43.4056" lon="6.47205">
        <ele>34</ele>
        <time>2022-10-14T14:23:43+02:00</time>
      </trkpt>
      <trkpt lat="43.40556" lon="6.47204">
        <ele>34</ele>
        <time>2022-10-14T14:23:43+02:00</time>
      </trkpt>
      <trkpt lat="43.40552" lon="6.47203">
        <ele>34</ele>
        <time>2022-10-14T14:23:43+02:00</time>
      </trkpt>
      <trkpt lat="43.40547" lon="6.47202">
        <ele>34</ele>
        <time>2022-10-14T14:23:43+02:00</time>
      </trkpt>
      <trkpt lat="43.40543" lon="6.47201">
        <ele>34</ele>
        <time>2022-10-14T14:23:43+02:00</time>
      </trkpt>
      <trkpt lat="43.40538" lon="6.47201">
        <ele>34</ele>
        <time>2022-10-14T14:23:43+02:00</time>
      </trkpt>
      <trkpt lat="43.40534" lon="6.472">
        <ele>34</ele>
        <time>2022-10-14T14:23:43+02:00</time>
      </trkpt>
      <trkpt lat="43.4053" lon="6.47199">
        <ele>34</ele>
        <time>2022-10-14T14:23:43+02:00</time>
      </trkpt>
      <trkpt lat="43.40527" lon="6.47198">
        <ele>34</ele>
        <time>2022-10-14T14:23:43+02:00</time>
      </trkpt>
      <trkpt lat="43.40526" lon="6.47198">
        <ele>34</ele>
        <time>2022-10-14T14:23:43+02:00</time>
      </trkpt>
      <trkpt lat="43.40526" lon="6.47198">
        <ele>34</ele>
        <time>2022-10-14T14:23:43+02:00</time>
      </trkpt>
      <trkpt lat="43.40526" lon="6.47198">
        <ele>34</ele>
        <time>2022-10-14T14:23:43+02:00</time>
      </trkpt>
      <trkpt lat="43.40526" lon="6.47198">
        <ele>34</ele>
        <time>2022-10-14T14:23:43+02:00</time>
      </trkpt>
      <trkpt lat="43.40526" lon="6.47198">
        <ele>34</ele>
        <time>2022-10-14T14:23:43+02:00</time>
      </trkpt>
      <trkpt lat="43.40526" lon="6.47198">
        <ele>34</ele>
        <time>2022-10-14T14:23:43+02:00</time>
      </trkpt>
      <trkpt lat="43.40526" lon="6.47198">
        <ele>34</ele>
        <time>2022-10-14T14:23:43+02:00</time>
      </trkpt>
      <trkpt lat="43.40526" lon="6.47198">
        <ele>34</ele>
        <time>2022-10-14T14:23:43+02:00</time>
      </trkpt>
      <trkpt lat="43.40526" lon="6.47198">
        <ele>34</ele>
        <time>2022-10-14T14:23:43+02:00</time>
      </trkpt>
      <trkpt lat="43.40526" lon="6.47198">
        <ele>34</ele>
        <time>2022-10-14T14:23:43+02:00</time>
      </trkpt>
      <trkpt lat="43.40526" lon="6.47198">
        <ele>35</ele>
        <time>2022-10-14T14:23:43+02:00</time>
      </trkpt>
      <trkpt lat="43.40526" lon="6.47198">
        <ele>35</ele>
        <time>2022-10-14T14:23:43+02:00</time>
      </trkpt>
      <trkpt lat="43.40526" lon="6.47198">
        <ele>35</ele>
        <time>2022-10-14T14:23:43+02:00</time>
      </trkpt>
      <trkpt lat="43.40526" lon="6.47198">
        <ele>35</ele>
        <time>2022-10-14T14:23:43+02:00</time>
      </trkpt>
      <trkpt lat="43.40526" lon="6.47198">
        <ele>35</ele>
        <time>2022-10-14T14:23:43+02:00</time>
      </trkpt>
      <trkpt lat="43.40526" lon="6.47198">
        <ele>34</ele>
        <time>2022-10-14T14:23:43+02:00</time>
      </trkpt>
      <trkpt lat="43.40526" lon="6.47198">
        <ele>34</ele>
        <time>2022-10-14T14:23:43+02:00</time>
      </trkpt>
      <trkpt lat="43.40526" lon="6.47198">
        <ele>34</ele>
        <time>2022-10-14T14:23:43+02:00</time>
      </trkpt>
      <trkpt lat="43.40526" lon="6.47198">
        <ele>34</ele>
        <time>2022-10-14T14:23:43+02:00</time>
      </trkpt>
      <trkpt lat="43.40526" lon="6.47198">
        <ele>34</ele>
        <time>2022-10-14T14:23:43+02:00</time>
      </trkpt>
      <trkpt lat="43.40526" lon="6.47198">
        <ele>34</ele>
        <time>2022-10-14T14:23:43+02:00</time>
      </trkpt>
      <trkpt lat="43.40526" lon="6.47198">
        <ele>34</ele>
        <time>2022-10-14T14:23:43+02:00</time>
      </trkpt>
      <trkpt lat="43.40526" lon="6.47198">
        <ele>34</ele>
        <time>2022-10-14T14:23:43+02:00</time>
      </trkpt>
      <trkpt lat="43.40526" lon="6.47198">
        <ele>34</ele>
        <time>2022-10-14T14:23:43+02:00</time>
      </trkpt>
      <trkpt lat="43.40526" lon="6.47198">
        <ele>34</ele>
        <time>2022-10-14T14:23:43+02:00</time>
      </trkpt>
      <trkpt lat="43.40526" lon="6.47198">
        <ele>34</ele>
        <time>2022-10-14T14:23:43+02:00</time>
      </trkpt>
      <trkpt lat="43.40526" lon="6.47198">
        <ele>34</ele>
        <time>2022-10-14T14:23:43+02:00</time>
      </trkpt>
      <trkpt lat="43.40526" lon="6.47198">
        <ele>34</ele>
        <time>2022-10-14T14:23:43+02:00</time>
      </trkpt>
      <trkpt lat="43.40526" lon="6.47198">
        <ele>34</ele>
        <time>2022-10-14T14:23:43+02:00</time>
      </trkpt>
      <trkpt lat="43.40526" lon="6.47198">
        <ele>34</ele>
        <time>2022-10-14T14:23:43+02:00</time>
      </trkpt>
      <trkpt lat="43.40526" lon="6.47198">
        <ele>34</ele>
        <time>2022-10-14T14:23:43+02:00</time>
      </trkpt>
      <trkpt lat="43.40526" lon="6.47198">
        <ele>35</ele>
        <time>2022-10-14T14:23:43+02:00</time>
      </trkpt>
      <trkpt lat="43.40526" lon="6.47198">
        <ele>35</ele>
        <time>2022-10-14T14:23:43+02:00</time>
      </trkpt>
      <trkpt lat="43.40526" lon="6.47198">
        <ele>35</ele>
        <time>2022-10-14T14:23:43+02:00</time>
      </trkpt>
      <trkpt lat="43.40526" lon="6.47198">
        <ele>34</ele>
        <time>2022-10-14T14:23:43+02:00</time>
      </trkpt>
      <trkpt lat="43.40526" lon="6.47198">
        <ele>34</ele>
        <time>2022-10-14T14:23:43+02:00</time>
      </trkpt>
      <trkpt lat="43.40526" lon="6.47198">
        <ele>34</ele>
        <time>2022-10-14T14:23:43+02:00</time>
      </trkpt>
      <trkpt lat="43.40526" lon="6.47198">
        <ele>34</ele>
        <time>2022-10-14T14:23:43+02:00</time>
      </trkpt>
      <trkpt lat="43.40526" lon="6.47198">
        <ele>34</ele>
        <time>2022-10-14T14:23:43+02:00</time>
      </trkpt>
      <trkpt lat="43.40526" lon="6.47198">
        <ele>34</ele>
        <time>2022-10-14T14:23:43+02:00</time>
      </trkpt>
      <trkpt lat="43.40526" lon="6.47198">
        <ele>34</ele>
        <time>2022-10-14T14:23:43+02:00</time>
      </trkpt>
      <trkpt lat="43.40526" lon="6.47198">
        <ele>34</ele>
        <time>2022-10-14T14:23:43+02:00</time>
      </trkpt>
      <trkpt lat="43.40526" lon="6.47198">
        <ele>34</ele>
        <time>2022-10-14T14:23:43+02:00</time>
      </trkpt>
      <trkpt lat="43.40526" lon="6.47198">
        <ele>34</ele>
        <time>2022-10-14T14:23:43+02:00</time>
      </trkpt>
      <trkpt lat="43.40526" lon="6.47198">
        <ele>34</ele>
        <time>2022-10-14T14:23:43+02:00</time>
      </trkpt>
      <trkpt lat="43.40526" lon="6.47198">
        <ele>34</ele>
        <time>2022-10-14T14:23:43+02:00</time>
      </trkpt>
      <trkpt lat="43.40526" lon="6.47198">
        <ele>34</ele>
        <time>2022-10-14T14:23:43+02:00</time>
      </trkpt>
      <trkpt lat="43.40526" lon="6.47198">
        <ele>34</ele>
        <time>2022-10-14T14:23:43+02:00</time>
      </trkpt>
      <trkpt lat="43.40526" lon="6.47198">
        <ele>34</ele>
        <time>2022-10-14T14:23:43+02:00</time>
      </trkpt>
      <trkpt lat="43.40526" lon="6.47198">
        <ele>34</ele>
        <time>2022-10-14T14:23:43+02:00</time>
      </trkpt>
      <trkpt lat="43.40526" lon="6.47198">
        <ele>34</ele>
        <time>2022-10-14T14:23:43+02:00</time>
      </trkpt>
      <trkpt lat="43.40526" lon="6.47198">
        <ele>35</ele>
        <time>2022-10-14T14:23:43+02:00</time>
      </trkpt>
      <trkpt lat="43.40526" lon="6.47198">
        <ele>35</ele>
        <time>2022-10-14T14:23:43+02:00</time>
      </trkpt>
      <trkpt lat="43.40526" lon="6.47198">
        <ele>35</ele>
        <time>2022-10-14T14:23:43+02:00</time>
      </trkpt>
      <trkpt lat="43.40525" lon="6.47198">
        <ele>34</ele>
        <time>2022-10-14T14:23:43+02:00</time>
      </trkpt>
      <trkpt lat="43.40522" lon="6.47197">
        <ele>33</ele>
        <time>2022-10-14T14:23:43+02:00</time>
      </trkpt>
      <trkpt lat="43.40519" lon="6.47195">
        <ele>33</ele>
        <time>2022-10-14T14:23:43+02:00</time>
      </trkpt>
      <trkpt lat="43.40516" lon="6.47194">
        <ele>33</ele>
        <time>2022-10-14T14:23:43+02:00</time>
      </trkpt>
      <trkpt lat="43.40513" lon="6.47194">
        <ele>33</ele>
        <time>2022-10-14T14:23:43+02:00</time>
      </trkpt>
      <trkpt lat="43.40509" lon="6.47195">
        <ele>35</ele>
        <time>2022-10-14T14:23:43+02:00</time>
      </trkpt>
      <trkpt lat="43.40506" lon="6.47195">
        <ele>35</ele>
        <time>2022-10-14T14:23:43+02:00</time>
      </trkpt>
      <trkpt lat="43.40504" lon="6.47196">
        <ele>35</ele>
        <time>2022-10-14T14:23:43+02:00</time>
      </trkpt>
      <trkpt lat="43.40501" lon="6.47196">
        <ele>34</ele>
        <time>2022-10-14T14:23:43+02:00</time>
      </trkpt>
      <trkpt lat="43.40499" lon="6.47195">
        <ele>35</ele>
        <time>2022-10-14T14:23:43+02:00</time>
      </trkpt>
      <trkpt lat="43.40496" lon="6.47195">
        <ele>35</ele>
        <time>2022-10-14T14:23:43+02:00</time>
      </trkpt>
      <trkpt lat="43.40492" lon="6.47195">
        <ele>35</ele>
        <time>2022-10-14T14:23:43+02:00</time>
      </trkpt>
      <trkpt lat="43.40489" lon="6.47195">
        <ele>35</ele>
        <time>2022-10-14T14:23:43+02:00</time>
      </trkpt>
      <trkpt lat="43.40486" lon="6.47195">
        <ele>34</ele>
        <time>2022-10-14T14:23:43+02:00</time>
      </trkpt>
      <trkpt lat="43.40482" lon="6.47195">
        <ele>34</ele>
        <time>2022-10-14T14:23:43+02:00</time>
      </trkpt>
      <trkpt lat="43.40478" lon="6.47195">
        <ele>34</ele>
        <time>2022-10-14T14:23:43+02:00</time>
      </trkpt>
      <trkpt lat="43.40474" lon="6.47194">
        <ele>35</ele>
        <time>2022-10-14T14:23:43+02:00</time>
      </trkpt>
      <trkpt lat="43.40471" lon="6.47193">
        <ele>34</ele>
        <time>2022-10-14T14:23:43+02:00</time>
      </trkpt>
      <trkpt lat="43.40467" lon="6.47192">
        <ele>34</ele>
        <time>2022-10-14T14:23:43+02:00</time>
      </trkpt>
      <trkpt lat="43.40463" lon="6.47191">
        <ele>34</ele>
        <time>2022-10-14T14:23:43+02:00</time>
      </trkpt>
      <trkpt lat="43.40459" lon="6.47191">
        <ele>34</ele>
        <time>2022-10-14T14:23:43+02:00</time>
      </trkpt>
      <trkpt lat="43.40454" lon="6.47191">
        <ele>35</ele>
        <time>2022-10-14T14:23:43+02:00</time>
      </trkpt>
      <trkpt lat="43.4045" lon="6.47191">
        <ele>35</ele>
        <time>2022-10-14T14:23:43+02:00</time>
      </trkpt>
      <trkpt lat="43.40446" lon="6.47192">
        <ele>35</ele>
        <time>2022-10-14T14:23:43+02:00</time>
      </trkpt>
      <trkpt lat="43.40442" lon="6.47193">
        <ele>35</ele>
        <time>2022-10-14T14:23:43+02:00</time>
      </trkpt>
      <trkpt lat="43.40438" lon="6.47193">
        <ele>35</ele>
        <time>2022-10-14T14:23:43+02:00</time>
      </trkpt>
      <trkpt lat="43.40433" lon="6.47192">
        <ele>35</ele>
        <time>2022-10-14T14:23:43+02:00</time>
      </trkpt>
      <trkpt lat="43.40429" lon="6.47191">
        <ele>35</ele>
        <time>2022-10-14T14:23:43+02:00</time>
      </trkpt>
      <trkpt lat="43.40424" lon="6.4719">
        <ele>35</ele>
        <time>2022-10-14T14:23:43+02:00</time>
      </trkpt>
      <trkpt lat="43.4042" lon="6.47189">
        <ele>34</ele>
        <time>2022-10-14T14:23:43+02:00</time>
      </trkpt>
      <trkpt lat="43.40415" lon="6.47188">
        <ele>34</ele>
        <time>2022-10-14T14:23:43+02:00</time>
      </trkpt>
      <trkpt lat="43.4041" lon="6.47187">
        <ele>34</ele>
        <time>2022-10-14T14:23:43+02:00</time>
      </trkpt>
      <trkpt lat="43.40405" lon="6.47186">
        <ele>35</ele>
        <time>2022-10-14T14:23:43+02:00</time>
      </trkpt>
      <trkpt lat="43.404" lon="6.47185">
        <ele>34</ele>
        <time>2022-10-14T14:23:43+02:00</time>
      </trkpt>
      <trkpt lat="43.40395" lon="6.47185">
        <ele>34</ele>
        <time>2022-10-14T14:23:43+02:00</time>
      </trkpt>
      <trkpt lat="43.4039" lon="6.47186">
        <ele>34</ele>
        <time>2022-10-14T14:23:43+02:00</time>
      </trkpt>
      <trkpt lat="43.40385" lon="6.47188">
        <ele>34</ele>
        <time>2022-10-14T14:23:43+02:00</time>
      </trkpt>
      <trkpt lat="43.4038" lon="6.4719">
        <ele>34</ele>
        <time>2022-10-14T14:23:43+02:00</time>
      </trkpt>
      <trkpt lat="43.40375" lon="6.47191">
        <ele>34</ele>
        <time>2022-10-14T14:23:43+02:00</time>
      </trkpt>
      <trkpt lat="43.4037" lon="6.47192">
        <ele>34</ele>
        <time>2022-10-14T14:23:43+02:00</time>
      </trkpt>
      <trkpt lat="43.40366" lon="6.47194">
        <ele>34</ele>
        <time>2022-10-14T14:23:43+02:00</time>
      </trkpt>
      <trkpt lat="43.40361" lon="6.47196">
        <ele>35</ele>
        <time>2022-10-14T14:23:43+02:00</time>
      </trkpt>
      <trkpt lat="43.40356" lon="6.47199">
        <ele>35</ele>
        <time>2022-10-14T14:23:43+02:00</time>
      </trkpt>
      <trkpt lat="43.40351" lon="6.47202">
        <ele>35</ele>
        <time>2022-10-14T14:23:43+02:00</time>
      </trkpt>
      <trkpt lat="43.40346" lon="6.47205">
        <ele>35</ele>
        <time>2022-10-14T14:23:43+02:00</time>
      </trkpt>
      <trkpt lat="43.40342" lon="6.47208">
        <ele>34</ele>
        <time>2022-10-14T14:23:43+02:00</time>
      </trkpt>
      <trkpt lat="43.40337" lon="6.4721">
        <ele>34</ele>
        <time>2022-10-14T14:23:43+02:00</time>
      </trkpt>
      <trkpt lat="43.40332" lon="6.47213">
        <ele>34</ele>
        <time>2022-10-14T14:23:43+02:00</time>
      </trkpt>
      <trkpt lat="43.40327" lon="6.47215">
        <ele>35</ele>
        <time>2022-10-14T14:23:43+02:00</time>
      </trkpt>
      <trkpt lat="43.40322" lon="6.47217">
        <ele>36</ele>
        <time>2022-10-14T14:23:43+02:00</time>
      </trkpt>
      <trkpt lat="43.40317" lon="6.4722">
        <ele>36</ele>
        <time>2022-10-14T14:23:43+02:00</time>
      </trkpt>
      <trkpt lat="43.40313" lon="6.47223">
        <ele>36</ele>
        <time>2022-10-14T14:23:43+02:00</time>
      </trkpt>
      <trkpt lat="43.40308" lon="6.47226">
        <ele>35</ele>
        <time>2022-10-14T14:23:43+02:00</time>
      </trkpt>
      <trkpt lat="43.40303" lon="6.47228">
        <ele>35</ele>
        <time>2022-10-14T14:23:43+02:00</time>
      </trkpt>
      <trkpt lat="43.40298" lon="6.4723">
        <ele>35</ele>
        <time>2022-10-14T14:23:43+02:00</time>
      </trkpt>
      <trkpt lat="43.40292" lon="6.47232">
        <ele>35</ele>
        <time>2022-10-14T14:23:43+02:00</time>
      </trkpt>
      <trkpt lat="43.40287" lon="6.47233">
        <ele>35</ele>
        <time>2022-10-14T14:23:43+02:00</time>
      </trkpt>
      <trkpt lat="43.40282" lon="6.47233">
        <ele>35</ele>
        <time>2022-10-14T14:23:43+02:00</time>
      </trkpt>
      <trkpt lat="43.40276" lon="6.47234">
        <ele>35</ele>
        <time>2022-10-14T14:23:43+02:00</time>
      </trkpt>
      <trkpt lat="43.40271" lon="6.47235">
        <ele>35</ele>
        <time>2022-10-14T14:23:43+02:00</time>
      </trkpt>
      <trkpt lat="43.40266" lon="6.47235">
        <ele>35</ele>
        <time>2022-10-14T14:23:43+02:00</time>
      </trkpt>
      <trkpt lat="43.40262" lon="6.47235">
        <ele>35</ele>
        <time>2022-10-14T14:23:43+02:00</time>
      </trkpt>
      <trkpt lat="43.40258" lon="6.47236">
        <ele>35</ele>
        <time>2022-10-14T14:23:43+02:00</time>
      </trkpt>
      <trkpt lat="43.40255" lon="6.47238">
        <ele>35</ele>
        <time>2022-10-14T14:23:43+02:00</time>
      </trkpt>
      <trkpt lat="43.40251" lon="6.47239">
        <ele>35</ele>
        <time>2022-10-14T14:23:43+02:00</time>
      </trkpt>
      <trkpt lat="43.40248" lon="6.4724">
        <ele>35</ele>
        <time>2022-10-14T14:23:43+02:00</time>
      </trkpt>
      <trkpt lat="43.40246" lon="6.47242">
        <ele>35</ele>
        <time>2022-10-14T14:23:43+02:00</time>
      </trkpt>
      <trkpt lat="43.40243" lon="6.47243">
        <ele>35</ele>
        <time>2022-10-14T14:23:43+02:00</time>
      </trkpt>
      <trkpt lat="43.4024" lon="6.47245">
        <ele>35</ele>
        <time>2022-10-14T14:23:43+02:00</time>
      </trkpt>
      <trkpt lat="43.40238" lon="6.47246">
        <ele>34</ele>
        <time>2022-10-14T14:23:43+02:00</time>
      </trkpt>
      <trkpt lat="43.40236" lon="6.47248">
        <ele>34</ele>
        <time>2022-10-14T14:23:43+02:00</time>
      </trkpt>
      <trkpt lat="43.40234" lon="6.47251">
        <ele>34</ele>
        <time>2022-10-14T14:23:43+02:00</time>
      </trkpt>
      <trkpt lat="43.4023" lon="6.47253">
        <ele>34</ele>
        <time>2022-10-14T14:23:43+02:00</time>
      </trkpt>
      <trkpt lat="43.40226" lon="6.47254">
        <ele>35</ele>
        <time>2022-10-14T14:23:43+02:00</time>
      </trkpt>
      <trkpt lat="43.40223" lon="6.47256">
        <ele>35</ele>
        <time>2022-10-14T14:23:43+02:00</time>
      </trkpt>
      <trkpt lat="43.40219" lon="6.47258">
        <ele>35</ele>
        <time>2022-10-14T14:23:43+02:00</time>
      </trkpt>
      <trkpt lat="43.40215" lon="6.4726">
        <ele>35</ele>
        <time>2022-10-14T14:23:43+02:00</time>
      </trkpt>
      <trkpt lat="43.4021" lon="6.47262">
        <ele>35</ele>
        <time>2022-10-14T14:23:43+02:00</time>
      </trkpt>
      <trkpt lat="43.40206" lon="6.47264">
        <ele>35</ele>
        <time>2022-10-14T14:23:43+02:00</time>
      </trkpt>
      <trkpt lat="43.40201" lon="6.47266">
        <ele>35</ele>
        <time>2022-10-14T14:23:43+02:00</time>
      </trkpt>
      <trkpt lat="43.40196" lon="6.47268">
        <ele>35</ele>
        <time>2022-10-14T14:23:43+02:00</time>
      </trkpt>
      <trkpt lat="43.40192" lon="6.47269">
        <ele>36</ele>
        <time>2022-10-14T14:23:43+02:00</time>
      </trkpt>
      <trkpt lat="43.40188" lon="6.4727">
        <ele>36</ele>
        <time>2022-10-14T14:23:43+02:00</time>
      </trkpt>
      <trkpt lat="43.40184" lon="6.47271">
        <ele>36</ele>
        <time>2022-10-14T14:23:43+02:00</time>
      </trkpt>
      <trkpt lat="43.40181" lon="6.47271">
        <ele>36</ele>
        <time>2022-10-14T14:23:43+02:00</time>
      </trkpt>
      <trkpt lat="43.40178" lon="6.47272">
        <ele>36</ele>
        <time>2022-10-14T14:23:43+02:00</time>
      </trkpt>
      <trkpt lat="43.40174" lon="6.47273">
        <ele>36</ele>
        <time>2022-10-14T14:23:43+02:00</time>
      </trkpt>
      <trkpt lat="43.40172" lon="6.47274">
        <ele>36</ele>
        <time>2022-10-14T14:23:43+02:00</time>
      </trkpt>
      <trkpt lat="43.40168" lon="6.47274">
        <ele>36</ele>
        <time>2022-10-14T14:23:43+02:00</time>
      </trkpt>
      <trkpt lat="43.40164" lon="6.47275">
        <ele>36</ele>
        <time>2022-10-14T14:23:43+02:00</time>
      </trkpt>
      <trkpt lat="43.40161" lon="6.47277">
        <ele>36</ele>
        <time>2022-10-14T14:23:43+02:00</time>
      </trkpt>
      <trkpt lat="43.40157" lon="6.47279">
        <ele>36</ele>
        <time>2022-10-14T14:23:43+02:00</time>
      </trkpt>
      <trkpt lat="43.40153" lon="6.47281">
        <ele>36</ele>
        <time>2022-10-14T14:23:43+02:00</time>
      </trkpt>
      <trkpt lat="43.40149" lon="6.47283">
        <ele>36</ele>
        <time>2022-10-14T14:23:43+02:00</time>
      </trkpt>
      <trkpt lat="43.40145" lon="6.47286">
        <ele>36</ele>
        <time>2022-10-14T14:23:43+02:00</time>
      </trkpt>
      <trkpt lat="43.40141" lon="6.47289">
        <ele>36</ele>
        <time>2022-10-14T14:23:43+02:00</time>
      </trkpt>
      <trkpt lat="43.40137" lon="6.47291">
        <ele>36</ele>
        <time>2022-10-14T14:23:43+02:00</time>
      </trkpt>
      <trkpt lat="43.40133" lon="6.47293">
        <ele>36</ele>
        <time>2022-10-14T14:23:43+02:00</time>
      </trkpt>
      <trkpt lat="43.4013" lon="6.47295">
        <ele>36</ele>
        <time>2022-10-14T14:23:43+02:00</time>
      </trkpt>
      <trkpt lat="43.40126" lon="6.47296">
        <ele>36</ele>
        <time>2022-10-14T14:23:43+02:00</time>
      </trkpt>
      <trkpt lat="43.40122" lon="6.47295">
        <ele>36</ele>
        <time>2022-10-14T14:23:43+02:00</time>
      </trkpt>
      <trkpt lat="43.40119" lon="6.47292">
        <ele>37</ele>
        <time>2022-10-14T14:23:43+02:00</time>
      </trkpt>
      <trkpt lat="43.40118" lon="6.47289">
        <ele>37</ele>
        <time>2022-10-14T14:23:43+02:00</time>
      </trkpt>
      <trkpt lat="43.40117" lon="6.47285">
        <ele>37</ele>
        <time>2022-10-14T14:23:43+02:00</time>
      </trkpt>
      <trkpt lat="43.40116" lon="6.47281">
        <ele>38</ele>
        <time>2022-10-14T14:23:43+02:00</time>
      </trkpt>
      <trkpt lat="43.40115" lon="6.47276">
        <ele>38</ele>
        <time>2022-10-14T14:23:43+02:00</time>
      </trkpt>
      <trkpt lat="43.40114" lon="6.47272">
        <ele>38</ele>
        <time>2022-10-14T14:23:43+02:00</time>
      </trkpt>
      <trkpt lat="43.40114" lon="6.47267">
        <ele>38</ele>
        <time>2022-10-14T14:23:43+02:00</time>
      </trkpt>
      <trkpt lat="43.40113" lon="6.47262">
        <ele>37</ele>
        <time>2022-10-14T14:23:43+02:00</time>
      </trkpt>
      <trkpt lat="43.40113" lon="6.47256">
        <ele>36</ele>
        <time>2022-10-14T14:23:43+02:00</time>
      </trkpt>
      <trkpt lat="43.40113" lon="6.4725">
        <ele>36</ele>
        <time>2022-10-14T14:23:43+02:00</time>
      </trkpt>
      <trkpt lat="43.40113" lon="6.47244">
        <ele>36</ele>
        <time>2022-10-14T14:23:43+02:00</time>
      </trkpt>
      <trkpt lat="43.40113" lon="6.47238">
        <ele>35</ele>
        <time>2022-10-14T14:23:43+02:00</time>
      </trkpt>
      <trkpt lat="43.40113" lon="6.47232">
        <ele>36</ele>
        <time>2022-10-14T14:23:43+02:00</time>
      </trkpt>
      <trkpt lat="43.40113" lon="6.47225">
        <ele>36</ele>
        <time>2022-10-14T14:23:43+02:00</time>
      </trkpt>
      <trkpt lat="43.40113" lon="6.47219">
        <ele>36</ele>
        <time>2022-10-14T14:23:43+02:00</time>
      </trkpt>
      <trkpt lat="43.40112" lon="6.47213">
        <ele>36</ele>
        <time>2022-10-14T14:23:43+02:00</time>
      </trkpt>
      <trkpt lat="43.4011" lon="6.47208">
        <ele>37</ele>
        <time>2022-10-14T14:23:43+02:00</time>
      </trkpt>
      <trkpt lat="43.40108" lon="6.47202">
        <ele>37</ele>
        <time>2022-10-14T14:23:43+02:00</time>
      </trkpt>
      <trkpt lat="43.40105" lon="6.47197">
        <ele>37</ele>
        <time>2022-10-14T14:23:43+02:00</time>
      </trkpt>
      <trkpt lat="43.40102" lon="6.47192">
        <ele>37</ele>
        <time>2022-10-14T14:23:43+02:00</time>
      </trkpt>
      <trkpt lat="43.401" lon="6.47187">
        <ele>37</ele>
        <time>2022-10-14T14:23:43+02:00</time>
      </trkpt>
      <trkpt lat="43.40097" lon="6.47183">
        <ele>37</ele>
        <time>2022-10-14T14:23:43+02:00</time>
      </trkpt>
      <trkpt lat="43.40095" lon="6.47178">
        <ele>37</ele>
        <time>2022-10-14T14:23:43+02:00</time>
      </trkpt>
      <trkpt lat="43.40093" lon="6.47173">
        <ele>38</ele>
        <time>2022-10-14T14:23:43+02:00</time>
      </trkpt>
      <trkpt lat="43.40092" lon="6.47168">
        <ele>38</ele>
        <time>2022-10-14T14:23:43+02:00</time>
      </trkpt>
      <trkpt lat="43.40091" lon="6.47163">
        <ele>38</ele>
        <time>2022-10-14T14:23:43+02:00</time>
      </trkpt>
      <trkpt lat="43.40091" lon="6.47157">
        <ele>38</ele>
        <time>2022-10-14T14:23:43+02:00</time>
      </trkpt>
      <trkpt lat="43.4009" lon="6.47151">
        <ele>39</ele>
        <time>2022-10-14T14:23:43+02:00</time>
      </trkpt>
      <trkpt lat="43.4009" lon="6.47145">
        <ele>39</ele>
        <time>2022-10-14T14:23:43+02:00</time>
      </trkpt>
      <trkpt lat="43.40089" lon="6.47139">
        <ele>39</ele>
        <time>2022-10-14T14:23:43+02:00</time>
      </trkpt>
      <trkpt lat="43.40089" lon="6.47133">
        <ele>39</ele>
        <time>2022-10-14T14:23:43+02:00</time>
      </trkpt>
      <trkpt lat="43.40088" lon="6.47128">
        <ele>40</ele>
        <time>2022-10-14T14:23:43+02:00</time>
      </trkpt>
      <trkpt lat="43.40087" lon="6.47122">
        <ele>41</ele>
        <time>2022-10-14T14:23:43+02:00</time>
      </trkpt>
      <trkpt lat="43.40086" lon="6.47116">
        <ele>41</ele>
        <time>2022-10-14T14:23:43+02:00</time>
      </trkpt>
      <trkpt lat="43.40085" lon="6.47111">
        <ele>41</ele>
        <time>2022-10-14T14:23:43+02:00</time>
      </trkpt>
      <trkpt lat="43.40084" lon="6.47106">
        <ele>42</ele>
        <time>2022-10-14T14:23:43+02:00</time>
      </trkpt>
      <trkpt lat="43.40082" lon="6.47102">
        <ele>42</ele>
        <time>2022-10-14T14:23:43+02:00</time>
      </trkpt>
      <trkpt lat="43.4008" lon="6.47099">
        <ele>42</ele>
        <time>2022-10-14T14:23:43+02:00</time>
      </trkpt>
      <trkpt lat="43.40078" lon="6.47096">
        <ele>42</ele>
        <time>2022-10-14T14:23:43+02:00</time>
      </trkpt>
      <trkpt lat="43.40076" lon="6.47093">
        <ele>42</ele>
        <time>2022-10-14T14:23:43+02:00</time>
      </trkpt>
      <trkpt lat="43.40074" lon="6.47089">
        <ele>42</ele>
        <time>2022-10-14T14:23:43+02:00</time>
      </trkpt>
      <trkpt lat="43.40073" lon="6.47084">
        <ele>42</ele>
        <time>2022-10-14T14:23:43+02:00</time>
      </trkpt>
      <trkpt lat="43.40073" lon="6.47079">
        <ele>42</ele>
        <time>2022-10-14T14:23:43+02:00</time>
      </trkpt>
      <trkpt lat="43.40073" lon="6.47075">
        <ele>43</ele>
        <time>2022-10-14T14:23:43+02:00</time>
      </trkpt>
      <trkpt lat="43.40072" lon="6.4707">
        <ele>43</ele>
        <time>2022-10-14T14:23:43+02:00</time>
      </trkpt>
      <trkpt lat="43.40072" lon="6.47064">
        <ele>43</ele>
        <time>2022-10-14T14:23:43+02:00</time>
      </trkpt>
      <trkpt lat="43.40071" lon="6.47059">
        <ele>43</ele>
        <time>2022-10-14T14:23:43+02:00</time>
      </trkpt>
      <trkpt lat="43.40071" lon="6.47054">
        <ele>43</ele>
        <time>2022-10-14T14:23:43+02:00</time>
      </trkpt>
      <trkpt lat="43.4007" lon="6.47048">
        <ele>43</ele>
        <time>2022-10-14T14:23:43+02:00</time>
      </trkpt>
      <trkpt lat="43.4007" lon="6.47043">
        <ele>43</ele>
        <time>2022-10-14T14:23:43+02:00</time>
      </trkpt>
      <trkpt lat="43.40069" lon="6.47037">
        <ele>43</ele>
        <time>2022-10-14T14:23:43+02:00</time>
      </trkpt>
      <trkpt lat="43.40069" lon="6.47031">
        <ele>44</ele>
        <time>2022-10-14T14:23:43+02:00</time>
      </trkpt>
      <trkpt lat="43.40068" lon="6.47026">
        <ele>44</ele>
        <time>2022-10-14T14:23:43+02:00</time>
      </trkpt>
      <trkpt lat="43.40067" lon="6.4702">
        <ele>44</ele>
        <time>2022-10-14T14:23:43+02:00</time>
      </trkpt>
      <trkpt lat="43.40066" lon="6.47015">
        <ele>44</ele>
        <time>2022-10-14T14:23:43+02:00</time>
      </trkpt>
      <trkpt lat="43.40065" lon="6.4701">
        <ele>43</ele>
        <time>2022-10-14T14:23:43+02:00</time>
      </trkpt>
      <trkpt lat="43.40062" lon="6.47006">
        <ele>43</ele>
        <time>2022-10-14T14:23:43+02:00</time>
      </trkpt>
      <trkpt lat="43.40059" lon="6.47003">
        <ele>43</ele>
        <time>2022-10-14T14:23:43+02:00</time>
      </trkpt>
      <trkpt lat="43.40055" lon="6.47001">
        <ele>43</ele>
        <time>2022-10-14T14:23:43+02:00</time>
      </trkpt>
      <trkpt lat="43.40051" lon="6.46998">
        <ele>43</ele>
        <time>2022-10-14T14:23:43+02:00</time>
      </trkpt>
      <trkpt lat="43.40047" lon="6.46995">
        <ele>44</ele>
        <time>2022-10-14T14:23:43+02:00</time>
      </trkpt>
      <trkpt lat="43.40045" lon="6.4699">
        <ele>44</ele>
        <time>2022-10-14T14:23:43+02:00</time>
      </trkpt>
      <trkpt lat="43.40044" lon="6.46985">
        <ele>44</ele>
        <time>2022-10-14T14:23:43+02:00</time>
      </trkpt>
      <trkpt lat="43.40043" lon="6.46979">
        <ele>43</ele>
        <time>2022-10-14T14:23:43+02:00</time>
      </trkpt>
      <trkpt lat="43.40043" lon="6.46973">
        <ele>43</ele>
        <time>2022-10-14T14:23:43+02:00</time>
      </trkpt>
      <trkpt lat="43.40043" lon="6.46967">
        <ele>43</ele>
        <time>2022-10-14T14:23:43+02:00</time>
      </trkpt>
      <trkpt lat="43.40043" lon="6.46961">
        <ele>43</ele>
        <time>2022-10-14T14:23:43+02:00</time>
      </trkpt>
      <trkpt lat="43.40043" lon="6.46956">
        <ele>43</ele>
        <time>2022-10-14T14:23:43+02:00</time>
      </trkpt>
      <trkpt lat="43.40043" lon="6.4695">
        <ele>43</ele>
        <time>2022-10-14T14:23:43+02:00</time>
      </trkpt>
      <trkpt lat="43.40043" lon="6.46944">
        <ele>43</ele>
        <time>2022-10-14T14:23:43+02:00</time>
      </trkpt>
      <trkpt lat="43.40044" lon="6.46938">
        <ele>43</ele>
        <time>2022-10-14T14:23:43+02:00</time>
      </trkpt>
      <trkpt lat="43.40044" lon="6.46932">
        <ele>43</ele>
        <time>2022-10-14T14:23:43+02:00</time>
      </trkpt>
      <trkpt lat="43.40044" lon="6.46926">
        <ele>43</ele>
        <time>2022-10-14T14:23:43+02:00</time>
      </trkpt>
      <trkpt lat="43.40044" lon="6.46921">
        <ele>43</ele>
        <time>2022-10-14T14:23:43+02:00</time>
      </trkpt>
      <trkpt lat="43.40044" lon="6.46916">
        <ele>43</ele>
        <time>2022-10-14T14:23:43+02:00</time>
      </trkpt>
      <trkpt lat="43.40044" lon="6.46911">
        <ele>43</ele>
        <time>2022-10-14T14:23:43+02:00</time>
      </trkpt>
      <trkpt lat="43.40045" lon="6.46906">
        <ele>42</ele>
        <time>2022-10-14T14:23:43+02:00</time>
      </trkpt>
      <trkpt lat="43.40045" lon="6.469">
        <ele>42</ele>
        <time>2022-10-14T14:23:43+02:00</time>
      </trkpt>
      <trkpt lat="43.40046" lon="6.46894">
        <ele>42</ele>
        <time>2022-10-14T14:23:43+02:00</time>
      </trkpt>
      <trkpt lat="43.40046" lon="6.46887">
        <ele>42</ele>
        <time>2022-10-14T14:23:43+02:00</time>
      </trkpt>
      <trkpt lat="43.40047" lon="6.46881">
        <ele>42</ele>
        <time>2022-10-14T14:23:43+02:00</time>
      </trkpt>
      <trkpt lat="43.40049" lon="6.46875">
        <ele>42</ele>
        <time>2022-10-14T14:23:43+02:00</time>
      </trkpt>
      <trkpt lat="43.4005" lon="6.46867">
        <ele>42</ele>
        <time>2022-10-14T14:23:43+02:00</time>
      </trkpt>
      <trkpt lat="43.40051" lon="6.4686">
        <ele>41</ele>
        <time>2022-10-14T14:23:43+02:00</time>
      </trkpt>
      <trkpt lat="43.40054" lon="6.46853">
        <ele>39</ele>
        <time>2022-10-14T14:23:43+02:00</time>
      </trkpt>
      <trkpt lat="43.40057" lon="6.46847">
        <ele>39</ele>
        <time>2022-10-14T14:23:43+02:00</time>
      </trkpt>
      <trkpt lat="43.40061" lon="6.4684">
        <ele>39</ele>
        <time>2022-10-14T14:23:43+02:00</time>
      </trkpt>
      <trkpt lat="43.40066" lon="6.46834">
        <ele>38</ele>
        <time>2022-10-14T14:23:43+02:00</time>
      </trkpt>
      <trkpt lat="43.4007" lon="6.46829">
        <ele>36</ele>
        <time>2022-10-14T14:23:43+02:00</time>
      </trkpt>
      <trkpt lat="43.40074" lon="6.46825">
        <ele>36</ele>
        <time>2022-10-14T14:23:43+02:00</time>
      </trkpt>
      <trkpt lat="43.40076" lon="6.4682">
        <ele>36</ele>
        <time>2022-10-14T14:23:43+02:00</time>
      </trkpt>
      <trkpt lat="43.40076" lon="6.46815">
        <ele>36</ele>
        <time>2022-10-14T14:23:43+02:00</time>
      </trkpt>
      <trkpt lat="43.40075" lon="6.46811">
        <ele>38</ele>
        <time>2022-10-14T14:23:43+02:00</time>
      </trkpt>
      <trkpt lat="43.40074" lon="6.46806">
        <ele>38</ele>
        <time>2022-10-14T14:23:43+02:00</time>
      </trkpt>
      <trkpt lat="43.40074" lon="6.46801">
        <ele>38</ele>
        <time>2022-10-14T14:23:43+02:00</time>
      </trkpt>
      <trkpt lat="43.40074" lon="6.46795">
        <ele>37</ele>
        <time>2022-10-14T14:23:43+02:00</time>
      </trkpt>
      <trkpt lat="43.40075" lon="6.4679">
        <ele>38</ele>
        <time>2022-10-14T14:23:43+02:00</time>
      </trkpt>
      <trkpt lat="43.40076" lon="6.46786">
        <ele>38</ele>
        <time>2022-10-14T14:23:43+02:00</time>
      </trkpt>
      <trkpt lat="43.40079" lon="6.46783">
        <ele>38</ele>
        <time>2022-10-14T14:23:43+02:00</time>
      </trkpt>
      <trkpt lat="43.40081" lon="6.46781">
        <ele>38</ele>
        <time>2022-10-14T14:23:43+02:00</time>
      </trkpt>
      <trkpt lat="43.40084" lon="6.46778">
        <ele>38</ele>
        <time>2022-10-14T14:23:43+02:00</time>
      </trkpt>
      <trkpt lat="43.40087" lon="6.46773">
        <ele>38</ele>
        <time>2022-10-14T14:23:43+02:00</time>
      </trkpt>
      <trkpt lat="43.40091" lon="6.46767">
        <ele>38</ele>
        <time>2022-10-14T14:23:43+02:00</time>
      </trkpt>
      <trkpt lat="43.40094" lon="6.46761">
        <ele>37</ele>
        <time>2022-10-14T14:23:43+02:00</time>
      </trkpt>
      <trkpt lat="43.40096" lon="6.46754">
        <ele>36</ele>
        <time>2022-10-14T14:23:43+02:00</time>
      </trkpt>
      <trkpt lat="43.40098" lon="6.46748">
        <ele>36</ele>
        <time>2022-10-14T14:23:43+02:00</time>
      </trkpt>
      <trkpt lat="43.401" lon="6.46742">
        <ele>36</ele>
        <time>2022-10-14T14:23:43+02:00</time>
      </trkpt>
      <trkpt lat="43.40101" lon="6.46737">
        <ele>37</ele>
        <time>2022-10-14T14:23:43+02:00</time>
      </trkpt>
      <trkpt lat="43.40103" lon="6.46732">
        <ele>38</ele>
        <time>2022-10-14T14:23:43+02:00</time>
      </trkpt>
      <trkpt lat="43.40104" lon="6.46727">
        <ele>38</ele>
        <time>2022-10-14T14:23:43+02:00</time>
      </trkpt>
      <trkpt lat="43.40105" lon="6.46722">
        <ele>38</ele>
        <time>2022-10-14T14:23:43+02:00</time>
      </trkpt>
      <trkpt lat="43.40107" lon="6.46718">
        <ele>38</ele>
        <time>2022-10-14T14:23:43+02:00</time>
      </trkpt>
      <trkpt lat="43.40109" lon="6.46712">
        <ele>38</ele>
        <time>2022-10-14T14:23:43+02:00</time>
      </trkpt>
      <trkpt lat="43.40109" lon="6.46706">
        <ele>38</ele>
        <time>2022-10-14T14:23:43+02:00</time>
      </trkpt>
      <trkpt lat="43.4011" lon="6.467">
        <ele>38</ele>
        <time>2022-10-14T14:23:43+02:00</time>
      </trkpt>
      <trkpt lat="43.4011" lon="6.46695">
        <ele>38</ele>
        <time>2022-10-14T14:23:43+02:00</time>
      </trkpt>
      <trkpt lat="43.40109" lon="6.4669">
        <ele>39</ele>
        <time>2022-10-14T14:23:43+02:00</time>
      </trkpt>
      <trkpt lat="43.40109" lon="6.46687">
        <ele>39</ele>
        <time>2022-10-14T14:23:43+02:00</time>
      </trkpt>
      <trkpt lat="43.40109" lon="6.46683">
        <ele>39</ele>
        <time>2022-10-14T14:23:43+02:00</time>
      </trkpt>
      <trkpt lat="43.40108" lon="6.4668">
        <ele>39</ele>
        <time>2022-10-14T14:23:43+02:00</time>
      </trkpt>
      <trkpt lat="43.40108" lon="6.46677">
        <ele>41</ele>
        <time>2022-10-14T14:23:43+02:00</time>
      </trkpt>
      <trkpt lat="43.40108" lon="6.46674">
        <ele>41</ele>
        <time>2022-10-14T14:23:43+02:00</time>
      </trkpt>
      <trkpt lat="43.40108" lon="6.46671">
        <ele>41</ele>
        <time>2022-10-14T14:23:43+02:00</time>
      </trkpt>
      <trkpt lat="43.40108" lon="6.46668">
        <ele>42</ele>
        <time>2022-10-14T14:23:43+02:00</time>
      </trkpt>
      <trkpt lat="43.40108" lon="6.46664">
        <ele>43</ele>
        <time>2022-10-14T14:23:43+02:00</time>
      </trkpt>
      <trkpt lat="43.40108" lon="6.46661">
        <ele>43</ele>
        <time>2022-10-14T14:23:43+02:00</time>
      </trkpt>
      <trkpt lat="43.40109" lon="6.46657">
        <ele>43</ele>
        <time>2022-10-14T14:23:43+02:00</time>
      </trkpt>
      <trkpt lat="43.40111" lon="6.46654">
        <ele>44</ele>
        <time>2022-10-14T14:23:43+02:00</time>
      </trkpt>
      <trkpt lat="43.40112" lon="6.46651">
        <ele>43</ele>
        <time>2022-10-14T14:23:43+02:00</time>
      </trkpt>
      <trkpt lat="43.40114" lon="6.46648">
        <ele>43</ele>
        <time>2022-10-14T14:23:43+02:00</time>
      </trkpt>
      <trkpt lat="43.40115" lon="6.46644">
        <ele>43</ele>
        <time>2022-10-14T14:23:43+02:00</time>
      </trkpt>
      <trkpt lat="43.40116" lon="6.46639">
        <ele>43</ele>
        <time>2022-10-14T14:23:43+02:00</time>
      </trkpt>
      <trkpt lat="43.40117" lon="6.46636">
        <ele>44</ele>
        <time>2022-10-14T14:23:43+02:00</time>
      </trkpt>
      <trkpt lat="43.40118" lon="6.46632">
        <ele>44</ele>
        <time>2022-10-14T14:23:43+02:00</time>
      </trkpt>
      <trkpt lat="43.4012" lon="6.46628">
        <ele>44</ele>
        <time>2022-10-14T14:23:43+02:00</time>
      </trkpt>
      <trkpt lat="43.40121" lon="6.46624">
        <ele>44</ele>
        <time>2022-10-14T14:23:43+02:00</time>
      </trkpt>
      <trkpt lat="43.40122" lon="6.46619">
        <ele>44</ele>
        <time>2022-10-14T14:23:43+02:00</time>
      </trkpt>
      <trkpt lat="43.40122" lon="6.46615">
        <ele>44</ele>
        <time>2022-10-14T14:23:43+02:00</time>
      </trkpt>
      <trkpt lat="43.40121" lon="6.4661">
        <ele>44</ele>
        <time>2022-10-14T14:23:43+02:00</time>
      </trkpt>
      <trkpt lat="43.4012" lon="6.46605">
        <ele>44</ele>
        <time>2022-10-14T14:23:43+02:00</time>
      </trkpt>
      <trkpt lat="43.40119" lon="6.46601">
        <ele>43</ele>
        <time>2022-10-14T14:23:43+02:00</time>
      </trkpt>
      <trkpt lat="43.40117" lon="6.46596">
        <ele>43</ele>
        <time>2022-10-14T14:23:43+02:00</time>
      </trkpt>
      <trkpt lat="43.40115" lon="6.4659">
        <ele>43</ele>
        <time>2022-10-14T14:23:43+02:00</time>
      </trkpt>
      <trkpt lat="43.40113" lon="6.46583">
        <ele>42</ele>
        <time>2022-10-14T14:23:43+02:00</time>
      </trkpt>
      <trkpt lat="43.40111" lon="6.46576">
        <ele>41</ele>
        <time>2022-10-14T14:23:43+02:00</time>
      </trkpt>
      <trkpt lat="43.40109" lon="6.46571">
        <ele>41</ele>
        <time>2022-10-14T14:23:43+02:00</time>
      </trkpt>
      <trkpt lat="43.40107" lon="6.46566">
        <ele>41</ele>
        <time>2022-10-14T14:23:43+02:00</time>
      </trkpt>
      <trkpt lat="43.40105" lon="6.46562">
        <ele>42</ele>
        <time>2022-10-14T14:23:43+02:00</time>
      </trkpt>
      <trkpt lat="43.40103" lon="6.46558">
        <ele>43</ele>
        <time>2022-10-14T14:23:43+02:00</time>
      </trkpt>
      <trkpt lat="43.401" lon="6.46555">
        <ele>43</ele>
        <time>2022-10-14T14:23:43+02:00</time>
      </trkpt>
      <trkpt lat="43.40097" lon="6.46552">
        <ele>43</ele>
        <time>2022-10-14T14:23:43+02:00</time>
      </trkpt>
      <trkpt lat="43.40094" lon="6.4655">
        <ele>44</ele>
        <time>2022-10-14T14:23:43+02:00</time>
      </trkpt>
      <trkpt lat="43.40091" lon="6.46549">
        <ele>45</ele>
        <time>2022-10-14T14:23:43+02:00</time>
      </trkpt>
      <trkpt lat="43.40088" lon="6.46548">
        <ele>45</ele>
        <time>2022-10-14T14:23:43+02:00</time>
      </trkpt>
      <trkpt lat="43.40084" lon="6.46547">
        <ele>45</ele>
        <time>2022-10-14T14:23:43+02:00</time>
      </trkpt>
      <trkpt lat="43.40081" lon="6.46546">
        <ele>45</ele>
        <time>2022-10-14T14:23:43+02:00</time>
      </trkpt>
      <trkpt lat="43.40078" lon="6.46545">
        <ele>45</ele>
        <time>2022-10-14T14:23:43+02:00</time>
      </trkpt>
      <trkpt lat="43.40074" lon="6.46544">
        <ele>45</ele>
        <time>2022-10-14T14:23:43+02:00</time>
      </trkpt>
      <trkpt lat="43.40071" lon="6.46543">
        <ele>45</ele>
        <time>2022-10-14T14:23:43+02:00</time>
      </trkpt>
      <trkpt lat="43.40068" lon="6.46541">
        <ele>45</ele>
        <time>2022-10-14T14:23:43+02:00</time>
      </trkpt>
      <trkpt lat="43.40065" lon="6.4654">
        <ele>47</ele>
        <time>2022-10-14T14:23:43+02:00</time>
      </trkpt>
      <trkpt lat="43.40062" lon="6.46539">
        <ele>47</ele>
        <time>2022-10-14T14:23:43+02:00</time>
      </trkpt>
      <trkpt lat="43.40059" lon="6.46537">
        <ele>47</ele>
        <time>2022-10-14T14:23:43+02:00</time>
      </trkpt>
      <trkpt lat="43.40056" lon="6.46536">
        <ele>47</ele>
        <time>2022-10-14T14:23:43+02:00</time>
      </trkpt>
      <trkpt lat="43.40053" lon="6.46534">
        <ele>49</ele>
        <time>2022-10-14T14:23:43+02:00</time>
      </trkpt>
      <trkpt lat="43.40051" lon="6.46533">
        <ele>49</ele>
        <time>2022-10-14T14:23:43+02:00</time>
      </trkpt>
      <trkpt lat="43.40048" lon="6.46531">
        <ele>49</ele>
        <time>2022-10-14T14:23:43+02:00</time>
      </trkpt>
      <trkpt lat="43.40045" lon="6.46529">
        <ele>48</ele>
        <time>2022-10-14T14:23:43+02:00</time>
      </trkpt>
      <trkpt lat="43.40042" lon="6.46528">
        <ele>49</ele>
        <time>2022-10-14T14:23:43+02:00</time>
      </trkpt>
      <trkpt lat="43.4004" lon="6.46527">
        <ele>49</ele>
        <time>2022-10-14T14:23:43+02:00</time>
      </trkpt>
      <trkpt lat="43.40037" lon="6.46527">
        <ele>49</ele>
        <time>2022-10-14T14:23:43+02:00</time>
      </trkpt>
      <trkpt lat="43.40034" lon="6.46527">
        <ele>49</ele>
        <time>2022-10-14T14:23:43+02:00</time>
      </trkpt>
      <trkpt lat="43.40032" lon="6.46527">
        <ele>51</ele>
        <time>2022-10-14T14:23:43+02:00</time>
      </trkpt>
      <trkpt lat="43.40029" lon="6.46528">
        <ele>51</ele>
        <time>2022-10-14T14:23:43+02:00</time>
      </trkpt>
      <trkpt lat="43.40026" lon="6.46528">
        <ele>51</ele>
        <time>2022-10-14T14:23:43+02:00</time>
      </trkpt>
      <trkpt lat="43.40024" lon="6.46528">
        <ele>51</ele>
        <time>2022-10-14T14:23:43+02:00</time>
      </trkpt>
      <trkpt lat="43.40022" lon="6.46528">
        <ele>52</ele>
        <time>2022-10-14T14:23:43+02:00</time>
      </trkpt>
      <trkpt lat="43.40021" lon="6.46529">
        <ele>52</ele>
        <time>2022-10-14T14:23:43+02:00</time>
      </trkpt>
      <trkpt lat="43.40019" lon="6.4653">
        <ele>52</ele>
        <time>2022-10-14T14:23:43+02:00</time>
      </trkpt>
      <trkpt lat="43.40017" lon="6.46531">
        <ele>52</ele>
        <time>2022-10-14T14:23:43+02:00</time>
      </trkpt>
      <trkpt lat="43.40015" lon="6.46533">
        <ele>52</ele>
        <time>2022-10-14T14:23:43+02:00</time>
      </trkpt>
      <trkpt lat="43.40012" lon="6.46535">
        <ele>52</ele>
        <time>2022-10-14T14:23:43+02:00</time>
      </trkpt>
      <trkpt lat="43.4001" lon="6.46536">
        <ele>52</ele>
        <time>2022-10-14T14:23:43+02:00</time>
      </trkpt>
      <trkpt lat="43.40007" lon="6.46538">
        <ele>52</ele>
        <time>2022-10-14T14:23:43+02:00</time>
      </trkpt>
      <trkpt lat="43.40004" lon="6.4654">
        <ele>52</ele>
        <time>2022-10-14T14:23:43+02:00</time>
      </trkpt>
      <trkpt lat="43.40001" lon="6.46543">
        <ele>52</ele>
        <time>2022-10-14T14:23:43+02:00</time>
      </trkpt>
      <trkpt lat="43.39998" lon="6.46545">
        <ele>52</ele>
        <time>2022-10-14T14:23:43+02:00</time>
      </trkpt>
      <trkpt lat="43.39995" lon="6.46547">
        <ele>52</ele>
        <time>2022-10-14T14:23:43+02:00</time>
      </trkpt>
      <trkpt lat="43.39991" lon="6.46549">
        <ele>52</ele>
        <time>2022-10-14T14:23:43+02:00</time>
      </trkpt>
      <trkpt lat="43.39988" lon="6.4655">
        <ele>52</ele>
        <time>2022-10-14T14:23:43+02:00</time>
      </trkpt>
      <trkpt lat="43.39985" lon="6.46552">
        <ele>52</ele>
        <time>2022-10-14T14:23:43+02:00</time>
      </trkpt>
      <trkpt lat="43.39981" lon="6.46554">
        <ele>52</ele>
        <time>2022-10-14T14:23:43+02:00</time>
      </trkpt>
      <trkpt lat="43.39978" lon="6.46555">
        <ele>52</ele>
        <time>2022-10-14T14:23:43+02:00</time>
      </trkpt>
      <trkpt lat="43.39974" lon="6.46556">
        <ele>52</ele>
        <time>2022-10-14T14:23:43+02:00</time>
      </trkpt>
      <trkpt lat="43.39971" lon="6.46556">
        <ele>52</ele>
        <time>2022-10-14T14:23:43+02:00</time>
      </trkpt>
      <trkpt lat="43.39968" lon="6.46553">
        <ele>52</ele>
        <time>2022-10-14T14:23:43+02:00</time>
      </trkpt>
      <trkpt lat="43.39966" lon="6.46549">
        <ele>52</ele>
        <time>2022-10-14T14:23:43+02:00</time>
      </trkpt>
      <trkpt lat="43.39966" lon="6.46544">
        <ele>52</ele>
        <time>2022-10-14T14:23:43+02:00</time>
      </trkpt>
      <trkpt lat="43.39965" lon="6.46539">
        <ele>52</ele>
        <time>2022-10-14T14:23:43+02:00</time>
      </trkpt>
      <trkpt lat="43.39966" lon="6.46534">
        <ele>53</ele>
        <time>2022-10-14T14:23:43+02:00</time>
      </trkpt>
      <trkpt lat="43.39966" lon="6.46529">
        <ele>51</ele>
        <time>2022-10-14T14:23:43+02:00</time>
      </trkpt>
      <trkpt lat="43.39966" lon="6.46524">
        <ele>51</ele>
        <time>2022-10-14T14:23:43+02:00</time>
      </trkpt>
      <trkpt lat="43.39966" lon="6.46518">
        <ele>51</ele>
        <time>2022-10-14T14:23:43+02:00</time>
      </trkpt>
      <trkpt lat="43.39966" lon="6.46514">
        <ele>52</ele>
        <time>2022-10-14T14:23:43+02:00</time>
      </trkpt>
      <trkpt lat="43.39966" lon="6.46508">
        <ele>52</ele>
        <time>2022-10-14T14:23:43+02:00</time>
      </trkpt>
      <trkpt lat="43.39966" lon="6.46503">
        <ele>52</ele>
        <time>2022-10-14T14:23:43+02:00</time>
      </trkpt>
      <trkpt lat="43.39966" lon="6.46498">
        <ele>52</ele>
        <time>2022-10-14T14:23:43+02:00</time>
      </trkpt>
      <trkpt lat="43.39966" lon="6.46493">
        <ele>53</ele>
        <time>2022-10-14T14:23:43+02:00</time>
      </trkpt>
      <trkpt lat="43.39967" lon="6.46488">
        <ele>53</ele>
        <time>2022-10-14T14:23:43+02:00</time>
      </trkpt>
      <trkpt lat="43.39967" lon="6.46483">
        <ele>53</ele>
        <time>2022-10-14T14:23:43+02:00</time>
      </trkpt>
      <trkpt lat="43.39967" lon="6.46478">
        <ele>53</ele>
        <time>2022-10-14T14:23:43+02:00</time>
      </trkpt>
      <trkpt lat="43.39968" lon="6.46473">
        <ele>53</ele>
        <time>2022-10-14T14:23:43+02:00</time>
      </trkpt>
      <trkpt lat="43.39969" lon="6.46468">
        <ele>54</ele>
        <time>2022-10-14T14:23:43+02:00</time>
      </trkpt>
      <trkpt lat="43.39969" lon="6.46464">
        <ele>54</ele>
        <time>2022-10-14T14:23:43+02:00</time>
      </trkpt>
      <trkpt lat="43.3997" lon="6.46459">
        <ele>54</ele>
        <time>2022-10-14T14:23:43+02:00</time>
      </trkpt>
      <trkpt lat="43.3997" lon="6.46455">
        <ele>54</ele>
        <time>2022-10-14T14:23:43+02:00</time>
      </trkpt>
      <trkpt lat="43.3997" lon="6.4645">
        <ele>54</ele>
        <time>2022-10-14T14:23:43+02:00</time>
      </trkpt>
      <trkpt lat="43.3997" lon="6.46446">
        <ele>54</ele>
        <time>2022-10-14T14:23:43+02:00</time>
      </trkpt>
      <trkpt lat="43.3997" lon="6.46441">
        <ele>54</ele>
        <time>2022-10-14T14:23:43+02:00</time>
      </trkpt>
      <trkpt lat="43.39969" lon="6.46436">
        <ele>55</ele>
        <time>2022-10-14T14:23:43+02:00</time>
      </trkpt>
      <trkpt lat="43.39968" lon="6.46431">
        <ele>55</ele>
        <time>2022-10-14T14:23:43+02:00</time>
      </trkpt>
      <trkpt lat="43.39966" lon="6.46426">
        <ele>55</ele>
        <time>2022-10-14T14:23:43+02:00</time>
      </trkpt>
      <trkpt lat="43.39965" lon="6.46421">
        <ele>55</ele>
        <time>2022-10-14T14:23:43+02:00</time>
      </trkpt>
      <trkpt lat="43.39963" lon="6.46417">
        <ele>55</ele>
        <time>2022-10-14T14:23:43+02:00</time>
      </trkpt>
      <trkpt lat="43.3996" lon="6.46413">
        <ele>55</ele>
        <time>2022-10-14T14:23:43+02:00</time>
      </trkpt>
      <trkpt lat="43.39957" lon="6.4641">
        <ele>55</ele>
        <time>2022-10-14T14:23:43+02:00</time>
      </trkpt>
      <trkpt lat="43.39954" lon="6.46407">
        <ele>55</ele>
        <time>2022-10-14T14:23:43+02:00</time>
      </trkpt>
      <trkpt lat="43.39951" lon="6.46403">
        <ele>55</ele>
        <time>2022-10-14T14:23:43+02:00</time>
      </trkpt>
      <trkpt lat="43.39949" lon="6.464">
        <ele>55</ele>
        <time>2022-10-14T14:23:43+02:00</time>
      </trkpt>
      <trkpt lat="43.39946" lon="6.46396">
        <ele>55</ele>
        <time>2022-10-14T14:23:43+02:00</time>
      </trkpt>
      <trkpt lat="43.39944" lon="6.46392">
        <ele>55</ele>
        <time>2022-10-14T14:23:43+02:00</time>
      </trkpt>
      <trkpt lat="43.39941" lon="6.46389">
        <ele>56</ele>
        <time>2022-10-14T14:23:43+02:00</time>
      </trkpt>
      <trkpt lat="43.39938" lon="6.46386">
        <ele>56</ele>
        <time>2022-10-14T14:23:43+02:00</time>
      </trkpt>
      <trkpt lat="43.39935" lon="6.46383">
        <ele>56</ele>
        <time>2022-10-14T14:23:43+02:00</time>
      </trkpt>
      <trkpt lat="43.39931" lon="6.46379">
        <ele>56</ele>
        <time>2022-10-14T14:23:43+02:00</time>
      </trkpt>
      <trkpt lat="43.39928" lon="6.46376">
        <ele>57</ele>
        <time>2022-10-14T14:23:43+02:00</time>
      </trkpt>
      <trkpt lat="43.39925" lon="6.46374">
        <ele>57</ele>
        <time>2022-10-14T14:23:43+02:00</time>
      </trkpt>
      <trkpt lat="43.39921" lon="6.46371">
        <ele>57</ele>
        <time>2022-10-14T14:23:43+02:00</time>
      </trkpt>
      <trkpt lat="43.39917" lon="6.46368">
        <ele>57</ele>
        <time>2022-10-14T14:23:43+02:00</time>
      </trkpt>
      <trkpt lat="43.39914" lon="6.46366">
        <ele>58</ele>
        <time>2022-10-14T14:23:43+02:00</time>
      </trkpt>
      <trkpt lat="43.3991" lon="6.46363">
        <ele>57</ele>
        <time>2022-10-14T14:23:43+02:00</time>
      </trkpt>
      <trkpt lat="43.39907" lon="6.46361">
        <ele>57</ele>
        <time>2022-10-14T14:23:43+02:00</time>
      </trkpt>
      <trkpt lat="43.39904" lon="6.46358">
        <ele>57</ele>
        <time>2022-10-14T14:23:43+02:00</time>
      </trkpt>
      <trkpt lat="43.399" lon="6.46356">
        <ele>57</ele>
        <time>2022-10-14T14:23:43+02:00</time>
      </trkpt>
      <trkpt lat="43.39897" lon="6.46353">
        <ele>58</ele>
        <time>2022-10-14T14:23:43+02:00</time>
      </trkpt>
      <trkpt lat="43.39894" lon="6.46351">
        <ele>58</ele>
        <time>2022-10-14T14:23:43+02:00</time>
      </trkpt>
      <trkpt lat="43.39891" lon="6.46348">
        <ele>58</ele>
        <time>2022-10-14T14:23:43+02:00</time>
      </trkpt>
      <trkpt lat="43.39888" lon="6.46346">
        <ele>58</ele>
        <time>2022-10-14T14:23:43+02:00</time>
      </trkpt>
      <trkpt lat="43.39884" lon="6.46344">
        <ele>60</ele>
        <time>2022-10-14T14:23:43+02:00</time>
      </trkpt>
      <trkpt lat="43.39881" lon="6.46341">
        <ele>60</ele>
        <time>2022-10-14T14:23:43+02:00</time>
      </trkpt>
      <trkpt lat="43.39879" lon="6.46337">
        <ele>60</ele>
        <time>2022-10-14T14:23:43+02:00</time>
      </trkpt>
      <trkpt lat="43.39876" lon="6.46333">
        <ele>60</ele>
        <time>2022-10-14T14:23:43+02:00</time>
      </trkpt>
      <trkpt lat="43.39874" lon="6.46329">
        <ele>59</ele>
        <time>2022-10-14T14:23:43+02:00</time>
      </trkpt>
      <trkpt lat="43.39871" lon="6.46327">
        <ele>59</ele>
        <time>2022-10-14T14:23:43+02:00</time>
      </trkpt>
      <trkpt lat="43.39869" lon="6.46323">
        <ele>59</ele>
        <time>2022-10-14T14:23:43+02:00</time>
      </trkpt>
      <trkpt lat="43.39867" lon="6.4632">
        <ele>60</ele>
        <time>2022-10-14T14:23:43+02:00</time>
      </trkpt>
      <trkpt lat="43.39865" lon="6.46315">
        <ele>60</ele>
        <time>2022-10-14T14:23:43+02:00</time>
      </trkpt>
      <trkpt lat="43.39864" lon="6.46312">
        <ele>60</ele>
        <time>2022-10-14T14:23:43+02:00</time>
      </trkpt>
      <trkpt lat="43.39862" lon="6.46307">
        <ele>60</ele>
        <time>2022-10-14T14:23:43+02:00</time>
      </trkpt>
      <trkpt lat="43.39861" lon="6.46303">
        <ele>61</ele>
        <time>2022-10-14T14:23:43+02:00</time>
      </trkpt>
      <trkpt lat="43.39859" lon="6.46298">
        <ele>62</ele>
        <time>2022-10-14T14:23:43+02:00</time>
      </trkpt>
      <trkpt lat="43.39858" lon="6.46294">
        <ele>62</ele>
        <time>2022-10-14T14:23:43+02:00</time>
      </trkpt>
      <trkpt lat="43.39856" lon="6.4629">
        <ele>62</ele>
        <time>2022-10-14T14:23:43+02:00</time>
      </trkpt>
      <trkpt lat="43.39855" lon="6.46287">
        <ele>62</ele>
        <time>2022-10-14T14:23:43+02:00</time>
      </trkpt>
      <trkpt lat="43.39853" lon="6.46283">
        <ele>64</ele>
        <time>2022-10-14T14:23:43+02:00</time>
      </trkpt>
      <trkpt lat="43.3985" lon="6.46281">
        <ele>64</ele>
        <time>2022-10-14T14:23:43+02:00</time>
      </trkpt>
      <trkpt lat="43.39848" lon="6.46278">
        <ele>64</ele>
        <time>2022-10-14T14:23:43+02:00</time>
      </trkpt>
      <trkpt lat="43.39846" lon="6.46276">
        <ele>64</ele>
        <time>2022-10-14T14:23:43+02:00</time>
      </trkpt>
      <trkpt lat="43.39843" lon="6.46273">
        <ele>64</ele>
        <time>2022-10-14T14:23:43+02:00</time>
      </trkpt>
      <trkpt lat="43.39841" lon="6.4627">
        <ele>64</ele>
        <time>2022-10-14T14:23:43+02:00</time>
      </trkpt>
      <trkpt lat="43.39838" lon="6.46267">
        <ele>64</ele>
        <time>2022-10-14T14:23:43+02:00</time>
      </trkpt>
      <trkpt lat="43.39835" lon="6.46264">
        <ele>65</ele>
        <time>2022-10-14T14:23:43+02:00</time>
      </trkpt>
      <trkpt lat="43.39833" lon="6.46261">
        <ele>66</ele>
        <time>2022-10-14T14:23:43+02:00</time>
      </trkpt>
      <trkpt lat="43.3983" lon="6.46258">
        <ele>66</ele>
        <time>2022-10-14T14:23:43+02:00</time>
      </trkpt>
      <trkpt lat="43.39828" lon="6.46255">
        <ele>66</ele>
        <time>2022-10-14T14:23:43+02:00</time>
      </trkpt>
      <trkpt lat="43.39826" lon="6.46252">
        <ele>65</ele>
        <time>2022-10-14T14:23:43+02:00</time>
      </trkpt>
      <trkpt lat="43.39823" lon="6.4625">
        <ele>66</ele>
        <time>2022-10-14T14:23:43+02:00</time>
      </trkpt>
      <trkpt lat="43.3982" lon="6.46248">
        <ele>66</ele>
        <time>2022-10-14T14:23:43+02:00</time>
      </trkpt>
      <trkpt lat="43.39817" lon="6.46245">
        <ele>66</ele>
        <time>2022-10-14T14:23:43+02:00</time>
      </trkpt>
      <trkpt lat="43.39815" lon="6.46242">
        <ele>66</ele>
        <time>2022-10-14T14:23:43+02:00</time>
      </trkpt>
      <trkpt lat="43.39813" lon="6.4624">
        <ele>67</ele>
        <time>2022-10-14T14:23:43+02:00</time>
      </trkpt>
      <trkpt lat="43.3981" lon="6.46237">
        <ele>67</ele>
        <time>2022-10-14T14:23:43+02:00</time>
      </trkpt>
      <trkpt lat="43.39808" lon="6.46234">
        <ele>67</ele>
        <time>2022-10-14T14:23:43+02:00</time>
      </trkpt>
      <trkpt lat="43.39806" lon="6.46232">
        <ele>67</ele>
        <time>2022-10-14T14:23:43+02:00</time>
      </trkpt>
      <trkpt lat="43.39804" lon="6.46229">
        <ele>68</ele>
        <time>2022-10-14T14:23:43+02:00</time>
      </trkpt>
      <trkpt lat="43.39802" lon="6.46227">
        <ele>68</ele>
        <time>2022-10-14T14:23:43+02:00</time>
      </trkpt>
      <trkpt lat="43.39799" lon="6.46225">
        <ele>68</ele>
        <time>2022-10-14T14:23:43+02:00</time>
      </trkpt>
      <trkpt lat="43.39797" lon="6.46223">
        <ele>69</ele>
        <time>2022-10-14T14:23:43+02:00</time>
      </trkpt>
      <trkpt lat="43.39795" lon="6.4622">
        <ele>70</ele>
        <time>2022-10-14T14:23:43+02:00</time>
      </trkpt>
      <trkpt lat="43.39793" lon="6.46217">
        <ele>70</ele>
        <time>2022-10-14T14:23:43+02:00</time>
      </trkpt>
      <trkpt lat="43.3979" lon="6.46215">
        <ele>70</ele>
        <time>2022-10-14T14:23:43+02:00</time>
      </trkpt>
      <trkpt lat="43.39788" lon="6.46212">
        <ele>71</ele>
        <time>2022-10-14T14:23:43+02:00</time>
      </trkpt>
      <trkpt lat="43.39786" lon="6.4621">
        <ele>71</ele>
        <time>2022-10-14T14:23:43+02:00</time>
      </trkpt>
      <trkpt lat="43.39783" lon="6.46207">
        <ele>71</ele>
        <time>2022-10-14T14:23:43+02:00</time>
      </trkpt>
      <trkpt lat="43.39782" lon="6.46205">
        <ele>71</ele>
        <time>2022-10-14T14:23:43+02:00</time>
      </trkpt>
      <trkpt lat="43.3978" lon="6.46203">
        <ele>71</ele>
        <time>2022-10-14T14:23:43+02:00</time>
      </trkpt>
      <trkpt lat="43.39778" lon="6.462">
        <ele>71</ele>
        <time>2022-10-14T14:23:43+02:00</time>
      </trkpt>
      <trkpt lat="43.39775" lon="6.46198">
        <ele>71</ele>
        <time>2022-10-14T14:23:43+02:00</time>
      </trkpt>
      <trkpt lat="43.39773" lon="6.46196">
        <ele>71</ele>
        <time>2022-10-14T14:23:43+02:00</time>
      </trkpt>
      <trkpt lat="43.39771" lon="6.46192">
        <ele>71</ele>
        <time>2022-10-14T14:23:43+02:00</time>
      </trkpt>
      <trkpt lat="43.39768" lon="6.46189">
        <ele>71</ele>
        <time>2022-10-14T14:23:43+02:00</time>
      </trkpt>
      <trkpt lat="43.39765" lon="6.46184">
        <ele>71</ele>
        <time>2022-10-14T14:23:43+02:00</time>
      </trkpt>
      <trkpt lat="43.39762" lon="6.4618">
        <ele>71</ele>
        <time>2022-10-14T14:23:43+02:00</time>
      </trkpt>
      <trkpt lat="43.39758" lon="6.46177">
        <ele>71</ele>
        <time>2022-10-14T14:23:43+02:00</time>
      </trkpt>
      <trkpt lat="43.39755" lon="6.46171">
        <ele>69</ele>
        <time>2022-10-14T14:23:43+02:00</time>
      </trkpt>
      <trkpt lat="43.39751" lon="6.46166">
        <ele>69</ele>
        <time>2022-10-14T14:23:43+02:00</time>
      </trkpt>
      <trkpt lat="43.39747" lon="6.4616">
        <ele>69</ele>
        <time>2022-10-14T14:23:43+02:00</time>
      </trkpt>
      <trkpt lat="43.39743" lon="6.46154">
        <ele>68</ele>
        <time>2022-10-14T14:23:43+02:00</time>
      </trkpt>
      <trkpt lat="43.39739" lon="6.46148">
        <ele>67</ele>
        <time>2022-10-14T14:23:43+02:00</time>
      </trkpt>
      <trkpt lat="43.39735" lon="6.46142">
        <ele>67</ele>
        <time>2022-10-14T14:23:43+02:00</time>
      </trkpt>
      <trkpt lat="43.3973" lon="6.46136">
        <ele>67</ele>
        <time>2022-10-14T14:23:43+02:00</time>
      </trkpt>
      <trkpt lat="43.39726" lon="6.46132">
        <ele>66</ele>
        <time>2022-10-14T14:23:43+02:00</time>
      </trkpt>
      <trkpt lat="43.39722" lon="6.46127">
        <ele>66</ele>
        <time>2022-10-14T14:23:43+02:00</time>
      </trkpt>
      <trkpt lat="43.39719" lon="6.46121">
        <ele>66</ele>
        <time>2022-10-14T14:23:43+02:00</time>
      </trkpt>
      <trkpt lat="43.39715" lon="6.46116">
        <ele>66</ele>
        <time>2022-10-14T14:23:43+02:00</time>
      </trkpt>
      <trkpt lat="43.39711" lon="6.46111">
        <ele>66</ele>
        <time>2022-10-14T14:23:43+02:00</time>
      </trkpt>
      <trkpt lat="43.39708" lon="6.46107">
        <ele>65</ele>
        <time>2022-10-14T14:23:43+02:00</time>
      </trkpt>
      <trkpt lat="43.39704" lon="6.46103">
        <ele>65</ele>
        <time>2022-10-14T14:23:43+02:00</time>
      </trkpt>
      <trkpt lat="43.39701" lon="6.46099">
        <ele>65</ele>
        <time>2022-10-14T14:23:43+02:00</time>
      </trkpt>
      <trkpt lat="43.39697" lon="6.46095">
        <ele>65</ele>
        <time>2022-10-14T14:23:43+02:00</time>
      </trkpt>
      <trkpt lat="43.39692" lon="6.46092">
        <ele>65</ele>
        <time>2022-10-14T14:23:43+02:00</time>
      </trkpt>
      <trkpt lat="43.39687" lon="6.46089">
        <ele>65</ele>
        <time>2022-10-14T14:23:43+02:00</time>
      </trkpt>
      <trkpt lat="43.39683" lon="6.46087">
        <ele>65</ele>
        <time>2022-10-14T14:23:43+02:00</time>
      </trkpt>
      <trkpt lat="43.39678" lon="6.46084">
        <ele>65</ele>
        <time>2022-10-14T14:23:43+02:00</time>
      </trkpt>
      <trkpt lat="43.39674" lon="6.46081">
        <ele>65</ele>
        <time>2022-10-14T14:23:43+02:00</time>
      </trkpt>
      <trkpt lat="43.3967" lon="6.46078">
        <ele>65</ele>
        <time>2022-10-14T14:23:43+02:00</time>
      </trkpt>
      <trkpt lat="43.39666" lon="6.46074">
        <ele>65</ele>
        <time>2022-10-14T14:23:43+02:00</time>
      </trkpt>
      <trkpt lat="43.39662" lon="6.4607">
        <ele>64</ele>
        <time>2022-10-14T14:23:43+02:00</time>
      </trkpt>
      <trkpt lat="43.39658" lon="6.46066">
        <ele>63</ele>
        <time>2022-10-14T14:23:43+02:00</time>
      </trkpt>
      <trkpt lat="43.39653" lon="6.46062">
        <ele>63</ele>
        <time>2022-10-14T14:23:43+02:00</time>
      </trkpt>
      <trkpt lat="43.39647" lon="6.46059">
        <ele>63</ele>
        <time>2022-10-14T14:23:43+02:00</time>
      </trkpt>
      <trkpt lat="43.39641" lon="6.46055">
        <ele>62</ele>
        <time>2022-10-14T14:23:43+02:00</time>
      </trkpt>
      <trkpt lat="43.39635" lon="6.46052">
        <ele>62</ele>
        <time>2022-10-14T14:23:43+02:00</time>
      </trkpt>
      <trkpt lat="43.3963" lon="6.46047">
        <ele>62</ele>
        <time>2022-10-14T14:23:43+02:00</time>
      </trkpt>
      <trkpt lat="43.39627" lon="6.46043">
        <ele>62</ele>
        <time>2022-10-14T14:23:43+02:00</time>
      </trkpt>
      <trkpt lat="43.39625" lon="6.46038">
        <ele>62</ele>
        <time>2022-10-14T14:23:43+02:00</time>
      </trkpt>
      <trkpt lat="43.39623" lon="6.46033">
        <ele>63</ele>
        <time>2022-10-14T14:23:43+02:00</time>
      </trkpt>
      <trkpt lat="43.39622" lon="6.46028">
        <ele>63</ele>
        <time>2022-10-14T14:23:43+02:00</time>
      </trkpt>
      <trkpt lat="43.3962" lon="6.46024">
        <ele>63</ele>
        <time>2022-10-14T14:23:43+02:00</time>
      </trkpt>
      <trkpt lat="43.39618" lon="6.46019">
        <ele>62</ele>
        <time>2022-10-14T14:23:43+02:00</time>
      </trkpt>
      <trkpt lat="43.39616" lon="6.46015">
        <ele>62</ele>
        <time>2022-10-14T14:23:43+02:00</time>
      </trkpt>
      <trkpt lat="43.39613" lon="6.46012">
        <ele>62</ele>
        <time>2022-10-14T14:23:43+02:00</time>
      </trkpt>
      <trkpt lat="43.3961" lon="6.46009">
        <ele>62</ele>
        <time>2022-10-14T14:23:43+02:00</time>
      </trkpt>
      <trkpt lat="43.39606" lon="6.46005">
        <ele>62</ele>
        <time>2022-10-14T14:23:43+02:00</time>
      </trkpt>
      <trkpt lat="43.39602" lon="6.46001">
        <ele>61</ele>
        <time>2022-10-14T14:23:43+02:00</time>
      </trkpt>
      <trkpt lat="43.39599" lon="6.45996">
        <ele>61</ele>
        <time>2022-10-14T14:23:43+02:00</time>
      </trkpt>
      <trkpt lat="43.39595" lon="6.45991">
        <ele>61</ele>
        <time>2022-10-14T14:23:43+02:00</time>
      </trkpt>
      <trkpt lat="43.39591" lon="6.45986">
        <ele>60</ele>
        <time>2022-10-14T14:23:43+02:00</time>
      </trkpt>
      <trkpt lat="43.39586" lon="6.45981">
        <ele>60</ele>
        <time>2022-10-14T14:23:43+02:00</time>
      </trkpt>
      <trkpt lat="43.39582" lon="6.45977">
        <ele>60</ele>
        <time>2022-10-14T14:23:43+02:00</time>
      </trkpt>
      <trkpt lat="43.39578" lon="6.45973">
        <ele>60</ele>
        <time>2022-10-14T14:23:43+02:00</time>
      </trkpt>
      <trkpt lat="43.39574" lon="6.45969">
        <ele>61</ele>
        <time>2022-10-14T14:23:43+02:00</time>
      </trkpt>
      <trkpt lat="43.3957" lon="6.45965">
        <ele>61</ele>
        <time>2022-10-14T14:23:43+02:00</time>
      </trkpt>
      <trkpt lat="43.39565" lon="6.4596">
        <ele>61</ele>
        <time>2022-10-14T14:23:43+02:00</time>
      </trkpt>
      <trkpt lat="43.3956" lon="6.45955">
        <ele>61</ele>
        <time>2022-10-14T14:23:43+02:00</time>
      </trkpt>
      <trkpt lat="43.39556" lon="6.45949">
        <ele>60</ele>
        <time>2022-10-14T14:23:43+02:00</time>
      </trkpt>
      <trkpt lat="43.39553" lon="6.45942">
        <ele>57</ele>
        <time>2022-10-14T14:23:43+02:00</time>
      </trkpt>
      <trkpt lat="43.3955" lon="6.45934">
        <ele>57</ele>
        <time>2022-10-14T14:23:43+02:00</time>
      </trkpt>
      <trkpt lat="43.39547" lon="6.45926">
        <ele>57</ele>
        <time>2022-10-14T14:23:43+02:00</time>
      </trkpt>
      <trkpt lat="43.39543" lon="6.45919">
        <ele>57</ele>
        <time>2022-10-14T14:23:43+02:00</time>
      </trkpt>
      <trkpt lat="43.39539" lon="6.45913">
        <ele>55</ele>
        <time>2022-10-14T14:23:43+02:00</time>
      </trkpt>
      <trkpt lat="43.39534" lon="6.45905">
        <ele>55</ele>
        <time>2022-10-14T14:23:43+02:00</time>
      </trkpt>
      <trkpt lat="43.39532" lon="6.45898">
        <ele>55</ele>
        <time>2022-10-14T14:23:43+02:00</time>
      </trkpt>
      <trkpt lat="43.39529" lon="6.45892">
        <ele>55</ele>
        <time>2022-10-14T14:23:43+02:00</time>
      </trkpt>
      <trkpt lat="43.39527" lon="6.45886">
        <ele>57</ele>
        <time>2022-10-14T14:23:43+02:00</time>
      </trkpt>
      <trkpt lat="43.39523" lon="6.45881">
        <ele>57</ele>
        <time>2022-10-14T14:23:43+02:00</time>
      </trkpt>
      <trkpt lat="43.39518" lon="6.45878">
        <ele>57</ele>
        <time>2022-10-14T14:23:43+02:00</time>
      </trkpt>
      <trkpt lat="43.39513" lon="6.45874">
        <ele>56</ele>
        <time>2022-10-14T14:23:43+02:00</time>
      </trkpt>
      <trkpt lat="43.39508" lon="6.45869">
        <ele>54</ele>
        <time>2022-10-14T14:23:43+02:00</time>
      </trkpt>
      <trkpt lat="43.39504" lon="6.45863">
        <ele>54</ele>
        <time>2022-10-14T14:23:43+02:00</time>
      </trkpt>
      <trkpt lat="43.395" lon="6.45856">
        <ele>54</ele>
        <time>2022-10-14T14:23:43+02:00</time>
      </trkpt>
      <trkpt lat="43.39497" lon="6.45849">
        <ele>54</ele>
        <time>2022-10-14T14:23:43+02:00</time>
      </trkpt>
      <trkpt lat="43.39494" lon="6.45842">
        <ele>54</ele>
        <time>2022-10-14T14:23:43+02:00</time>
      </trkpt>
      <trkpt lat="43.39492" lon="6.45835">
        <ele>54</ele>
        <time>2022-10-14T14:23:43+02:00</time>
      </trkpt>
      <trkpt lat="43.39488" lon="6.45827">
        <ele>54</ele>
        <time>2022-10-14T14:23:43+02:00</time>
      </trkpt>
      <trkpt lat="43.39485" lon="6.4582">
        <ele>53</ele>
        <time>2022-10-14T14:23:43+02:00</time>
      </trkpt>
      <trkpt lat="43.39481" lon="6.45813">
        <ele>52</ele>
        <time>2022-10-14T14:23:43+02:00</time>
      </trkpt>
      <trkpt lat="43.39477" lon="6.45806">
        <ele>52</ele>
        <time>2022-10-14T14:23:43+02:00</time>
      </trkpt>
      <trkpt lat="43.39474" lon="6.45799">
        <ele>52</ele>
        <time>2022-10-14T14:23:43+02:00</time>
      </trkpt>
      <trkpt lat="43.39471" lon="6.45791">
        <ele>52</ele>
        <time>2022-10-14T14:23:43+02:00</time>
      </trkpt>
      <trkpt lat="43.39468" lon="6.45783">
        <ele>53</ele>
        <time>2022-10-14T14:23:43+02:00</time>
      </trkpt>
      <trkpt lat="43.39465" lon="6.45777">
        <ele>53</ele>
        <time>2022-10-14T14:23:43+02:00</time>
      </trkpt>
      <trkpt lat="43.39464" lon="6.45771">
        <ele>53</ele>
        <time>2022-10-14T14:23:43+02:00</time>
      </trkpt>
      <trkpt lat="43.39461" lon="6.45765">
        <ele>53</ele>
        <time>2022-10-14T14:23:43+02:00</time>
      </trkpt>
      <trkpt lat="43.3946" lon="6.45758">
        <ele>53</ele>
        <time>2022-10-14T14:23:43+02:00</time>
      </trkpt>
      <trkpt lat="43.39458" lon="6.4575">
        <ele>53</ele>
        <time>2022-10-14T14:23:43+02:00</time>
      </trkpt>
      <trkpt lat="43.39457" lon="6.45743">
        <ele>53</ele>
        <time>2022-10-14T14:23:43+02:00</time>
      </trkpt>
      <trkpt lat="43.39457" lon="6.45735">
        <ele>52</ele>
        <time>2022-10-14T14:23:43+02:00</time>
      </trkpt>
      <trkpt lat="43.39457" lon="6.45727">
        <ele>52</ele>
        <time>2022-10-14T14:23:43+02:00</time>
      </trkpt>
      <trkpt lat="43.39455" lon="6.4572">
        <ele>52</ele>
        <time>2022-10-14T14:23:43+02:00</time>
      </trkpt>
      <trkpt lat="43.39454" lon="6.45713">
        <ele>52</ele>
        <time>2022-10-14T14:23:43+02:00</time>
      </trkpt>
      <trkpt lat="43.39454" lon="6.45708">
        <ele>52</ele>
        <time>2022-10-14T14:23:43+02:00</time>
      </trkpt>
      <trkpt lat="43.39454" lon="6.45703">
        <ele>51</ele>
        <time>2022-10-14T14:23:43+02:00</time>
      </trkpt>
      <trkpt lat="43.39454" lon="6.45697">
        <ele>51</ele>
        <time>2022-10-14T14:23:43+02:00</time>
      </trkpt>
      <trkpt lat="43.39455" lon="6.45693">
        <ele>51</ele>
        <time>2022-10-14T14:23:43+02:00</time>
      </trkpt>
      <trkpt lat="43.39455" lon="6.45687">
        <ele>52</ele>
        <time>2022-10-14T14:23:43+02:00</time>
      </trkpt>
      <trkpt lat="43.39457" lon="6.45682">
        <ele>54</ele>
        <time>2022-10-14T14:23:43+02:00</time>
      </trkpt>
      <trkpt lat="43.39457" lon="6.45677">
        <ele>54</ele>
        <time>2022-10-14T14:23:43+02:00</time>
      </trkpt>
      <trkpt lat="43.39457" lon="6.45672">
        <ele>54</ele>
        <time>2022-10-14T14:23:43+02:00</time>
      </trkpt>
      <trkpt lat="43.39458" lon="6.45667">
        <ele>54</ele>
        <time>2022-10-14T14:23:43+02:00</time>
      </trkpt>
      <trkpt lat="43.39459" lon="6.45662">
        <ele>52</ele>
        <time>2022-10-14T14:23:43+02:00</time>
      </trkpt>
      <trkpt lat="43.39459" lon="6.45658">
        <ele>52</ele>
        <time>2022-10-14T14:23:43+02:00</time>
      </trkpt>
      <trkpt lat="43.3946" lon="6.45652">
        <ele>52</ele>
        <time>2022-10-14T14:23:43+02:00</time>
      </trkpt>
      <trkpt lat="43.39461" lon="6.45646">
        <ele>52</ele>
        <time>2022-10-14T14:23:43+02:00</time>
      </trkpt>
      <trkpt lat="43.39462" lon="6.45641">
        <ele>51</ele>
        <time>2022-10-14T14:23:43+02:00</time>
      </trkpt>
      <trkpt lat="43.39464" lon="6.45636">
        <ele>51</ele>
        <time>2022-10-14T14:23:43+02:00</time>
      </trkpt>
      <trkpt lat="43.39466" lon="6.4563">
        <ele>51</ele>
        <time>2022-10-14T14:23:43+02:00</time>
      </trkpt>
      <trkpt lat="43.39467" lon="6.45625">
        <ele>52</ele>
        <time>2022-10-14T14:23:43+02:00</time>
      </trkpt>
      <trkpt lat="43.39468" lon="6.4562">
        <ele>52</ele>
        <time>2022-10-14T14:23:43+02:00</time>
      </trkpt>
      <trkpt lat="43.39468" lon="6.45615">
        <ele>52</ele>
        <time>2022-10-14T14:23:43+02:00</time>
      </trkpt>
      <trkpt lat="43.39468" lon="6.45609">
        <ele>52</ele>
        <time>2022-10-14T14:23:43+02:00</time>
      </trkpt>
      <trkpt lat="43.39468" lon="6.45603">
        <ele>51</ele>
        <time>2022-10-14T14:23:43+02:00</time>
      </trkpt>
      <trkpt lat="43.39469" lon="6.45597">
        <ele>48</ele>
        <time>2022-10-14T14:23:43+02:00</time>
      </trkpt>
      <trkpt lat="43.39469" lon="6.45593">
        <ele>48</ele>
        <time>2022-10-14T14:23:43+02:00</time>
      </trkpt>
      <trkpt lat="43.39469" lon="6.45589">
        <ele>48</ele>
        <time>2022-10-14T14:23:43+02:00</time>
      </trkpt>
      <trkpt lat="43.39468" lon="6.45586">
        <ele>48</ele>
        <time>2022-10-14T14:23:43+02:00</time>
      </trkpt>
      <trkpt lat="43.39468" lon="6.45583">
        <ele>48</ele>
        <time>2022-10-14T14:23:43+02:00</time>
      </trkpt>
      <trkpt lat="43.39469" lon="6.4558">
        <ele>48</ele>
        <time>2022-10-14T14:23:43+02:00</time>
      </trkpt>
      <trkpt lat="43.3947" lon="6.45577">
        <ele>48</ele>
        <time>2022-10-14T14:23:43+02:00</time>
      </trkpt>
      <trkpt lat="43.39472" lon="6.45573">
        <ele>48</ele>
        <time>2022-10-14T14:23:43+02:00</time>
      </trkpt>
      <trkpt lat="43.39474" lon="6.4557">
        <ele>47</ele>
        <time>2022-10-14T14:23:43+02:00</time>
      </trkpt>
      <trkpt lat="43.39477" lon="6.45566">
        <ele>47</ele>
        <time>2022-10-14T14:23:43+02:00</time>
      </trkpt>
      <trkpt lat="43.3948" lon="6.45563">
        <ele>47</ele>
        <time>2022-10-14T14:23:43+02:00</time>
      </trkpt>
      <trkpt lat="43.39484" lon="6.45561">
        <ele>47</ele>
        <time>2022-10-14T14:23:43+02:00</time>
      </trkpt>
      <trkpt lat="43.39488" lon="6.45559">
        <ele>46</ele>
        <time>2022-10-14T14:23:43+02:00</time>
      </trkpt>
      <trkpt lat="43.39492" lon="6.45559">
        <ele>46</ele>
        <time>2022-10-14T14:23:43+02:00</time>
      </trkpt>
      <trkpt lat="43.39496" lon="6.45559">
        <ele>46</ele>
        <time>2022-10-14T14:23:43+02:00</time>
      </trkpt>
      <trkpt lat="43.395" lon="6.45559">
        <ele>46</ele>
        <time>2022-10-14T14:23:43+02:00</time>
      </trkpt>
      <trkpt lat="43.39505" lon="6.45559">
        <ele>47</ele>
        <time>2022-10-14T14:23:43+02:00</time>
      </trkpt>
      <trkpt lat="43.3951" lon="6.4556">
        <ele>47</ele>
        <time>2022-10-14T14:23:43+02:00</time>
      </trkpt>
      <trkpt lat="43.39515" lon="6.4556">
        <ele>47</ele>
        <time>2022-10-14T14:23:43+02:00</time>
      </trkpt>
      <trkpt lat="43.3952" lon="6.45561">
        <ele>46</ele>
        <time>2022-10-14T14:23:43+02:00</time>
      </trkpt>
      <trkpt lat="43.39525" lon="6.45561">
        <ele>45</ele>
        <time>2022-10-14T14:23:43+02:00</time>
      </trkpt>
      <trkpt lat="43.3953" lon="6.45562">
        <ele>45</ele>
        <time>2022-10-14T14:23:43+02:00</time>
      </trkpt>
      <trkpt lat="43.39535" lon="6.45563">
        <ele>45</ele>
        <time>2022-10-14T14:23:43+02:00</time>
      </trkpt>
      <trkpt lat="43.3954" lon="6.45563">
        <ele>46</ele>
        <time>2022-10-14T14:23:43+02:00</time>
      </trkpt>
      <trkpt lat="43.39545" lon="6.45564">
        <ele>46</ele>
        <time>2022-10-14T14:23:43+02:00</time>
      </trkpt>
      <trkpt lat="43.39551" lon="6.45565">
        <ele>46</ele>
        <time>2022-10-14T14:23:43+02:00</time>
      </trkpt>
      <trkpt lat="43.39556" lon="6.45565">
        <ele>46</ele>
        <time>2022-10-14T14:23:43+02:00</time>
      </trkpt>
      <trkpt lat="43.39561" lon="6.45566">
        <ele>45</ele>
        <time>2022-10-14T14:23:43+02:00</time>
      </trkpt>
      <trkpt lat="43.39567" lon="6.45566">
        <ele>45</ele>
        <time>2022-10-14T14:23:43+02:00</time>
      </trkpt>
      <trkpt lat="43.39572" lon="6.45567">
        <ele>45</ele>
        <time>2022-10-14T14:23:43+02:00</time>
      </trkpt>
      <trkpt lat="43.39578" lon="6.45568">
        <ele>45</ele>
        <time>2022-10-14T14:23:43+02:00</time>
      </trkpt>
      <trkpt lat="43.39583" lon="6.45569">
        <ele>44</ele>
        <time>2022-10-14T14:23:43+02:00</time>
      </trkpt>
      <trkpt lat="43.39588" lon="6.45569">
        <ele>44</ele>
        <time>2022-10-14T14:23:43+02:00</time>
      </trkpt>
      <trkpt lat="43.39594" lon="6.4557">
        <ele>44</ele>
        <time>2022-10-14T14:23:43+02:00</time>
      </trkpt>
      <trkpt lat="43.39599" lon="6.4557">
        <ele>44</ele>
        <time>2022-10-14T14:23:43+02:00</time>
      </trkpt>
      <trkpt lat="43.39604" lon="6.45571">
        <ele>44</ele>
        <time>2022-10-14T14:23:43+02:00</time>
      </trkpt>
      <trkpt lat="43.3961" lon="6.45572">
        <ele>44</ele>
        <time>2022-10-14T14:23:43+02:00</time>
      </trkpt>
      <trkpt lat="43.39615" lon="6.45573">
        <ele>44</ele>
        <time>2022-10-14T14:23:43+02:00</time>
      </trkpt>
      <trkpt lat="43.39621" lon="6.45574">
        <ele>44</ele>
        <time>2022-10-14T14:23:43+02:00</time>
      </trkpt>
      <trkpt lat="43.39626" lon="6.45575">
        <ele>44</ele>
        <time>2022-10-14T14:23:43+02:00</time>
      </trkpt>
      <trkpt lat="43.39632" lon="6.45576">
        <ele>43</ele>
        <time>2022-10-14T14:23:43+02:00</time>
      </trkpt>
      <trkpt lat="43.39638" lon="6.45578">
        <ele>43</ele>
        <time>2022-10-14T14:23:43+02:00</time>
      </trkpt>
      <trkpt lat="43.39643" lon="6.45581">
        <ele>43</ele>
        <time>2022-10-14T14:23:43+02:00</time>
      </trkpt>
      <trkpt lat="43.39649" lon="6.45584">
        <ele>44</ele>
        <time>2022-10-14T14:23:43+02:00</time>
      </trkpt>
      <trkpt lat="43.39654" lon="6.45587">
        <ele>45</ele>
        <time>2022-10-14T14:23:43+02:00</time>
      </trkpt>
      <trkpt lat="43.39659" lon="6.4559">
        <ele>45</ele>
        <time>2022-10-14T14:23:43+02:00</time>
      </trkpt>
      <trkpt lat="43.39665" lon="6.45594">
        <ele>45</ele>
        <time>2022-10-14T14:23:43+02:00</time>
      </trkpt>
      <trkpt lat="43.3967" lon="6.45598">
        <ele>45</ele>
        <time>2022-10-14T14:23:43+02:00</time>
      </trkpt>
      <trkpt lat="43.39675" lon="6.45602">
        <ele>45</ele>
        <time>2022-10-14T14:23:43+02:00</time>
      </trkpt>
      <trkpt lat="43.3968" lon="6.45606">
        <ele>45</ele>
        <time>2022-10-14T14:23:43+02:00</time>
      </trkpt>
      <trkpt lat="43.39685" lon="6.45611">
        <ele>45</ele>
        <time>2022-10-14T14:23:43+02:00</time>
      </trkpt>
      <trkpt lat="43.3969" lon="6.45615">
        <ele>45</ele>
        <time>2022-10-14T14:23:43+02:00</time>
      </trkpt>
      <trkpt lat="43.39694" lon="6.45619">
        <ele>46</ele>
        <time>2022-10-14T14:23:43+02:00</time>
      </trkpt>
      <trkpt lat="43.397" lon="6.45622">
        <ele>46</ele>
        <time>2022-10-14T14:23:43+02:00</time>
      </trkpt>
      <trkpt lat="43.39705" lon="6.45621">
        <ele>46</ele>
        <time>2022-10-14T14:23:43+02:00</time>
      </trkpt>
      <trkpt lat="43.3971" lon="6.45616">
        <ele>46</ele>
        <time>2022-10-14T14:23:43+02:00</time>
      </trkpt>
      <trkpt lat="43.39713" lon="6.45609">
        <ele>44</ele>
        <time>2022-10-14T14:23:43+02:00</time>
      </trkpt>
      <trkpt lat="43.39717" lon="6.45603">
        <ele>44</ele>
        <time>2022-10-14T14:23:43+02:00</time>
      </trkpt>
      <trkpt lat="43.3972" lon="6.45597">
        <ele>44</ele>
        <time>2022-10-14T14:23:43+02:00</time>
      </trkpt>
      <trkpt lat="43.39722" lon="6.45591">
        <ele>44</ele>
        <time>2022-10-14T14:23:43+02:00</time>
      </trkpt>
      <trkpt lat="43.39726" lon="6.45585">
        <ele>44</ele>
        <time>2022-10-14T14:23:43+02:00</time>
      </trkpt>
      <trkpt lat="43.3973" lon="6.45578">
        <ele>44</ele>
        <time>2022-10-14T14:23:43+02:00</time>
      </trkpt>
      <trkpt lat="43.39733" lon="6.45571">
        <ele>44</ele>
        <time>2022-10-14T14:23:43+02:00</time>
      </trkpt>
      <trkpt lat="43.39737" lon="6.45565">
        <ele>44</ele>
        <time>2022-10-14T14:23:43+02:00</time>
      </trkpt>
      <trkpt lat="43.39743" lon="6.45561">
        <ele>45</ele>
        <time>2022-10-14T14:23:43+02:00</time>
      </trkpt>
      <trkpt lat="43.39748" lon="6.45561">
        <ele>45</ele>
        <time>2022-10-14T14:23:43+02:00</time>
      </trkpt>
      <trkpt lat="43.39754" lon="6.45564">
        <ele>45</ele>
        <time>2022-10-14T14:23:43+02:00</time>
      </trkpt>
      <trkpt lat="43.39759" lon="6.45568">
        <ele>45</ele>
        <time>2022-10-14T14:23:43+02:00</time>
      </trkpt>
      <trkpt lat="43.39764" lon="6.45573">
        <ele>44</ele>
        <time>2022-10-14T14:23:43+02:00</time>
      </trkpt>
      <trkpt lat="43.3977" lon="6.45578">
        <ele>44</ele>
        <time>2022-10-14T14:23:43+02:00</time>
      </trkpt>
      <trkpt lat="43.39775" lon="6.45582">
        <ele>44</ele>
        <time>2022-10-14T14:23:43+02:00</time>
      </trkpt>
      <trkpt lat="43.39781" lon="6.45587">
        <ele>44</ele>
        <time>2022-10-14T14:23:43+02:00</time>
      </trkpt>
      <trkpt lat="43.39786" lon="6.45592">
        <ele>44</ele>
        <time>2022-10-14T14:23:43+02:00</time>
      </trkpt>
      <trkpt lat="43.39791" lon="6.45596">
        <ele>44</ele>
        <time>2022-10-14T14:23:43+02:00</time>
      </trkpt>
      <trkpt lat="43.39797" lon="6.45601">
        <ele>44</ele>
        <time>2022-10-14T14:23:43+02:00</time>
      </trkpt>
      <trkpt lat="43.39802" lon="6.45605">
        <ele>44</ele>
        <time>2022-10-14T14:23:43+02:00</time>
      </trkpt>
      <trkpt lat="43.39808" lon="6.4561">
        <ele>44</ele>
        <time>2022-10-14T14:23:43+02:00</time>
      </trkpt>
      <trkpt lat="43.39814" lon="6.45614">
        <ele>44</ele>
        <time>2022-10-14T14:23:43+02:00</time>
      </trkpt>
      <trkpt lat="43.39819" lon="6.45618">
        <ele>44</ele>
        <time>2022-10-14T14:23:43+02:00</time>
      </trkpt>
      <trkpt lat="43.39825" lon="6.45622">
        <ele>45</ele>
        <time>2022-10-14T14:23:43+02:00</time>
      </trkpt>
      <trkpt lat="43.39832" lon="6.45625">
        <ele>45</ele>
        <time>2022-10-14T14:23:43+02:00</time>
      </trkpt>
      <trkpt lat="43.39838" lon="6.45627">
        <ele>45</ele>
        <time>2022-10-14T14:23:43+02:00</time>
      </trkpt>
      <trkpt lat="43.39845" lon="6.45626">
        <ele>45</ele>
        <time>2022-10-14T14:23:43+02:00</time>
      </trkpt>
      <trkpt lat="43.39852" lon="6.45623">
        <ele>44</ele>
        <time>2022-10-14T14:23:43+02:00</time>
      </trkpt>
      <trkpt lat="43.39857" lon="6.45618">
        <ele>43</ele>
        <time>2022-10-14T14:23:43+02:00</time>
      </trkpt>
      <trkpt lat="43.39861" lon="6.45609">
        <ele>43</ele>
        <time>2022-10-14T14:23:43+02:00</time>
      </trkpt>
      <trkpt lat="43.39862" lon="6.45601">
        <ele>43</ele>
        <time>2022-10-14T14:23:43+02:00</time>
      </trkpt>
      <trkpt lat="43.39861" lon="6.45592">
        <ele>43</ele>
        <time>2022-10-14T14:23:43+02:00</time>
      </trkpt>
      <trkpt lat="43.3986" lon="6.45582">
        <ele>43</ele>
        <time>2022-10-14T14:23:43+02:00</time>
      </trkpt>
      <trkpt lat="43.39857" lon="6.45574">
        <ele>43</ele>
        <time>2022-10-14T14:23:43+02:00</time>
      </trkpt>
      <trkpt lat="43.39855" lon="6.45565">
        <ele>43</ele>
        <time>2022-10-14T14:23:43+02:00</time>
      </trkpt>
      <trkpt lat="43.39854" lon="6.45556">
        <ele>42</ele>
        <time>2022-10-14T14:23:43+02:00</time>
      </trkpt>
      <trkpt lat="43.39853" lon="6.45547">
        <ele>41</ele>
        <time>2022-10-14T14:23:43+02:00</time>
      </trkpt>
      <trkpt lat="43.39851" lon="6.45537">
        <ele>41</ele>
        <time>2022-10-14T14:23:43+02:00</time>
      </trkpt>
      <trkpt lat="43.3985" lon="6.45528">
        <ele>41</ele>
        <time>2022-10-14T14:23:43+02:00</time>
      </trkpt>
      <trkpt lat="43.39849" lon="6.45519">
        <ele>41</ele>
        <time>2022-10-14T14:23:43+02:00</time>
      </trkpt>
      <trkpt lat="43.39848" lon="6.4551">
        <ele>41</ele>
        <time>2022-10-14T14:23:43+02:00</time>
      </trkpt>
      <trkpt lat="43.39848" lon="6.45502">
        <ele>41</ele>
        <time>2022-10-14T14:23:43+02:00</time>
      </trkpt>
      <trkpt lat="43.39847" lon="6.45492">
        <ele>41</ele>
        <time>2022-10-14T14:23:43+02:00</time>
      </trkpt>
      <trkpt lat="43.39846" lon="6.45483">
        <ele>42</ele>
        <time>2022-10-14T14:23:43+02:00</time>
      </trkpt>
      <trkpt lat="43.39845" lon="6.45474">
        <ele>42</ele>
        <time>2022-10-14T14:23:43+02:00</time>
      </trkpt>
      <trkpt lat="43.39844" lon="6.45464">
        <ele>42</ele>
        <time>2022-10-14T14:23:43+02:00</time>
      </trkpt>
      <trkpt lat="43.39843" lon="6.45455">
        <ele>42</ele>
        <time>2022-10-14T14:23:43+02:00</time>
      </trkpt>
      <trkpt lat="43.39842" lon="6.45446">
        <ele>42</ele>
        <time>2022-10-14T14:23:43+02:00</time>
      </trkpt>
      <trkpt lat="43.39841" lon="6.45437">
        <ele>42</ele>
        <time>2022-10-14T14:23:43+02:00</time>
      </trkpt>
      <trkpt lat="43.39841" lon="6.45428">
        <ele>42</ele>
        <time>2022-10-14T14:23:43+02:00</time>
      </trkpt>
      <trkpt lat="43.39841" lon="6.4542">
        <ele>42</ele>
        <time>2022-10-14T14:23:43+02:00</time>
      </trkpt>
      <trkpt lat="43.39841" lon="6.4541">
        <ele>43</ele>
        <time>2022-10-14T14:23:43+02:00</time>
      </trkpt>
      <trkpt lat="43.39841" lon="6.45401">
        <ele>43</ele>
        <time>2022-10-14T14:23:43+02:00</time>
      </trkpt>
      <trkpt lat="43.39842" lon="6.45391">
        <ele>43</ele>
        <time>2022-10-14T14:23:43+02:00</time>
      </trkpt>
      <trkpt lat="43.39843" lon="6.45382">
        <ele>43</ele>
        <time>2022-10-14T14:23:43+02:00</time>
      </trkpt>
      <trkpt lat="43.39845" lon="6.45373">
        <ele>42</ele>
        <time>2022-10-14T14:23:43+02:00</time>
      </trkpt>
      <trkpt lat="43.39847" lon="6.45365">
        <ele>42</ele>
        <time>2022-10-14T14:23:43+02:00</time>
      </trkpt>
      <trkpt lat="43.39849" lon="6.45356">
        <ele>42</ele>
        <time>2022-10-14T14:23:43+02:00</time>
      </trkpt>
      <trkpt lat="43.39851" lon="6.45347">
        <ele>42</ele>
        <time>2022-10-14T14:23:43+02:00</time>
      </trkpt>
      <trkpt lat="43.39852" lon="6.45338">
        <ele>43</ele>
        <time>2022-10-14T14:23:43+02:00</time>
      </trkpt>
      <trkpt lat="43.39853" lon="6.45328">
        <ele>42</ele>
        <time>2022-10-14T14:23:43+02:00</time>
      </trkpt>
      <trkpt lat="43.39852" lon="6.45318">
        <ele>42</ele>
        <time>2022-10-14T14:23:43+02:00</time>
      </trkpt>
      <trkpt lat="43.39852" lon="6.45309">
        <ele>42</ele>
        <time>2022-10-14T14:23:43+02:00</time>
      </trkpt>
      <trkpt lat="43.3985" lon="6.453">
        <ele>41</ele>
        <time>2022-10-14T14:23:43+02:00</time>
      </trkpt>
      <trkpt lat="43.39849" lon="6.4529">
        <ele>42</ele>
        <time>2022-10-14T14:23:43+02:00</time>
      </trkpt>
      <trkpt lat="43.39848" lon="6.45281">
        <ele>42</ele>
        <time>2022-10-14T14:23:43+02:00</time>
      </trkpt>
      <trkpt lat="43.39847" lon="6.45272">
        <ele>42</ele>
        <time>2022-10-14T14:23:43+02:00</time>
      </trkpt>
      <trkpt lat="43.39846" lon="6.45263">
        <ele>41</ele>
        <time>2022-10-14T14:23:43+02:00</time>
      </trkpt>
      <trkpt lat="43.39845" lon="6.45254">
        <ele>40</ele>
        <time>2022-10-14T14:23:43+02:00</time>
      </trkpt>
      <trkpt lat="43.39845" lon="6.45246">
        <ele>40</ele>
        <time>2022-10-14T14:23:43+02:00</time>
      </trkpt>
      <trkpt lat="43.39845" lon="6.45237">
        <ele>40</ele>
        <time>2022-10-14T14:23:43+02:00</time>
      </trkpt>
      <trkpt lat="43.39846" lon="6.45228">
        <ele>40</ele>
        <time>2022-10-14T14:23:43+02:00</time>
      </trkpt>
      <trkpt lat="43.39846" lon="6.45219">
        <ele>41</ele>
        <time>2022-10-14T14:23:43+02:00</time>
      </trkpt>
      <trkpt lat="43.39847" lon="6.4521">
        <ele>41</ele>
        <time>2022-10-14T14:23:43+02:00</time>
      </trkpt>
      <trkpt lat="43.39849" lon="6.45202">
        <ele>41</ele>
        <time>2022-10-14T14:23:43+02:00</time>
      </trkpt>
      <trkpt lat="43.3985" lon="6.45193">
        <ele>41</ele>
        <time>2022-10-14T14:23:43+02:00</time>
      </trkpt>
      <trkpt lat="43.39852" lon="6.45183">
        <ele>41</ele>
        <time>2022-10-14T14:23:43+02:00</time>
      </trkpt>
      <trkpt lat="43.39857" lon="6.45175">
        <ele>41</ele>
        <time>2022-10-14T14:23:43+02:00</time>
      </trkpt>
      <trkpt lat="43.3986" lon="6.45167">
        <ele>41</ele>
        <time>2022-10-14T14:23:43+02:00</time>
      </trkpt>
      <trkpt lat="43.39865" lon="6.45159">
        <ele>40</ele>
        <time>2022-10-14T14:23:43+02:00</time>
      </trkpt>
      <trkpt lat="43.3987" lon="6.45152">
        <ele>38</ele>
        <time>2022-10-14T14:23:43+02:00</time>
      </trkpt>
      <trkpt lat="43.39875" lon="6.45145">
        <ele>38</ele>
        <time>2022-10-14T14:23:43+02:00</time>
      </trkpt>
      <trkpt lat="43.3988" lon="6.45139">
        <ele>38</ele>
        <time>2022-10-14T14:23:43+02:00</time>
      </trkpt>
      <trkpt lat="43.39886" lon="6.45133">
        <ele>37</ele>
        <time>2022-10-14T14:23:43+02:00</time>
      </trkpt>
      <trkpt lat="43.39891" lon="6.45128">
        <ele>39</ele>
        <time>2022-10-14T14:23:43+02:00</time>
      </trkpt>
      <trkpt lat="43.39896" lon="6.45122">
        <ele>39</ele>
        <time>2022-10-14T14:23:43+02:00</time>
      </trkpt>
      <trkpt lat="43.39901" lon="6.45116">
        <ele>39</ele>
        <time>2022-10-14T14:23:43+02:00</time>
      </trkpt>
      <trkpt lat="43.39906" lon="6.45111">
        <ele>39</ele>
        <time>2022-10-14T14:23:43+02:00</time>
      </trkpt>
      <trkpt lat="43.39912" lon="6.45105">
        <ele>38</ele>
        <time>2022-10-14T14:23:43+02:00</time>
      </trkpt>
      <trkpt lat="43.39917" lon="6.451">
        <ele>38</ele>
        <time>2022-10-14T14:23:43+02:00</time>
      </trkpt>
      <trkpt lat="43.39922" lon="6.45095">
        <ele>38</ele>
        <time>2022-10-14T14:23:43+02:00</time>
      </trkpt>
      <trkpt lat="43.39927" lon="6.45089">
        <ele>38</ele>
        <time>2022-10-14T14:23:43+02:00</time>
      </trkpt>
      <trkpt lat="43.39932" lon="6.45084">
        <ele>39</ele>
        <time>2022-10-14T14:23:43+02:00</time>
      </trkpt>
      <trkpt lat="43.39938" lon="6.45078">
        <ele>39</ele>
        <time>2022-10-14T14:23:43+02:00</time>
      </trkpt>
      <trkpt lat="43.39943" lon="6.45073">
        <ele>39</ele>
        <time>2022-10-14T14:23:43+02:00</time>
      </trkpt>
      <trkpt lat="43.39948" lon="6.45067">
        <ele>38</ele>
        <time>2022-10-14T14:23:43+02:00</time>
      </trkpt>
      <trkpt lat="43.39953" lon="6.45062">
        <ele>38</ele>
        <time>2022-10-14T14:23:43+02:00</time>
      </trkpt>
      <trkpt lat="43.39959" lon="6.45057">
        <ele>38</ele>
        <time>2022-10-14T14:23:43+02:00</time>
      </trkpt>
      <trkpt lat="43.39964" lon="6.45051">
        <ele>38</ele>
        <time>2022-10-14T14:23:43+02:00</time>
      </trkpt>
      <trkpt lat="43.39969" lon="6.45045">
        <ele>38</ele>
        <time>2022-10-14T14:23:43+02:00</time>
      </trkpt>
      <trkpt lat="43.39975" lon="6.4504">
        <ele>38</ele>
        <time>2022-10-14T14:23:43+02:00</time>
      </trkpt>
      <trkpt lat="43.3998" lon="6.45035">
        <ele>38</ele>
        <time>2022-10-14T14:23:43+02:00</time>
      </trkpt>
      <trkpt lat="43.39985" lon="6.45029">
        <ele>38</ele>
        <time>2022-10-14T14:23:43+02:00</time>
      </trkpt>
      <trkpt lat="43.39991" lon="6.45023">
        <ele>37</ele>
        <time>2022-10-14T14:23:43+02:00</time>
      </trkpt>
      <trkpt lat="43.39996" lon="6.45018">
        <ele>38</ele>
        <time>2022-10-14T14:23:43+02:00</time>
      </trkpt>
      <trkpt lat="43.40001" lon="6.45013">
        <ele>38</ele>
        <time>2022-10-14T14:23:43+02:00</time>
      </trkpt>
      <trkpt lat="43.40007" lon="6.45007">
        <ele>38</ele>
        <time>2022-10-14T14:23:43+02:00</time>
      </trkpt>
      <trkpt lat="43.40012" lon="6.45001">
        <ele>38</ele>
        <time>2022-10-14T14:23:43+02:00</time>
      </trkpt>
      <trkpt lat="43.40017" lon="6.44996">
        <ele>38</ele>
        <time>2022-10-14T14:23:43+02:00</time>
      </trkpt>
      <trkpt lat="43.40023" lon="6.4499">
        <ele>38</ele>
        <time>2022-10-14T14:23:43+02:00</time>
      </trkpt>
      <trkpt lat="43.40028" lon="6.44984">
        <ele>38</ele>
        <time>2022-10-14T14:23:43+02:00</time>
      </trkpt>
      <trkpt lat="43.40033" lon="6.44978">
        <ele>38</ele>
        <time>2022-10-14T14:23:43+02:00</time>
      </trkpt>
      <trkpt lat="43.40038" lon="6.44971">
        <ele>38</ele>
        <time>2022-10-14T14:23:43+02:00</time>
      </trkpt>
      <trkpt lat="43.40042" lon="6.44963">
        <ele>38</ele>
        <time>2022-10-14T14:23:43+02:00</time>
      </trkpt>
      <trkpt lat="43.40046" lon="6.44955">
        <ele>38</ele>
        <time>2022-10-14T14:23:43+02:00</time>
      </trkpt>
      <trkpt lat="43.40048" lon="6.44946">
        <ele>38</ele>
        <time>2022-10-14T14:23:43+02:00</time>
      </trkpt>
      <trkpt lat="43.40051" lon="6.44937">
        <ele>36</ele>
        <time>2022-10-14T14:23:43+02:00</time>
      </trkpt>
      <trkpt lat="43.40053" lon="6.44928">
        <ele>36</ele>
        <time>2022-10-14T14:23:43+02:00</time>
      </trkpt>
      <trkpt lat="43.40055" lon="6.44919">
        <ele>36</ele>
        <time>2022-10-14T14:23:43+02:00</time>
      </trkpt>
      <trkpt lat="43.40057" lon="6.44911">
        <ele>36</ele>
        <time>2022-10-14T14:23:43+02:00</time>
      </trkpt>
      <trkpt lat="43.40059" lon="6.44903">
        <ele>36</ele>
        <time>2022-10-14T14:23:43+02:00</time>
      </trkpt>
      <trkpt lat="43.40062" lon="6.44895">
        <ele>36</ele>
        <time>2022-10-14T14:23:43+02:00</time>
      </trkpt>
      <trkpt lat="43.40064" lon="6.44886">
        <ele>36</ele>
        <time>2022-10-14T14:23:43+02:00</time>
      </trkpt>
      <trkpt lat="43.40067" lon="6.44878">
        <ele>36</ele>
        <time>2022-10-14T14:23:43+02:00</time>
      </trkpt>
      <trkpt lat="43.40072" lon="6.44871">
        <ele>36</ele>
        <time>2022-10-14T14:23:43+02:00</time>
      </trkpt>
      <trkpt lat="43.40076" lon="6.44863">
        <ele>36</ele>
        <time>2022-10-14T14:23:43+02:00</time>
      </trkpt>
      <trkpt lat="43.40082" lon="6.44858">
        <ele>36</ele>
        <time>2022-10-14T14:23:43+02:00</time>
      </trkpt>
      <trkpt lat="43.40088" lon="6.44854">
        <ele>36</ele>
        <time>2022-10-14T14:23:43+02:00</time>
      </trkpt>
      <trkpt lat="43.40094" lon="6.4485">
        <ele>36</ele>
        <time>2022-10-14T14:23:43+02:00</time>
      </trkpt>
      <trkpt lat="43.401" lon="6.44847">
        <ele>36</ele>
        <time>2022-10-14T14:23:43+02:00</time>
      </trkpt>
      <trkpt lat="43.40106" lon="6.44844">
        <ele>36</ele>
        <time>2022-10-14T14:23:43+02:00</time>
      </trkpt>
      <trkpt lat="43.40113" lon="6.44842">
        <ele>36</ele>
        <time>2022-10-14T14:23:43+02:00</time>
      </trkpt>
      <trkpt lat="43.40119" lon="6.44839">
        <ele>37</ele>
        <time>2022-10-14T14:23:43+02:00</time>
      </trkpt>
      <trkpt lat="43.40126" lon="6.44837">
        <ele>37</ele>
        <time>2022-10-14T14:23:43+02:00</time>
      </trkpt>
      <trkpt lat="43.40132" lon="6.44836">
        <ele>37</ele>
        <time>2022-10-14T14:23:43+02:00</time>
      </trkpt>
      <trkpt lat="43.40138" lon="6.44835">
        <ele>38</ele>
        <time>2022-10-14T14:23:43+02:00</time>
      </trkpt>
      <trkpt lat="43.40145" lon="6.44835">
        <ele>38</ele>
        <time>2022-10-14T14:23:43+02:00</time>
      </trkpt>
      <trkpt lat="43.40151" lon="6.44834">
        <ele>38</ele>
        <time>2022-10-14T14:23:43+02:00</time>
      </trkpt>
      <trkpt lat="43.40156" lon="6.44834">
        <ele>38</ele>
        <time>2022-10-14T14:23:43+02:00</time>
      </trkpt>
      <trkpt lat="43.40162" lon="6.44833">
        <ele>37</ele>
        <time>2022-10-14T14:23:43+02:00</time>
      </trkpt>
      <trkpt lat="43.40167" lon="6.44833">
        <ele>36</ele>
        <time>2022-10-14T14:23:43+02:00</time>
      </trkpt>
      <trkpt lat="43.40173" lon="6.44834">
        <ele>36</ele>
        <time>2022-10-14T14:23:43+02:00</time>
      </trkpt>
      <trkpt lat="43.40178" lon="6.44837">
        <ele>36</ele>
        <time>2022-10-14T14:23:43+02:00</time>
      </trkpt>
      <trkpt lat="43.40183" lon="6.44842">
        <ele>36</ele>
        <time>2022-10-14T14:23:43+02:00</time>
      </trkpt>
      <trkpt lat="43.40185" lon="6.44849">
        <ele>37</ele>
        <time>2022-10-14T14:23:43+02:00</time>
      </trkpt>
      <trkpt lat="43.40187" lon="6.44856">
        <ele>37</ele>
        <time>2022-10-14T14:23:43+02:00</time>
      </trkpt>
      <trkpt lat="43.40189" lon="6.44864">
        <ele>37</ele>
        <time>2022-10-14T14:23:43+02:00</time>
      </trkpt>
      <trkpt lat="43.40193" lon="6.44871">
        <ele>38</ele>
        <time>2022-10-14T14:23:43+02:00</time>
      </trkpt>
      <trkpt lat="43.40196" lon="6.44878">
        <ele>38</ele>
        <time>2022-10-14T14:23:43+02:00</time>
      </trkpt>
      <trkpt lat="43.40199" lon="6.44884">
        <ele>38</ele>
        <time>2022-10-14T14:23:43+02:00</time>
      </trkpt>
      <trkpt lat="43.40202" lon="6.44891">
        <ele>38</ele>
        <time>2022-10-14T14:23:43+02:00</time>
      </trkpt>
      <trkpt lat="43.40203" lon="6.44898">
        <ele>39</ele>
        <time>2022-10-14T14:23:43+02:00</time>
      </trkpt>
      <trkpt lat="43.40205" lon="6.44906">
        <ele>39</ele>
        <time>2022-10-14T14:23:43+02:00</time>
      </trkpt>
      <trkpt lat="43.40207" lon="6.44913">
        <ele>39</ele>
        <time>2022-10-14T14:23:43+02:00</time>
      </trkpt>
      <trkpt lat="43.4021" lon="6.44919">
        <ele>39</ele>
        <time>2022-10-14T14:23:43+02:00</time>
      </trkpt>
      <trkpt lat="43.40214" lon="6.44925">
        <ele>39</ele>
        <time>2022-10-14T14:23:43+02:00</time>
      </trkpt>
      <trkpt lat="43.40217" lon="6.44931">
        <ele>39</ele>
        <time>2022-10-14T14:23:43+02:00</time>
      </trkpt>
      <trkpt lat="43.40221" lon="6.44937">
        <ele>39</ele>
        <time>2022-10-14T14:23:43+02:00</time>
      </trkpt>
      <trkpt lat="43.40225" lon="6.44943">
        <ele>39</ele>
        <time>2022-10-14T14:23:43+02:00</time>
      </trkpt>
      <trkpt lat="43.40229" lon="6.44949">
        <ele>39</ele>
        <time>2022-10-14T14:23:43+02:00</time>
      </trkpt>
      <trkpt lat="43.40233" lon="6.44954">
        <ele>39</ele>
        <time>2022-10-14T14:23:43+02:00</time>
      </trkpt>
      <trkpt lat="43.40237" lon="6.4496">
        <ele>39</ele>
        <time>2022-10-14T14:23:43+02:00</time>
      </trkpt>
      <trkpt lat="43.40241" lon="6.44965">
        <ele>39</ele>
        <time>2022-10-14T14:23:43+02:00</time>
      </trkpt>
      <trkpt lat="43.40245" lon="6.44971">
        <ele>39</ele>
        <time>2022-10-14T14:23:43+02:00</time>
      </trkpt>
      <trkpt lat="43.40249" lon="6.44977">
        <ele>39</ele>
        <time>2022-10-14T14:23:43+02:00</time>
      </trkpt>
      <trkpt lat="43.40251" lon="6.44985">
        <ele>39</ele>
        <time>2022-10-14T14:23:43+02:00</time>
      </trkpt>
      <trkpt lat="43.40253" lon="6.44993">
        <ele>39</ele>
        <time>2022-10-14T14:23:43+02:00</time>
      </trkpt>
      <trkpt lat="43.40255" lon="6.45001">
        <ele>39</ele>
        <time>2022-10-14T14:23:43+02:00</time>
      </trkpt>
      <trkpt lat="43.40256" lon="6.45009">
        <ele>38</ele>
        <time>2022-10-14T14:23:43+02:00</time>
      </trkpt>
      <trkpt lat="43.40259" lon="6.45016">
        <ele>38</ele>
        <time>2022-10-14T14:23:43+02:00</time>
      </trkpt>
      <trkpt lat="43.40261" lon="6.45023">
        <ele>38</ele>
        <time>2022-10-14T14:23:43+02:00</time>
      </trkpt>
      <trkpt lat="43.40264" lon="6.4503">
        <ele>38</ele>
        <time>2022-10-14T14:23:43+02:00</time>
      </trkpt>
      <trkpt lat="43.40266" lon="6.45036">
        <ele>39</ele>
        <time>2022-10-14T14:23:43+02:00</time>
      </trkpt>
      <trkpt lat="43.40268" lon="6.45043">
        <ele>39</ele>
        <time>2022-10-14T14:23:43+02:00</time>
      </trkpt>
      <trkpt lat="43.40269" lon="6.45051">
        <ele>39</ele>
        <time>2022-10-14T14:23:43+02:00</time>
      </trkpt>
      <trkpt lat="43.40271" lon="6.45059">
        <ele>39</ele>
        <time>2022-10-14T14:23:43+02:00</time>
      </trkpt>
      <trkpt lat="43.40273" lon="6.45067">
        <ele>38</ele>
        <time>2022-10-14T14:23:43+02:00</time>
      </trkpt>
      <trkpt lat="43.40275" lon="6.45075">
        <ele>38</ele>
        <time>2022-10-14T14:23:43+02:00</time>
      </trkpt>
      <trkpt lat="43.40278" lon="6.45084">
        <ele>38</ele>
        <time>2022-10-14T14:23:43+02:00</time>
      </trkpt>
      <trkpt lat="43.4028" lon="6.45093">
        <ele>38</ele>
        <time>2022-10-14T14:23:43+02:00</time>
      </trkpt>
      <trkpt lat="43.40283" lon="6.45101">
        <ele>37</ele>
        <time>2022-10-14T14:23:43+02:00</time>
      </trkpt>
      <trkpt lat="43.40286" lon="6.4511">
        <ele>37</ele>
        <time>2022-10-14T14:23:43+02:00</time>
      </trkpt>
      <trkpt lat="43.40289" lon="6.45118">
        <ele>37</ele>
        <time>2022-10-14T14:23:43+02:00</time>
      </trkpt>
      <trkpt lat="43.40292" lon="6.45125">
        <ele>37</ele>
        <time>2022-10-14T14:23:43+02:00</time>
      </trkpt>
      <trkpt lat="43.40296" lon="6.45133">
        <ele>37</ele>
        <time>2022-10-14T14:23:43+02:00</time>
      </trkpt>
      <trkpt lat="43.403" lon="6.4514">
        <ele>37</ele>
        <time>2022-10-14T14:23:43+02:00</time>
      </trkpt>
      <trkpt lat="43.40304" lon="6.45146">
        <ele>37</ele>
        <time>2022-10-14T14:23:43+02:00</time>
      </trkpt>
      <trkpt lat="43.40309" lon="6.45152">
        <ele>38</ele>
        <time>2022-10-14T14:23:43+02:00</time>
      </trkpt>
      <trkpt lat="43.40313" lon="6.45157">
        <ele>39</ele>
        <time>2022-10-14T14:23:43+02:00</time>
      </trkpt>
      <trkpt lat="43.40319" lon="6.45161">
        <ele>39</ele>
        <time>2022-10-14T14:23:43+02:00</time>
      </trkpt>
      <trkpt lat="43.40324" lon="6.45164">
        <ele>39</ele>
        <time>2022-10-14T14:23:43+02:00</time>
      </trkpt>
      <trkpt lat="43.4033" lon="6.45166">
        <ele>38</ele>
        <time>2022-10-14T14:23:43+02:00</time>
      </trkpt>
      <trkpt lat="43.40336" lon="6.45168">
        <ele>37</ele>
        <time>2022-10-14T14:23:43+02:00</time>
      </trkpt>
      <trkpt lat="43.40342" lon="6.4517">
        <ele>37</ele>
        <time>2022-10-14T14:23:43+02:00</time>
      </trkpt>
      <trkpt lat="43.40348" lon="6.45172">
        <ele>37</ele>
        <time>2022-10-14T14:23:43+02:00</time>
      </trkpt>
      <trkpt lat="43.40353" lon="6.45175">
        <ele>37</ele>
        <time>2022-10-14T14:23:43+02:00</time>
      </trkpt>
      <trkpt lat="43.40358" lon="6.45181">
        <ele>38</ele>
        <time>2022-10-14T14:23:43+02:00</time>
      </trkpt>
      <trkpt lat="43.40361" lon="6.45189">
        <ele>38</ele>
        <time>2022-10-14T14:23:43+02:00</time>
      </trkpt>
      <trkpt lat="43.40362" lon="6.45197">
        <ele>38</ele>
        <time>2022-10-14T14:23:43+02:00</time>
      </trkpt>
      <trkpt lat="43.40363" lon="6.45206">
        <ele>38</ele>
        <time>2022-10-14T14:23:43+02:00</time>
      </trkpt>
      <trkpt lat="43.40363" lon="6.45214">
        <ele>36</ele>
        <time>2022-10-14T14:23:43+02:00</time>
      </trkpt>
      <trkpt lat="43.40362" lon="6.45222">
        <ele>36</ele>
        <time>2022-10-14T14:23:43+02:00</time>
      </trkpt>
      <trkpt lat="43.40362" lon="6.4523">
        <ele>36</ele>
        <time>2022-10-14T14:23:43+02:00</time>
      </trkpt>
      <trkpt lat="43.40363" lon="6.45238">
        <ele>36</ele>
        <time>2022-10-14T14:23:43+02:00</time>
      </trkpt>
      <trkpt lat="43.40364" lon="6.45246">
        <ele>36</ele>
        <time>2022-10-14T14:23:43+02:00</time>
      </trkpt>
      <trkpt lat="43.40365" lon="6.45254">
        <ele>36</ele>
        <time>2022-10-14T14:23:43+02:00</time>
      </trkpt>
      <trkpt lat="43.40367" lon="6.45262">
        <ele>36</ele>
        <time>2022-10-14T14:23:43+02:00</time>
      </trkpt>
      <trkpt lat="43.40369" lon="6.45269">
        <ele>37</ele>
        <time>2022-10-14T14:23:43+02:00</time>
      </trkpt>
      <trkpt lat="43.40373" lon="6.45275">
        <ele>37</ele>
        <time>2022-10-14T14:23:43+02:00</time>
      </trkpt>
      <trkpt lat="43.40377" lon="6.45281">
        <ele>37</ele>
        <time>2022-10-14T14:23:43+02:00</time>
      </trkpt>
      <trkpt lat="43.4038" lon="6.45286">
        <ele>37</ele>
        <time>2022-10-14T14:23:43+02:00</time>
      </trkpt>
      <trkpt lat="43.40384" lon="6.45293">
        <ele>37</ele>
        <time>2022-10-14T14:23:43+02:00</time>
      </trkpt>
      <trkpt lat="43.40388" lon="6.453">
        <ele>38</ele>
        <time>2022-10-14T14:23:43+02:00</time>
      </trkpt>
      <trkpt lat="43.4039" lon="6.45309">
        <ele>38</ele>
        <time>2022-10-14T14:23:43+02:00</time>
      </trkpt>
      <trkpt lat="43.40392" lon="6.45317">
        <ele>38</ele>
        <time>2022-10-14T14:23:43+02:00</time>
      </trkpt>
      <trkpt lat="43.40395" lon="6.45326">
        <ele>38</ele>
        <time>2022-10-14T14:23:43+02:00</time>
      </trkpt>
      <trkpt lat="43.40398" lon="6.45334">
        <ele>37</ele>
        <time>2022-10-14T14:23:43+02:00</time>
      </trkpt>
      <trkpt lat="43.40401" lon="6.45341">
        <ele>37</ele>
        <time>2022-10-14T14:23:43+02:00</time>
      </trkpt>
      <trkpt lat="43.40406" lon="6.45348">
        <ele>37</ele>
        <time>2022-10-14T14:23:43+02:00</time>
      </trkpt>
      <trkpt lat="43.4041" lon="6.45355">
        <ele>37</ele>
        <time>2022-10-14T14:23:43+02:00</time>
      </trkpt>
      <trkpt lat="43.40413" lon="6.45361">
        <ele>38</ele>
        <time>2022-10-14T14:23:43+02:00</time>
      </trkpt>
      <trkpt lat="43.40415" lon="6.45367">
        <ele>38</ele>
        <time>2022-10-14T14:23:43+02:00</time>
      </trkpt>
      <trkpt lat="43.40417" lon="6.45373">
        <ele>38</ele>
        <time>2022-10-14T14:23:43+02:00</time>
      </trkpt>
      <trkpt lat="43.40419" lon="6.45379">
        <ele>39</ele>
        <time>2022-10-14T14:23:43+02:00</time>
      </trkpt>
      <trkpt lat="43.4042" lon="6.45385">
        <ele>41</ele>
        <time>2022-10-14T14:23:43+02:00</time>
      </trkpt>
      <trkpt lat="43.40421" lon="6.45391">
        <ele>41</ele>
        <time>2022-10-14T14:23:43+02:00</time>
      </trkpt>
      <trkpt lat="43.40423" lon="6.45397">
        <ele>41</ele>
        <time>2022-10-14T14:23:43+02:00</time>
      </trkpt>
      <trkpt lat="43.40424" lon="6.45402">
        <ele>41</ele>
        <time>2022-10-14T14:23:43+02:00</time>
      </trkpt>
      <trkpt lat="43.40425" lon="6.45408">
        <ele>42</ele>
        <time>2022-10-14T14:23:43+02:00</time>
      </trkpt>
      <trkpt lat="43.40426" lon="6.45414">
        <ele>42</ele>
        <time>2022-10-14T14:23:43+02:00</time>
      </trkpt>
      <trkpt lat="43.40427" lon="6.4542">
        <ele>42</ele>
        <time>2022-10-14T14:23:43+02:00</time>
      </trkpt>
      <trkpt lat="43.40428" lon="6.45425">
        <ele>42</ele>
        <time>2022-10-14T14:23:43+02:00</time>
      </trkpt>
      <trkpt lat="43.40431" lon="6.45431">
        <ele>42</ele>
        <time>2022-10-14T14:23:43+02:00</time>
      </trkpt>
      <trkpt lat="43.40433" lon="6.45436">
        <ele>42</ele>
        <time>2022-10-14T14:23:43+02:00</time>
      </trkpt>
      <trkpt lat="43.40436" lon="6.45442">
        <ele>42</ele>
        <time>2022-10-14T14:23:43+02:00</time>
      </trkpt>
      <trkpt lat="43.4044" lon="6.45446">
        <ele>42</ele>
        <time>2022-10-14T14:23:43+02:00</time>
      </trkpt>
      <trkpt lat="43.40443" lon="6.45451">
        <ele>43</ele>
        <time>2022-10-14T14:23:43+02:00</time>
      </trkpt>
      <trkpt lat="43.40447" lon="6.45455">
        <ele>43</ele>
        <time>2022-10-14T14:23:43+02:00</time>
      </trkpt>
      <trkpt lat="43.40451" lon="6.45458">
        <ele>43</ele>
        <time>2022-10-14T14:23:43+02:00</time>
      </trkpt>
      <trkpt lat="43.40456" lon="6.45462">
        <ele>42</ele>
        <time>2022-10-14T14:23:43+02:00</time>
      </trkpt>
      <trkpt lat="43.4046" lon="6.45466">
        <ele>42</ele>
        <time>2022-10-14T14:23:43+02:00</time>
      </trkpt>
      <trkpt lat="43.40465" lon="6.4547">
        <ele>42</ele>
        <time>2022-10-14T14:23:43+02:00</time>
      </trkpt>
      <trkpt lat="43.40469" lon="6.45474">
        <ele>42</ele>
        <time>2022-10-14T14:23:43+02:00</time>
      </trkpt>
      <trkpt lat="43.40473" lon="6.45479">
        <ele>42</ele>
        <time>2022-10-14T14:23:43+02:00</time>
      </trkpt>
      <trkpt lat="43.40477" lon="6.45483">
        <ele>42</ele>
        <time>2022-10-14T14:23:43+02:00</time>
      </trkpt>
      <trkpt lat="43.4048" lon="6.45488">
        <ele>42</ele>
        <time>2022-10-14T14:23:43+02:00</time>
      </trkpt>
      <trkpt lat="43.40484" lon="6.45492">
        <ele>42</ele>
        <time>2022-10-14T14:23:43+02:00</time>
      </trkpt>
      <trkpt lat="43.40487" lon="6.45497">
        <ele>43</ele>
        <time>2022-10-14T14:23:43+02:00</time>
      </trkpt>
      <trkpt lat="43.4049" lon="6.45502">
        <ele>44</ele>
        <time>2022-10-14T14:23:43+02:00</time>
      </trkpt>
      <trkpt lat="43.40492" lon="6.45507">
        <ele>44</ele>
        <time>2022-10-14T14:23:43+02:00</time>
      </trkpt>
      <trkpt lat="43.40495" lon="6.45512">
        <ele>44</ele>
        <time>2022-10-14T14:23:43+02:00</time>
      </trkpt>
      <trkpt lat="43.40497" lon="6.45518">
        <ele>44</ele>
        <time>2022-10-14T14:23:43+02:00</time>
      </trkpt>
      <trkpt lat="43.405" lon="6.45524">
        <ele>44</ele>
        <time>2022-10-14T14:23:43+02:00</time>
      </trkpt>
      <trkpt lat="43.40503" lon="6.4553">
        <ele>44</ele>
        <time>2022-10-14T14:23:43+02:00</time>
      </trkpt>
      <trkpt lat="43.40506" lon="6.45537">
        <ele>44</ele>
        <time>2022-10-14T14:23:43+02:00</time>
      </trkpt>
      <trkpt lat="43.40509" lon="6.45543">
        <ele>44</ele>
        <time>2022-10-14T14:23:43+02:00</time>
      </trkpt>
      <trkpt lat="43.40513" lon="6.45549">
        <ele>43</ele>
        <time>2022-10-14T14:23:43+02:00</time>
      </trkpt>
      <trkpt lat="43.40516" lon="6.45555">
        <ele>43</ele>
        <time>2022-10-14T14:23:43+02:00</time>
      </trkpt>
      <trkpt lat="43.40519" lon="6.45562">
        <ele>43</ele>
        <time>2022-10-14T14:23:43+02:00</time>
      </trkpt>
      <trkpt lat="43.40521" lon="6.45569">
        <ele>43</ele>
        <time>2022-10-14T14:23:43+02:00</time>
      </trkpt>
      <trkpt lat="43.40523" lon="6.45575">
        <ele>43</ele>
        <time>2022-10-14T14:23:43+02:00</time>
      </trkpt>
      <trkpt lat="43.40525" lon="6.45582">
        <ele>43</ele>
        <time>2022-10-14T14:23:43+02:00</time>
      </trkpt>
      <trkpt lat="43.40528" lon="6.45588">
        <ele>43</ele>
        <time>2022-10-14T14:23:43+02:00</time>
      </trkpt>
      <trkpt lat="43.4053" lon="6.45593">
        <ele>43</ele>
        <time>2022-10-14T14:23:43+02:00</time>
      </trkpt>
      <trkpt lat="43.40532" lon="6.45599">
        <ele>45</ele>
        <time>2022-10-14T14:23:43+02:00</time>
      </trkpt>
      <trkpt lat="43.40534" lon="6.45604">
        <ele>45</ele>
        <time>2022-10-14T14:23:43+02:00</time>
      </trkpt>
      <trkpt lat="43.40536" lon="6.45609">
        <ele>45</ele>
        <time>2022-10-14T14:23:43+02:00</time>
      </trkpt>
      <trkpt lat="43.40538" lon="6.45614">
        <ele>45</ele>
        <time>2022-10-14T14:23:43+02:00</time>
      </trkpt>
      <trkpt lat="43.4054" lon="6.4562">
        <ele>45</ele>
        <time>2022-10-14T14:23:43+02:00</time>
      </trkpt>
      <trkpt lat="43.40543" lon="6.45625">
        <ele>45</ele>
        <time>2022-10-14T14:23:43+02:00</time>
      </trkpt>
      <trkpt lat="43.40545" lon="6.4563">
        <ele>45</ele>
        <time>2022-10-14T14:23:43+02:00</time>
      </trkpt>
      <trkpt lat="43.40548" lon="6.45635">
        <ele>45</ele>
        <time>2022-10-14T14:23:43+02:00</time>
      </trkpt>
      <trkpt lat="43.40551" lon="6.45639">
        <ele>45</ele>
        <time>2022-10-14T14:23:43+02:00</time>
      </trkpt>
      <trkpt lat="43.40555" lon="6.45642">
        <ele>45</ele>
        <time>2022-10-14T14:23:43+02:00</time>
      </trkpt>
      <trkpt lat="43.40559" lon="6.45643">
        <ele>45</ele>
        <time>2022-10-14T14:23:43+02:00</time>
      </trkpt>
      <trkpt lat="43.40563" lon="6.45644">
        <ele>45</ele>
        <time>2022-10-14T14:23:43+02:00</time>
      </trkpt>
      <trkpt lat="43.40567" lon="6.45643">
        <ele>45</ele>
        <time>2022-10-14T14:23:43+02:00</time>
      </trkpt>
      <trkpt lat="43.40571" lon="6.45642">
        <ele>45</ele>
        <time>2022-10-14T14:23:43+02:00</time>
      </trkpt>
      <trkpt lat="43.40575" lon="6.45639">
        <ele>45</ele>
        <time>2022-10-14T14:23:43+02:00</time>
      </trkpt>
      <trkpt lat="43.40578" lon="6.45636">
        <ele>45</ele>
        <time>2022-10-14T14:23:43+02:00</time>
      </trkpt>
      <trkpt lat="43.40582" lon="6.45634">
        <ele>45</ele>
        <time>2022-10-14T14:23:43+02:00</time>
      </trkpt>
      <trkpt lat="43.40586" lon="6.45631">
        <ele>45</ele>
        <time>2022-10-14T14:23:43+02:00</time>
      </trkpt>
      <trkpt lat="43.4059" lon="6.45629">
        <ele>45</ele>
        <time>2022-10-14T14:23:43+02:00</time>
      </trkpt>
      <trkpt lat="43.40594" lon="6.45626">
        <ele>46</ele>
        <time>2022-10-14T14:23:43+02:00</time>
      </trkpt>
      <trkpt lat="43.40597" lon="6.45624">
        <ele>47</ele>
        <time>2022-10-14T14:23:43+02:00</time>
      </trkpt>
      <trkpt lat="43.40601" lon="6.45622">
        <ele>47</ele>
        <time>2022-10-14T14:23:43+02:00</time>
      </trkpt>
      <trkpt lat="43.40604" lon="6.45619">
        <ele>47</ele>
        <time>2022-10-14T14:23:43+02:00</time>
      </trkpt>
      <trkpt lat="43.40608" lon="6.45618">
        <ele>46</ele>
        <time>2022-10-14T14:23:43+02:00</time>
      </trkpt>
      <trkpt lat="43.40612" lon="6.45616">
        <ele>46</ele>
        <time>2022-10-14T14:23:43+02:00</time>
      </trkpt>
      <trkpt lat="43.40615" lon="6.45615">
        <ele>46</ele>
        <time>2022-10-14T14:23:43+02:00</time>
      </trkpt>
      <trkpt lat="43.40619" lon="6.45614">
        <ele>46</ele>
        <time>2022-10-14T14:23:43+02:00</time>
      </trkpt>
      <trkpt lat="43.40623" lon="6.45613">
        <ele>47</ele>
        <time>2022-10-14T14:23:43+02:00</time>
      </trkpt>
      <trkpt lat="43.40627" lon="6.45611">
        <ele>48</ele>
        <time>2022-10-14T14:23:43+02:00</time>
      </trkpt>
      <trkpt lat="43.40631" lon="6.4561">
        <ele>48</ele>
        <time>2022-10-14T14:23:43+02:00</time>
      </trkpt>
      <trkpt lat="43.40635" lon="6.45608">
        <ele>48</ele>
        <time>2022-10-14T14:23:43+02:00</time>
      </trkpt>
      <trkpt lat="43.40639" lon="6.45605">
        <ele>48</ele>
        <time>2022-10-14T14:23:43+02:00</time>
      </trkpt>
      <trkpt lat="43.40642" lon="6.45602">
        <ele>49</ele>
        <time>2022-10-14T14:23:43+02:00</time>
      </trkpt>
      <trkpt lat="43.40645" lon="6.456">
        <ele>49</ele>
        <time>2022-10-14T14:23:43+02:00</time>
      </trkpt>
      <trkpt lat="43.40649" lon="6.45597">
        <ele>49</ele>
        <time>2022-10-14T14:23:43+02:00</time>
      </trkpt>
      <trkpt lat="43.40652" lon="6.45595">
        <ele>50</ele>
        <time>2022-10-14T14:23:43+02:00</time>
      </trkpt>
      <trkpt lat="43.40656" lon="6.45594">
        <ele>50</ele>
        <time>2022-10-14T14:23:43+02:00</time>
      </trkpt>
      <trkpt lat="43.4066" lon="6.45592">
        <ele>50</ele>
        <time>2022-10-14T14:23:43+02:00</time>
      </trkpt>
      <trkpt lat="43.40664" lon="6.45591">
        <ele>50</ele>
        <time>2022-10-14T14:23:43+02:00</time>
      </trkpt>
      <trkpt lat="43.40668" lon="6.4559">
        <ele>50</ele>
        <time>2022-10-14T14:23:43+02:00</time>
      </trkpt>
      <trkpt lat="43.40672" lon="6.45588">
        <ele>50</ele>
        <time>2022-10-14T14:23:43+02:00</time>
      </trkpt>
      <trkpt lat="43.40676" lon="6.45587">
        <ele>50</ele>
        <time>2022-10-14T14:23:43+02:00</time>
      </trkpt>
      <trkpt lat="43.4068" lon="6.45586">
        <ele>50</ele>
        <time>2022-10-14T14:23:43+02:00</time>
      </trkpt>
      <trkpt lat="43.40684" lon="6.45584">
        <ele>50</ele>
        <time>2022-10-14T14:23:43+02:00</time>
      </trkpt>
      <trkpt lat="43.40688" lon="6.45581">
        <ele>50</ele>
        <time>2022-10-14T14:23:43+02:00</time>
      </trkpt>
      <trkpt lat="43.40691" lon="6.45578">
        <ele>50</ele>
        <time>2022-10-14T14:23:43+02:00</time>
      </trkpt>
      <trkpt lat="43.40694" lon="6.45575">
        <ele>50</ele>
        <time>2022-10-14T14:23:43+02:00</time>
      </trkpt>
      <trkpt lat="43.40697" lon="6.45571">
        <ele>51</ele>
        <time>2022-10-14T14:23:43+02:00</time>
      </trkpt>
      <trkpt lat="43.407" lon="6.45567">
        <ele>51</ele>
        <time>2022-10-14T14:23:43+02:00</time>
      </trkpt>
      <trkpt lat="43.40702" lon="6.45563">
        <ele>51</ele>
        <time>2022-10-14T14:23:43+02:00</time>
      </trkpt>
      <trkpt lat="43.40705" lon="6.45559">
        <ele>51</ele>
        <time>2022-10-14T14:23:43+02:00</time>
      </trkpt>
      <trkpt lat="43.40707" lon="6.45555">
        <ele>52</ele>
        <time>2022-10-14T14:23:43+02:00</time>
      </trkpt>
      <trkpt lat="43.4071" lon="6.45551">
        <ele>53</ele>
        <time>2022-10-14T14:23:43+02:00</time>
      </trkpt>
      <trkpt lat="43.40712" lon="6.45548">
        <ele>53</ele>
        <time>2022-10-14T14:23:43+02:00</time>
      </trkpt>
      <trkpt lat="43.40714" lon="6.45545">
        <ele>53</ele>
        <time>2022-10-14T14:23:43+02:00</time>
      </trkpt>
      <trkpt lat="43.40717" lon="6.45542">
        <ele>54</ele>
        <time>2022-10-14T14:23:43+02:00</time>
      </trkpt>
      <trkpt lat="43.40719" lon="6.45539">
        <ele>54</ele>
        <time>2022-10-14T14:23:43+02:00</time>
      </trkpt>
      <trkpt lat="43.40722" lon="6.45537">
        <ele>54</ele>
        <time>2022-10-14T14:23:43+02:00</time>
      </trkpt>
      <trkpt lat="43.40724" lon="6.45534">
        <ele>54</ele>
        <time>2022-10-14T14:23:43+02:00</time>
      </trkpt>
      <trkpt lat="43.40727" lon="6.45531">
        <ele>54</ele>
        <time>2022-10-14T14:23:43+02:00</time>
      </trkpt>
      <trkpt lat="43.4073" lon="6.45529">
        <ele>54</ele>
        <time>2022-10-14T14:23:43+02:00</time>
      </trkpt>
      <trkpt lat="43.40732" lon="6.45526">
        <ele>54</ele>
        <time>2022-10-14T14:23:43+02:00</time>
      </trkpt>
      <trkpt lat="43.40735" lon="6.45523">
        <ele>54</ele>
        <time>2022-10-14T14:23:43+02:00</time>
      </trkpt>
      <trkpt lat="43.40738" lon="6.4552">
        <ele>55</ele>
        <time>2022-10-14T14:23:43+02:00</time>
      </trkpt>
      <trkpt lat="43.40741" lon="6.45516">
        <ele>54</ele>
        <time>2022-10-14T14:23:43+02:00</time>
      </trkpt>
      <trkpt lat="43.40743" lon="6.45512">
        <ele>54</ele>
        <time>2022-10-14T14:23:43+02:00</time>
      </trkpt>
      <trkpt lat="43.40746" lon="6.45508">
        <ele>54</ele>
        <time>2022-10-14T14:23:43+02:00</time>
      </trkpt>
      <trkpt lat="43.40748" lon="6.45503">
        <ele>54</ele>
        <time>2022-10-14T14:23:43+02:00</time>
      </trkpt>
      <trkpt lat="43.4075" lon="6.45499">
        <ele>54</ele>
        <time>2022-10-14T14:23:43+02:00</time>
      </trkpt>
      <trkpt lat="43.40752" lon="6.45495">
        <ele>54</ele>
        <time>2022-10-14T14:23:43+02:00</time>
      </trkpt>
      <trkpt lat="43.40754" lon="6.45491">
        <ele>54</ele>
        <time>2022-10-14T14:23:43+02:00</time>
      </trkpt>
      <trkpt lat="43.40756" lon="6.45487">
        <ele>55</ele>
        <time>2022-10-14T14:23:43+02:00</time>
      </trkpt>
      <trkpt lat="43.40757" lon="6.45483">
        <ele>58</ele>
        <time>2022-10-14T14:23:43+02:00</time>
      </trkpt>
      <trkpt lat="43.40758" lon="6.45479">
        <ele>58</ele>
        <time>2022-10-14T14:23:43+02:00</time>
      </trkpt>
      <trkpt lat="43.40758" lon="6.45475">
        <ele>58</ele>
        <time>2022-10-14T14:23:43+02:00</time>
      </trkpt>
      <trkpt lat="43.40759" lon="6.45471">
        <ele>57</ele>
        <time>2022-10-14T14:23:43+02:00</time>
      </trkpt>
      <trkpt lat="43.40759" lon="6.45466">
        <ele>55</ele>
        <time>2022-10-14T14:23:43+02:00</time>
      </trkpt>
      <trkpt lat="43.4076" lon="6.45462">
        <ele>55</ele>
        <time>2022-10-14T14:23:43+02:00</time>
      </trkpt>
      <trkpt lat="43.40761" lon="6.45458">
        <ele>55</ele>
        <time>2022-10-14T14:23:43+02:00</time>
      </trkpt>
      <trkpt lat="43.40762" lon="6.45454">
        <ele>55</ele>
        <time>2022-10-14T14:23:43+02:00</time>
      </trkpt>
      <trkpt lat="43.40763" lon="6.4545">
        <ele>56</ele>
        <time>2022-10-14T14:23:43+02:00</time>
      </trkpt>
      <trkpt lat="43.40764" lon="6.45446">
        <ele>56</ele>
        <time>2022-10-14T14:23:43+02:00</time>
      </trkpt>
      <trkpt lat="43.40765" lon="6.45442">
        <ele>56</ele>
        <time>2022-10-14T14:23:43+02:00</time>
      </trkpt>
      <trkpt lat="43.40765" lon="6.45437">
        <ele>57</ele>
        <time>2022-10-14T14:23:43+02:00</time>
      </trkpt>
      <trkpt lat="43.40766" lon="6.45432">
        <ele>57</ele>
        <time>2022-10-14T14:23:43+02:00</time>
      </trkpt>
      <trkpt lat="43.40766" lon="6.45428">
        <ele>57</ele>
        <time>2022-10-14T14:23:43+02:00</time>
      </trkpt>
      <trkpt lat="43.40767" lon="6.45423">
        <ele>57</ele>
        <time>2022-10-14T14:23:43+02:00</time>
      </trkpt>
      <trkpt lat="43.40767" lon="6.45419">
        <ele>56</ele>
        <time>2022-10-14T14:23:43+02:00</time>
      </trkpt>
      <trkpt lat="43.40768" lon="6.45414">
        <ele>56</ele>
        <time>2022-10-14T14:23:43+02:00</time>
      </trkpt>
      <trkpt lat="43.40768" lon="6.45409">
        <ele>56</ele>
        <time>2022-10-14T14:23:43+02:00</time>
      </trkpt>
      <trkpt lat="43.40768" lon="6.45405">
        <ele>56</ele>
        <time>2022-10-14T14:23:43+02:00</time>
      </trkpt>
      <trkpt lat="43.40768" lon="6.454">
        <ele>55</ele>
        <time>2022-10-14T14:23:43+02:00</time>
      </trkpt>
      <trkpt lat="43.40769" lon="6.45395">
        <ele>55</ele>
        <time>2022-10-14T14:23:43+02:00</time>
      </trkpt>
      <trkpt lat="43.40771" lon="6.45392">
        <ele>55</ele>
        <time>2022-10-14T14:23:43+02:00</time>
      </trkpt>
      <trkpt lat="43.40774" lon="6.4539">
        <ele>55</ele>
        <time>2022-10-14T14:23:43+02:00</time>
      </trkpt>
      <trkpt lat="43.40778" lon="6.45391">
        <ele>56</ele>
        <time>2022-10-14T14:23:43+02:00</time>
      </trkpt>
      <trkpt lat="43.40781" lon="6.45392">
        <ele>57</ele>
        <time>2022-10-14T14:23:43+02:00</time>
      </trkpt>
      <trkpt lat="43.40783" lon="6.45394">
        <ele>57</ele>
        <time>2022-10-14T14:23:43+02:00</time>
      </trkpt>
      <trkpt lat="43.40786" lon="6.45395">
        <ele>57</ele>
        <time>2022-10-14T14:23:43+02:00</time>
      </trkpt>
      <trkpt lat="43.40789" lon="6.45397">
        <ele>58</ele>
        <time>2022-10-14T14:23:43+02:00</time>
      </trkpt>
      <trkpt lat="43.40792" lon="6.45398">
        <ele>58</ele>
        <time>2022-10-14T14:23:43+02:00</time>
      </trkpt>
      <trkpt lat="43.40795" lon="6.454">
        <ele>58</ele>
        <time>2022-10-14T14:23:43+02:00</time>
      </trkpt>
      <trkpt lat="43.40798" lon="6.45401">
        <ele>58</ele>
        <time>2022-10-14T14:23:43+02:00</time>
      </trkpt>
      <trkpt lat="43.40801" lon="6.45403">
        <ele>59</ele>
        <time>2022-10-14T14:23:43+02:00</time>
      </trkpt>
      <trkpt lat="43.40804" lon="6.45405">
        <ele>59</ele>
        <time>2022-10-14T14:23:43+02:00</time>
      </trkpt>
      <trkpt lat="43.40807" lon="6.45406">
        <ele>59</ele>
        <time>2022-10-14T14:23:43+02:00</time>
      </trkpt>
      <trkpt lat="43.40811" lon="6.45408">
        <ele>59</ele>
        <time>2022-10-14T14:23:43+02:00</time>
      </trkpt>
      <trkpt lat="43.40814" lon="6.45409">
        <ele>60</ele>
        <time>2022-10-14T14:23:43+02:00</time>
      </trkpt>
      <trkpt lat="43.40817" lon="6.45411">
        <ele>61</ele>
        <time>2022-10-14T14:23:43+02:00</time>
      </trkpt>
      <trkpt lat="43.40821" lon="6.45412">
        <ele>61</ele>
        <time>2022-10-14T14:23:43+02:00</time>
      </trkpt>
      <trkpt lat="43.40824" lon="6.45414">
        <ele>61</ele>
        <time>2022-10-14T14:23:43+02:00</time>
      </trkpt>
      <trkpt lat="43.40828" lon="6.45415">
        <ele>61</ele>
        <time>2022-10-14T14:23:43+02:00</time>
      </trkpt>
      <trkpt lat="43.40831" lon="6.45416">
        <ele>61</ele>
        <time>2022-10-14T14:23:43+02:00</time>
      </trkpt>
      <trkpt lat="43.40835" lon="6.45417">
        <ele>61</ele>
        <time>2022-10-14T14:23:43+02:00</time>
      </trkpt>
      <trkpt lat="43.40839" lon="6.45419">
        <ele>61</ele>
        <time>2022-10-14T14:23:43+02:00</time>
      </trkpt>
      <trkpt lat="43.40842" lon="6.4542">
        <ele>61</ele>
        <time>2022-10-14T14:23:43+02:00</time>
      </trkpt>
      <trkpt lat="43.40846" lon="6.45422">
        <ele>62</ele>
        <time>2022-10-14T14:23:43+02:00</time>
      </trkpt>
      <trkpt lat="43.40849" lon="6.45423">
        <ele>62</ele>
        <time>2022-10-14T14:23:43+02:00</time>
      </trkpt>
      <trkpt lat="43.40853" lon="6.45424">
        <ele>62</ele>
        <time>2022-10-14T14:23:43+02:00</time>
      </trkpt>
      <trkpt lat="43.40856" lon="6.45425">
        <ele>62</ele>
        <time>2022-10-14T14:23:43+02:00</time>
      </trkpt>
      <trkpt lat="43.40859" lon="6.45425">
        <ele>63</ele>
        <time>2022-10-14T14:23:43+02:00</time>
      </trkpt>
      <trkpt lat="43.40863" lon="6.45426">
        <ele>63</ele>
        <time>2022-10-14T14:23:43+02:00</time>
      </trkpt>
      <trkpt lat="43.40866" lon="6.45427">
        <ele>63</ele>
        <time>2022-10-14T14:23:43+02:00</time>
      </trkpt>
      <trkpt lat="43.4087" lon="6.45428">
        <ele>63</ele>
        <time>2022-10-14T14:23:43+02:00</time>
      </trkpt>
      <trkpt lat="43.40874" lon="6.45428">
        <ele>63</ele>
        <time>2022-10-14T14:23:43+02:00</time>
      </trkpt>
      <trkpt lat="43.40878" lon="6.45428">
        <ele>63</ele>
        <time>2022-10-14T14:23:43+02:00</time>
      </trkpt>
      <trkpt lat="43.40882" lon="6.45428">
        <ele>63</ele>
        <time>2022-10-14T14:23:43+02:00</time>
      </trkpt>
      <trkpt lat="43.40886" lon="6.45428">
        <ele>63</ele>
        <time>2022-10-14T14:23:43+02:00</time>
      </trkpt>
      <trkpt lat="43.40889" lon="6.45428">
        <ele>65</ele>
        <time>2022-10-14T14:23:43+02:00</time>
      </trkpt>
      <trkpt lat="43.40893" lon="6.45428">
        <ele>65</ele>
        <time>2022-10-14T14:23:43+02:00</time>
      </trkpt>
      <trkpt lat="43.40896" lon="6.45427">
        <ele>65</ele>
        <time>2022-10-14T14:23:43+02:00</time>
      </trkpt>
      <trkpt lat="43.40899" lon="6.45427">
        <ele>65</ele>
        <time>2022-10-14T14:23:43+02:00</time>
      </trkpt>
      <trkpt lat="43.40902" lon="6.45426">
        <ele>66</ele>
        <time>2022-10-14T14:23:43+02:00</time>
      </trkpt>
      <trkpt lat="43.40905" lon="6.45426">
        <ele>66</ele>
        <time>2022-10-14T14:23:43+02:00</time>
      </trkpt>
      <trkpt lat="43.40908" lon="6.45425">
        <ele>66</ele>
        <time>2022-10-14T14:23:43+02:00</time>
      </trkpt>
      <trkpt lat="43.40911" lon="6.45425">
        <ele>67</ele>
        <time>2022-10-14T14:23:43+02:00</time>
      </trkpt>
      <trkpt lat="43.40913" lon="6.45424">
        <ele>67</ele>
        <time>2022-10-14T14:23:43+02:00</time>
      </trkpt>
      <trkpt lat="43.40916" lon="6.45424">
        <ele>67</ele>
        <time>2022-10-14T14:23:43+02:00</time>
      </trkpt>
      <trkpt lat="43.40919" lon="6.45424">
        <ele>67</ele>
        <time>2022-10-14T14:23:43+02:00</time>
      </trkpt>
      <trkpt lat="43.40922" lon="6.45423">
        <ele>68</ele>
        <time>2022-10-14T14:23:43+02:00</time>
      </trkpt>
      <trkpt lat="43.40924" lon="6.45423">
        <ele>69</ele>
        <time>2022-10-14T14:23:43+02:00</time>
      </trkpt>
      <trkpt lat="43.40927" lon="6.45422">
        <ele>69</ele>
        <time>2022-10-14T14:23:43+02:00</time>
      </trkpt>
      <trkpt lat="43.4093" lon="6.45421">
        <ele>69</ele>
        <time>2022-10-14T14:23:43+02:00</time>
      </trkpt>
      <trkpt lat="43.40932" lon="6.4542">
        <ele>70</ele>
        <time>2022-10-14T14:23:43+02:00</time>
      </trkpt>
      <trkpt lat="43.40935" lon="6.45419">
        <ele>71</ele>
        <time>2022-10-14T14:23:43+02:00</time>
      </trkpt>
      <trkpt lat="43.40937" lon="6.45419">
        <ele>71</ele>
        <time>2022-10-14T14:23:43+02:00</time>
      </trkpt>
      <trkpt lat="43.4094" lon="6.45418">
        <ele>71</ele>
        <time>2022-10-14T14:23:43+02:00</time>
      </trkpt>
      <trkpt lat="43.40942" lon="6.45418">
        <ele>71</ele>
        <time>2022-10-14T14:23:43+02:00</time>
      </trkpt>
      <trkpt lat="43.40945" lon="6.45418">
        <ele>72</ele>
        <time>2022-10-14T14:23:43+02:00</time>
      </trkpt>
      <trkpt lat="43.40947" lon="6.45418">
        <ele>72</ele>
        <time>2022-10-14T14:23:43+02:00</time>
      </trkpt>
      <trkpt lat="43.4095" lon="6.45418">
        <ele>72</ele>
        <time>2022-10-14T14:23:43+02:00</time>
      </trkpt>
      <trkpt lat="43.40952" lon="6.45418">
        <ele>72</ele>
        <time>2022-10-14T14:23:43+02:00</time>
      </trkpt>
      <trkpt lat="43.40955" lon="6.45418">
        <ele>73</ele>
        <time>2022-10-14T14:23:43+02:00</time>
      </trkpt>
      <trkpt lat="43.40958" lon="6.45417">
        <ele>73</ele>
        <time>2022-10-14T14:23:43+02:00</time>
      </trkpt>
      <trkpt lat="43.4096" lon="6.45416">
        <ele>73</ele>
        <time>2022-10-14T14:23:43+02:00</time>
      </trkpt>
      <trkpt lat="43.40963" lon="6.45415">
        <ele>74</ele>
        <time>2022-10-14T14:23:43+02:00</time>
      </trkpt>
      <trkpt lat="43.40965" lon="6.45413">
        <ele>74</ele>
        <time>2022-10-14T14:23:43+02:00</time>
      </trkpt>
      <trkpt lat="43.40968" lon="6.45412">
        <ele>74</ele>
        <time>2022-10-14T14:23:43+02:00</time>
      </trkpt>
      <trkpt lat="43.4097" lon="6.4541">
        <ele>74</ele>
        <time>2022-10-14T14:23:43+02:00</time>
      </trkpt>
      <trkpt lat="43.40973" lon="6.45409">
        <ele>74</ele>
        <time>2022-10-14T14:23:43+02:00</time>
      </trkpt>
      <trkpt lat="43.40975" lon="6.45407">
        <ele>75</ele>
        <time>2022-10-14T14:23:43+02:00</time>
      </trkpt>
      <trkpt lat="43.40977" lon="6.45404">
        <ele>75</ele>
        <time>2022-10-14T14:23:43+02:00</time>
      </trkpt>
      <trkpt lat="43.40979" lon="6.45402">
        <ele>75</ele>
        <time>2022-10-14T14:23:43+02:00</time>
      </trkpt>
      <trkpt lat="43.40981" lon="6.454">
        <ele>75</ele>
        <time>2022-10-14T14:23:43+02:00</time>
      </trkpt>
      <trkpt lat="43.40983" lon="6.45399">
        <ele>76</ele>
        <time>2022-10-14T14:23:43+02:00</time>
      </trkpt>
      <trkpt lat="43.40985" lon="6.45398">
        <ele>76</ele>
        <time>2022-10-14T14:23:43+02:00</time>
      </trkpt>
      <trkpt lat="43.40988" lon="6.45398">
        <ele>76</ele>
        <time>2022-10-14T14:23:43+02:00</time>
      </trkpt>
      <trkpt lat="43.40991" lon="6.45398">
        <ele>76</ele>
        <time>2022-10-14T14:23:43+02:00</time>
      </trkpt>
      <trkpt lat="43.40994" lon="6.45398">
        <ele>77</ele>
        <time>2022-10-14T14:23:43+02:00</time>
      </trkpt>
      <trkpt lat="43.40997" lon="6.45399">
        <ele>77</ele>
        <time>2022-10-14T14:23:43+02:00</time>
      </trkpt>
      <trkpt lat="43.40999" lon="6.45401">
        <ele>77</ele>
        <time>2022-10-14T14:23:43+02:00</time>
      </trkpt>
      <trkpt lat="43.41002" lon="6.45403">
        <ele>77</ele>
        <time>2022-10-14T14:23:43+02:00</time>
      </trkpt>
      <trkpt lat="43.41005" lon="6.45406">
        <ele>77</ele>
        <time>2022-10-14T14:23:43+02:00</time>
      </trkpt>
      <trkpt lat="43.41008" lon="6.45408">
        <ele>77</ele>
        <time>2022-10-14T14:23:43+02:00</time>
      </trkpt>
      <trkpt lat="43.41011" lon="6.45411">
        <ele>77</ele>
        <time>2022-10-14T14:23:43+02:00</time>
      </trkpt>
      <trkpt lat="43.41014" lon="6.45413">
        <ele>76</ele>
        <time>2022-10-14T14:23:43+02:00</time>
      </trkpt>
      <trkpt lat="43.41018" lon="6.45414">
        <ele>77</ele>
        <time>2022-10-14T14:23:43+02:00</time>
      </trkpt>
      <trkpt lat="43.41021" lon="6.45416">
        <ele>77</ele>
        <time>2022-10-14T14:23:43+02:00</time>
      </trkpt>
      <trkpt lat="43.41025" lon="6.45417">
        <ele>77</ele>
        <time>2022-10-14T14:23:43+02:00</time>
      </trkpt>
      <trkpt lat="43.41028" lon="6.45419">
        <ele>77</ele>
        <time>2022-10-14T14:23:43+02:00</time>
      </trkpt>
      <trkpt lat="43.41032" lon="6.45419">
        <ele>77</ele>
        <time>2022-10-14T14:23:43+02:00</time>
      </trkpt>
      <trkpt lat="43.41035" lon="6.4542">
        <ele>77</ele>
        <time>2022-10-14T14:23:43+02:00</time>
      </trkpt>
      <trkpt lat="43.41039" lon="6.4542">
        <ele>77</ele>
        <time>2022-10-14T14:23:43+02:00</time>
      </trkpt>
      <trkpt lat="43.41043" lon="6.45421">
        <ele>77</ele>
        <time>2022-10-14T14:23:43+02:00</time>
      </trkpt>
      <trkpt lat="43.41046" lon="6.45421">
        <ele>77</ele>
        <time>2022-10-14T14:23:43+02:00</time>
      </trkpt>
      <trkpt lat="43.4105" lon="6.45422">
        <ele>77</ele>
        <time>2022-10-14T14:23:43+02:00</time>
      </trkpt>
      <trkpt lat="43.41054" lon="6.45422">
        <ele>77</ele>
        <time>2022-10-14T14:23:43+02:00</time>
      </trkpt>
      <trkpt lat="43.41057" lon="6.45423">
        <ele>78</ele>
        <time>2022-10-14T14:23:43+02:00</time>
      </trkpt>
      <trkpt lat="43.41061" lon="6.45424">
        <ele>78</ele>
        <time>2022-10-14T14:23:43+02:00</time>
      </trkpt>
      <trkpt lat="43.41065" lon="6.45424">
        <ele>78</ele>
        <time>2022-10-14T14:23:43+02:00</time>
      </trkpt>
      <trkpt lat="43.41068" lon="6.45425">
        <ele>78</ele>
        <time>2022-10-14T14:23:43+02:00</time>
      </trkpt>
      <trkpt lat="43.41072" lon="6.45426">
        <ele>78</ele>
        <time>2022-10-14T14:23:43+02:00</time>
      </trkpt>
      <trkpt lat="43.41076" lon="6.45427">
        <ele>78</ele>
        <time>2022-10-14T14:23:43+02:00</time>
      </trkpt>
      <trkpt lat="43.41079" lon="6.45428">
        <ele>78</ele>
        <time>2022-10-14T14:23:43+02:00</time>
      </trkpt>
      <trkpt lat="43.41083" lon="6.45428">
        <ele>78</ele>
        <time>2022-10-14T14:23:43+02:00</time>
      </trkpt>
      <trkpt lat="43.41086" lon="6.45429">
        <ele>78</ele>
        <time>2022-10-14T14:23:43+02:00</time>
      </trkpt>
      <trkpt lat="43.4109" lon="6.4543">
        <ele>79</ele>
        <time>2022-10-14T14:23:43+02:00</time>
      </trkpt>
      <trkpt lat="43.41094" lon="6.4543">
        <ele>79</ele>
        <time>2022-10-14T14:23:43+02:00</time>
      </trkpt>
      <trkpt lat="43.41097" lon="6.45431">
        <ele>79</ele>
        <time>2022-10-14T14:23:43+02:00</time>
      </trkpt>
      <trkpt lat="43.41101" lon="6.45432">
        <ele>79</ele>
        <time>2022-10-14T14:23:43+02:00</time>
      </trkpt>
      <trkpt lat="43.41105" lon="6.45433">
        <ele>80</ele>
        <time>2022-10-14T14:23:43+02:00</time>
      </trkpt>
      <trkpt lat="43.41109" lon="6.45433">
        <ele>80</ele>
        <time>2022-10-14T14:23:43+02:00</time>
      </trkpt>
      <trkpt lat="43.41112" lon="6.45435">
        <ele>80</ele>
        <time>2022-10-14T14:23:43+02:00</time>
      </trkpt>
      <trkpt lat="43.41116" lon="6.45436">
        <ele>80</ele>
        <time>2022-10-14T14:23:43+02:00</time>
      </trkpt>
      <trkpt lat="43.41119" lon="6.45438">
        <ele>80</ele>
        <time>2022-10-14T14:23:43+02:00</time>
      </trkpt>
      <trkpt lat="43.41123" lon="6.45439">
        <ele>80</ele>
        <time>2022-10-14T14:23:43+02:00</time>
      </trkpt>
      <trkpt lat="43.41126" lon="6.45442">
        <ele>80</ele>
        <time>2022-10-14T14:23:43+02:00</time>
      </trkpt>
      <trkpt lat="43.4113" lon="6.45445">
        <ele>79</ele>
        <time>2022-10-14T14:23:43+02:00</time>
      </trkpt>
      <trkpt lat="43.41134" lon="6.45447">
        <ele>78</ele>
        <time>2022-10-14T14:23:43+02:00</time>
      </trkpt>
      <trkpt lat="43.41138" lon="6.4545">
        <ele>78</ele>
        <time>2022-10-14T14:23:43+02:00</time>
      </trkpt>
      <trkpt lat="43.41144" lon="6.45453">
        <ele>78</ele>
        <time>2022-10-14T14:23:43+02:00</time>
      </trkpt>
      <trkpt lat="43.41149" lon="6.45455">
        <ele>78</ele>
        <time>2022-10-14T14:23:43+02:00</time>
      </trkpt>
      <trkpt lat="43.41155" lon="6.45457">
        <ele>77</ele>
        <time>2022-10-14T14:23:43+02:00</time>
      </trkpt>
      <trkpt lat="43.41161" lon="6.45458">
        <ele>77</ele>
        <time>2022-10-14T14:23:43+02:00</time>
      </trkpt>
      <trkpt lat="43.41167" lon="6.45459">
        <ele>77</ele>
        <time>2022-10-14T14:23:43+02:00</time>
      </trkpt>
      <trkpt lat="43.41173" lon="6.4546">
        <ele>77</ele>
        <time>2022-10-14T14:23:43+02:00</time>
      </trkpt>
      <trkpt lat="43.41179" lon="6.45462">
        <ele>77</ele>
        <time>2022-10-14T14:23:43+02:00</time>
      </trkpt>
      <trkpt lat="43.41184" lon="6.45463">
        <ele>77</ele>
        <time>2022-10-14T14:23:43+02:00</time>
      </trkpt>
      <trkpt lat="43.4119" lon="6.45464">
        <ele>77</ele>
        <time>2022-10-14T14:23:43+02:00</time>
      </trkpt>
      <trkpt lat="43.41194" lon="6.45463">
        <ele>77</ele>
        <time>2022-10-14T14:23:43+02:00</time>
      </trkpt>
      <trkpt lat="43.41199" lon="6.45463">
        <ele>77</ele>
        <time>2022-10-14T14:23:43+02:00</time>
      </trkpt>
      <trkpt lat="43.41203" lon="6.45463">
        <ele>77</ele>
        <time>2022-10-14T14:23:43+02:00</time>
      </trkpt>
      <trkpt lat="43.41206" lon="6.45465">
        <ele>77</ele>
        <time>2022-10-14T14:23:43+02:00</time>
      </trkpt>
      <trkpt lat="43.41208" lon="6.45468">
        <ele>78</ele>
        <time>2022-10-14T14:23:43+02:00</time>
      </trkpt>
      <trkpt lat="43.41209" lon="6.45473">
        <ele>78</ele>
        <time>2022-10-14T14:23:43+02:00</time>
      </trkpt>
      <trkpt lat="43.41208" lon="6.45477">
        <ele>78</ele>
        <time>2022-10-14T14:23:43+02:00</time>
      </trkpt>
      <trkpt lat="43.41209" lon="6.45481">
        <ele>78</ele>
        <time>2022-10-14T14:23:43+02:00</time>
      </trkpt>
      <trkpt lat="43.4121" lon="6.45485">
        <ele>78</ele>
        <time>2022-10-14T14:23:43+02:00</time>
      </trkpt>
      <trkpt lat="43.41212" lon="6.45489">
        <ele>79</ele>
        <time>2022-10-14T14:23:43+02:00</time>
      </trkpt>
      <trkpt lat="43.41213" lon="6.45493">
        <ele>79</ele>
        <time>2022-10-14T14:23:43+02:00</time>
      </trkpt>
      <trkpt lat="43.41214" lon="6.45497">
        <ele>79</ele>
        <time>2022-10-14T14:23:43+02:00</time>
      </trkpt>
      <trkpt lat="43.41214" lon="6.45501">
        <ele>79</ele>
        <time>2022-10-14T14:23:43+02:00</time>
      </trkpt>
      <trkpt lat="43.41215" lon="6.45506">
        <ele>80</ele>
        <time>2022-10-14T14:23:43+02:00</time>
      </trkpt>
      <trkpt lat="43.41215" lon="6.45509">
        <ele>80</ele>
        <time>2022-10-14T14:23:43+02:00</time>
      </trkpt>
      <trkpt lat="43.41217" lon="6.45511">
        <ele>80</ele>
        <time>2022-10-14T14:23:43+02:00</time>
      </trkpt>
      <trkpt lat="43.41219" lon="6.45513">
        <ele>80</ele>
        <time>2022-10-14T14:23:43+02:00</time>
      </trkpt>
      <trkpt lat="43.41221" lon="6.45515">
        <ele>81</ele>
        <time>2022-10-14T14:23:43+02:00</time>
      </trkpt>
      <trkpt lat="43.41221" lon="6.45518">
        <ele>81</ele>
        <time>2022-10-14T14:23:43+02:00</time>
      </trkpt>
      <trkpt lat="43.41222" lon="6.45521">
        <ele>81</ele>
        <time>2022-10-14T14:23:43+02:00</time>
      </trkpt>
      <trkpt lat="43.41221" lon="6.45524">
        <ele>81</ele>
        <time>2022-10-14T14:23:43+02:00</time>
      </trkpt>
      <trkpt lat="43.41221" lon="6.45528">
        <ele>82</ele>
        <time>2022-10-14T14:23:43+02:00</time>
      </trkpt>
      <trkpt lat="43.4122" lon="6.4553">
        <ele>82</ele>
        <time>2022-10-14T14:23:43+02:00</time>
      </trkpt>
      <trkpt lat="43.41218" lon="6.45532">
        <ele>82</ele>
        <time>2022-10-14T14:23:43+02:00</time>
      </trkpt>
      <trkpt lat="43.41216" lon="6.45535">
        <ele>82</ele>
        <time>2022-10-14T14:23:43+02:00</time>
      </trkpt>
      <trkpt lat="43.41215" lon="6.45538">
        <ele>82</ele>
        <time>2022-10-14T14:23:43+02:00</time>
      </trkpt>
      <trkpt lat="43.41213" lon="6.45541">
        <ele>82</ele>
        <time>2022-10-14T14:23:43+02:00</time>
      </trkpt>
      <trkpt lat="43.41212" lon="6.45544">
        <ele>82</ele>
        <time>2022-10-14T14:23:43+02:00</time>
      </trkpt>
      <trkpt lat="43.41211" lon="6.45547">
        <ele>82</ele>
        <time>2022-10-14T14:23:43+02:00</time>
      </trkpt>
      <trkpt lat="43.4121" lon="6.4555">
        <ele>83</ele>
        <time>2022-10-14T14:23:43+02:00</time>
      </trkpt>
      <trkpt lat="43.41208" lon="6.45552">
        <ele>83</ele>
        <time>2022-10-14T14:23:43+02:00</time>
      </trkpt>
      <trkpt lat="43.41206" lon="6.45555">
        <ele>83</ele>
        <time>2022-10-14T14:23:43+02:00</time>
      </trkpt>
      <trkpt lat="43.41205" lon="6.45558">
        <ele>83</ele>
        <time>2022-10-14T14:23:43+02:00</time>
      </trkpt>
      <trkpt lat="43.41204" lon="6.45562">
        <ele>84</ele>
        <time>2022-10-14T14:23:43+02:00</time>
      </trkpt>
      <trkpt lat="43.41202" lon="6.45565">
        <ele>84</ele>
        <time>2022-10-14T14:23:43+02:00</time>
      </trkpt>
      <trkpt lat="43.41201" lon="6.45569">
        <ele>84</ele>
        <time>2022-10-14T14:23:43+02:00</time>
      </trkpt>
      <trkpt lat="43.41199" lon="6.45572">
        <ele>84</ele>
        <time>2022-10-14T14:23:43+02:00</time>
      </trkpt>
      <trkpt lat="43.41198" lon="6.45576">
        <ele>84</ele>
        <time>2022-10-14T14:23:43+02:00</time>
      </trkpt>
      <trkpt lat="43.41197" lon="6.45579">
        <ele>84</ele>
        <time>2022-10-14T14:23:43+02:00</time>
      </trkpt>
      <trkpt lat="43.41196" lon="6.45583">
        <ele>84</ele>
        <time>2022-10-14T14:23:43+02:00</time>
      </trkpt>
      <trkpt lat="43.41194" lon="6.45587">
        <ele>84</ele>
        <time>2022-10-14T14:23:43+02:00</time>
      </trkpt>
      <trkpt lat="43.41193" lon="6.45591">
        <ele>84</ele>
        <time>2022-10-14T14:23:43+02:00</time>
      </trkpt>
      <trkpt lat="43.41191" lon="6.45595">
        <ele>84</ele>
        <time>2022-10-14T14:23:43+02:00</time>
      </trkpt>
      <trkpt lat="43.4119" lon="6.45597">
        <ele>84</ele>
        <time>2022-10-14T14:23:43+02:00</time>
      </trkpt>
      <trkpt lat="43.41189" lon="6.456">
        <ele>85</ele>
        <time>2022-10-14T14:23:43+02:00</time>
      </trkpt>
      <trkpt lat="43.41187" lon="6.45603">
        <ele>86</ele>
        <time>2022-10-14T14:23:43+02:00</time>
      </trkpt>
      <trkpt lat="43.41187" lon="6.45606">
        <ele>86</ele>
        <time>2022-10-14T14:23:43+02:00</time>
      </trkpt>
      <trkpt lat="43.41186" lon="6.45608">
        <ele>86</ele>
        <time>2022-10-14T14:23:43+02:00</time>
      </trkpt>
      <trkpt lat="43.41186" lon="6.45611">
        <ele>87</ele>
        <time>2022-10-14T14:23:43+02:00</time>
      </trkpt>
      <trkpt lat="43.41186" lon="6.45614">
        <ele>88</ele>
        <time>2022-10-14T14:23:43+02:00</time>
      </trkpt>
      <trkpt lat="43.41185" lon="6.45617">
        <ele>88</ele>
        <time>2022-10-14T14:23:43+02:00</time>
      </trkpt>
      <trkpt lat="43.41185" lon="6.45621">
        <ele>88</ele>
        <time>2022-10-14T14:23:43+02:00</time>
      </trkpt>
      <trkpt lat="43.41185" lon="6.45624">
        <ele>87</ele>
        <time>2022-10-14T14:23:43+02:00</time>
      </trkpt>
      <trkpt lat="43.41186" lon="6.45628">
        <ele>88</ele>
        <time>2022-10-14T14:23:43+02:00</time>
      </trkpt>
      <trkpt lat="43.41186" lon="6.45631">
        <ele>88</ele>
        <time>2022-10-14T14:23:43+02:00</time>
      </trkpt>
      <trkpt lat="43.41187" lon="6.45635">
        <ele>88</ele>
        <time>2022-10-14T14:23:43+02:00</time>
      </trkpt>
      <trkpt lat="43.41188" lon="6.45637">
        <ele>89</ele>
        <time>2022-10-14T14:23:43+02:00</time>
      </trkpt>
      <trkpt lat="43.41189" lon="6.45638">
        <ele>90</ele>
        <time>2022-10-14T14:23:43+02:00</time>
      </trkpt>
      <trkpt lat="43.41191" lon="6.45638">
        <ele>90</ele>
        <time>2022-10-14T14:23:43+02:00</time>
      </trkpt>
      <trkpt lat="43.41193" lon="6.45639">
        <ele>90</ele>
        <time>2022-10-14T14:23:43+02:00</time>
      </trkpt>
      <trkpt lat="43.41194" lon="6.4564">
        <ele>90</ele>
        <time>2022-10-14T14:23:43+02:00</time>
      </trkpt>
      <trkpt lat="43.41195" lon="6.45642">
        <ele>91</ele>
        <time>2022-10-14T14:23:43+02:00</time>
      </trkpt>
      <trkpt lat="43.41197" lon="6.45644">
        <ele>91</ele>
        <time>2022-10-14T14:23:43+02:00</time>
      </trkpt>
      <trkpt lat="43.41198" lon="6.45646">
        <ele>91</ele>
        <time>2022-10-14T14:23:43+02:00</time>
      </trkpt>
      <trkpt lat="43.41199" lon="6.45647">
        <ele>91</ele>
        <time>2022-10-14T14:23:43+02:00</time>
      </trkpt>
      <trkpt lat="43.41201" lon="6.45648">
        <ele>91</ele>
        <time>2022-10-14T14:23:43+02:00</time>
      </trkpt>
      <trkpt lat="43.41203" lon="6.4565">
        <ele>91</ele>
        <time>2022-10-14T14:23:43+02:00</time>
      </trkpt>
      <trkpt lat="43.41205" lon="6.45652">
        <ele>91</ele>
        <time>2022-10-14T14:23:43+02:00</time>
      </trkpt>
      <trkpt lat="43.41207" lon="6.45654">
        <ele>91</ele>
        <time>2022-10-14T14:23:43+02:00</time>
      </trkpt>
      <trkpt lat="43.41209" lon="6.45655">
        <ele>92</ele>
        <time>2022-10-14T14:23:43+02:00</time>
      </trkpt>
      <trkpt lat="43.41211" lon="6.45656">
        <ele>92</ele>
        <time>2022-10-14T14:23:43+02:00</time>
      </trkpt>
      <trkpt lat="43.41213" lon="6.45656">
        <ele>92</ele>
        <time>2022-10-14T14:23:43+02:00</time>
      </trkpt>
      <trkpt lat="43.41215" lon="6.45656">
        <ele>93</ele>
        <time>2022-10-14T14:23:43+02:00</time>
      </trkpt>
      <trkpt lat="43.41217" lon="6.45656">
        <ele>94</ele>
        <time>2022-10-14T14:23:43+02:00</time>
      </trkpt>
      <trkpt lat="43.41219" lon="6.45655">
        <ele>94</ele>
        <time>2022-10-14T14:23:43+02:00</time>
      </trkpt>
      <trkpt lat="43.4122" lon="6.45655">
        <ele>94</ele>
        <time>2022-10-14T14:23:43+02:00</time>
      </trkpt>
      <trkpt lat="43.41222" lon="6.45655">
        <ele>95</ele>
        <time>2022-10-14T14:23:43+02:00</time>
      </trkpt>
      <trkpt lat="43.41223" lon="6.45656">
        <ele>95</ele>
        <time>2022-10-14T14:23:43+02:00</time>
      </trkpt>
      <trkpt lat="43.41224" lon="6.45657">
        <ele>95</ele>
        <time>2022-10-14T14:23:43+02:00</time>
      </trkpt>
      <trkpt lat="43.41226" lon="6.45658">
        <ele>95</ele>
        <time>2022-10-14T14:23:43+02:00</time>
      </trkpt>
      <trkpt lat="43.41228" lon="6.45659">
        <ele>95</ele>
        <time>2022-10-14T14:23:43+02:00</time>
      </trkpt>
      <trkpt lat="43.4123" lon="6.4566">
        <ele>95</ele>
        <time>2022-10-14T14:23:43+02:00</time>
      </trkpt>
      <trkpt lat="43.41231" lon="6.45662">
        <ele>95</ele>
        <time>2022-10-14T14:23:43+02:00</time>
      </trkpt>
      <trkpt lat="43.41232" lon="6.45665">
        <ele>95</ele>
        <time>2022-10-14T14:23:43+02:00</time>
      </trkpt>
      <trkpt lat="43.41234" lon="6.45667">
        <ele>96</ele>
        <time>2022-10-14T14:23:43+02:00</time>
      </trkpt>
      <trkpt lat="43.41235" lon="6.4567">
        <ele>96</ele>
        <time>2022-10-14T14:23:43+02:00</time>
      </trkpt>
      <trkpt lat="43.41235" lon="6.45674">
        <ele>96</ele>
        <time>2022-10-14T14:23:43+02:00</time>
      </trkpt>
      <trkpt lat="43.41235" lon="6.45678">
        <ele>96</ele>
        <time>2022-10-14T14:23:43+02:00</time>
      </trkpt>
      <trkpt lat="43.41235" lon="6.45681">
        <ele>96</ele>
        <time>2022-10-14T14:23:43+02:00</time>
      </trkpt>
      <trkpt lat="43.41235" lon="6.45684">
        <ele>96</ele>
        <time>2022-10-14T14:23:43+02:00</time>
      </trkpt>
      <trkpt lat="43.41234" lon="6.45688">
        <ele>96</ele>
        <time>2022-10-14T14:23:43+02:00</time>
      </trkpt>
      <trkpt lat="43.41234" lon="6.45692">
        <ele>96</ele>
        <time>2022-10-14T14:23:43+02:00</time>
      </trkpt>
      <trkpt lat="43.41233" lon="6.45696">
        <ele>96</ele>
        <time>2022-10-14T14:23:43+02:00</time>
      </trkpt>
      <trkpt lat="43.41233" lon="6.457">
        <ele>97</ele>
        <time>2022-10-14T14:23:43+02:00</time>
      </trkpt>
      <trkpt lat="43.41233" lon="6.45703">
        <ele>97</ele>
        <time>2022-10-14T14:23:43+02:00</time>
      </trkpt>
      <trkpt lat="43.41233" lon="6.45707">
        <ele>97</ele>
        <time>2022-10-14T14:23:43+02:00</time>
      </trkpt>
      <trkpt lat="43.41234" lon="6.4571">
        <ele>97</ele>
        <time>2022-10-14T14:23:43+02:00</time>
      </trkpt>
      <trkpt lat="43.41234" lon="6.45714">
        <ele>97</ele>
        <time>2022-10-14T14:23:43+02:00</time>
      </trkpt>
      <trkpt lat="43.41235" lon="6.45718">
        <ele>97</ele>
        <time>2022-10-14T14:23:43+02:00</time>
      </trkpt>
      <trkpt lat="43.41235" lon="6.45722">
        <ele>97</ele>
        <time>2022-10-14T14:23:43+02:00</time>
      </trkpt>
      <trkpt lat="43.41236" lon="6.45726">
        <ele>97</ele>
        <time>2022-10-14T14:23:43+02:00</time>
      </trkpt>
      <trkpt lat="43.41236" lon="6.4573">
        <ele>98</ele>
        <time>2022-10-14T14:23:43+02:00</time>
      </trkpt>
      <trkpt lat="43.41236" lon="6.45733">
        <ele>98</ele>
        <time>2022-10-14T14:23:43+02:00</time>
      </trkpt>
      <trkpt lat="43.41236" lon="6.45737">
        <ele>98</ele>
        <time>2022-10-14T14:23:43+02:00</time>
      </trkpt>
      <trkpt lat="43.41237" lon="6.4574">
        <ele>98</ele>
        <time>2022-10-14T14:23:43+02:00</time>
      </trkpt>
      <trkpt lat="43.41238" lon="6.45745">
        <ele>97</ele>
        <time>2022-10-14T14:23:43+02:00</time>
      </trkpt>
      <trkpt lat="43.4124" lon="6.45749">
        <ele>97</ele>
        <time>2022-10-14T14:23:43+02:00</time>
      </trkpt>
      <trkpt lat="43.41242" lon="6.45754">
        <ele>97</ele>
        <time>2022-10-14T14:23:43+02:00</time>
      </trkpt>
      <trkpt lat="43.41243" lon="6.45759">
        <ele>97</ele>
        <time>2022-10-14T14:23:43+02:00</time>
      </trkpt>
      <trkpt lat="43.41245" lon="6.45764">
        <ele>98</ele>
        <time>2022-10-14T14:23:43+02:00</time>
      </trkpt>
      <trkpt lat="43.41247" lon="6.45769">
        <ele>98</ele>
        <time>2022-10-14T14:23:43+02:00</time>
      </trkpt>
      <trkpt lat="43.41248" lon="6.45773">
        <ele>98</ele>
        <time>2022-10-14T14:23:43+02:00</time>
      </trkpt>
      <trkpt lat="43.41249" lon="6.45777">
        <ele>98</ele>
        <time>2022-10-14T14:23:43+02:00</time>
      </trkpt>
      <trkpt lat="43.4125" lon="6.45781">
        <ele>98</ele>
        <time>2022-10-14T14:23:43+02:00</time>
      </trkpt>
      <trkpt lat="43.41252" lon="6.45786">
        <ele>98</ele>
        <time>2022-10-14T14:23:43+02:00</time>
      </trkpt>
      <trkpt lat="43.41253" lon="6.4579">
        <ele>98</ele>
        <time>2022-10-14T14:23:43+02:00</time>
      </trkpt>
      <trkpt lat="43.41254" lon="6.45795">
        <ele>98</ele>
        <time>2022-10-14T14:23:43+02:00</time>
      </trkpt>
      <trkpt lat="43.41255" lon="6.45799">
        <ele>99</ele>
        <time>2022-10-14T14:23:43+02:00</time>
      </trkpt>
      <trkpt lat="43.41257" lon="6.45802">
        <ele>99</ele>
        <time>2022-10-14T14:23:43+02:00</time>
      </trkpt>
      <trkpt lat="43.41259" lon="6.45805">
        <ele>99</ele>
        <time>2022-10-14T14:23:43+02:00</time>
      </trkpt>
      <trkpt lat="43.41261" lon="6.45807">
        <ele>100</ele>
        <time>2022-10-14T14:23:43+02:00</time>
      </trkpt>
      <trkpt lat="43.41263" lon="6.45809">
        <ele>101</ele>
        <time>2022-10-14T14:23:43+02:00</time>
      </trkpt>
      <trkpt lat="43.41264" lon="6.4581">
        <ele>101</ele>
        <time>2022-10-14T14:23:43+02:00</time>
      </trkpt>
      <trkpt lat="43.41265" lon="6.45812">
        <ele>101</ele>
        <time>2022-10-14T14:23:43+02:00</time>
      </trkpt>
      <trkpt lat="43.41267" lon="6.45814">
        <ele>102</ele>
        <time>2022-10-14T14:23:43+02:00</time>
      </trkpt>
      <trkpt lat="43.41269" lon="6.45815">
        <ele>103</ele>
        <time>2022-10-14T14:23:43+02:00</time>
      </trkpt>
      <trkpt lat="43.4127" lon="6.45817">
        <ele>103</ele>
        <time>2022-10-14T14:23:43+02:00</time>
      </trkpt>
      <trkpt lat="43.41272" lon="6.45819">
        <ele>103</ele>
        <time>2022-10-14T14:23:43+02:00</time>
      </trkpt>
      <trkpt lat="43.41274" lon="6.45821">
        <ele>103</ele>
        <time>2022-10-14T14:23:43+02:00</time>
      </trkpt>
      <trkpt lat="43.41275" lon="6.45823">
        <ele>103</ele>
        <time>2022-10-14T14:23:43+02:00</time>
      </trkpt>
      <trkpt lat="43.41277" lon="6.45825">
        <ele>103</ele>
        <time>2022-10-14T14:23:43+02:00</time>
      </trkpt>
      <trkpt lat="43.41279" lon="6.45827">
        <ele>103</ele>
        <time>2022-10-14T14:23:43+02:00</time>
      </trkpt>
      <trkpt lat="43.4128" lon="6.4583">
        <ele>104</ele>
        <time>2022-10-14T14:23:43+02:00</time>
      </trkpt>
      <trkpt lat="43.41282" lon="6.45832">
        <ele>104</ele>
        <time>2022-10-14T14:23:43+02:00</time>
      </trkpt>
      <trkpt lat="43.41284" lon="6.45834">
        <ele>104</ele>
        <time>2022-10-14T14:23:43+02:00</time>
      </trkpt>
      <trkpt lat="43.41285" lon="6.45835">
        <ele>104</ele>
        <time>2022-10-14T14:23:43+02:00</time>
      </trkpt>
      <trkpt lat="43.41287" lon="6.45836">
        <ele>105</ele>
        <time>2022-10-14T14:23:43+02:00</time>
      </trkpt>
      <trkpt lat="43.41288" lon="6.45838">
        <ele>106</ele>
        <time>2022-10-14T14:23:43+02:00</time>
      </trkpt>
      <trkpt lat="43.4129" lon="6.45839">
        <ele>106</ele>
        <time>2022-10-14T14:23:43+02:00</time>
      </trkpt>
      <trkpt lat="43.41292" lon="6.45841">
        <ele>106</ele>
        <time>2022-10-14T14:23:43+02:00</time>
      </trkpt>
      <trkpt lat="43.41293" lon="6.45843">
        <ele>106</ele>
        <time>2022-10-14T14:23:43+02:00</time>
      </trkpt>
      <trkpt lat="43.41295" lon="6.45844">
        <ele>106</ele>
        <time>2022-10-14T14:23:43+02:00</time>
      </trkpt>
      <trkpt lat="43.41297" lon="6.45844">
        <ele>106</ele>
        <time>2022-10-14T14:23:43+02:00</time>
      </trkpt>
      <trkpt lat="43.41299" lon="6.45845">
        <ele>106</ele>
        <time>2022-10-14T14:23:43+02:00</time>
      </trkpt>
      <trkpt lat="43.41301" lon="6.45847">
        <ele>107</ele>
        <time>2022-10-14T14:23:43+02:00</time>
      </trkpt>
      <trkpt lat="43.41303" lon="6.45848">
        <ele>108</ele>
        <time>2022-10-14T14:23:43+02:00</time>
      </trkpt>
      <trkpt lat="43.41305" lon="6.4585">
        <ele>108</ele>
        <time>2022-10-14T14:23:43+02:00</time>
      </trkpt>
      <trkpt lat="43.41306" lon="6.45851">
        <ele>108</ele>
        <time>2022-10-14T14:23:43+02:00</time>
      </trkpt>
      <trkpt lat="43.41308" lon="6.45852">
        <ele>108</ele>
        <time>2022-10-14T14:23:43+02:00</time>
      </trkpt>
      <trkpt lat="43.4131" lon="6.45854">
        <ele>108</ele>
        <time>2022-10-14T14:23:43+02:00</time>
      </trkpt>
      <trkpt lat="43.41311" lon="6.45856">
        <ele>108</ele>
        <time>2022-10-14T14:23:43+02:00</time>
      </trkpt>
      <trkpt lat="43.41313" lon="6.45857">
        <ele>108</ele>
        <time>2022-10-14T14:23:43+02:00</time>
      </trkpt>
      <trkpt lat="43.41313" lon="6.4586">
        <ele>108</ele>
        <time>2022-10-14T14:23:43+02:00</time>
      </trkpt>
      <trkpt lat="43.41314" lon="6.45862">
        <ele>109</ele>
        <time>2022-10-14T14:23:43+02:00</time>
      </trkpt>
      <trkpt lat="43.41314" lon="6.45865">
        <ele>109</ele>
        <time>2022-10-14T14:23:43+02:00</time>
      </trkpt>
      <trkpt lat="43.41315" lon="6.45867">
        <ele>109</ele>
        <time>2022-10-14T14:23:43+02:00</time>
      </trkpt>
      <trkpt lat="43.41315" lon="6.4587">
        <ele>110</ele>
        <time>2022-10-14T14:23:43+02:00</time>
      </trkpt>
      <trkpt lat="43.41316" lon="6.45873">
        <ele>110</ele>
        <time>2022-10-14T14:23:43+02:00</time>
      </trkpt>
      <trkpt lat="43.41316" lon="6.45875">
        <ele>110</ele>
        <time>2022-10-14T14:23:43+02:00</time>
      </trkpt>
      <trkpt lat="43.41317" lon="6.45877">
        <ele>110</ele>
        <time>2022-10-14T14:23:43+02:00</time>
      </trkpt>
      <trkpt lat="43.41318" lon="6.4588">
        <ele>111</ele>
        <time>2022-10-14T14:23:43+02:00</time>
      </trkpt>
      <trkpt lat="43.41319" lon="6.45883">
        <ele>111</ele>
        <time>2022-10-14T14:23:43+02:00</time>
      </trkpt>
      <trkpt lat="43.4132" lon="6.45886">
        <ele>111</ele>
        <time>2022-10-14T14:23:43+02:00</time>
      </trkpt>
      <trkpt lat="43.41321" lon="6.45889">
        <ele>111</ele>
        <time>2022-10-14T14:23:43+02:00</time>
      </trkpt>
      <trkpt lat="43.41322" lon="6.45892">
        <ele>112</ele>
        <time>2022-10-14T14:23:43+02:00</time>
      </trkpt>
      <trkpt lat="43.41323" lon="6.45895">
        <ele>112</ele>
        <time>2022-10-14T14:23:43+02:00</time>
      </trkpt>
      <trkpt lat="43.41324" lon="6.45899">
        <ele>112</ele>
        <time>2022-10-14T14:23:43+02:00</time>
      </trkpt>
      <trkpt lat="43.41324" lon="6.45902">
        <ele>112</ele>
        <time>2022-10-14T14:23:43+02:00</time>
      </trkpt>
      <trkpt lat="43.41325" lon="6.45905">
        <ele>112</ele>
        <time>2022-10-14T14:23:43+02:00</time>
      </trkpt>
      <trkpt lat="43.41326" lon="6.45908">
        <ele>112</ele>
        <time>2022-10-14T14:23:43+02:00</time>
      </trkpt>
      <trkpt lat="43.41326" lon="6.4591">
        <ele>112</ele>
        <time>2022-10-14T14:23:43+02:00</time>
      </trkpt>
      <trkpt lat="43.41327" lon="6.45912">
        <ele>112</ele>
        <time>2022-10-14T14:23:43+02:00</time>
      </trkpt>
      <trkpt lat="43.41327" lon="6.45916">
        <ele>112</ele>
        <time>2022-10-14T14:23:43+02:00</time>
      </trkpt>
      <trkpt lat="43.41327" lon="6.45919">
        <ele>111</ele>
        <time>2022-10-14T14:23:43+02:00</time>
      </trkpt>
      <trkpt lat="43.41328" lon="6.45923">
        <ele>111</ele>
        <time>2022-10-14T14:23:43+02:00</time>
      </trkpt>
      <trkpt lat="43.41328" lon="6.45927">
        <ele>111</ele>
        <time>2022-10-14T14:23:43+02:00</time>
      </trkpt>
      <trkpt lat="43.41329" lon="6.45931">
        <ele>111</ele>
        <time>2022-10-14T14:23:43+02:00</time>
      </trkpt>
      <trkpt lat="43.41329" lon="6.45934">
        <ele>112</ele>
        <time>2022-10-14T14:23:43+02:00</time>
      </trkpt>
      <trkpt lat="43.41329" lon="6.45937">
        <ele>112</ele>
        <time>2022-10-14T14:23:43+02:00</time>
      </trkpt>
      <trkpt lat="43.4133" lon="6.45941">
        <ele>112</ele>
        <time>2022-10-14T14:23:43+02:00</time>
      </trkpt>
      <trkpt lat="43.41331" lon="6.45944">
        <ele>112</ele>
        <time>2022-10-14T14:23:43+02:00</time>
      </trkpt>
      <trkpt lat="43.41332" lon="6.45948">
        <ele>112</ele>
        <time>2022-10-14T14:23:43+02:00</time>
      </trkpt>
      <trkpt lat="43.41334" lon="6.45951">
        <ele>112</ele>
        <time>2022-10-14T14:23:43+02:00</time>
      </trkpt>
      <trkpt lat="43.41335" lon="6.45955">
        <ele>112</ele>
        <time>2022-10-14T14:23:43+02:00</time>
      </trkpt>
      <trkpt lat="43.41337" lon="6.45958">
        <ele>112</ele>
        <time>2022-10-14T14:23:43+02:00</time>
      </trkpt>
      <trkpt lat="43.41339" lon="6.4596">
        <ele>112</ele>
        <time>2022-10-14T14:23:43+02:00</time>
      </trkpt>
      <trkpt lat="43.41342" lon="6.45961">
        <ele>112</ele>
        <time>2022-10-14T14:23:43+02:00</time>
      </trkpt>
      <trkpt lat="43.41344" lon="6.45963">
        <ele>112</ele>
        <time>2022-10-14T14:23:43+02:00</time>
      </trkpt>
      <trkpt lat="43.41346" lon="6.45965">
        <ele>113</ele>
        <time>2022-10-14T14:23:43+02:00</time>
      </trkpt>
      <trkpt lat="43.41348" lon="6.45967">
        <ele>112</ele>
        <time>2022-10-14T14:23:43+02:00</time>
      </trkpt>
      <trkpt lat="43.4135" lon="6.4597">
        <ele>112</ele>
        <time>2022-10-14T14:23:43+02:00</time>
      </trkpt>
      <trkpt lat="43.41352" lon="6.45974">
        <ele>112</ele>
        <time>2022-10-14T14:23:43+02:00</time>
      </trkpt>
      <trkpt lat="43.41354" lon="6.45977">
        <ele>112</ele>
        <time>2022-10-14T14:23:43+02:00</time>
      </trkpt>
      <trkpt lat="43.41356" lon="6.45981">
        <ele>112</ele>
        <time>2022-10-14T14:23:43+02:00</time>
      </trkpt>
      <trkpt lat="43.41358" lon="6.45984">
        <ele>112</ele>
        <time>2022-10-14T14:23:43+02:00</time>
      </trkpt>
      <trkpt lat="43.4136" lon="6.45987">
        <ele>112</ele>
        <time>2022-10-14T14:23:43+02:00</time>
      </trkpt>
      <trkpt lat="43.41362" lon="6.45991">
        <ele>112</ele>
        <time>2022-10-14T14:23:43+02:00</time>
      </trkpt>
      <trkpt lat="43.41364" lon="6.45994">
        <ele>113</ele>
        <time>2022-10-14T14:23:43+02:00</time>
      </trkpt>
      <trkpt lat="43.41366" lon="6.45997">
        <ele>113</ele>
        <time>2022-10-14T14:23:43+02:00</time>
      </trkpt>
      <trkpt lat="43.41367" lon="6.46">
        <ele>113</ele>
        <time>2022-10-14T14:23:43+02:00</time>
      </trkpt>
      <trkpt lat="43.41368" lon="6.46002">
        <ele>113</ele>
        <time>2022-10-14T14:23:43+02:00</time>
      </trkpt>
      <trkpt lat="43.4137" lon="6.46004">
        <ele>114</ele>
        <time>2022-10-14T14:23:43+02:00</time>
      </trkpt>
      <trkpt lat="43.41372" lon="6.46006">
        <ele>114</ele>
        <time>2022-10-14T14:23:43+02:00</time>
      </trkpt>
      <trkpt lat="43.41374" lon="6.46008">
        <ele>114</ele>
        <time>2022-10-14T14:23:43+02:00</time>
      </trkpt>
      <trkpt lat="43.41375" lon="6.4601">
        <ele>115</ele>
        <time>2022-10-14T14:23:43+02:00</time>
      </trkpt>
      <trkpt lat="43.41377" lon="6.46011">
        <ele>115</ele>
        <time>2022-10-14T14:23:43+02:00</time>
      </trkpt>
      <trkpt lat="43.4138" lon="6.46012">
        <ele>115</ele>
        <time>2022-10-14T14:23:43+02:00</time>
      </trkpt>
      <trkpt lat="43.41382" lon="6.46013">
        <ele>115</ele>
        <time>2022-10-14T14:23:43+02:00</time>
      </trkpt>
      <trkpt lat="43.41384" lon="6.46014">
        <ele>116</ele>
        <time>2022-10-14T14:23:43+02:00</time>
      </trkpt>
      <trkpt lat="43.41385" lon="6.46016">
        <ele>116</ele>
        <time>2022-10-14T14:23:43+02:00</time>
      </trkpt>
      <trkpt lat="43.41386" lon="6.46018">
        <ele>116</ele>
        <time>2022-10-14T14:23:43+02:00</time>
      </trkpt>
      <trkpt lat="43.41387" lon="6.46021">
        <ele>116</ele>
        <time>2022-10-14T14:23:43+02:00</time>
      </trkpt>
      <trkpt lat="43.41387" lon="6.46024">
        <ele>116</ele>
        <time>2022-10-14T14:23:43+02:00</time>
      </trkpt>
      <trkpt lat="43.41388" lon="6.46026">
        <ele>117</ele>
        <time>2022-10-14T14:23:43+02:00</time>
      </trkpt>
      <trkpt lat="43.41389" lon="6.46028">
        <ele>117</ele>
        <time>2022-10-14T14:23:43+02:00</time>
      </trkpt>
      <trkpt lat="43.41391" lon="6.4603">
        <ele>117</ele>
        <time>2022-10-14T14:23:43+02:00</time>
      </trkpt>
      <trkpt lat="43.41392" lon="6.46033">
        <ele>117</ele>
        <time>2022-10-14T14:23:43+02:00</time>
      </trkpt>
      <trkpt lat="43.41394" lon="6.46035">
        <ele>118</ele>
        <time>2022-10-14T14:23:43+02:00</time>
      </trkpt>
      <trkpt lat="43.41395" lon="6.46038">
        <ele>118</ele>
        <time>2022-10-14T14:23:43+02:00</time>
      </trkpt>
      <trkpt lat="43.41395" lon="6.46041">
        <ele>118</ele>
        <time>2022-10-14T14:23:43+02:00</time>
      </trkpt>
      <trkpt lat="43.41396" lon="6.46044">
        <ele>118</ele>
        <time>2022-10-14T14:23:43+02:00</time>
      </trkpt>
      <trkpt lat="43.41396" lon="6.46047">
        <ele>118</ele>
        <time>2022-10-14T14:23:43+02:00</time>
      </trkpt>
      <trkpt lat="43.41396" lon="6.46051">
        <ele>118</ele>
        <time>2022-10-14T14:23:43+02:00</time>
      </trkpt>
      <trkpt lat="43.41396" lon="6.46054">
        <ele>118</ele>
        <time>2022-10-14T14:23:43+02:00</time>
      </trkpt>
      <trkpt lat="43.41395" lon="6.46057">
        <ele>118</ele>
        <time>2022-10-14T14:23:43+02:00</time>
      </trkpt>
      <trkpt lat="43.41395" lon="6.4606">
        <ele>118</ele>
        <time>2022-10-14T14:23:43+02:00</time>
      </trkpt>
      <trkpt lat="43.41395" lon="6.46063">
        <ele>118</ele>
        <time>2022-10-14T14:23:43+02:00</time>
      </trkpt>
      <trkpt lat="43.41395" lon="6.46066">
        <ele>118</ele>
        <time>2022-10-14T14:23:43+02:00</time>
      </trkpt>
      <trkpt lat="43.41395" lon="6.46069">
        <ele>119</ele>
        <time>2022-10-14T14:23:43+02:00</time>
      </trkpt>
      <trkpt lat="43.41395" lon="6.46072">
        <ele>119</ele>
        <time>2022-10-14T14:23:43+02:00</time>
      </trkpt>
      <trkpt lat="43.41396" lon="6.46075">
        <ele>119</ele>
        <time>2022-10-14T14:23:43+02:00</time>
      </trkpt>
      <trkpt lat="43.41397" lon="6.46079">
        <ele>119</ele>
        <time>2022-10-14T14:23:43+02:00</time>
      </trkpt>
      <trkpt lat="43.41397" lon="6.46083">
        <ele>119</ele>
        <time>2022-10-14T14:23:43+02:00</time>
      </trkpt>
      <trkpt lat="43.41398" lon="6.46088">
        <ele>118</ele>
        <time>2022-10-14T14:23:43+02:00</time>
      </trkpt>
      <trkpt lat="43.41399" lon="6.46093">
        <ele>118</ele>
        <time>2022-10-14T14:23:43+02:00</time>
      </trkpt>
      <trkpt lat="43.41399" lon="6.46098">
        <ele>118</ele>
        <time>2022-10-14T14:23:43+02:00</time>
      </trkpt>
      <trkpt lat="43.41399" lon="6.46103">
        <ele>118</ele>
        <time>2022-10-14T14:23:43+02:00</time>
      </trkpt>
      <trkpt lat="43.414" lon="6.46109">
        <ele>119</ele>
        <time>2022-10-14T14:23:43+02:00</time>
      </trkpt>
      <trkpt lat="43.41401" lon="6.46114">
        <ele>119</ele>
        <time>2022-10-14T14:23:43+02:00</time>
      </trkpt>
      <trkpt lat="43.41401" lon="6.46119">
        <ele>119</ele>
        <time>2022-10-14T14:23:43+02:00</time>
      </trkpt>
      <trkpt lat="43.41402" lon="6.46124">
        <ele>119</ele>
        <time>2022-10-14T14:23:43+02:00</time>
      </trkpt>
      <trkpt lat="43.41402" lon="6.46129">
        <ele>118</ele>
        <time>2022-10-14T14:23:43+02:00</time>
      </trkpt>
      <trkpt lat="43.41402" lon="6.46134">
        <ele>118</ele>
        <time>2022-10-14T14:23:43+02:00</time>
      </trkpt>
      <trkpt lat="43.41402" lon="6.46139">
        <ele>118</ele>
        <time>2022-10-14T14:23:43+02:00</time>
      </trkpt>
      <trkpt lat="43.41402" lon="6.46144">
        <ele>119</ele>
        <time>2022-10-14T14:23:43+02:00</time>
      </trkpt>
      <trkpt lat="43.41402" lon="6.46148">
        <ele>119</ele>
        <time>2022-10-14T14:23:43+02:00</time>
      </trkpt>
      <trkpt lat="43.41402" lon="6.46153">
        <ele>119</ele>
        <time>2022-10-14T14:23:43+02:00</time>
      </trkpt>
      <trkpt lat="43.41404" lon="6.46159">
        <ele>119</ele>
        <time>2022-10-14T14:23:43+02:00</time>
      </trkpt>
      <trkpt lat="43.41406" lon="6.46165">
        <ele>118</ele>
        <time>2022-10-14T14:23:43+02:00</time>
      </trkpt>
      <trkpt lat="43.41409" lon="6.46169">
        <ele>117</ele>
        <time>2022-10-14T14:23:43+02:00</time>
      </trkpt>
      <trkpt lat="43.41413" lon="6.46173">
        <ele>117</ele>
        <time>2022-10-14T14:23:43+02:00</time>
      </trkpt>
      <trkpt lat="43.41416" lon="6.46177">
        <ele>117</ele>
        <time>2022-10-14T14:23:43+02:00</time>
      </trkpt>
      <trkpt lat="43.41419" lon="6.46183">
        <ele>117</ele>
        <time>2022-10-14T14:23:43+02:00</time>
      </trkpt>
      <trkpt lat="43.41422" lon="6.46188">
        <ele>116</ele>
        <time>2022-10-14T14:23:43+02:00</time>
      </trkpt>
      <trkpt lat="43.41425" lon="6.46193">
        <ele>116</ele>
        <time>2022-10-14T14:23:43+02:00</time>
      </trkpt>
      <trkpt lat="43.41428" lon="6.46197">
        <ele>116</ele>
        <time>2022-10-14T14:23:43+02:00</time>
      </trkpt>
      <trkpt lat="43.41431" lon="6.462">
        <ele>116</ele>
        <time>2022-10-14T14:23:43+02:00</time>
      </trkpt>
      <trkpt lat="43.41435" lon="6.46204">
        <ele>116</ele>
        <time>2022-10-14T14:23:43+02:00</time>
      </trkpt>
      <trkpt lat="43.41438" lon="6.46206">
        <ele>116</ele>
        <time>2022-10-14T14:23:43+02:00</time>
      </trkpt>
      <trkpt lat="43.41441" lon="6.46207">
        <ele>116</ele>
        <time>2022-10-14T14:23:43+02:00</time>
      </trkpt>
      <trkpt lat="43.41445" lon="6.46206">
        <ele>117</ele>
        <time>2022-10-14T14:23:43+02:00</time>
      </trkpt>
      <trkpt lat="43.41449" lon="6.46205">
        <ele>118</ele>
        <time>2022-10-14T14:23:43+02:00</time>
      </trkpt>
      <trkpt lat="43.41453" lon="6.46203">
        <ele>118</ele>
        <time>2022-10-14T14:23:43+02:00</time>
      </trkpt>
      <trkpt lat="43.41456" lon="6.46201">
        <ele>118</ele>
        <time>2022-10-14T14:23:43+02:00</time>
      </trkpt>
      <trkpt lat="43.41459" lon="6.46198">
        <ele>118</ele>
        <time>2022-10-14T14:23:43+02:00</time>
      </trkpt>
      <trkpt lat="43.41463" lon="6.46196">
        <ele>118</ele>
        <time>2022-10-14T14:23:43+02:00</time>
      </trkpt>
      <trkpt lat="43.41466" lon="6.46195">
        <ele>118</ele>
        <time>2022-10-14T14:23:43+02:00</time>
      </trkpt>
      <trkpt lat="43.4147" lon="6.46193">
        <ele>118</ele>
        <time>2022-10-14T14:23:43+02:00</time>
      </trkpt>
      <trkpt lat="43.41474" lon="6.46191">
        <ele>118</ele>
        <time>2022-10-14T14:23:43+02:00</time>
      </trkpt>
      <trkpt lat="43.41478" lon="6.46189">
        <ele>117</ele>
        <time>2022-10-14T14:23:43+02:00</time>
      </trkpt>
      <trkpt lat="43.41482" lon="6.46188">
        <ele>117</ele>
        <time>2022-10-14T14:23:43+02:00</time>
      </trkpt>
      <trkpt lat="43.41486" lon="6.46187">
        <ele>117</ele>
        <time>2022-10-14T14:23:43+02:00</time>
      </trkpt>
      <trkpt lat="43.4149" lon="6.46184">
        <ele>117</ele>
        <time>2022-10-14T14:23:43+02:00</time>
      </trkpt>
      <trkpt lat="43.41493" lon="6.46181">
        <ele>115</ele>
        <time>2022-10-14T14:23:43+02:00</time>
      </trkpt>
      <trkpt lat="43.41497" lon="6.46177">
        <ele>115</ele>
        <time>2022-10-14T14:23:43+02:00</time>
      </trkpt>
      <trkpt lat="43.41502" lon="6.46174">
        <ele>115</ele>
        <time>2022-10-14T14:23:43+02:00</time>
      </trkpt>
      <trkpt lat="43.41506" lon="6.4617">
        <ele>115</ele>
        <time>2022-10-14T14:23:43+02:00</time>
      </trkpt>
      <trkpt lat="43.41511" lon="6.46167">
        <ele>115</ele>
        <time>2022-10-14T14:23:43+02:00</time>
      </trkpt>
      <trkpt lat="43.41516" lon="6.46169">
        <ele>115</ele>
        <time>2022-10-14T14:23:43+02:00</time>
      </trkpt>
      <trkpt lat="43.41522" lon="6.46169">
        <ele>115</ele>
        <time>2022-10-14T14:23:43+02:00</time>
      </trkpt>
      <trkpt lat="43.41527" lon="6.46167">
        <ele>114</ele>
        <time>2022-10-14T14:23:43+02:00</time>
      </trkpt>
      <trkpt lat="43.41532" lon="6.46164">
        <ele>112</ele>
        <time>2022-10-14T14:23:43+02:00</time>
      </trkpt>
      <trkpt lat="43.41536" lon="6.46159">
        <ele>112</ele>
        <time>2022-10-14T14:23:43+02:00</time>
      </trkpt>
      <trkpt lat="43.4154" lon="6.46155">
        <ele>112</ele>
        <time>2022-10-14T14:23:43+02:00</time>
      </trkpt>
      <trkpt lat="43.41545" lon="6.46151">
        <ele>112</ele>
        <time>2022-10-14T14:23:43+02:00</time>
      </trkpt>
      <trkpt lat="43.4155" lon="6.46147">
        <ele>112</ele>
        <time>2022-10-14T14:23:43+02:00</time>
      </trkpt>
      <trkpt lat="43.41555" lon="6.46143">
        <ele>112</ele>
        <time>2022-10-14T14:23:43+02:00</time>
      </trkpt>
      <trkpt lat="43.41559" lon="6.46137">
        <ele>112</ele>
        <time>2022-10-14T14:23:43+02:00</time>
      </trkpt>
      <trkpt lat="43.41563" lon="6.4613">
        <ele>111</ele>
        <time>2022-10-14T14:23:43+02:00</time>
      </trkpt>
      <trkpt lat="43.41567" lon="6.46123">
        <ele>107</ele>
        <time>2022-10-14T14:23:43+02:00</time>
      </trkpt>
      <trkpt lat="43.41571" lon="6.46117">
        <ele>107</ele>
        <time>2022-10-14T14:23:43+02:00</time>
      </trkpt>
      <trkpt lat="43.41574" lon="6.4611">
        <ele>107</ele>
        <time>2022-10-14T14:23:43+02:00</time>
      </trkpt>
      <trkpt lat="43.41578" lon="6.46105">
        <ele>108</ele>
        <time>2022-10-14T14:23:43+02:00</time>
      </trkpt>
      <trkpt lat="43.41581" lon="6.46101">
        <ele>110</ele>
        <time>2022-10-14T14:23:43+02:00</time>
      </trkpt>
      <trkpt lat="43.41584" lon="6.46099">
        <ele>110</ele>
        <time>2022-10-14T14:23:43+02:00</time>
      </trkpt>
      <trkpt lat="43.41587" lon="6.461">
        <ele>110</ele>
        <time>2022-10-14T14:23:43+02:00</time>
      </trkpt>
      <trkpt lat="43.41589" lon="6.46101">
        <ele>110</ele>
        <time>2022-10-14T14:23:43+02:00</time>
      </trkpt>
      <trkpt lat="43.41593" lon="6.46104">
        <ele>105</ele>
        <time>2022-10-14T14:23:43+02:00</time>
      </trkpt>
      <trkpt lat="43.41596" lon="6.46107">
        <ele>105</ele>
        <time>2022-10-14T14:23:43+02:00</time>
      </trkpt>
      <trkpt lat="43.41597" lon="6.46111">
        <ele>105</ele>
        <time>2022-10-14T14:23:43+02:00</time>
      </trkpt>
      <trkpt lat="43.41597" lon="6.46116">
        <ele>105</ele>
        <time>2022-10-14T14:23:43+02:00</time>
      </trkpt>
      <trkpt lat="43.41596" lon="6.4612">
        <ele>104</ele>
        <time>2022-10-14T14:23:43+02:00</time>
      </trkpt>
      <trkpt lat="43.41595" lon="6.46125">
        <ele>104</ele>
        <time>2022-10-14T14:23:43+02:00</time>
      </trkpt>
      <trkpt lat="43.41594" lon="6.46129">
        <ele>104</ele>
        <time>2022-10-14T14:23:43+02:00</time>
      </trkpt>
      <trkpt lat="43.41591" lon="6.46135">
        <ele>103</ele>
        <time>2022-10-14T14:23:43+02:00</time>
      </trkpt>
      <trkpt lat="43.41589" lon="6.46142">
        <ele>100</ele>
        <time>2022-10-14T14:23:43+02:00</time>
      </trkpt>
      <trkpt lat="43.41586" lon="6.46148">
        <ele>100</ele>
        <time>2022-10-14T14:23:43+02:00</time>
      </trkpt>
      <trkpt lat="43.41585" lon="6.46155">
        <ele>100</ele>
        <time>2022-10-14T14:23:43+02:00</time>
      </trkpt>
      <trkpt lat="43.41585" lon="6.46161">
        <ele>100</ele>
        <time>2022-10-14T14:23:43+02:00</time>
      </trkpt>
      <trkpt lat="43.41586" lon="6.46167">
        <ele>99</ele>
        <time>2022-10-14T14:23:43+02:00</time>
      </trkpt>
      <trkpt lat="43.41588" lon="6.46172">
        <ele>99</ele>
        <time>2022-10-14T14:23:43+02:00</time>
      </trkpt>
      <trkpt lat="43.41589" lon="6.46178">
        <ele>99</ele>
        <time>2022-10-14T14:23:43+02:00</time>
      </trkpt>
      <trkpt lat="43.41589" lon="6.46186">
        <ele>99</ele>
        <time>2022-10-14T14:23:43+02:00</time>
      </trkpt>
      <trkpt lat="43.4159" lon="6.46195">
        <ele>95</ele>
        <time>2022-10-14T14:23:43+02:00</time>
      </trkpt>
      <trkpt lat="43.41594" lon="6.46201">
        <ele>95</ele>
        <time>2022-10-14T14:23:43+02:00</time>
      </trkpt>
      <trkpt lat="43.41598" lon="6.46207">
        <ele>95</ele>
        <time>2022-10-14T14:23:43+02:00</time>
      </trkpt>
      <trkpt lat="43.41603" lon="6.46213">
        <ele>95</ele>
        <time>2022-10-14T14:23:43+02:00</time>
      </trkpt>
      <trkpt lat="43.41608" lon="6.46219">
        <ele>92</ele>
        <time>2022-10-14T14:23:43+02:00</time>
      </trkpt>
      <trkpt lat="43.41613" lon="6.46226">
        <ele>92</ele>
        <time>2022-10-14T14:23:43+02:00</time>
      </trkpt>
      <trkpt lat="43.41617" lon="6.46234">
        <ele>92</ele>
        <time>2022-10-14T14:23:43+02:00</time>
      </trkpt>
      <trkpt lat="43.41618" lon="6.46243">
        <ele>91</ele>
        <time>2022-10-14T14:23:43+02:00</time>
      </trkpt>
      <trkpt lat="43.41618" lon="6.46253">
        <ele>90</ele>
        <time>2022-10-14T14:23:43+02:00</time>
      </trkpt>
      <trkpt lat="43.41619" lon="6.46262">
        <ele>90</ele>
        <time>2022-10-14T14:23:43+02:00</time>
      </trkpt>
      <trkpt lat="43.41619" lon="6.46271">
        <ele>90</ele>
        <time>2022-10-14T14:23:43+02:00</time>
      </trkpt>
      <trkpt lat="43.4162" lon="6.4628">
        <ele>89</ele>
        <time>2022-10-14T14:23:43+02:00</time>
      </trkpt>
      <trkpt lat="43.4162" lon="6.4629">
        <ele>84</ele>
        <time>2022-10-14T14:23:43+02:00</time>
      </trkpt>
      <trkpt lat="43.4162" lon="6.46301">
        <ele>84</ele>
        <time>2022-10-14T14:23:43+02:00</time>
      </trkpt>
      <trkpt lat="43.41619" lon="6.46311">
        <ele>84</ele>
        <time>2022-10-14T14:23:43+02:00</time>
      </trkpt>
      <trkpt lat="43.41617" lon="6.4632">
        <ele>85</ele>
        <time>2022-10-14T14:23:43+02:00</time>
      </trkpt>
      <trkpt lat="43.41615" lon="6.4633">
        <ele>86</ele>
        <time>2022-10-14T14:23:43+02:00</time>
      </trkpt>
      <trkpt lat="43.41613" lon="6.4634">
        <ele>86</ele>
        <time>2022-10-14T14:23:43+02:00</time>
      </trkpt>
      <trkpt lat="43.41611" lon="6.4635">
        <ele>86</ele>
        <time>2022-10-14T14:23:43+02:00</time>
      </trkpt>
      <trkpt lat="43.4161" lon="6.46359">
        <ele>85</ele>
        <time>2022-10-14T14:23:43+02:00</time>
      </trkpt>
      <trkpt lat="43.41607" lon="6.46369">
        <ele>84</ele>
        <time>2022-10-14T14:23:43+02:00</time>
      </trkpt>
      <trkpt lat="43.41605" lon="6.4638">
        <ele>84</ele>
        <time>2022-10-14T14:23:43+02:00</time>
      </trkpt>
      <trkpt lat="43.41603" lon="6.46391">
        <ele>84</ele>
        <time>2022-10-14T14:23:43+02:00</time>
      </trkpt>
      <trkpt lat="43.41603" lon="6.46402">
        <ele>83</ele>
        <time>2022-10-14T14:23:43+02:00</time>
      </trkpt>
      <trkpt lat="43.41604" lon="6.46413">
        <ele>75</ele>
        <time>2022-10-14T14:23:43+02:00</time>
      </trkpt>
      <trkpt lat="43.41607" lon="6.46423">
        <ele>75</ele>
        <time>2022-10-14T14:23:43+02:00</time>
      </trkpt>
      <trkpt lat="43.41608" lon="6.46433">
        <ele>75</ele>
        <time>2022-10-14T14:23:43+02:00</time>
      </trkpt>
      <trkpt lat="43.41606" lon="6.46442">
        <ele>76</ele>
        <time>2022-10-14T14:23:43+02:00</time>
      </trkpt>
      <trkpt lat="43.41604" lon="6.46451">
        <ele>77</ele>
        <time>2022-10-14T14:23:43+02:00</time>
      </trkpt>
      <trkpt lat="43.41602" lon="6.46461">
        <ele>77</ele>
        <time>2022-10-14T14:23:43+02:00</time>
      </trkpt>
      <trkpt lat="43.416" lon="6.4647">
        <ele>77</ele>
        <time>2022-10-14T14:23:43+02:00</time>
      </trkpt>
      <trkpt lat="43.416" lon="6.4648">
        <ele>76</ele>
        <time>2022-10-14T14:23:43+02:00</time>
      </trkpt>
      <trkpt lat="43.41605" lon="6.46487">
        <ele>75</ele>
        <time>2022-10-14T14:23:43+02:00</time>
      </trkpt>
      <trkpt lat="43.4161" lon="6.46493">
        <ele>75</ele>
        <time>2022-10-14T14:23:43+02:00</time>
      </trkpt>
      <trkpt lat="43.41615" lon="6.465">
        <ele>75</ele>
        <time>2022-10-14T14:23:43+02:00</time>
      </trkpt>
      <trkpt lat="43.41619" lon="6.46508">
        <ele>75</ele>
        <time>2022-10-14T14:23:43+02:00</time>
      </trkpt>
      <trkpt lat="43.4162" lon="6.46517">
        <ele>74</ele>
        <time>2022-10-14T14:23:43+02:00</time>
      </trkpt>
      <trkpt lat="43.41619" lon="6.46527">
        <ele>74</ele>
        <time>2022-10-14T14:23:43+02:00</time>
      </trkpt>
      <trkpt lat="43.41618" lon="6.46537">
        <ele>74</ele>
        <time>2022-10-14T14:23:43+02:00</time>
      </trkpt>
      <trkpt lat="43.41617" lon="6.46547">
        <ele>74</ele>
        <time>2022-10-14T14:23:43+02:00</time>
      </trkpt>
      <trkpt lat="43.41616" lon="6.46557">
        <ele>72</ele>
        <time>2022-10-14T14:23:43+02:00</time>
      </trkpt>
      <trkpt lat="43.41614" lon="6.46567">
        <ele>72</ele>
        <time>2022-10-14T14:23:43+02:00</time>
      </trkpt>
      <trkpt lat="43.41611" lon="6.46577">
        <ele>72</ele>
        <time>2022-10-14T14:23:43+02:00</time>
      </trkpt>
      <trkpt lat="43.41611" lon="6.46586">
        <ele>71</ele>
        <time>2022-10-14T14:23:43+02:00</time>
      </trkpt>
      <trkpt lat="43.41613" lon="6.46595">
        <ele>71</ele>
        <time>2022-10-14T14:23:43+02:00</time>
      </trkpt>
      <trkpt lat="43.41617" lon="6.46604">
        <ele>71</ele>
        <time>2022-10-14T14:23:43+02:00</time>
      </trkpt>
      <trkpt lat="43.41618" lon="6.46612">
        <ele>71</ele>
        <time>2022-10-14T14:23:43+02:00</time>
      </trkpt>
      <trkpt lat="43.41616" lon="6.4662">
        <ele>72</ele>
        <time>2022-10-14T14:23:43+02:00</time>
      </trkpt>
      <trkpt lat="43.41616" lon="6.46628">
        <ele>69</ele>
        <time>2022-10-14T14:23:43+02:00</time>
      </trkpt>
      <trkpt lat="43.41617" lon="6.46636">
        <ele>69</ele>
        <time>2022-10-14T14:23:43+02:00</time>
      </trkpt>
      <trkpt lat="43.41616" lon="6.46644">
        <ele>69</ele>
        <time>2022-10-14T14:23:43+02:00</time>
      </trkpt>
      <trkpt lat="43.41614" lon="6.46653">
        <ele>69</ele>
        <time>2022-10-14T14:23:43+02:00</time>
      </trkpt>
      <trkpt lat="43.4161" lon="6.46661">
        <ele>68</ele>
        <time>2022-10-14T14:23:43+02:00</time>
      </trkpt>
      <trkpt lat="43.41605" lon="6.46668">
        <ele>68</ele>
        <time>2022-10-14T14:23:43+02:00</time>
      </trkpt>
      <trkpt lat="43.41601" lon="6.46676">
        <ele>68</ele>
        <time>2022-10-14T14:23:43+02:00</time>
      </trkpt>
      <trkpt lat="43.41597" lon="6.46684">
        <ele>68</ele>
        <time>2022-10-14T14:23:43+02:00</time>
      </trkpt>
      <trkpt lat="43.41594" lon="6.46692">
        <ele>67</ele>
        <time>2022-10-14T14:23:43+02:00</time>
      </trkpt>
      <trkpt lat="43.41591" lon="6.467">
        <ele>67</ele>
        <time>2022-10-14T14:23:43+02:00</time>
      </trkpt>
      <trkpt lat="43.41586" lon="6.46709">
        <ele>67</ele>
        <time>2022-10-14T14:23:43+02:00</time>
      </trkpt>
      <trkpt lat="43.41583" lon="6.4672">
        <ele>66</ele>
        <time>2022-10-14T14:23:43+02:00</time>
      </trkpt>
      <trkpt lat="43.41583" lon="6.46731">
        <ele>63</ele>
        <time>2022-10-14T14:23:43+02:00</time>
      </trkpt>
      <trkpt lat="43.41583" lon="6.46743">
        <ele>63</ele>
        <time>2022-10-14T14:23:43+02:00</time>
      </trkpt>
      <trkpt lat="43.4158" lon="6.46754">
        <ele>63</ele>
        <time>2022-10-14T14:23:43+02:00</time>
      </trkpt>
      <trkpt lat="43.41578" lon="6.46764">
        <ele>62</ele>
        <time>2022-10-14T14:23:43+02:00</time>
      </trkpt>
      <trkpt lat="43.41575" lon="6.46774">
        <ele>61</ele>
        <time>2022-10-14T14:23:43+02:00</time>
      </trkpt>
      <trkpt lat="43.41571" lon="6.46783">
        <ele>61</ele>
        <time>2022-10-14T14:23:43+02:00</time>
      </trkpt>
      <trkpt lat="43.41568" lon="6.46792">
        <ele>61</ele>
        <time>2022-10-14T14:23:43+02:00</time>
      </trkpt>
      <trkpt lat="43.41567" lon="6.468">
        <ele>61</ele>
        <time>2022-10-14T14:23:43+02:00</time>
      </trkpt>
      <trkpt lat="43.41566" lon="6.46809">
        <ele>58</ele>
        <time>2022-10-14T14:23:43+02:00</time>
      </trkpt>
      <trkpt lat="43.41566" lon="6.46818">
        <ele>58</ele>
        <time>2022-10-14T14:23:43+02:00</time>
      </trkpt>
      <trkpt lat="43.41567" lon="6.46826">
        <ele>58</ele>
        <time>2022-10-14T14:23:43+02:00</time>
      </trkpt>
      <trkpt lat="43.41567" lon="6.46832">
        <ele>58</ele>
        <time>2022-10-14T14:23:43+02:00</time>
      </trkpt>
      <trkpt lat="43.41567" lon="6.46837">
        <ele>61</ele>
        <time>2022-10-14T14:23:43+02:00</time>
      </trkpt>
      <trkpt lat="43.41566" lon="6.46842">
        <ele>61</ele>
        <time>2022-10-14T14:23:43+02:00</time>
      </trkpt>
      <trkpt lat="43.41564" lon="6.46848">
        <ele>61</ele>
        <time>2022-10-14T14:23:43+02:00</time>
      </trkpt>
      <trkpt lat="43.41562" lon="6.46853">
        <ele>61</ele>
        <time>2022-10-14T14:23:43+02:00</time>
      </trkpt>
      <trkpt lat="43.41562" lon="6.4686">
        <ele>60</ele>
        <time>2022-10-14T14:23:43+02:00</time>
      </trkpt>
      <trkpt lat="43.41562" lon="6.46866">
        <ele>60</ele>
        <time>2022-10-14T14:23:43+02:00</time>
      </trkpt>
      <trkpt lat="43.41564" lon="6.46872">
        <ele>60</ele>
        <time>2022-10-14T14:23:43+02:00</time>
      </trkpt>
      <trkpt lat="43.41565" lon="6.46877">
        <ele>60</ele>
        <time>2022-10-14T14:23:43+02:00</time>
      </trkpt>
      <trkpt lat="43.41566" lon="6.46882">
        <ele>60</ele>
        <time>2022-10-14T14:23:43+02:00</time>
      </trkpt>
      <trkpt lat="43.41568" lon="6.46886">
        <ele>60</ele>
        <time>2022-10-14T14:23:43+02:00</time>
      </trkpt>
      <trkpt lat="43.41571" lon="6.46889">
        <ele>60</ele>
        <time>2022-10-14T14:23:43+02:00</time>
      </trkpt>
      <trkpt lat="43.41574" lon="6.46891">
        <ele>61</ele>
        <time>2022-10-14T14:23:43+02:00</time>
      </trkpt>
      <trkpt lat="43.41577" lon="6.46894">
        <ele>60</ele>
        <time>2022-10-14T14:23:43+02:00</time>
      </trkpt>
      <trkpt lat="43.4158" lon="6.46896">
        <ele>60</ele>
        <time>2022-10-14T14:23:43+02:00</time>
      </trkpt>
      <trkpt lat="43.41584" lon="6.46897">
        <ele>60</ele>
        <time>2022-10-14T14:23:43+02:00</time>
      </trkpt>
      <trkpt lat="43.41588" lon="6.46897">
        <ele>60</ele>
        <time>2022-10-14T14:23:43+02:00</time>
      </trkpt>
      <trkpt lat="43.41591" lon="6.46896">
        <ele>60</ele>
        <time>2022-10-14T14:23:43+02:00</time>
      </trkpt>
      <trkpt lat="43.41594" lon="6.46894">
        <ele>60</ele>
        <time>2022-10-14T14:23:43+02:00</time>
      </trkpt>
      <trkpt lat="43.41597" lon="6.46892">
        <ele>60</ele>
        <time>2022-10-14T14:23:43+02:00</time>
      </trkpt>
      <trkpt lat="43.416" lon="6.46889">
        <ele>60</ele>
        <time>2022-10-14T14:23:43+02:00</time>
      </trkpt>
      <trkpt lat="43.41603" lon="6.46885">
        <ele>61</ele>
        <time>2022-10-14T14:23:43+02:00</time>
      </trkpt>
      <trkpt lat="43.41605" lon="6.46882">
        <ele>61</ele>
        <time>2022-10-14T14:23:43+02:00</time>
      </trkpt>
      <trkpt lat="43.41607" lon="6.46878">
        <ele>61</ele>
        <time>2022-10-14T14:23:43+02:00</time>
      </trkpt>
      <trkpt lat="43.41609" lon="6.46874">
        <ele>61</ele>
        <time>2022-10-14T14:23:43+02:00</time>
      </trkpt>
      <trkpt lat="43.41611" lon="6.4687">
        <ele>61</ele>
        <time>2022-10-14T14:23:43+02:00</time>
      </trkpt>
      <trkpt lat="43.41613" lon="6.46865">
        <ele>61</ele>
        <time>2022-10-14T14:23:43+02:00</time>
      </trkpt>
      <trkpt lat="43.41614" lon="6.46861">
        <ele>61</ele>
        <time>2022-10-14T14:23:43+02:00</time>
      </trkpt>
      <trkpt lat="43.41616" lon="6.46856">
        <ele>62</ele>
        <time>2022-10-14T14:23:43+02:00</time>
      </trkpt>
      <trkpt lat="43.41618" lon="6.46852">
        <ele>61</ele>
        <time>2022-10-14T14:23:43+02:00</time>
      </trkpt>
      <trkpt lat="43.4162" lon="6.46848">
        <ele>61</ele>
        <time>2022-10-14T14:23:43+02:00</time>
      </trkpt>
      <trkpt lat="43.41622" lon="6.46843">
        <ele>61</ele>
        <time>2022-10-14T14:23:43+02:00</time>
      </trkpt>
      <trkpt lat="43.41625" lon="6.46839">
        <ele>61</ele>
        <time>2022-10-14T14:23:43+02:00</time>
      </trkpt>
      <trkpt lat="43.41628" lon="6.46834">
        <ele>62</ele>
        <time>2022-10-14T14:23:43+02:00</time>
      </trkpt>
      <trkpt lat="43.41631" lon="6.4683">
        <ele>62</ele>
        <time>2022-10-14T14:23:43+02:00</time>
      </trkpt>
      <trkpt lat="43.41633" lon="6.46825">
        <ele>62</ele>
        <time>2022-10-14T14:23:43+02:00</time>
      </trkpt>
      <trkpt lat="43.41636" lon="6.4682">
        <ele>62</ele>
        <time>2022-10-14T14:23:43+02:00</time>
      </trkpt>
      <trkpt lat="43.41638" lon="6.46815">
        <ele>61</ele>
        <time>2022-10-14T14:23:43+02:00</time>
      </trkpt>
      <trkpt lat="43.41641" lon="6.46809">
        <ele>61</ele>
        <time>2022-10-14T14:23:43+02:00</time>
      </trkpt>
      <trkpt lat="43.41644" lon="6.46803">
        <ele>61</ele>
        <time>2022-10-14T14:23:43+02:00</time>
      </trkpt>
      <trkpt lat="43.41646" lon="6.46798">
        <ele>61</ele>
        <time>2022-10-14T14:23:43+02:00</time>
      </trkpt>
      <trkpt lat="43.41648" lon="6.46792">
        <ele>60</ele>
        <time>2022-10-14T14:23:43+02:00</time>
      </trkpt>
      <trkpt lat="43.41651" lon="6.46786">
        <ele>60</ele>
        <time>2022-10-14T14:23:43+02:00</time>
      </trkpt>
      <trkpt lat="43.41653" lon="6.4678">
        <ele>60</ele>
        <time>2022-10-14T14:23:43+02:00</time>
      </trkpt>
      <trkpt lat="43.41656" lon="6.46774">
        <ele>59</ele>
        <time>2022-10-14T14:23:43+02:00</time>
      </trkpt>
      <trkpt lat="43.41658" lon="6.46769">
        <ele>58</ele>
        <time>2022-10-14T14:23:43+02:00</time>
      </trkpt>
      <trkpt lat="43.4166" lon="6.46763">
        <ele>58</ele>
        <time>2022-10-14T14:23:43+02:00</time>
      </trkpt>
      <trkpt lat="43.41662" lon="6.46757">
        <ele>58</ele>
        <time>2022-10-14T14:23:43+02:00</time>
      </trkpt>
      <trkpt lat="43.41665" lon="6.4675">
        <ele>58</ele>
        <time>2022-10-14T14:23:43+02:00</time>
      </trkpt>
      <trkpt lat="43.41667" lon="6.46744">
        <ele>59</ele>
        <time>2022-10-14T14:23:43+02:00</time>
      </trkpt>
      <trkpt lat="43.41669" lon="6.46737">
        <ele>59</ele>
        <time>2022-10-14T14:23:43+02:00</time>
      </trkpt>
      <trkpt lat="43.41672" lon="6.46731">
        <ele>59</ele>
        <time>2022-10-14T14:23:43+02:00</time>
      </trkpt>
      <trkpt lat="43.41676" lon="6.46724">
        <ele>59</ele>
        <time>2022-10-14T14:23:43+02:00</time>
      </trkpt>
      <trkpt lat="43.41679" lon="6.46718">
        <ele>60</ele>
        <time>2022-10-14T14:23:43+02:00</time>
      </trkpt>
      <trkpt lat="43.41683" lon="6.46712">
        <ele>60</ele>
        <time>2022-10-14T14:23:43+02:00</time>
      </trkpt>
      <trkpt lat="43.41687" lon="6.46706">
        <ele>60</ele>
        <time>2022-10-14T14:23:43+02:00</time>
      </trkpt>
      <trkpt lat="43.41691" lon="6.46701">
        <ele>60</ele>
        <time>2022-10-14T14:23:43+02:00</time>
      </trkpt>
      <trkpt lat="43.41695" lon="6.46696">
        <ele>59</ele>
        <time>2022-10-14T14:23:43+02:00</time>
      </trkpt>
      <trkpt lat="43.41699" lon="6.4669">
        <ele>59</ele>
        <time>2022-10-14T14:23:43+02:00</time>
      </trkpt>
      <trkpt lat="43.41702" lon="6.46684">
        <ele>59</ele>
        <time>2022-10-14T14:23:43+02:00</time>
      </trkpt>
      <trkpt lat="43.41704" lon="6.46678">
        <ele>59</ele>
        <time>2022-10-14T14:23:43+02:00</time>
      </trkpt>
      <trkpt lat="43.41705" lon="6.46672">
        <ele>61</ele>
        <time>2022-10-14T14:23:43+02:00</time>
      </trkpt>
      <trkpt lat="43.41707" lon="6.46667">
        <ele>61</ele>
        <time>2022-10-14T14:23:43+02:00</time>
      </trkpt>
      <trkpt lat="43.41708" lon="6.46661">
        <ele>61</ele>
        <time>2022-10-14T14:23:43+02:00</time>
      </trkpt>
      <trkpt lat="43.41709" lon="6.46656">
        <ele>62</ele>
        <time>2022-10-14T14:23:43+02:00</time>
      </trkpt>
      <trkpt lat="43.4171" lon="6.46651">
        <ele>62</ele>
        <time>2022-10-14T14:23:43+02:00</time>
      </trkpt>
      <trkpt lat="43.41711" lon="6.46647">
        <ele>62</ele>
        <time>2022-10-14T14:23:43+02:00</time>
      </trkpt>
      <trkpt lat="43.41711" lon="6.46643">
        <ele>62</ele>
        <time>2022-10-14T14:23:43+02:00</time>
      </trkpt>
      <trkpt lat="43.41712" lon="6.46638">
        <ele>63</ele>
        <time>2022-10-14T14:23:43+02:00</time>
      </trkpt>
      <trkpt lat="43.41714" lon="6.46634">
        <ele>64</ele>
        <time>2022-10-14T14:23:43+02:00</time>
      </trkpt>
      <trkpt lat="43.41715" lon="6.4663">
        <ele>64</ele>
        <time>2022-10-14T14:23:43+02:00</time>
      </trkpt>
      <trkpt lat="43.41717" lon="6.46626">
        <ele>64</ele>
        <time>2022-10-14T14:23:43+02:00</time>
      </trkpt>
      <trkpt lat="43.41718" lon="6.46622">
        <ele>65</ele>
        <time>2022-10-14T14:23:43+02:00</time>
      </trkpt>
      <trkpt lat="43.41719" lon="6.46618">
        <ele>65</ele>
        <time>2022-10-14T14:23:43+02:00</time>
      </trkpt>
      <trkpt lat="43.41719" lon="6.46613">
        <ele>65</ele>
        <time>2022-10-14T14:23:43+02:00</time>
      </trkpt>
      <trkpt lat="43.4172" lon="6.4661">
        <ele>65</ele>
        <time>2022-10-14T14:23:43+02:00</time>
      </trkpt>
      <trkpt lat="43.41721" lon="6.46606">
        <ele>66</ele>
        <time>2022-10-14T14:23:43+02:00</time>
      </trkpt>
      <trkpt lat="43.41722" lon="6.46603">
        <ele>67</ele>
        <time>2022-10-14T14:23:43+02:00</time>
      </trkpt>
      <trkpt lat="43.41722" lon="6.466">
        <ele>67</ele>
        <time>2022-10-14T14:23:43+02:00</time>
      </trkpt>
      <trkpt lat="43.41723" lon="6.46597">
        <ele>67</ele>
        <time>2022-10-14T14:23:43+02:00</time>
      </trkpt>
      <trkpt lat="43.41724" lon="6.46594">
        <ele>68</ele>
        <time>2022-10-14T14:23:43+02:00</time>
      </trkpt>
      <trkpt lat="43.41724" lon="6.46591">
        <ele>67</ele>
        <time>2022-10-14T14:23:43+02:00</time>
      </trkpt>
      <trkpt lat="43.41725" lon="6.46587">
        <ele>67</ele>
        <time>2022-10-14T14:23:43+02:00</time>
      </trkpt>
      <trkpt lat="43.41726" lon="6.46585">
        <ele>67</ele>
        <time>2022-10-14T14:23:43+02:00</time>
      </trkpt>
      <trkpt lat="43.41726" lon="6.46581">
        <ele>67</ele>
        <time>2022-10-14T14:23:43+02:00</time>
      </trkpt>
      <trkpt lat="43.41728" lon="6.46577">
        <ele>68</ele>
        <time>2022-10-14T14:23:43+02:00</time>
      </trkpt>
      <trkpt lat="43.41729" lon="6.46574">
        <ele>68</ele>
        <time>2022-10-14T14:23:43+02:00</time>
      </trkpt>
      <trkpt lat="43.41729" lon="6.4657">
        <ele>68</ele>
        <time>2022-10-14T14:23:43+02:00</time>
      </trkpt>
      <trkpt lat="43.4173" lon="6.46566">
        <ele>68</ele>
        <time>2022-10-14T14:23:43+02:00</time>
      </trkpt>
      <trkpt lat="43.41731" lon="6.46562">
        <ele>69</ele>
        <time>2022-10-14T14:23:43+02:00</time>
      </trkpt>
      <trkpt lat="43.41731" lon="6.46559">
        <ele>69</ele>
        <time>2022-10-14T14:23:43+02:00</time>
      </trkpt>
      <trkpt lat="43.41732" lon="6.46555">
        <ele>69</ele>
        <time>2022-10-14T14:23:43+02:00</time>
      </trkpt>
      <trkpt lat="43.41733" lon="6.46552">
        <ele>69</ele>
        <time>2022-10-14T14:23:43+02:00</time>
      </trkpt>
      <trkpt lat="43.41733" lon="6.46548">
        <ele>70</ele>
        <time>2022-10-14T14:23:43+02:00</time>
      </trkpt>
      <trkpt lat="43.41734" lon="6.46544">
        <ele>70</ele>
        <time>2022-10-14T14:23:43+02:00</time>
      </trkpt>
      <trkpt lat="43.41734" lon="6.4654">
        <ele>70</ele>
        <time>2022-10-14T14:23:43+02:00</time>
      </trkpt>
      <trkpt lat="43.41735" lon="6.46536">
        <ele>71</ele>
        <time>2022-10-14T14:23:43+02:00</time>
      </trkpt>
      <trkpt lat="43.41735" lon="6.46532">
        <ele>71</ele>
        <time>2022-10-14T14:23:43+02:00</time>
      </trkpt>
      <trkpt lat="43.41736" lon="6.46528">
        <ele>71</ele>
        <time>2022-10-14T14:23:43+02:00</time>
      </trkpt>
      <trkpt lat="43.41736" lon="6.46525">
        <ele>71</ele>
        <time>2022-10-14T14:23:43+02:00</time>
      </trkpt>
      <trkpt lat="43.41736" lon="6.46521">
        <ele>71</ele>
        <time>2022-10-14T14:23:43+02:00</time>
      </trkpt>
      <trkpt lat="43.41736" lon="6.46517">
        <ele>72</ele>
        <time>2022-10-14T14:23:43+02:00</time>
      </trkpt>
      <trkpt lat="43.41736" lon="6.46513">
        <ele>72</ele>
        <time>2022-10-14T14:23:43+02:00</time>
      </trkpt>
      <trkpt lat="43.41736" lon="6.4651">
        <ele>72</ele>
        <time>2022-10-14T14:23:43+02:00</time>
      </trkpt>
      <trkpt lat="43.41737" lon="6.46507">
        <ele>73</ele>
        <time>2022-10-14T14:23:43+02:00</time>
      </trkpt>
      <trkpt lat="43.41736" lon="6.46504">
        <ele>73</ele>
        <time>2022-10-14T14:23:43+02:00</time>
      </trkpt>
      <trkpt lat="43.41736" lon="6.46502">
        <ele>73</ele>
        <time>2022-10-14T14:23:43+02:00</time>
      </trkpt>
      <trkpt lat="43.41737" lon="6.46499">
        <ele>73</ele>
        <time>2022-10-14T14:23:43+02:00</time>
      </trkpt>
      <trkpt lat="43.41737" lon="6.46496">
        <ele>73</ele>
        <time>2022-10-14T14:23:43+02:00</time>
      </trkpt>
      <trkpt lat="43.41737" lon="6.46493">
        <ele>73</ele>
        <time>2022-10-14T14:23:43+02:00</time>
      </trkpt>
      <trkpt lat="43.41737" lon="6.46491">
        <ele>73</ele>
        <time>2022-10-14T14:23:43+02:00</time>
      </trkpt>
      <trkpt lat="43.41737" lon="6.46488">
        <ele>73</ele>
        <time>2022-10-14T14:23:43+02:00</time>
      </trkpt>
      <trkpt lat="43.41737" lon="6.46485">
        <ele>73</ele>
        <time>2022-10-14T14:23:43+02:00</time>
      </trkpt>
      <trkpt lat="43.41737" lon="6.46482">
        <ele>73</ele>
        <time>2022-10-14T14:23:43+02:00</time>
      </trkpt>
      <trkpt lat="43.41737" lon="6.46478">
        <ele>73</ele>
        <time>2022-10-14T14:23:43+02:00</time>
      </trkpt>
      <trkpt lat="43.41738" lon="6.46475">
        <ele>73</ele>
        <time>2022-10-14T14:23:43+02:00</time>
      </trkpt>
      <trkpt lat="43.41738" lon="6.46471">
        <ele>74</ele>
        <time>2022-10-14T14:23:43+02:00</time>
      </trkpt>
      <trkpt lat="43.41737" lon="6.46467">
        <ele>74</ele>
        <time>2022-10-14T14:23:43+02:00</time>
      </trkpt>
      <trkpt lat="43.41737" lon="6.46462">
        <ele>74</ele>
        <time>2022-10-14T14:23:43+02:00</time>
      </trkpt>
      <trkpt lat="43.41738" lon="6.46458">
        <ele>74</ele>
        <time>2022-10-14T14:23:43+02:00</time>
      </trkpt>
      <trkpt lat="43.41738" lon="6.46454">
        <ele>74</ele>
        <time>2022-10-14T14:23:43+02:00</time>
      </trkpt>
      <trkpt lat="43.41738" lon="6.4645">
        <ele>74</ele>
        <time>2022-10-14T14:23:43+02:00</time>
      </trkpt>
      <trkpt lat="43.41738" lon="6.46446">
        <ele>74</ele>
        <time>2022-10-14T14:23:43+02:00</time>
      </trkpt>
      <trkpt lat="43.41739" lon="6.46441">
        <ele>74</ele>
        <time>2022-10-14T14:23:43+02:00</time>
      </trkpt>
      <trkpt lat="43.41739" lon="6.46437">
        <ele>74</ele>
        <time>2022-10-14T14:23:43+02:00</time>
      </trkpt>
      <trkpt lat="43.41739" lon="6.46432">
        <ele>74</ele>
        <time>2022-10-14T14:23:43+02:00</time>
      </trkpt>
      <trkpt lat="43.41739" lon="6.46428">
        <ele>74</ele>
        <time>2022-10-14T14:23:43+02:00</time>
      </trkpt>
      <trkpt lat="43.4174" lon="6.46423">
        <ele>74</ele>
        <time>2022-10-14T14:23:43+02:00</time>
      </trkpt>
      <trkpt lat="43.41739" lon="6.46419">
        <ele>75</ele>
        <time>2022-10-14T14:23:43+02:00</time>
      </trkpt>
      <trkpt lat="43.4174" lon="6.46414">
        <ele>75</ele>
        <time>2022-10-14T14:23:43+02:00</time>
      </trkpt>
      <trkpt lat="43.4174" lon="6.4641">
        <ele>75</ele>
        <time>2022-10-14T14:23:43+02:00</time>
      </trkpt>
      <trkpt lat="43.41741" lon="6.46405">
        <ele>75</ele>
        <time>2022-10-14T14:23:43+02:00</time>
      </trkpt>
      <trkpt lat="43.41742" lon="6.464">
        <ele>75</ele>
        <time>2022-10-14T14:23:43+02:00</time>
      </trkpt>
      <trkpt lat="43.41744" lon="6.46396">
        <ele>75</ele>
        <time>2022-10-14T14:23:43+02:00</time>
      </trkpt>
      <trkpt lat="43.41745" lon="6.46392">
        <ele>75</ele>
        <time>2022-10-14T14:23:43+02:00</time>
      </trkpt>
      <trkpt lat="43.41747" lon="6.46389">
        <ele>75</ele>
        <time>2022-10-14T14:23:43+02:00</time>
      </trkpt>
      <trkpt lat="43.41749" lon="6.46386">
        <ele>75</ele>
        <time>2022-10-14T14:23:43+02:00</time>
      </trkpt>
      <trkpt lat="43.41751" lon="6.46383">
        <ele>75</ele>
        <time>2022-10-14T14:23:43+02:00</time>
      </trkpt>
      <trkpt lat="43.41752" lon="6.46381">
        <ele>75</ele>
        <time>2022-10-14T14:23:43+02:00</time>
      </trkpt>
      <trkpt lat="43.41754" lon="6.46379">
        <ele>75</ele>
        <time>2022-10-14T14:23:43+02:00</time>
      </trkpt>
      <trkpt lat="43.41755" lon="6.46378">
        <ele>75</ele>
        <time>2022-10-14T14:23:43+02:00</time>
      </trkpt>
      <trkpt lat="43.41757" lon="6.46375">
        <ele>76</ele>
        <time>2022-10-14T14:23:43+02:00</time>
      </trkpt>
      <trkpt lat="43.41758" lon="6.46373">
        <ele>76</ele>
        <time>2022-10-14T14:23:43+02:00</time>
      </trkpt>
      <trkpt lat="43.41761" lon="6.46371">
        <ele>76</ele>
        <time>2022-10-14T14:23:43+02:00</time>
      </trkpt>
      <trkpt lat="43.41764" lon="6.46368">
        <ele>76</ele>
        <time>2022-10-14T14:23:43+02:00</time>
      </trkpt>
      <trkpt lat="43.41767" lon="6.46366">
        <ele>76</ele>
        <time>2022-10-14T14:23:43+02:00</time>
      </trkpt>
      <trkpt lat="43.41769" lon="6.46365">
        <ele>76</ele>
        <time>2022-10-14T14:23:43+02:00</time>
      </trkpt>
      <trkpt lat="43.41771" lon="6.46365">
        <ele>76</ele>
        <time>2022-10-14T14:23:43+02:00</time>
      </trkpt>
      <trkpt lat="43.41774" lon="6.46367">
        <ele>76</ele>
        <time>2022-10-14T14:23:43+02:00</time>
      </trkpt>
      <trkpt lat="43.41773" lon="6.46361">
        <ele>76</ele>
        <time>2022-10-14T14:23:43+02:00</time>
      </trkpt>
      <trkpt lat="43.41772" lon="6.46358">
        <ele>76</ele>
        <time>2022-10-14T14:23:43+02:00</time>
      </trkpt>
      <trkpt lat="43.41771" lon="6.46355">
        <ele>76</ele>
        <time>2022-10-14T14:23:43+02:00</time>
      </trkpt>
      <trkpt lat="43.41773" lon="6.46354">
        <ele>76</ele>
        <time>2022-10-14T14:23:43+02:00</time>
      </trkpt>
      <trkpt lat="43.41776" lon="6.46353">
        <ele>76</ele>
        <time>2022-10-14T14:23:43+02:00</time>
      </trkpt>
      <trkpt lat="43.41779" lon="6.46351">
        <ele>76</ele>
        <time>2022-10-14T14:23:43+02:00</time>
      </trkpt>
      <trkpt lat="43.4178" lon="6.46349">
        <ele>76</ele>
        <time>2022-10-14T14:23:43+02:00</time>
      </trkpt>
      <trkpt lat="43.41782" lon="6.46346">
        <ele>77</ele>
        <time>2022-10-14T14:23:43+02:00</time>
      </trkpt>
      <trkpt lat="43.41785" lon="6.46343">
        <ele>77</ele>
        <time>2022-10-14T14:23:43+02:00</time>
      </trkpt>
      <trkpt lat="43.41787" lon="6.4634">
        <ele>77</ele>
        <time>2022-10-14T14:23:43+02:00</time>
      </trkpt>
      <trkpt lat="43.4179" lon="6.46337">
        <ele>77</ele>
        <time>2022-10-14T14:23:43+02:00</time>
      </trkpt>
      <trkpt lat="43.41793" lon="6.46334">
        <ele>77</ele>
        <time>2022-10-14T14:23:43+02:00</time>
      </trkpt>
      <trkpt lat="43.41795" lon="6.46331">
        <ele>78</ele>
        <time>2022-10-14T14:23:43+02:00</time>
      </trkpt>
      <trkpt lat="43.41798" lon="6.46328">
        <ele>78</ele>
        <time>2022-10-14T14:23:43+02:00</time>
      </trkpt>
      <trkpt lat="43.418" lon="6.46325">
        <ele>78</ele>
        <time>2022-10-14T14:23:43+02:00</time>
      </trkpt>
      <trkpt lat="43.41802" lon="6.46322">
        <ele>79</ele>
        <time>2022-10-14T14:23:43+02:00</time>
      </trkpt>
      <trkpt lat="43.41805" lon="6.46319">
        <ele>79</ele>
        <time>2022-10-14T14:23:43+02:00</time>
      </trkpt>
      <trkpt lat="43.41807" lon="6.46316">
        <ele>79</ele>
        <time>2022-10-14T14:23:43+02:00</time>
      </trkpt>
      <trkpt lat="43.41809" lon="6.46313">
        <ele>79</ele>
        <time>2022-10-14T14:23:43+02:00</time>
      </trkpt>
      <trkpt lat="43.41811" lon="6.4631">
        <ele>80</ele>
        <time>2022-10-14T14:23:43+02:00</time>
      </trkpt>
      <trkpt lat="43.41814" lon="6.46307">
        <ele>80</ele>
        <time>2022-10-14T14:23:43+02:00</time>
      </trkpt>
      <trkpt lat="43.41816" lon="6.46304">
        <ele>80</ele>
        <time>2022-10-14T14:23:43+02:00</time>
      </trkpt>
      <trkpt lat="43.41818" lon="6.46301">
        <ele>80</ele>
        <time>2022-10-14T14:23:43+02:00</time>
      </trkpt>
      <trkpt lat="43.4182" lon="6.46298">
        <ele>81</ele>
        <time>2022-10-14T14:23:43+02:00</time>
      </trkpt>
      <trkpt lat="43.41822" lon="6.46296">
        <ele>81</ele>
        <time>2022-10-14T14:23:43+02:00</time>
      </trkpt>
      <trkpt lat="43.41824" lon="6.46293">
        <ele>81</ele>
        <time>2022-10-14T14:23:43+02:00</time>
      </trkpt>
      <trkpt lat="43.41826" lon="6.4629">
        <ele>81</ele>
        <time>2022-10-14T14:23:43+02:00</time>
      </trkpt>
      <trkpt lat="43.41827" lon="6.46286">
        <ele>82</ele>
        <time>2022-10-14T14:23:43+02:00</time>
      </trkpt>
      <trkpt lat="43.41829" lon="6.46283">
        <ele>83</ele>
        <time>2022-10-14T14:23:43+02:00</time>
      </trkpt>
      <trkpt lat="43.41831" lon="6.4628">
        <ele>83</ele>
        <time>2022-10-14T14:23:43+02:00</time>
      </trkpt>
      <trkpt lat="43.41833" lon="6.46277">
        <ele>83</ele>
        <time>2022-10-14T14:23:43+02:00</time>
      </trkpt>
      <trkpt lat="43.41835" lon="6.46275">
        <ele>83</ele>
        <time>2022-10-14T14:23:43+02:00</time>
      </trkpt>
      <trkpt lat="43.41836" lon="6.46272">
        <ele>83</ele>
        <time>2022-10-14T14:23:43+02:00</time>
      </trkpt>
      <trkpt lat="43.41838" lon="6.46269">
        <ele>83</ele>
        <time>2022-10-14T14:23:43+02:00</time>
      </trkpt>
      <trkpt lat="43.4184" lon="6.46267">
        <ele>83</ele>
        <time>2022-10-14T14:23:43+02:00</time>
      </trkpt>
      <trkpt lat="43.41842" lon="6.46264">
        <ele>83</ele>
        <time>2022-10-14T14:23:43+02:00</time>
      </trkpt>
      <trkpt lat="43.41844" lon="6.4626">
        <ele>83</ele>
        <time>2022-10-14T14:23:43+02:00</time>
      </trkpt>
      <trkpt lat="43.41846" lon="6.46257">
        <ele>83</ele>
        <time>2022-10-14T14:23:43+02:00</time>
      </trkpt>
      <trkpt lat="43.41848" lon="6.46253">
        <ele>83</ele>
        <time>2022-10-14T14:23:43+02:00</time>
      </trkpt>
      <trkpt lat="43.4185" lon="6.46249">
        <ele>83</ele>
        <time>2022-10-14T14:23:43+02:00</time>
      </trkpt>
      <trkpt lat="43.41852" lon="6.46245">
        <ele>83</ele>
        <time>2022-10-14T14:23:43+02:00</time>
      </trkpt>
      <trkpt lat="43.41854" lon="6.46241">
        <ele>83</ele>
        <time>2022-10-14T14:23:43+02:00</time>
      </trkpt>
      <trkpt lat="43.41856" lon="6.46237">
        <ele>83</ele>
        <time>2022-10-14T14:23:43+02:00</time>
      </trkpt>
      <trkpt lat="43.41857" lon="6.46233">
        <ele>83</ele>
        <time>2022-10-14T14:23:43+02:00</time>
      </trkpt>
      <trkpt lat="43.41859" lon="6.46229">
        <ele>83</ele>
        <time>2022-10-14T14:23:43+02:00</time>
      </trkpt>
      <trkpt lat="43.41861" lon="6.46225">
        <ele>83</ele>
        <time>2022-10-14T14:23:43+02:00</time>
      </trkpt>
      <trkpt lat="43.41862" lon="6.46222">
        <ele>83</ele>
        <time>2022-10-14T14:23:43+02:00</time>
      </trkpt>
      <trkpt lat="43.41864" lon="6.46219">
        <ele>83</ele>
        <time>2022-10-14T14:23:43+02:00</time>
      </trkpt>
      <trkpt lat="43.41866" lon="6.46215">
        <ele>84</ele>
        <time>2022-10-14T14:23:43+02:00</time>
      </trkpt>
      <trkpt lat="43.41868" lon="6.46211">
        <ele>84</ele>
        <time>2022-10-14T14:23:43+02:00</time>
      </trkpt>
      <trkpt lat="43.41869" lon="6.46206">
        <ele>84</ele>
        <time>2022-10-14T14:23:43+02:00</time>
      </trkpt>
      <trkpt lat="43.4187" lon="6.46202">
        <ele>84</ele>
        <time>2022-10-14T14:23:43+02:00</time>
      </trkpt>
      <trkpt lat="43.41872" lon="6.46198">
        <ele>85</ele>
        <time>2022-10-14T14:23:43+02:00</time>
      </trkpt>
      <trkpt lat="43.41873" lon="6.46195">
        <ele>85</ele>
        <time>2022-10-14T14:23:43+02:00</time>
      </trkpt>
      <trkpt lat="43.41875" lon="6.46191">
        <ele>85</ele>
        <time>2022-10-14T14:23:43+02:00</time>
      </trkpt>
      <trkpt lat="43.41877" lon="6.46189">
        <ele>86</ele>
        <time>2022-10-14T14:23:43+02:00</time>
      </trkpt>
      <trkpt lat="43.4188" lon="6.46186">
        <ele>86</ele>
        <time>2022-10-14T14:23:43+02:00</time>
      </trkpt>
      <trkpt lat="43.41882" lon="6.46184">
        <ele>86</ele>
        <time>2022-10-14T14:23:43+02:00</time>
      </trkpt>
      <trkpt lat="43.41884" lon="6.46181">
        <ele>86</ele>
        <time>2022-10-14T14:23:43+02:00</time>
      </trkpt>
      <trkpt lat="43.41886" lon="6.46178">
        <ele>86</ele>
        <time>2022-10-14T14:23:43+02:00</time>
      </trkpt>
      <trkpt lat="43.41888" lon="6.46175">
        <ele>86</ele>
        <time>2022-10-14T14:23:43+02:00</time>
      </trkpt>
      <trkpt lat="43.41891" lon="6.46172">
        <ele>86</ele>
        <time>2022-10-14T14:23:43+02:00</time>
      </trkpt>
      <trkpt lat="43.41893" lon="6.46169">
        <ele>86</ele>
        <time>2022-10-14T14:23:43+02:00</time>
      </trkpt>
      <trkpt lat="43.41895" lon="6.46166">
        <ele>86</ele>
        <time>2022-10-14T14:23:43+02:00</time>
      </trkpt>
      <trkpt lat="43.41896" lon="6.46163">
        <ele>87</ele>
        <time>2022-10-14T14:23:43+02:00</time>
      </trkpt>
      <trkpt lat="43.41897" lon="6.46161">
        <ele>87</ele>
        <time>2022-10-14T14:23:43+02:00</time>
      </trkpt>
      <trkpt lat="43.41899" lon="6.46158">
        <ele>87</ele>
        <time>2022-10-14T14:23:43+02:00</time>
      </trkpt>
      <trkpt lat="43.419" lon="6.46154">
        <ele>87</ele>
        <time>2022-10-14T14:23:43+02:00</time>
      </trkpt>
      <trkpt lat="43.41902" lon="6.46151">
        <ele>87</ele>
        <time>2022-10-14T14:23:43+02:00</time>
      </trkpt>
      <trkpt lat="43.41904" lon="6.46148">
        <ele>87</ele>
        <time>2022-10-14T14:23:43+02:00</time>
      </trkpt>
      <trkpt lat="43.41905" lon="6.46144">
        <ele>87</ele>
        <time>2022-10-14T14:23:43+02:00</time>
      </trkpt>
      <trkpt lat="43.41907" lon="6.46141">
        <ele>88</ele>
        <time>2022-10-14T14:23:43+02:00</time>
      </trkpt>
      <trkpt lat="43.41909" lon="6.46138">
        <ele>89</ele>
        <time>2022-10-14T14:23:43+02:00</time>
      </trkpt>
      <trkpt lat="43.4191" lon="6.46134">
        <ele>89</ele>
        <time>2022-10-14T14:23:43+02:00</time>
      </trkpt>
      <trkpt lat="43.41911" lon="6.46131">
        <ele>89</ele>
        <time>2022-10-14T14:23:43+02:00</time>
      </trkpt>
      <trkpt lat="43.41913" lon="6.46127">
        <ele>89</ele>
        <time>2022-10-14T14:23:43+02:00</time>
      </trkpt>
      <trkpt lat="43.41914" lon="6.46123">
        <ele>89</ele>
        <time>2022-10-14T14:23:43+02:00</time>
      </trkpt>
      <trkpt lat="43.41916" lon="6.46119">
        <ele>89</ele>
        <time>2022-10-14T14:23:43+02:00</time>
      </trkpt>
      <trkpt lat="43.41917" lon="6.46116">
        <ele>89</ele>
        <time>2022-10-14T14:23:43+02:00</time>
      </trkpt>
      <trkpt lat="43.41918" lon="6.46112">
        <ele>89</ele>
        <time>2022-10-14T14:23:43+02:00</time>
      </trkpt>
      <trkpt lat="43.4192" lon="6.46108">
        <ele>90</ele>
        <time>2022-10-14T14:23:43+02:00</time>
      </trkpt>
      <trkpt lat="43.41921" lon="6.46104">
        <ele>90</ele>
        <time>2022-10-14T14:23:43+02:00</time>
      </trkpt>
      <trkpt lat="43.41923" lon="6.461">
        <ele>90</ele>
        <time>2022-10-14T14:23:43+02:00</time>
      </trkpt>
      <trkpt lat="43.41924" lon="6.46097">
        <ele>90</ele>
        <time>2022-10-14T14:23:43+02:00</time>
      </trkpt>
      <trkpt lat="43.41925" lon="6.46093">
        <ele>91</ele>
        <time>2022-10-14T14:23:43+02:00</time>
      </trkpt>
      <trkpt lat="43.41927" lon="6.4609">
        <ele>91</ele>
        <time>2022-10-14T14:23:43+02:00</time>
      </trkpt>
      <trkpt lat="43.41928" lon="6.46087">
        <ele>91</ele>
        <time>2022-10-14T14:23:43+02:00</time>
      </trkpt>
      <trkpt lat="43.4193" lon="6.46084">
        <ele>91</ele>
        <time>2022-10-14T14:23:43+02:00</time>
      </trkpt>
      <trkpt lat="43.41932" lon="6.46081">
        <ele>91</ele>
        <time>2022-10-14T14:23:43+02:00</time>
      </trkpt>
      <trkpt lat="43.41933" lon="6.46077">
        <ele>91</ele>
        <time>2022-10-14T14:23:43+02:00</time>
      </trkpt>
      <trkpt lat="43.41935" lon="6.46075">
        <ele>91</ele>
        <time>2022-10-14T14:23:43+02:00</time>
      </trkpt>
      <trkpt lat="43.41937" lon="6.46073">
        <ele>92</ele>
        <time>2022-10-14T14:23:43+02:00</time>
      </trkpt>
      <trkpt lat="43.41939" lon="6.46071">
        <ele>92</ele>
        <time>2022-10-14T14:23:43+02:00</time>
      </trkpt>
      <trkpt lat="43.41941" lon="6.46069">
        <ele>92</ele>
        <time>2022-10-14T14:23:43+02:00</time>
      </trkpt>
      <trkpt lat="43.41943" lon="6.46067">
        <ele>92</ele>
        <time>2022-10-14T14:23:43+02:00</time>
      </trkpt>
      <trkpt lat="43.41946" lon="6.46064">
        <ele>93</ele>
        <time>2022-10-14T14:23:43+02:00</time>
      </trkpt>
      <trkpt lat="43.41949" lon="6.46062">
        <ele>93</ele>
        <time>2022-10-14T14:23:43+02:00</time>
      </trkpt>
      <trkpt lat="43.41951" lon="6.46059">
        <ele>93</ele>
        <time>2022-10-14T14:23:43+02:00</time>
      </trkpt>
      <trkpt lat="43.41953" lon="6.46056">
        <ele>93</ele>
        <time>2022-10-14T14:23:43+02:00</time>
      </trkpt>
      <trkpt lat="43.41956" lon="6.46053">
        <ele>93</ele>
        <time>2022-10-14T14:23:43+02:00</time>
      </trkpt>
      <trkpt lat="43.41958" lon="6.4605">
        <ele>92</ele>
        <time>2022-10-14T14:23:43+02:00</time>
      </trkpt>
      <trkpt lat="43.41961" lon="6.46047">
        <ele>92</ele>
        <time>2022-10-14T14:23:43+02:00</time>
      </trkpt>
      <trkpt lat="43.41963" lon="6.46044">
        <ele>92</ele>
        <time>2022-10-14T14:23:43+02:00</time>
      </trkpt>
      <trkpt lat="43.41964" lon="6.4604">
        <ele>93</ele>
        <time>2022-10-14T14:23:43+02:00</time>
      </trkpt>
      <trkpt lat="43.41966" lon="6.46037">
        <ele>94</ele>
        <time>2022-10-14T14:23:43+02:00</time>
      </trkpt>
      <trkpt lat="43.41968" lon="6.46034">
        <ele>94</ele>
        <time>2022-10-14T14:23:43+02:00</time>
      </trkpt>
      <trkpt lat="43.4197" lon="6.4603">
        <ele>94</ele>
        <time>2022-10-14T14:23:43+02:00</time>
      </trkpt>
      <trkpt lat="43.41972" lon="6.46027">
        <ele>94</ele>
        <time>2022-10-14T14:23:43+02:00</time>
      </trkpt>
      <trkpt lat="43.41974" lon="6.46024">
        <ele>95</ele>
        <time>2022-10-14T14:23:43+02:00</time>
      </trkpt>
      <trkpt lat="43.41976" lon="6.4602">
        <ele>95</ele>
        <time>2022-10-14T14:23:43+02:00</time>
      </trkpt>
      <trkpt lat="43.41977" lon="6.46016">
        <ele>95</ele>
        <time>2022-10-14T14:23:43+02:00</time>
      </trkpt>
      <trkpt lat="43.41977" lon="6.46012">
        <ele>95</ele>
        <time>2022-10-14T14:23:43+02:00</time>
      </trkpt>
      <trkpt lat="43.41977" lon="6.46007">
        <ele>95</ele>
        <time>2022-10-14T14:23:43+02:00</time>
      </trkpt>
      <trkpt lat="43.41977" lon="6.46002">
        <ele>95</ele>
        <time>2022-10-14T14:23:43+02:00</time>
      </trkpt>
      <trkpt lat="43.41978" lon="6.45996">
        <ele>95</ele>
        <time>2022-10-14T14:23:43+02:00</time>
      </trkpt>
      <trkpt lat="43.41978" lon="6.45991">
        <ele>94</ele>
        <time>2022-10-14T14:23:43+02:00</time>
      </trkpt>
      <trkpt lat="43.41977" lon="6.45986">
        <ele>93</ele>
        <time>2022-10-14T14:23:43+02:00</time>
      </trkpt>
      <trkpt lat="43.41976" lon="6.45981">
        <ele>93</ele>
        <time>2022-10-14T14:23:43+02:00</time>
      </trkpt>
      <trkpt lat="43.41975" lon="6.45976">
        <ele>93</ele>
        <time>2022-10-14T14:23:43+02:00</time>
      </trkpt>
      <trkpt lat="43.41974" lon="6.45971">
        <ele>94</ele>
        <time>2022-10-14T14:23:43+02:00</time>
      </trkpt>
      <trkpt lat="43.41972" lon="6.45966">
        <ele>94</ele>
        <time>2022-10-14T14:23:43+02:00</time>
      </trkpt>
      <trkpt lat="43.41971" lon="6.4596">
        <ele>94</ele>
        <time>2022-10-14T14:23:43+02:00</time>
      </trkpt>
      <trkpt lat="43.4197" lon="6.45955">
        <ele>94</ele>
        <time>2022-10-14T14:23:43+02:00</time>
      </trkpt>
      <trkpt lat="43.41968" lon="6.4595">
        <ele>94</ele>
        <time>2022-10-14T14:23:43+02:00</time>
      </trkpt>
      <trkpt lat="43.41968" lon="6.45945">
        <ele>96</ele>
        <time>2022-10-14T14:23:43+02:00</time>
      </trkpt>
      <trkpt lat="43.41967" lon="6.45941">
        <ele>96</ele>
        <time>2022-10-14T14:23:43+02:00</time>
      </trkpt>
      <trkpt lat="43.41967" lon="6.45937">
        <ele>96</ele>
        <time>2022-10-14T14:23:43+02:00</time>
      </trkpt>
      <trkpt lat="43.41968" lon="6.45933">
        <ele>96</ele>
        <time>2022-10-14T14:23:43+02:00</time>
      </trkpt>
      <trkpt lat="43.41969" lon="6.4593">
        <ele>96</ele>
        <time>2022-10-14T14:23:43+02:00</time>
      </trkpt>
      <trkpt lat="43.4197" lon="6.45926">
        <ele>96</ele>
        <time>2022-10-14T14:23:43+02:00</time>
      </trkpt>
      <trkpt lat="43.41972" lon="6.45923">
        <ele>96</ele>
        <time>2022-10-14T14:23:43+02:00</time>
      </trkpt>
      <trkpt lat="43.41973" lon="6.4592">
        <ele>97</ele>
        <time>2022-10-14T14:23:43+02:00</time>
      </trkpt>
      <trkpt lat="43.41975" lon="6.45917">
        <ele>97</ele>
        <time>2022-10-14T14:23:43+02:00</time>
      </trkpt>
      <trkpt lat="43.41976" lon="6.45914">
        <ele>97</ele>
        <time>2022-10-14T14:23:43+02:00</time>
      </trkpt>
      <trkpt lat="43.41978" lon="6.45912">
        <ele>97</ele>
        <time>2022-10-14T14:23:43+02:00</time>
      </trkpt>
      <trkpt lat="43.41979" lon="6.45909">
        <ele>98</ele>
        <time>2022-10-14T14:23:43+02:00</time>
      </trkpt>
      <trkpt lat="43.41981" lon="6.45907">
        <ele>99</ele>
        <time>2022-10-14T14:23:43+02:00</time>
      </trkpt>
      <trkpt lat="43.41982" lon="6.45905">
        <ele>99</ele>
        <time>2022-10-14T14:23:43+02:00</time>
      </trkpt>
      <trkpt lat="43.41984" lon="6.45903">
        <ele>99</ele>
        <time>2022-10-14T14:23:43+02:00</time>
      </trkpt>
      <trkpt lat="43.41986" lon="6.45901">
        <ele>100</ele>
        <time>2022-10-14T14:23:43+02:00</time>
      </trkpt>
      <trkpt lat="43.41988" lon="6.45899">
        <ele>100</ele>
        <time>2022-10-14T14:23:43+02:00</time>
      </trkpt>
      <trkpt lat="43.4199" lon="6.45896">
        <ele>100</ele>
        <time>2022-10-14T14:23:43+02:00</time>
      </trkpt>
      <trkpt lat="43.41992" lon="6.45894">
        <ele>100</ele>
        <time>2022-10-14T14:23:43+02:00</time>
      </trkpt>
      <trkpt lat="43.41994" lon="6.45891">
        <ele>100</ele>
        <time>2022-10-14T14:23:43+02:00</time>
      </trkpt>
      <trkpt lat="43.41996" lon="6.45888">
        <ele>100</ele>
        <time>2022-10-14T14:23:43+02:00</time>
      </trkpt>
      <trkpt lat="43.41998" lon="6.45885">
        <ele>100</ele>
        <time>2022-10-14T14:23:43+02:00</time>
      </trkpt>
      <trkpt lat="43.42" lon="6.45882">
        <ele>100</ele>
        <time>2022-10-14T14:23:43+02:00</time>
      </trkpt>
      <trkpt lat="43.42001" lon="6.45878">
        <ele>100</ele>
        <time>2022-10-14T14:23:43+02:00</time>
      </trkpt>
      <trkpt lat="43.42003" lon="6.45875">
        <ele>101</ele>
        <time>2022-10-14T14:23:43+02:00</time>
      </trkpt>
      <trkpt lat="43.42005" lon="6.45871">
        <ele>101</ele>
        <time>2022-10-14T14:23:43+02:00</time>
      </trkpt>
      <trkpt lat="43.42006" lon="6.45868">
        <ele>101</ele>
        <time>2022-10-14T14:23:43+02:00</time>
      </trkpt>
      <trkpt lat="43.42008" lon="6.45864">
        <ele>101</ele>
        <time>2022-10-14T14:23:43+02:00</time>
      </trkpt>
      <trkpt lat="43.42009" lon="6.45861">
        <ele>101</ele>
        <time>2022-10-14T14:23:43+02:00</time>
      </trkpt>
      <trkpt lat="43.42011" lon="6.45858">
        <ele>101</ele>
        <time>2022-10-14T14:23:43+02:00</time>
      </trkpt>
      <trkpt lat="43.42013" lon="6.45854">
        <ele>101</ele>
        <time>2022-10-14T14:23:43+02:00</time>
      </trkpt>
      <trkpt lat="43.42014" lon="6.4585">
        <ele>101</ele>
        <time>2022-10-14T14:23:43+02:00</time>
      </trkpt>
      <trkpt lat="43.42015" lon="6.45846">
        <ele>101</ele>
        <time>2022-10-14T14:23:43+02:00</time>
      </trkpt>
      <trkpt lat="43.42015" lon="6.45842">
        <ele>101</ele>
        <time>2022-10-14T14:23:43+02:00</time>
      </trkpt>
      <trkpt lat="43.42016" lon="6.45838">
        <ele>101</ele>
        <time>2022-10-14T14:23:43+02:00</time>
      </trkpt>
      <trkpt lat="43.42016" lon="6.45834">
        <ele>101</ele>
        <time>2022-10-14T14:23:43+02:00</time>
      </trkpt>
      <trkpt lat="43.42017" lon="6.4583">
        <ele>101</ele>
        <time>2022-10-14T14:23:43+02:00</time>
      </trkpt>
      <trkpt lat="43.42018" lon="6.45826">
        <ele>101</ele>
        <time>2022-10-14T14:23:43+02:00</time>
      </trkpt>
      <trkpt lat="43.42019" lon="6.45823">
        <ele>101</ele>
        <time>2022-10-14T14:23:43+02:00</time>
      </trkpt>
      <trkpt lat="43.4202" lon="6.45819">
        <ele>102</ele>
        <time>2022-10-14T14:23:43+02:00</time>
      </trkpt>
      <trkpt lat="43.42022" lon="6.45815">
        <ele>103</ele>
        <time>2022-10-14T14:23:43+02:00</time>
      </trkpt>
      <trkpt lat="43.42023" lon="6.45812">
        <ele>103</ele>
        <time>2022-10-14T14:23:43+02:00</time>
      </trkpt>
      <trkpt lat="43.42024" lon="6.45809">
        <ele>103</ele>
        <time>2022-10-14T14:23:43+02:00</time>
      </trkpt>
      <trkpt lat="43.42025" lon="6.45806">
        <ele>104</ele>
        <time>2022-10-14T14:23:43+02:00</time>
      </trkpt>
      <trkpt lat="43.42026" lon="6.45803">
        <ele>105</ele>
        <time>2022-10-14T14:23:43+02:00</time>
      </trkpt>
      <trkpt lat="43.42027" lon="6.458">
        <ele>105</ele>
        <time>2022-10-14T14:23:43+02:00</time>
      </trkpt>
      <trkpt lat="43.42029" lon="6.45797">
        <ele>105</ele>
        <time>2022-10-14T14:23:43+02:00</time>
      </trkpt>
      <trkpt lat="43.4203" lon="6.45795">
        <ele>106</ele>
        <time>2022-10-14T14:23:43+02:00</time>
      </trkpt>
      <trkpt lat="43.42031" lon="6.45793">
        <ele>106</ele>
        <time>2022-10-14T14:23:43+02:00</time>
      </trkpt>
      <trkpt lat="43.42033" lon="6.4579">
        <ele>106</ele>
        <time>2022-10-14T14:23:43+02:00</time>
      </trkpt>
      <trkpt lat="43.42035" lon="6.45787">
        <ele>106</ele>
        <time>2022-10-14T14:23:43+02:00</time>
      </trkpt>
      <trkpt lat="43.42037" lon="6.45784">
        <ele>106</ele>
        <time>2022-10-14T14:23:43+02:00</time>
      </trkpt>
      <trkpt lat="43.42039" lon="6.45781">
        <ele>106</ele>
        <time>2022-10-14T14:23:43+02:00</time>
      </trkpt>
      <trkpt lat="43.42041" lon="6.45778">
        <ele>106</ele>
        <time>2022-10-14T14:23:43+02:00</time>
      </trkpt>
      <trkpt lat="43.42043" lon="6.45775">
        <ele>106</ele>
        <time>2022-10-14T14:23:43+02:00</time>
      </trkpt>
      <trkpt lat="43.42045" lon="6.45773">
        <ele>107</ele>
        <time>2022-10-14T14:23:43+02:00</time>
      </trkpt>
      <trkpt lat="43.42047" lon="6.4577">
        <ele>107</ele>
        <time>2022-10-14T14:23:43+02:00</time>
      </trkpt>
      <trkpt lat="43.42049" lon="6.45767">
        <ele>107</ele>
        <time>2022-10-14T14:23:43+02:00</time>
      </trkpt>
      <trkpt lat="43.4205" lon="6.45764">
        <ele>107</ele>
        <time>2022-10-14T14:23:43+02:00</time>
      </trkpt>
      <trkpt lat="43.42052" lon="6.45762">
        <ele>107</ele>
        <time>2022-10-14T14:23:43+02:00</time>
      </trkpt>
      <trkpt lat="43.42053" lon="6.45759">
        <ele>109</ele>
        <time>2022-10-14T14:23:43+02:00</time>
      </trkpt>
      <trkpt lat="43.42054" lon="6.45756">
        <ele>109</ele>
        <time>2022-10-14T14:23:43+02:00</time>
      </trkpt>
      <trkpt lat="43.42055" lon="6.45754">
        <ele>109</ele>
        <time>2022-10-14T14:23:43+02:00</time>
      </trkpt>
      <trkpt lat="43.42056" lon="6.45751">
        <ele>110</ele>
        <time>2022-10-14T14:23:43+02:00</time>
      </trkpt>
      <trkpt lat="43.42058" lon="6.45749">
        <ele>110</ele>
        <time>2022-10-14T14:23:43+02:00</time>
      </trkpt>
      <trkpt lat="43.42059" lon="6.45746">
        <ele>110</ele>
        <time>2022-10-14T14:23:43+02:00</time>
      </trkpt>
      <trkpt lat="43.4206" lon="6.45743">
        <ele>110</ele>
        <time>2022-10-14T14:23:43+02:00</time>
      </trkpt>
      <trkpt lat="43.42061" lon="6.45741">
        <ele>110</ele>
        <time>2022-10-14T14:23:43+02:00</time>
      </trkpt>
      <trkpt lat="43.42063" lon="6.45738">
        <ele>111</ele>
        <time>2022-10-14T14:23:43+02:00</time>
      </trkpt>
      <trkpt lat="43.42065" lon="6.45735">
        <ele>111</ele>
        <time>2022-10-14T14:23:43+02:00</time>
      </trkpt>
      <trkpt lat="43.42066" lon="6.45732">
        <ele>111</ele>
        <time>2022-10-14T14:23:43+02:00</time>
      </trkpt>
      <trkpt lat="43.42068" lon="6.45729">
        <ele>111</ele>
        <time>2022-10-14T14:23:43+02:00</time>
      </trkpt>
      <trkpt lat="43.42069" lon="6.45726">
        <ele>111</ele>
        <time>2022-10-14T14:23:43+02:00</time>
      </trkpt>
      <trkpt lat="43.42071" lon="6.45722">
        <ele>111</ele>
        <time>2022-10-14T14:23:43+02:00</time>
      </trkpt>
      <trkpt lat="43.42072" lon="6.45719">
        <ele>111</ele>
        <time>2022-10-14T14:23:43+02:00</time>
      </trkpt>
      <trkpt lat="43.42073" lon="6.45715">
        <ele>111</ele>
        <time>2022-10-14T14:23:43+02:00</time>
      </trkpt>
      <trkpt lat="43.42074" lon="6.45711">
        <ele>111</ele>
        <time>2022-10-14T14:23:43+02:00</time>
      </trkpt>
      <trkpt lat="43.42075" lon="6.45707">
        <ele>111</ele>
        <time>2022-10-14T14:23:43+02:00</time>
      </trkpt>
      <trkpt lat="43.42076" lon="6.45703">
        <ele>111</ele>
        <time>2022-10-14T14:23:43+02:00</time>
      </trkpt>
      <trkpt lat="43.42077" lon="6.45699">
        <ele>111</ele>
        <time>2022-10-14T14:23:43+02:00</time>
      </trkpt>
      <trkpt lat="43.42078" lon="6.45696">
        <ele>112</ele>
        <time>2022-10-14T14:23:43+02:00</time>
      </trkpt>
      <trkpt lat="43.42079" lon="6.45691">
        <ele>112</ele>
        <time>2022-10-14T14:23:43+02:00</time>
      </trkpt>
      <trkpt lat="43.4208" lon="6.45687">
        <ele>112</ele>
        <time>2022-10-14T14:23:43+02:00</time>
      </trkpt>
      <trkpt lat="43.42081" lon="6.45684">
        <ele>112</ele>
        <time>2022-10-14T14:23:43+02:00</time>
      </trkpt>
      <trkpt lat="43.42082" lon="6.4568">
        <ele>112</ele>
        <time>2022-10-14T14:23:43+02:00</time>
      </trkpt>
      <trkpt lat="43.42083" lon="6.45676">
        <ele>112</ele>
        <time>2022-10-14T14:23:43+02:00</time>
      </trkpt>
      <trkpt lat="43.42084" lon="6.45672">
        <ele>112</ele>
        <time>2022-10-14T14:23:43+02:00</time>
      </trkpt>
      <trkpt lat="43.42085" lon="6.45668">
        <ele>112</ele>
        <time>2022-10-14T14:23:43+02:00</time>
      </trkpt>
      <trkpt lat="43.42085" lon="6.45664">
        <ele>114</ele>
        <time>2022-10-14T14:23:43+02:00</time>
      </trkpt>
      <trkpt lat="43.42086" lon="6.45661">
        <ele>114</ele>
        <time>2022-10-14T14:23:43+02:00</time>
      </trkpt>
      <trkpt lat="43.42087" lon="6.45657">
        <ele>114</ele>
        <time>2022-10-14T14:23:43+02:00</time>
      </trkpt>
      <trkpt lat="43.42088" lon="6.45654">
        <ele>114</ele>
        <time>2022-10-14T14:23:43+02:00</time>
      </trkpt>
      <trkpt lat="43.42089" lon="6.45651">
        <ele>115</ele>
        <time>2022-10-14T14:23:43+02:00</time>
      </trkpt>
      <trkpt lat="43.4209" lon="6.45648">
        <ele>115</ele>
        <time>2022-10-14T14:23:43+02:00</time>
      </trkpt>
      <trkpt lat="43.42092" lon="6.45645">
        <ele>115</ele>
        <time>2022-10-14T14:23:43+02:00</time>
      </trkpt>
      <trkpt lat="43.42093" lon="6.45642">
        <ele>114</ele>
        <time>2022-10-14T14:23:43+02:00</time>
      </trkpt>
      <trkpt lat="43.42094" lon="6.4564">
        <ele>115</ele>
        <time>2022-10-14T14:23:43+02:00</time>
      </trkpt>
      <trkpt lat="43.42096" lon="6.45637">
        <ele>115</ele>
        <time>2022-10-14T14:23:43+02:00</time>
      </trkpt>
      <trkpt lat="43.42098" lon="6.45634">
        <ele>115</ele>
        <time>2022-10-14T14:23:43+02:00</time>
      </trkpt>
      <trkpt lat="43.421" lon="6.4563">
        <ele>114</ele>
        <time>2022-10-14T14:23:43+02:00</time>
      </trkpt>
      <trkpt lat="43.42101" lon="6.45627">
        <ele>115</ele>
        <time>2022-10-14T14:23:43+02:00</time>
      </trkpt>
      <trkpt lat="43.42103" lon="6.45624">
        <ele>115</ele>
        <time>2022-10-14T14:23:43+02:00</time>
      </trkpt>
      <trkpt lat="43.42106" lon="6.45621">
        <ele>115</ele>
        <time>2022-10-14T14:23:43+02:00</time>
      </trkpt>
      <trkpt lat="43.42108" lon="6.45617">
        <ele>115</ele>
        <time>2022-10-14T14:23:43+02:00</time>
      </trkpt>
      <trkpt lat="43.4211" lon="6.45614">
        <ele>115</ele>
        <time>2022-10-14T14:23:43+02:00</time>
      </trkpt>
      <trkpt lat="43.42112" lon="6.45611">
        <ele>115</ele>
        <time>2022-10-14T14:23:43+02:00</time>
      </trkpt>
      <trkpt lat="43.42114" lon="6.45608">
        <ele>115</ele>
        <time>2022-10-14T14:23:43+02:00</time>
      </trkpt>
      <trkpt lat="43.42116" lon="6.45606">
        <ele>116</ele>
        <time>2022-10-14T14:23:43+02:00</time>
      </trkpt>
      <trkpt lat="43.42118" lon="6.45604">
        <ele>117</ele>
        <time>2022-10-14T14:23:43+02:00</time>
      </trkpt>
      <trkpt lat="43.4212" lon="6.45601">
        <ele>117</ele>
        <time>2022-10-14T14:23:43+02:00</time>
      </trkpt>
      <trkpt lat="43.42122" lon="6.45597">
        <ele>117</ele>
        <time>2022-10-14T14:23:43+02:00</time>
      </trkpt>
      <trkpt lat="43.42123" lon="6.45593">
        <ele>116</ele>
        <time>2022-10-14T14:23:43+02:00</time>
      </trkpt>
      <trkpt lat="43.42125" lon="6.4559">
        <ele>116</ele>
        <time>2022-10-14T14:23:43+02:00</time>
      </trkpt>
      <trkpt lat="43.42126" lon="6.45586">
        <ele>116</ele>
        <time>2022-10-14T14:23:43+02:00</time>
      </trkpt>
      <trkpt lat="43.42127" lon="6.45583">
        <ele>116</ele>
        <time>2022-10-14T14:23:43+02:00</time>
      </trkpt>
      <trkpt lat="43.42128" lon="6.45579">
        <ele>117</ele>
        <time>2022-10-14T14:23:43+02:00</time>
      </trkpt>
      <trkpt lat="43.42128" lon="6.45575">
        <ele>117</ele>
        <time>2022-10-14T14:23:43+02:00</time>
      </trkpt>
      <trkpt lat="43.42129" lon="6.45572">
        <ele>117</ele>
        <time>2022-10-14T14:23:43+02:00</time>
      </trkpt>
      <trkpt lat="43.4213" lon="6.45568">
        <ele>117</ele>
        <time>2022-10-14T14:23:43+02:00</time>
      </trkpt>
      <trkpt lat="43.4213" lon="6.45564">
        <ele>118</ele>
        <time>2022-10-14T14:23:43+02:00</time>
      </trkpt>
      <trkpt lat="43.4213" lon="6.4556">
        <ele>117</ele>
        <time>2022-10-14T14:23:43+02:00</time>
      </trkpt>
      <trkpt lat="43.4213" lon="6.45555">
        <ele>117</ele>
        <time>2022-10-14T14:23:43+02:00</time>
      </trkpt>
      <trkpt lat="43.4213" lon="6.45552">
        <ele>117</ele>
        <time>2022-10-14T14:23:43+02:00</time>
      </trkpt>
      <trkpt lat="43.42129" lon="6.45548">
        <ele>118</ele>
        <time>2022-10-14T14:23:43+02:00</time>
      </trkpt>
      <trkpt lat="43.42129" lon="6.45544">
        <ele>119</ele>
        <time>2022-10-14T14:23:43+02:00</time>
      </trkpt>
      <trkpt lat="43.42129" lon="6.4554">
        <ele>119</ele>
        <time>2022-10-14T14:23:43+02:00</time>
      </trkpt>
      <trkpt lat="43.42129" lon="6.45536">
        <ele>119</ele>
        <time>2022-10-14T14:23:43+02:00</time>
      </trkpt>
      <trkpt lat="43.42129" lon="6.45531">
        <ele>119</ele>
        <time>2022-10-14T14:23:43+02:00</time>
      </trkpt>
      <trkpt lat="43.42129" lon="6.45527">
        <ele>119</ele>
        <time>2022-10-14T14:23:43+02:00</time>
      </trkpt>
      <trkpt lat="43.42129" lon="6.45523">
        <ele>119</ele>
        <time>2022-10-14T14:23:43+02:00</time>
      </trkpt>
      <trkpt lat="43.42128" lon="6.45519">
        <ele>119</ele>
        <time>2022-10-14T14:23:43+02:00</time>
      </trkpt>
      <trkpt lat="43.42128" lon="6.45515">
        <ele>120</ele>
        <time>2022-10-14T14:23:43+02:00</time>
      </trkpt>
      <trkpt lat="43.42128" lon="6.45511">
        <ele>119</ele>
        <time>2022-10-14T14:23:43+02:00</time>
      </trkpt>
      <trkpt lat="43.42127" lon="6.45507">
        <ele>119</ele>
        <time>2022-10-14T14:23:43+02:00</time>
      </trkpt>
      <trkpt lat="43.42127" lon="6.45503">
        <ele>119</ele>
        <time>2022-10-14T14:23:43+02:00</time>
      </trkpt>
      <trkpt lat="43.42127" lon="6.45499">
        <ele>120</ele>
        <time>2022-10-14T14:23:43+02:00</time>
      </trkpt>
      <trkpt lat="43.42126" lon="6.45495">
        <ele>120</ele>
        <time>2022-10-14T14:23:43+02:00</time>
      </trkpt>
      <trkpt lat="43.42126" lon="6.45491">
        <ele>120</ele>
        <time>2022-10-14T14:23:43+02:00</time>
      </trkpt>
      <trkpt lat="43.42126" lon="6.45486">
        <ele>120</ele>
        <time>2022-10-14T14:23:43+02:00</time>
      </trkpt>
      <trkpt lat="43.42125" lon="6.45483">
        <ele>120</ele>
        <time>2022-10-14T14:23:43+02:00</time>
      </trkpt>
      <trkpt lat="43.42125" lon="6.45479">
        <ele>121</ele>
        <time>2022-10-14T14:23:43+02:00</time>
      </trkpt>
      <trkpt lat="43.42125" lon="6.45475">
        <ele>121</ele>
        <time>2022-10-14T14:23:43+02:00</time>
      </trkpt>
      <trkpt lat="43.42124" lon="6.45472">
        <ele>121</ele>
        <time>2022-10-14T14:23:43+02:00</time>
      </trkpt>
      <trkpt lat="43.42124" lon="6.4547">
        <ele>122</ele>
        <time>2022-10-14T14:23:43+02:00</time>
      </trkpt>
      <trkpt lat="43.42124" lon="6.45468">
        <ele>123</ele>
        <time>2022-10-14T14:23:43+02:00</time>
      </trkpt>
      <trkpt lat="43.42124" lon="6.45466">
        <ele>123</ele>
        <time>2022-10-14T14:23:43+02:00</time>
      </trkpt>
      <trkpt lat="43.42124" lon="6.45463">
        <ele>123</ele>
        <time>2022-10-14T14:23:43+02:00</time>
      </trkpt>
      <trkpt lat="43.42123" lon="6.45461">
        <ele>123</ele>
        <time>2022-10-14T14:23:43+02:00</time>
      </trkpt>
      <trkpt lat="43.42123" lon="6.45458">
        <ele>123</ele>
        <time>2022-10-14T14:23:43+02:00</time>
      </trkpt>
      <trkpt lat="43.42122" lon="6.45454">
        <ele>123</ele>
        <time>2022-10-14T14:23:43+02:00</time>
      </trkpt>
      <trkpt lat="43.42122" lon="6.45451">
        <ele>123</ele>
        <time>2022-10-14T14:23:43+02:00</time>
      </trkpt>
      <trkpt lat="43.42121" lon="6.45447">
        <ele>123</ele>
        <time>2022-10-14T14:23:43+02:00</time>
      </trkpt>
      <trkpt lat="43.42121" lon="6.45443">
        <ele>122</ele>
        <time>2022-10-14T14:23:43+02:00</time>
      </trkpt>
      <trkpt lat="43.4212" lon="6.4544">
        <ele>122</ele>
        <time>2022-10-14T14:23:43+02:00</time>
      </trkpt>
      <trkpt lat="43.4212" lon="6.45436">
        <ele>122</ele>
        <time>2022-10-14T14:23:43+02:00</time>
      </trkpt>
      <trkpt lat="43.42119" lon="6.45432">
        <ele>123</ele>
        <time>2022-10-14T14:23:43+02:00</time>
      </trkpt>
      <trkpt lat="43.42118" lon="6.45428">
        <ele>124</ele>
        <time>2022-10-14T14:23:43+02:00</time>
      </trkpt>
      <trkpt lat="43.42117" lon="6.45424">
        <ele>124</ele>
        <time>2022-10-14T14:23:43+02:00</time>
      </trkpt>
      <trkpt lat="43.42116" lon="6.4542">
        <ele>124</ele>
        <time>2022-10-14T14:23:43+02:00</time>
      </trkpt>
      <trkpt lat="43.42116" lon="6.45416">
        <ele>124</ele>
        <time>2022-10-14T14:23:43+02:00</time>
      </trkpt>
      <trkpt lat="43.42115" lon="6.45412">
        <ele>124</ele>
        <time>2022-10-14T14:23:43+02:00</time>
      </trkpt>
      <trkpt lat="43.42114" lon="6.45407">
        <ele>124</ele>
        <time>2022-10-14T14:23:43+02:00</time>
      </trkpt>
      <trkpt lat="43.42112" lon="6.45403">
        <ele>124</ele>
        <time>2022-10-14T14:23:43+02:00</time>
      </trkpt>
      <trkpt lat="43.42111" lon="6.45398">
        <ele>124</ele>
        <time>2022-10-14T14:23:43+02:00</time>
      </trkpt>
      <trkpt lat="43.42109" lon="6.45393">
        <ele>124</ele>
        <time>2022-10-14T14:23:43+02:00</time>
      </trkpt>
      <trkpt lat="43.42107" lon="6.45389">
        <ele>124</ele>
        <time>2022-10-14T14:23:43+02:00</time>
      </trkpt>
      <trkpt lat="43.42105" lon="6.45384">
        <ele>124</ele>
        <time>2022-10-14T14:23:43+02:00</time>
      </trkpt>
      <trkpt lat="43.42103" lon="6.45379">
        <ele>123</ele>
        <time>2022-10-14T14:23:43+02:00</time>
      </trkpt>
      <trkpt lat="43.42101" lon="6.45373">
        <ele>123</ele>
        <time>2022-10-14T14:23:43+02:00</time>
      </trkpt>
      <trkpt lat="43.421" lon="6.45368">
        <ele>123</ele>
        <time>2022-10-14T14:23:43+02:00</time>
      </trkpt>
      <trkpt lat="43.42099" lon="6.45362">
        <ele>123</ele>
        <time>2022-10-14T14:23:43+02:00</time>
      </trkpt>
      <trkpt lat="43.42098" lon="6.45356">
        <ele>123</ele>
        <time>2022-10-14T14:23:43+02:00</time>
      </trkpt>
      <trkpt lat="43.42097" lon="6.4535">
        <ele>123</ele>
        <time>2022-10-14T14:23:43+02:00</time>
      </trkpt>
      <trkpt lat="43.42096" lon="6.45345">
        <ele>123</ele>
        <time>2022-10-14T14:23:43+02:00</time>
      </trkpt>
      <trkpt lat="43.42096" lon="6.45339">
        <ele>123</ele>
        <time>2022-10-14T14:23:43+02:00</time>
      </trkpt>
      <trkpt lat="43.42094" lon="6.45333">
        <ele>123</ele>
        <time>2022-10-14T14:23:43+02:00</time>
      </trkpt>
      <trkpt lat="43.42094" lon="6.45328">
        <ele>123</ele>
        <time>2022-10-14T14:23:43+02:00</time>
      </trkpt>
      <trkpt lat="43.42093" lon="6.45322">
        <ele>123</ele>
        <time>2022-10-14T14:23:43+02:00</time>
      </trkpt>
      <trkpt lat="43.42092" lon="6.45317">
        <ele>123</ele>
        <time>2022-10-14T14:23:43+02:00</time>
      </trkpt>
      <trkpt lat="43.42092" lon="6.45312">
        <ele>124</ele>
        <time>2022-10-14T14:23:43+02:00</time>
      </trkpt>
      <trkpt lat="43.42091" lon="6.45307">
        <ele>124</ele>
        <time>2022-10-14T14:23:43+02:00</time>
      </trkpt>
      <trkpt lat="43.42091" lon="6.45303">
        <ele>124</ele>
        <time>2022-10-14T14:23:43+02:00</time>
      </trkpt>
      <trkpt lat="43.42091" lon="6.45298">
        <ele>124</ele>
        <time>2022-10-14T14:23:43+02:00</time>
      </trkpt>
      <trkpt lat="43.42091" lon="6.45294">
        <ele>124</ele>
        <time>2022-10-14T14:23:43+02:00</time>
      </trkpt>
      <trkpt lat="43.42091" lon="6.4529">
        <ele>123</ele>
        <time>2022-10-14T14:23:43+02:00</time>
      </trkpt>
      <trkpt lat="43.4209" lon="6.45286">
        <ele>123</ele>
        <time>2022-10-14T14:23:43+02:00</time>
      </trkpt>
      <trkpt lat="43.4209" lon="6.45283">
        <ele>123</ele>
        <time>2022-10-14T14:23:43+02:00</time>
      </trkpt>
      <trkpt lat="43.4209" lon="6.4528">
        <ele>123</ele>
        <time>2022-10-14T14:23:43+02:00</time>
      </trkpt>
      <trkpt lat="43.42089" lon="6.45276">
        <ele>122</ele>
        <time>2022-10-14T14:23:43+02:00</time>
      </trkpt>
      <trkpt lat="43.42089" lon="6.45272">
        <ele>122</ele>
        <time>2022-10-14T14:23:43+02:00</time>
      </trkpt>
      <trkpt lat="43.42089" lon="6.45268">
        <ele>122</ele>
        <time>2022-10-14T14:23:43+02:00</time>
      </trkpt>
      <trkpt lat="43.42089" lon="6.45265">
        <ele>123</ele>
        <time>2022-10-14T14:23:43+02:00</time>
      </trkpt>
      <trkpt lat="43.4209" lon="6.45261">
        <ele>123</ele>
        <time>2022-10-14T14:23:43+02:00</time>
      </trkpt>
      <trkpt lat="43.4209" lon="6.45257">
        <ele>123</ele>
        <time>2022-10-14T14:23:43+02:00</time>
      </trkpt>
      <trkpt lat="43.42089" lon="6.45252">
        <ele>123</ele>
        <time>2022-10-14T14:23:43+02:00</time>
      </trkpt>
      <trkpt lat="43.42089" lon="6.45248">
        <ele>122</ele>
        <time>2022-10-14T14:23:43+02:00</time>
      </trkpt>
      <trkpt lat="43.42089" lon="6.45243">
        <ele>120</ele>
        <time>2022-10-14T14:23:43+02:00</time>
      </trkpt>
      <trkpt lat="43.42089" lon="6.45237">
        <ele>120</ele>
        <time>2022-10-14T14:23:43+02:00</time>
      </trkpt>
      <trkpt lat="43.4209" lon="6.45232">
        <ele>120</ele>
        <time>2022-10-14T14:23:43+02:00</time>
      </trkpt>
      <trkpt lat="43.42092" lon="6.45226">
        <ele>120</ele>
        <time>2022-10-14T14:23:43+02:00</time>
      </trkpt>
      <trkpt lat="43.42094" lon="6.4522">
        <ele>119</ele>
        <time>2022-10-14T14:23:43+02:00</time>
      </trkpt>
      <trkpt lat="43.42096" lon="6.45214">
        <ele>119</ele>
        <time>2022-10-14T14:23:43+02:00</time>
      </trkpt>
      <trkpt lat="43.42099" lon="6.45208">
        <ele>119</ele>
        <time>2022-10-14T14:23:43+02:00</time>
      </trkpt>
      <trkpt lat="43.42102" lon="6.45202">
        <ele>119</ele>
        <time>2022-10-14T14:23:43+02:00</time>
      </trkpt>
      <trkpt lat="43.42105" lon="6.45195">
        <ele>117</ele>
        <time>2022-10-14T14:23:43+02:00</time>
      </trkpt>
      <trkpt lat="43.42108" lon="6.45188">
        <ele>117</ele>
        <time>2022-10-14T14:23:43+02:00</time>
      </trkpt>
      <trkpt lat="43.42112" lon="6.45182">
        <ele>117</ele>
        <time>2022-10-14T14:23:43+02:00</time>
      </trkpt>
      <trkpt lat="43.42116" lon="6.45175">
        <ele>116</ele>
        <time>2022-10-14T14:23:43+02:00</time>
      </trkpt>
      <trkpt lat="43.4212" lon="6.45168">
        <ele>111</ele>
        <time>2022-10-14T14:23:43+02:00</time>
      </trkpt>
      <trkpt lat="43.42124" lon="6.4516">
        <ele>111</ele>
        <time>2022-10-14T14:23:43+02:00</time>
      </trkpt>
      <trkpt lat="43.42129" lon="6.45152">
        <ele>111</ele>
        <time>2022-10-14T14:23:43+02:00</time>
      </trkpt>
      <trkpt lat="43.42134" lon="6.45143">
        <ele>111</ele>
        <time>2022-10-14T14:23:43+02:00</time>
      </trkpt>
      <trkpt lat="43.4214" lon="6.45134">
        <ele>105</ele>
        <time>2022-10-14T14:23:43+02:00</time>
      </trkpt>
      <trkpt lat="43.42146" lon="6.45124">
        <ele>105</ele>
        <time>2022-10-14T14:23:43+02:00</time>
      </trkpt>
      <trkpt lat="43.42152" lon="6.45113">
        <ele>105</ele>
        <time>2022-10-14T14:23:43+02:00</time>
      </trkpt>
      <trkpt lat="43.42159" lon="6.45101">
        <ele>104</ele>
        <time>2022-10-14T14:23:43+02:00</time>
      </trkpt>
      <trkpt lat="43.42166" lon="6.45089">
        <ele>101</ele>
        <time>2022-10-14T14:23:43+02:00</time>
      </trkpt>
      <trkpt lat="43.42172" lon="6.45077">
        <ele>101</ele>
        <time>2022-10-14T14:23:43+02:00</time>
      </trkpt>
      <trkpt lat="43.42179" lon="6.45066">
        <ele>101</ele>
        <time>2022-10-14T14:23:43+02:00</time>
      </trkpt>
      <trkpt lat="43.42186" lon="6.45054">
        <ele>101</ele>
        <time>2022-10-14T14:23:43+02:00</time>
      </trkpt>
      <trkpt lat="43.42194" lon="6.45044">
        <ele>99</ele>
        <time>2022-10-14T14:23:43+02:00</time>
      </trkpt>
      <trkpt lat="43.42202" lon="6.45035">
        <ele>99</ele>
        <time>2022-10-14T14:23:43+02:00</time>
      </trkpt>
      <trkpt lat="43.4221" lon="6.45025">
        <ele>99</ele>
        <time>2022-10-14T14:23:43+02:00</time>
      </trkpt>
      <trkpt lat="43.42218" lon="6.45017">
        <ele>98</ele>
        <time>2022-10-14T14:23:43+02:00</time>
      </trkpt>
      <trkpt lat="43.42225" lon="6.45009">
        <ele>99</ele>
        <time>2022-10-14T14:23:43+02:00</time>
      </trkpt>
      <trkpt lat="43.42231" lon="6.45">
        <ele>99</ele>
        <time>2022-10-14T14:23:43+02:00</time>
      </trkpt>
      <trkpt lat="43.42237" lon="6.44989">
        <ele>99</ele>
        <time>2022-10-14T14:23:43+02:00</time>
      </trkpt>
      <trkpt lat="43.42242" lon="6.44978">
        <ele>98</ele>
        <time>2022-10-14T14:23:43+02:00</time>
      </trkpt>
      <trkpt lat="43.42247" lon="6.44967">
        <ele>94</ele>
        <time>2022-10-14T14:23:43+02:00</time>
      </trkpt>
      <trkpt lat="43.42252" lon="6.44956">
        <ele>94</ele>
        <time>2022-10-14T14:23:43+02:00</time>
      </trkpt>
      <trkpt lat="43.42258" lon="6.44944">
        <ele>94</ele>
        <time>2022-10-14T14:23:43+02:00</time>
      </trkpt>
      <trkpt lat="43.42264" lon="6.44932">
        <ele>93</ele>
        <time>2022-10-14T14:23:43+02:00</time>
      </trkpt>
      <trkpt lat="43.4227" lon="6.44921">
        <ele>91</ele>
        <time>2022-10-14T14:23:43+02:00</time>
      </trkpt>
      <trkpt lat="43.42276" lon="6.44909">
        <ele>91</ele>
        <time>2022-10-14T14:23:43+02:00</time>
      </trkpt>
      <trkpt lat="43.42281" lon="6.44899">
        <ele>91</ele>
        <time>2022-10-14T14:23:43+02:00</time>
      </trkpt>
      <trkpt lat="43.42287" lon="6.44889">
        <ele>91</ele>
        <time>2022-10-14T14:23:43+02:00</time>
      </trkpt>
      <trkpt lat="43.42293" lon="6.44879">
        <ele>93</ele>
        <time>2022-10-14T14:23:43+02:00</time>
      </trkpt>
      <trkpt lat="43.423" lon="6.4487">
        <ele>93</ele>
        <time>2022-10-14T14:23:43+02:00</time>
      </trkpt>
      <trkpt lat="43.42307" lon="6.44861">
        <ele>93</ele>
        <time>2022-10-14T14:23:43+02:00</time>
      </trkpt>
      <trkpt lat="43.42314" lon="6.44851">
        <ele>93</ele>
        <time>2022-10-14T14:23:43+02:00</time>
      </trkpt>
      <trkpt lat="43.42319" lon="6.44841">
        <ele>90</ele>
        <time>2022-10-14T14:23:43+02:00</time>
      </trkpt>
      <trkpt lat="43.42325" lon="6.4483">
        <ele>90</ele>
        <time>2022-10-14T14:23:43+02:00</time>
      </trkpt>
      <trkpt lat="43.4233" lon="6.44819">
        <ele>90</ele>
        <time>2022-10-14T14:23:43+02:00</time>
      </trkpt>
      <trkpt lat="43.42335" lon="6.44807">
        <ele>89</ele>
        <time>2022-10-14T14:23:43+02:00</time>
      </trkpt>
      <trkpt lat="43.42341" lon="6.44797">
        <ele>87</ele>
        <time>2022-10-14T14:23:43+02:00</time>
      </trkpt>
      <trkpt lat="43.42347" lon="6.44787">
        <ele>87</ele>
        <time>2022-10-14T14:23:43+02:00</time>
      </trkpt>
      <trkpt lat="43.42354" lon="6.44778">
        <ele>87</ele>
        <time>2022-10-14T14:23:43+02:00</time>
      </trkpt>
      <trkpt lat="43.4236" lon="6.44769">
        <ele>87</ele>
        <time>2022-10-14T14:23:43+02:00</time>
      </trkpt>
      <trkpt lat="43.42366" lon="6.44761">
        <ele>89</ele>
        <time>2022-10-14T14:23:43+02:00</time>
      </trkpt>
      <trkpt lat="43.42371" lon="6.44753">
        <ele>89</ele>
        <time>2022-10-14T14:23:43+02:00</time>
      </trkpt>
      <trkpt lat="43.42376" lon="6.44746">
        <ele>89</ele>
        <time>2022-10-14T14:23:43+02:00</time>
      </trkpt>
      <trkpt lat="43.4238" lon="6.44738">
        <ele>89</ele>
        <time>2022-10-14T14:23:43+02:00</time>
      </trkpt>
      <trkpt lat="43.42383" lon="6.4473">
        <ele>89</ele>
        <time>2022-10-14T14:23:43+02:00</time>
      </trkpt>
      <trkpt lat="43.42387" lon="6.44723">
        <ele>89</ele>
        <time>2022-10-14T14:23:43+02:00</time>
      </trkpt>
      <trkpt lat="43.42391" lon="6.44716">
        <ele>89</ele>
        <time>2022-10-14T14:23:43+02:00</time>
      </trkpt>
      <trkpt lat="43.42395" lon="6.44708">
        <ele>89</ele>
        <time>2022-10-14T14:23:43+02:00</time>
      </trkpt>
      <trkpt lat="43.424" lon="6.44702">
        <ele>87</ele>
        <time>2022-10-14T14:23:43+02:00</time>
      </trkpt>
      <trkpt lat="43.42405" lon="6.44697">
        <ele>87</ele>
        <time>2022-10-14T14:23:43+02:00</time>
      </trkpt>
      <trkpt lat="43.42411" lon="6.44696">
        <ele>87</ele>
        <time>2022-10-14T14:23:43+02:00</time>
      </trkpt>
      <trkpt lat="43.42419" lon="6.44699">
        <ele>86</ele>
        <time>2022-10-14T14:23:43+02:00</time>
      </trkpt>
      <trkpt lat="43.42426" lon="6.44704">
        <ele>83</ele>
        <time>2022-10-14T14:23:43+02:00</time>
      </trkpt>
      <trkpt lat="43.42434" lon="6.44709">
        <ele>83</ele>
        <time>2022-10-14T14:23:43+02:00</time>
      </trkpt>
      <trkpt lat="43.42443" lon="6.44712">
        <ele>83</ele>
        <time>2022-10-14T14:23:43+02:00</time>
      </trkpt>
      <trkpt lat="43.42453" lon="6.44712">
        <ele>82</ele>
        <time>2022-10-14T14:23:43+02:00</time>
      </trkpt>
      <trkpt lat="43.42463" lon="6.44711">
        <ele>78</ele>
        <time>2022-10-14T14:23:43+02:00</time>
      </trkpt>
      <trkpt lat="43.42472" lon="6.44709">
        <ele>78</ele>
        <time>2022-10-14T14:23:43+02:00</time>
      </trkpt>
      <trkpt lat="43.4248" lon="6.44703">
        <ele>78</ele>
        <time>2022-10-14T14:23:43+02:00</time>
      </trkpt>
      <trkpt lat="43.42488" lon="6.44697">
        <ele>77</ele>
        <time>2022-10-14T14:23:43+02:00</time>
      </trkpt>
      <trkpt lat="43.42496" lon="6.44695">
        <ele>76</ele>
        <time>2022-10-14T14:23:43+02:00</time>
      </trkpt>
      <trkpt lat="43.42506" lon="6.44695">
        <ele>76</ele>
        <time>2022-10-14T14:23:43+02:00</time>
      </trkpt>
      <trkpt lat="43.42515" lon="6.44695">
        <ele>76</ele>
        <time>2022-10-14T14:23:43+02:00</time>
      </trkpt>
      <trkpt lat="43.42524" lon="6.44691">
        <ele>76</ele>
        <time>2022-10-14T14:23:43+02:00</time>
      </trkpt>
      <trkpt lat="43.42533" lon="6.44685">
        <ele>74</ele>
        <time>2022-10-14T14:23:43+02:00</time>
      </trkpt>
      <trkpt lat="43.42541" lon="6.44681">
        <ele>74</ele>
        <time>2022-10-14T14:23:43+02:00</time>
      </trkpt>
      <trkpt lat="43.42549" lon="6.44677">
        <ele>74</ele>
        <time>2022-10-14T14:23:43+02:00</time>
      </trkpt>
      <trkpt lat="43.42556" lon="6.44676">
        <ele>75</ele>
        <time>2022-10-14T14:23:43+02:00</time>
      </trkpt>
      <trkpt lat="43.42563" lon="6.44675">
        <ele>77</ele>
        <time>2022-10-14T14:23:43+02:00</time>
      </trkpt>
      <trkpt lat="43.42569" lon="6.44675">
        <ele>77</ele>
        <time>2022-10-14T14:23:43+02:00</time>
      </trkpt>
      <trkpt lat="43.42574" lon="6.44675">
        <ele>77</ele>
        <time>2022-10-14T14:23:43+02:00</time>
      </trkpt>
      <trkpt lat="43.42578" lon="6.44675">
        <ele>78</ele>
        <time>2022-10-14T14:23:43+02:00</time>
      </trkpt>
      <trkpt lat="43.42582" lon="6.44675">
        <ele>81</ele>
        <time>2022-10-14T14:23:43+02:00</time>
      </trkpt>
      <trkpt lat="43.42586" lon="6.44675">
        <ele>81</ele>
        <time>2022-10-14T14:23:43+02:00</time>
      </trkpt>
      <trkpt lat="43.42589" lon="6.44676">
        <ele>81</ele>
        <time>2022-10-14T14:23:43+02:00</time>
      </trkpt>
      <trkpt lat="43.42592" lon="6.44676">
        <ele>82</ele>
        <time>2022-10-14T14:23:43+02:00</time>
      </trkpt>
      <trkpt lat="43.42595" lon="6.44677">
        <ele>84</ele>
        <time>2022-10-14T14:23:43+02:00</time>
      </trkpt>
      <trkpt lat="43.42598" lon="6.44677">
        <ele>84</ele>
        <time>2022-10-14T14:23:43+02:00</time>
      </trkpt>
      <trkpt lat="43.42601" lon="6.44678">
        <ele>84</ele>
        <time>2022-10-14T14:23:43+02:00</time>
      </trkpt>
      <trkpt lat="43.42605" lon="6.44679">
        <ele>84</ele>
        <time>2022-10-14T14:23:43+02:00</time>
      </trkpt>
      <trkpt lat="43.42609" lon="6.44679">
        <ele>84</ele>
        <time>2022-10-14T14:23:43+02:00</time>
      </trkpt>
      <trkpt lat="43.42612" lon="6.44678">
        <ele>84</ele>
        <time>2022-10-14T14:23:43+02:00</time>
      </trkpt>
      <trkpt lat="43.42616" lon="6.44677">
        <ele>84</ele>
        <time>2022-10-14T14:23:43+02:00</time>
      </trkpt>
      <trkpt lat="43.4262" lon="6.44676">
        <ele>85</ele>
        <time>2022-10-14T14:23:43+02:00</time>
      </trkpt>
      <trkpt lat="43.42624" lon="6.44675">
        <ele>85</ele>
        <time>2022-10-14T14:23:43+02:00</time>
      </trkpt>
      <trkpt lat="43.42627" lon="6.44673">
        <ele>85</ele>
        <time>2022-10-14T14:23:43+02:00</time>
      </trkpt>
      <trkpt lat="43.42631" lon="6.44671">
        <ele>85</ele>
        <time>2022-10-14T14:23:43+02:00</time>
      </trkpt>
      <trkpt lat="43.42634" lon="6.44669">
        <ele>84</ele>
        <time>2022-10-14T14:23:43+02:00</time>
      </trkpt>
      <trkpt lat="43.42638" lon="6.44667">
        <ele>85</ele>
        <time>2022-10-14T14:23:43+02:00</time>
      </trkpt>
      <trkpt lat="43.42641" lon="6.44664">
        <ele>85</ele>
        <time>2022-10-14T14:23:43+02:00</time>
      </trkpt>
      <trkpt lat="43.42645" lon="6.4466">
        <ele>85</ele>
        <time>2022-10-14T14:23:43+02:00</time>
      </trkpt>
      <trkpt lat="43.42648" lon="6.44656">
        <ele>84</ele>
        <time>2022-10-14T14:23:43+02:00</time>
      </trkpt>
      <trkpt lat="43.42651" lon="6.44652">
        <ele>83</ele>
        <time>2022-10-14T14:23:43+02:00</time>
      </trkpt>
      <trkpt lat="43.42654" lon="6.44646">
        <ele>83</ele>
        <time>2022-10-14T14:23:43+02:00</time>
      </trkpt>
      <trkpt lat="43.42657" lon="6.44641">
        <ele>83</ele>
        <time>2022-10-14T14:23:43+02:00</time>
      </trkpt>
      <trkpt lat="43.42659" lon="6.44635">
        <ele>82</ele>
        <time>2022-10-14T14:23:43+02:00</time>
      </trkpt>
      <trkpt lat="43.42662" lon="6.44629">
        <ele>82</ele>
        <time>2022-10-14T14:23:43+02:00</time>
      </trkpt>
      <trkpt lat="43.42665" lon="6.44623">
        <ele>82</ele>
        <time>2022-10-14T14:23:43+02:00</time>
      </trkpt>
      <trkpt lat="43.42668" lon="6.44616">
        <ele>82</ele>
        <time>2022-10-14T14:23:43+02:00</time>
      </trkpt>
      <trkpt lat="43.42671" lon="6.4461">
        <ele>82</ele>
        <time>2022-10-14T14:23:43+02:00</time>
      </trkpt>
      <trkpt lat="43.42674" lon="6.44603">
        <ele>81</ele>
        <time>2022-10-14T14:23:43+02:00</time>
      </trkpt>
      <trkpt lat="43.42677" lon="6.44596">
        <ele>81</ele>
        <time>2022-10-14T14:23:43+02:00</time>
      </trkpt>
      <trkpt lat="43.42681" lon="6.44588">
        <ele>81</ele>
        <time>2022-10-14T14:23:43+02:00</time>
      </trkpt>
      <trkpt lat="43.42684" lon="6.44581">
        <ele>81</ele>
        <time>2022-10-14T14:23:43+02:00</time>
      </trkpt>
      <trkpt lat="43.42687" lon="6.44574">
        <ele>81</ele>
        <time>2022-10-14T14:23:43+02:00</time>
      </trkpt>
      <trkpt lat="43.42691" lon="6.44567">
        <ele>81</ele>
        <time>2022-10-14T14:23:43+02:00</time>
      </trkpt>
      <trkpt lat="43.42696" lon="6.44561">
        <ele>81</ele>
        <time>2022-10-14T14:23:43+02:00</time>
      </trkpt>
      <trkpt lat="43.427" lon="6.44553">
        <ele>80</ele>
        <time>2022-10-14T14:23:43+02:00</time>
      </trkpt>
      <trkpt lat="43.42702" lon="6.44545">
        <ele>78</ele>
        <time>2022-10-14T14:23:43+02:00</time>
      </trkpt>
      <trkpt lat="43.42704" lon="6.44536">
        <ele>78</ele>
        <time>2022-10-14T14:23:43+02:00</time>
      </trkpt>
      <trkpt lat="43.42708" lon="6.44528">
        <ele>78</ele>
        <time>2022-10-14T14:23:43+02:00</time>
      </trkpt>
      <trkpt lat="43.42711" lon="6.44521">
        <ele>78</ele>
        <time>2022-10-14T14:23:43+02:00</time>
      </trkpt>
      <trkpt lat="43.42715" lon="6.44513">
        <ele>76</ele>
        <time>2022-10-14T14:23:43+02:00</time>
      </trkpt>
      <trkpt lat="43.42719" lon="6.44505">
        <ele>76</ele>
        <time>2022-10-14T14:23:43+02:00</time>
      </trkpt>
      <trkpt lat="43.42723" lon="6.44496">
        <ele>76</ele>
        <time>2022-10-14T14:23:43+02:00</time>
      </trkpt>
      <trkpt lat="43.42727" lon="6.44488">
        <ele>77</ele>
        <time>2022-10-14T14:23:43+02:00</time>
      </trkpt>
      <trkpt lat="43.42731" lon="6.4448">
        <ele>75</ele>
        <time>2022-10-14T14:23:43+02:00</time>
      </trkpt>
      <trkpt lat="43.42735" lon="6.44471">
        <ele>75</ele>
        <time>2022-10-14T14:23:43+02:00</time>
      </trkpt>
      <trkpt lat="43.4274" lon="6.44463">
        <ele>75</ele>
        <time>2022-10-14T14:23:43+02:00</time>
      </trkpt>
      <trkpt lat="43.42744" lon="6.44454">
        <ele>74</ele>
        <time>2022-10-14T14:23:43+02:00</time>
      </trkpt>
      <trkpt lat="43.42748" lon="6.44445">
        <ele>72</ele>
        <time>2022-10-14T14:23:43+02:00</time>
      </trkpt>
      <trkpt lat="43.42752" lon="6.44436">
        <ele>72</ele>
        <time>2022-10-14T14:23:43+02:00</time>
      </trkpt>
      <trkpt lat="43.42756" lon="6.44427">
        <ele>72</ele>
        <time>2022-10-14T14:23:43+02:00</time>
      </trkpt>
      <trkpt lat="43.4276" lon="6.44418">
        <ele>72</ele>
        <time>2022-10-14T14:23:43+02:00</time>
      </trkpt>
      <trkpt lat="43.42764" lon="6.44408">
        <ele>72</ele>
        <time>2022-10-14T14:23:43+02:00</time>
      </trkpt>
      <trkpt lat="43.42767" lon="6.44399">
        <ele>72</ele>
        <time>2022-10-14T14:23:43+02:00</time>
      </trkpt>
      <trkpt lat="43.4277" lon="6.44389">
        <ele>72</ele>
        <time>2022-10-14T14:23:43+02:00</time>
      </trkpt>
      <trkpt lat="43.42773" lon="6.44379">
        <ele>71</ele>
        <time>2022-10-14T14:23:43+02:00</time>
      </trkpt>
      <trkpt lat="43.42775" lon="6.44368">
        <ele>71</ele>
        <time>2022-10-14T14:23:43+02:00</time>
      </trkpt>
      <trkpt lat="43.42776" lon="6.44357">
        <ele>71</ele>
        <time>2022-10-14T14:23:43+02:00</time>
      </trkpt>
      <trkpt lat="43.42776" lon="6.44346">
        <ele>71</ele>
        <time>2022-10-14T14:23:43+02:00</time>
      </trkpt>
      <trkpt lat="43.42775" lon="6.44335">
        <ele>71</ele>
        <time>2022-10-14T14:23:43+02:00</time>
      </trkpt>
      <trkpt lat="43.42773" lon="6.44324">
        <ele>70</ele>
        <time>2022-10-14T14:23:43+02:00</time>
      </trkpt>
      <trkpt lat="43.42771" lon="6.44314">
        <ele>70</ele>
        <time>2022-10-14T14:23:43+02:00</time>
      </trkpt>
      <trkpt lat="43.42769" lon="6.44304">
        <ele>70</ele>
        <time>2022-10-14T14:23:43+02:00</time>
      </trkpt>
      <trkpt lat="43.42767" lon="6.44293">
        <ele>70</ele>
        <time>2022-10-14T14:23:43+02:00</time>
      </trkpt>
      <trkpt lat="43.42765" lon="6.44283">
        <ele>69</ele>
        <time>2022-10-14T14:23:43+02:00</time>
      </trkpt>
      <trkpt lat="43.42763" lon="6.44273">
        <ele>69</ele>
        <time>2022-10-14T14:23:43+02:00</time>
      </trkpt>
      <trkpt lat="43.4276" lon="6.44263">
        <ele>69</ele>
        <time>2022-10-14T14:23:43+02:00</time>
      </trkpt>
      <trkpt lat="43.42759" lon="6.44252">
        <ele>68</ele>
        <time>2022-10-14T14:23:43+02:00</time>
      </trkpt>
      <trkpt lat="43.42758" lon="6.44241">
        <ele>65</ele>
        <time>2022-10-14T14:23:43+02:00</time>
      </trkpt>
      <trkpt lat="43.42758" lon="6.4423">
        <ele>65</ele>
        <time>2022-10-14T14:23:43+02:00</time>
      </trkpt>
      <trkpt lat="43.42759" lon="6.44218">
        <ele>65</ele>
        <time>2022-10-14T14:23:43+02:00</time>
      </trkpt>
      <trkpt lat="43.42761" lon="6.44206">
        <ele>65</ele>
        <time>2022-10-14T14:23:43+02:00</time>
      </trkpt>
      <trkpt lat="43.42763" lon="6.44194">
        <ele>64</ele>
        <time>2022-10-14T14:23:43+02:00</time>
      </trkpt>
      <trkpt lat="43.42766" lon="6.44182">
        <ele>64</ele>
        <time>2022-10-14T14:23:43+02:00</time>
      </trkpt>
      <trkpt lat="43.4277" lon="6.44171">
        <ele>64</ele>
        <time>2022-10-14T14:23:43+02:00</time>
      </trkpt>
      <trkpt lat="43.42774" lon="6.44161">
        <ele>63</ele>
        <time>2022-10-14T14:23:43+02:00</time>
      </trkpt>
      <trkpt lat="43.42778" lon="6.44151">
        <ele>63</ele>
        <time>2022-10-14T14:23:43+02:00</time>
      </trkpt>
      <trkpt lat="43.42782" lon="6.44141">
        <ele>63</ele>
        <time>2022-10-14T14:23:43+02:00</time>
      </trkpt>
      <trkpt lat="43.42787" lon="6.44132">
        <ele>63</ele>
        <time>2022-10-14T14:23:43+02:00</time>
      </trkpt>
      <trkpt lat="43.42793" lon="6.44124">
        <ele>63</ele>
        <time>2022-10-14T14:23:43+02:00</time>
      </trkpt>
      <trkpt lat="43.42798" lon="6.44116">
        <ele>61</ele>
        <time>2022-10-14T14:23:43+02:00</time>
      </trkpt>
      <trkpt lat="43.42803" lon="6.44109">
        <ele>61</ele>
        <time>2022-10-14T14:23:43+02:00</time>
      </trkpt>
      <trkpt lat="43.42808" lon="6.44102">
        <ele>61</ele>
        <time>2022-10-14T14:23:43+02:00</time>
      </trkpt>
      <trkpt lat="43.42812" lon="6.44094">
        <ele>62</ele>
        <time>2022-10-14T14:23:43+02:00</time>
      </trkpt>
      <trkpt lat="43.42817" lon="6.44087">
        <ele>62</ele>
        <time>2022-10-14T14:23:43+02:00</time>
      </trkpt>
      <trkpt lat="43.42822" lon="6.44081">
        <ele>62</ele>
        <time>2022-10-14T14:23:43+02:00</time>
      </trkpt>
      <trkpt lat="43.42827" lon="6.44074">
        <ele>62</ele>
        <time>2022-10-14T14:23:43+02:00</time>
      </trkpt>
      <trkpt lat="43.42832" lon="6.44068">
        <ele>62</ele>
        <time>2022-10-14T14:23:43+02:00</time>
      </trkpt>
      <trkpt lat="43.42838" lon="6.44062">
        <ele>60</ele>
        <time>2022-10-14T14:23:43+02:00</time>
      </trkpt>
      <trkpt lat="43.42844" lon="6.44057">
        <ele>60</ele>
        <time>2022-10-14T14:23:43+02:00</time>
      </trkpt>
      <trkpt lat="43.42851" lon="6.44053">
        <ele>60</ele>
        <time>2022-10-14T14:23:43+02:00</time>
      </trkpt>
      <trkpt lat="43.42857" lon="6.44049">
        <ele>61</ele>
        <time>2022-10-14T14:23:43+02:00</time>
      </trkpt>
      <trkpt lat="43.42864" lon="6.44045">
        <ele>62</ele>
        <time>2022-10-14T14:23:43+02:00</time>
      </trkpt>
      <trkpt lat="43.42871" lon="6.44041">
        <ele>62</ele>
        <time>2022-10-14T14:23:43+02:00</time>
      </trkpt>
      <trkpt lat="43.42877" lon="6.44036">
        <ele>62</ele>
        <time>2022-10-14T14:23:43+02:00</time>
      </trkpt>
      <trkpt lat="43.42884" lon="6.44031">
        <ele>61</ele>
        <time>2022-10-14T14:23:43+02:00</time>
      </trkpt>
      <trkpt lat="43.4289" lon="6.44026">
        <ele>61</ele>
        <time>2022-10-14T14:23:43+02:00</time>
      </trkpt>
      <trkpt lat="43.42896" lon="6.4402">
        <ele>61</ele>
        <time>2022-10-14T14:23:43+02:00</time>
      </trkpt>
      <trkpt lat="43.42902" lon="6.44014">
        <ele>61</ele>
        <time>2022-10-14T14:23:43+02:00</time>
      </trkpt>
      <trkpt lat="43.42907" lon="6.44008">
        <ele>61</ele>
        <time>2022-10-14T14:23:43+02:00</time>
      </trkpt>
      <trkpt lat="43.42913" lon="6.44002">
        <ele>59</ele>
        <time>2022-10-14T14:23:43+02:00</time>
      </trkpt>
      <trkpt lat="43.42919" lon="6.43996">
        <ele>59</ele>
        <time>2022-10-14T14:23:43+02:00</time>
      </trkpt>
      <trkpt lat="43.42925" lon="6.43989">
        <ele>59</ele>
        <time>2022-10-14T14:23:43+02:00</time>
      </trkpt>
      <trkpt lat="43.4293" lon="6.43983">
        <ele>60</ele>
        <time>2022-10-14T14:23:43+02:00</time>
      </trkpt>
      <trkpt lat="43.42935" lon="6.43976">
        <ele>60</ele>
        <time>2022-10-14T14:23:43+02:00</time>
      </trkpt>
      <trkpt lat="43.4294" lon="6.43969">
        <ele>60</ele>
        <time>2022-10-14T14:23:43+02:00</time>
      </trkpt>
      <trkpt lat="43.42944" lon="6.43962">
        <ele>60</ele>
        <time>2022-10-14T14:23:43+02:00</time>
      </trkpt>
      <trkpt lat="43.42947" lon="6.43954">
        <ele>60</ele>
        <time>2022-10-14T14:23:43+02:00</time>
      </trkpt>
      <trkpt lat="43.42948" lon="6.43946">
        <ele>61</ele>
        <time>2022-10-14T14:23:43+02:00</time>
      </trkpt>
      <trkpt lat="43.4295" lon="6.43938">
        <ele>61</ele>
        <time>2022-10-14T14:23:43+02:00</time>
      </trkpt>
      <trkpt lat="43.42951" lon="6.4393">
        <ele>61</ele>
        <time>2022-10-14T14:23:43+02:00</time>
      </trkpt>
      <trkpt lat="43.42952" lon="6.43922">
        <ele>61</ele>
        <time>2022-10-14T14:23:43+02:00</time>
      </trkpt>
      <trkpt lat="43.42953" lon="6.43914">
        <ele>61</ele>
        <time>2022-10-14T14:23:43+02:00</time>
      </trkpt>
      <trkpt lat="43.42954" lon="6.43906">
        <ele>61</ele>
        <time>2022-10-14T14:23:43+02:00</time>
      </trkpt>
      <trkpt lat="43.42955" lon="6.43899">
        <ele>61</ele>
        <time>2022-10-14T14:23:43+02:00</time>
      </trkpt>
      <trkpt lat="43.42955" lon="6.43891">
        <ele>62</ele>
        <time>2022-10-14T14:23:43+02:00</time>
      </trkpt>
      <trkpt lat="43.42955" lon="6.43884">
        <ele>62</ele>
        <time>2022-10-14T14:23:43+02:00</time>
      </trkpt>
      <trkpt lat="43.42954" lon="6.43877">
        <ele>62</ele>
        <time>2022-10-14T14:23:43+02:00</time>
      </trkpt>
      <trkpt lat="43.42954" lon="6.43871">
        <ele>62</ele>
        <time>2022-10-14T14:23:43+02:00</time>
      </trkpt>
      <trkpt lat="43.42953" lon="6.43864">
        <ele>62</ele>
        <time>2022-10-14T14:23:43+02:00</time>
      </trkpt>
      <trkpt lat="43.42953" lon="6.43858">
        <ele>61</ele>
        <time>2022-10-14T14:23:43+02:00</time>
      </trkpt>
      <trkpt lat="43.42953" lon="6.43851">
        <ele>61</ele>
        <time>2022-10-14T14:23:43+02:00</time>
      </trkpt>
      <trkpt lat="43.42953" lon="6.43844">
        <ele>61</ele>
        <time>2022-10-14T14:23:43+02:00</time>
      </trkpt>
      <trkpt lat="43.42953" lon="6.43837">
        <ele>61</ele>
        <time>2022-10-14T14:23:43+02:00</time>
      </trkpt>
      <trkpt lat="43.42952" lon="6.4383">
        <ele>61</ele>
        <time>2022-10-14T14:23:43+02:00</time>
      </trkpt>
      <trkpt lat="43.42952" lon="6.43823">
        <ele>61</ele>
        <time>2022-10-14T14:23:43+02:00</time>
      </trkpt>
      <trkpt lat="43.42951" lon="6.43816">
        <ele>61</ele>
        <time>2022-10-14T14:23:43+02:00</time>
      </trkpt>
      <trkpt lat="43.42951" lon="6.43809">
        <ele>60</ele>
        <time>2022-10-14T14:23:43+02:00</time>
      </trkpt>
      <trkpt lat="43.4295" lon="6.43802">
        <ele>61</ele>
        <time>2022-10-14T14:23:43+02:00</time>
      </trkpt>
      <trkpt lat="43.4295" lon="6.43795">
        <ele>61</ele>
        <time>2022-10-14T14:23:43+02:00</time>
      </trkpt>
      <trkpt lat="43.4295" lon="6.43788">
        <ele>61</ele>
        <time>2022-10-14T14:23:43+02:00</time>
      </trkpt>
      <trkpt lat="43.42951" lon="6.43782">
        <ele>60</ele>
        <time>2022-10-14T14:23:43+02:00</time>
      </trkpt>
      <trkpt lat="43.42951" lon="6.43775">
        <ele>59</ele>
        <time>2022-10-14T14:23:43+02:00</time>
      </trkpt>
      <trkpt lat="43.42951" lon="6.43769">
        <ele>59</ele>
        <time>2022-10-14T14:23:43+02:00</time>
      </trkpt>
      <trkpt lat="43.42951" lon="6.43762">
        <ele>59</ele>
        <time>2022-10-14T14:23:43+02:00</time>
      </trkpt>
      <trkpt lat="43.42952" lon="6.43756">
        <ele>60</ele>
        <time>2022-10-14T14:23:43+02:00</time>
      </trkpt>
      <trkpt lat="43.42953" lon="6.4375">
        <ele>60</ele>
        <time>2022-10-14T14:23:43+02:00</time>
      </trkpt>
      <trkpt lat="43.42954" lon="6.43744">
        <ele>60</ele>
        <time>2022-10-14T14:23:43+02:00</time>
      </trkpt>
      <trkpt lat="43.42955" lon="6.43737">
        <ele>60</ele>
        <time>2022-10-14T14:23:43+02:00</time>
      </trkpt>
      <trkpt lat="43.42956" lon="6.43731">
        <ele>60</ele>
        <time>2022-10-14T14:23:43+02:00</time>
      </trkpt>
      <trkpt lat="43.42958" lon="6.43724">
        <ele>60</ele>
        <time>2022-10-14T14:23:43+02:00</time>
      </trkpt>
      <trkpt lat="43.42959" lon="6.43718">
        <ele>60</ele>
        <time>2022-10-14T14:23:43+02:00</time>
      </trkpt>
      <trkpt lat="43.42961" lon="6.43711">
        <ele>60</ele>
        <time>2022-10-14T14:23:43+02:00</time>
      </trkpt>
      <trkpt lat="43.42963" lon="6.43704">
        <ele>59</ele>
        <time>2022-10-14T14:23:43+02:00</time>
      </trkpt>
      <trkpt lat="43.42964" lon="6.43698">
        <ele>59</ele>
        <time>2022-10-14T14:23:43+02:00</time>
      </trkpt>
      <trkpt lat="43.42966" lon="6.43691">
        <ele>59</ele>
        <time>2022-10-14T14:23:43+02:00</time>
      </trkpt>
      <trkpt lat="43.42968" lon="6.43685">
        <ele>59</ele>
        <time>2022-10-14T14:23:43+02:00</time>
      </trkpt>
      <trkpt lat="43.4297" lon="6.43678">
        <ele>59</ele>
        <time>2022-10-14T14:23:43+02:00</time>
      </trkpt>
      <trkpt lat="43.42972" lon="6.43671">
        <ele>58</ele>
        <time>2022-10-14T14:23:43+02:00</time>
      </trkpt>
      <trkpt lat="43.42974" lon="6.43664">
        <ele>58</ele>
        <time>2022-10-14T14:23:43+02:00</time>
      </trkpt>
      <trkpt lat="43.42976" lon="6.43658">
        <ele>58</ele>
        <time>2022-10-14T14:23:43+02:00</time>
      </trkpt>
      <trkpt lat="43.42978" lon="6.43651">
        <ele>58</ele>
        <time>2022-10-14T14:23:43+02:00</time>
      </trkpt>
      <trkpt lat="43.4298" lon="6.43645">
        <ele>58</ele>
        <time>2022-10-14T14:23:43+02:00</time>
      </trkpt>
      <trkpt lat="43.42983" lon="6.43639">
        <ele>58</ele>
        <time>2022-10-14T14:23:43+02:00</time>
      </trkpt>
      <trkpt lat="43.42985" lon="6.43633">
        <ele>58</ele>
        <time>2022-10-14T14:23:43+02:00</time>
      </trkpt>
      <trkpt lat="43.42987" lon="6.43627">
        <ele>59</ele>
        <time>2022-10-14T14:23:43+02:00</time>
      </trkpt>
      <trkpt lat="43.4299" lon="6.43621">
        <ele>59</ele>
        <time>2022-10-14T14:23:43+02:00</time>
      </trkpt>
      <trkpt lat="43.42992" lon="6.43616">
        <ele>59</ele>
        <time>2022-10-14T14:23:43+02:00</time>
      </trkpt>
      <trkpt lat="43.42994" lon="6.4361">
        <ele>59</ele>
        <time>2022-10-14T14:23:43+02:00</time>
      </trkpt>
      <trkpt lat="43.42997" lon="6.43605">
        <ele>59</ele>
        <time>2022-10-14T14:23:43+02:00</time>
      </trkpt>
      <trkpt lat="43.42999" lon="6.436">
        <ele>57</ele>
        <time>2022-10-14T14:23:43+02:00</time>
      </trkpt>
      <trkpt lat="43.43002" lon="6.43596">
        <ele>57</ele>
        <time>2022-10-14T14:23:43+02:00</time>
      </trkpt>
      <trkpt lat="43.43004" lon="6.43591">
        <ele>57</ele>
        <time>2022-10-14T14:23:43+02:00</time>
      </trkpt>
      <trkpt lat="43.43007" lon="6.43587">
        <ele>58</ele>
        <time>2022-10-14T14:23:43+02:00</time>
      </trkpt>
      <trkpt lat="43.4301" lon="6.43583">
        <ele>58</ele>
        <time>2022-10-14T14:23:43+02:00</time>
      </trkpt>
      <trkpt lat="43.43012" lon="6.43579">
        <ele>58</ele>
        <time>2022-10-14T14:23:43+02:00</time>
      </trkpt>
      <trkpt lat="43.43014" lon="6.43575">
        <ele>58</ele>
        <time>2022-10-14T14:23:43+02:00</time>
      </trkpt>
      <trkpt lat="43.43017" lon="6.43571">
        <ele>57</ele>
        <time>2022-10-14T14:23:43+02:00</time>
      </trkpt>
      <trkpt lat="43.43019" lon="6.43567">
        <ele>58</ele>
        <time>2022-10-14T14:23:43+02:00</time>
      </trkpt>
      <trkpt lat="43.43021" lon="6.43564">
        <ele>58</ele>
        <time>2022-10-14T14:23:43+02:00</time>
      </trkpt>
      <trkpt lat="43.43023" lon="6.43561">
        <ele>58</ele>
        <time>2022-10-14T14:23:43+02:00</time>
      </trkpt>
      <trkpt lat="43.43025" lon="6.43558">
        <ele>58</ele>
        <time>2022-10-14T14:23:43+02:00</time>
      </trkpt>
      <trkpt lat="43.43026" lon="6.43557">
        <ele>59</ele>
        <time>2022-10-14T14:23:43+02:00</time>
      </trkpt>
      <trkpt lat="43.43026" lon="6.43555">
        <ele>59</ele>
        <time>2022-10-14T14:23:43+02:00</time>
      </trkpt>
      <trkpt lat="43.43027" lon="6.43554">
        <ele>59</ele>
        <time>2022-10-14T14:23:43+02:00</time>
      </trkpt>
      <trkpt lat="43.43027" lon="6.43553">
        <ele>59</ele>
        <time>2022-10-14T14:23:43+02:00</time>
      </trkpt>
      <trkpt lat="43.43027" lon="6.43553">
        <ele>59</ele>
        <time>2022-10-14T14:23:43+02:00</time>
      </trkpt>
      <trkpt lat="43.43027" lon="6.43553">
        <ele>59</ele>
        <time>2022-10-14T14:23:43+02:00</time>
      </trkpt>
      <trkpt lat="43.43027" lon="6.43553">
        <ele>59</ele>
        <time>2022-10-14T14:23:43+02:00</time>
      </trkpt>
      <trkpt lat="43.43027" lon="6.43553">
        <ele>59</ele>
        <time>2022-10-14T14:23:43+02:00</time>
      </trkpt>
      <trkpt lat="43.43027" lon="6.43553">
        <ele>59</ele>
        <time>2022-10-14T14:23:43+02:00</time>
      </trkpt>
      <trkpt lat="43.43027" lon="6.43553">
        <ele>59</ele>
        <time>2022-10-14T14:23:43+02:00</time>
      </trkpt>
      <trkpt lat="43.43027" lon="6.43552">
        <ele>59</ele>
        <time>2022-10-14T14:23:43+02:00</time>
      </trkpt>
      <trkpt lat="43.43029" lon="6.43548">
        <ele>58</ele>
        <time>2022-10-14T14:23:43+02:00</time>
      </trkpt>
      <trkpt lat="43.43032" lon="6.43546">
        <ele>58</ele>
        <time>2022-10-14T14:23:43+02:00</time>
      </trkpt>
      <trkpt lat="43.43035" lon="6.43542">
        <ele>58</ele>
        <time>2022-10-14T14:23:43+02:00</time>
      </trkpt>
      <trkpt lat="43.43038" lon="6.43539">
        <ele>58</ele>
        <time>2022-10-14T14:23:43+02:00</time>
      </trkpt>
      <trkpt lat="43.43042" lon="6.43536">
        <ele>58</ele>
        <time>2022-10-14T14:23:43+02:00</time>
      </trkpt>
      <trkpt lat="43.43046" lon="6.43534">
        <ele>58</ele>
        <time>2022-10-14T14:23:43+02:00</time>
      </trkpt>
      <trkpt lat="43.4305" lon="6.4353">
        <ele>58</ele>
        <time>2022-10-14T14:23:43+02:00</time>
      </trkpt>
      <trkpt lat="43.43054" lon="6.43527">
        <ele>58</ele>
        <time>2022-10-14T14:23:43+02:00</time>
      </trkpt>
      <trkpt lat="43.43058" lon="6.43523">
        <ele>58</ele>
        <time>2022-10-14T14:23:43+02:00</time>
      </trkpt>
      <trkpt lat="43.43061" lon="6.43518">
        <ele>57</ele>
        <time>2022-10-14T14:23:43+02:00</time>
      </trkpt>
      <trkpt lat="43.43064" lon="6.43514">
        <ele>57</ele>
        <time>2022-10-14T14:23:43+02:00</time>
      </trkpt>
      <trkpt lat="43.43066" lon="6.43509">
        <ele>57</ele>
        <time>2022-10-14T14:23:43+02:00</time>
      </trkpt>
      <trkpt lat="43.43069" lon="6.43503">
        <ele>57</ele>
        <time>2022-10-14T14:23:43+02:00</time>
      </trkpt>
      <trkpt lat="43.43071" lon="6.43498">
        <ele>58</ele>
        <time>2022-10-14T14:23:43+02:00</time>
      </trkpt>
      <trkpt lat="43.43073" lon="6.43492">
        <ele>58</ele>
        <time>2022-10-14T14:23:43+02:00</time>
      </trkpt>
      <trkpt lat="43.43075" lon="6.43486">
        <ele>58</ele>
        <time>2022-10-14T14:23:43+02:00</time>
      </trkpt>
      <trkpt lat="43.43078" lon="6.4348">
        <ele>58</ele>
        <time>2022-10-14T14:23:43+02:00</time>
      </trkpt>
      <trkpt lat="43.4308" lon="6.43473">
        <ele>58</ele>
        <time>2022-10-14T14:23:43+02:00</time>
      </trkpt>
      <trkpt lat="43.43082" lon="6.43467">
        <ele>58</ele>
        <time>2022-10-14T14:23:43+02:00</time>
      </trkpt>
      <trkpt lat="43.43085" lon="6.43462">
        <ele>58</ele>
        <time>2022-10-14T14:23:43+02:00</time>
      </trkpt>
      <trkpt lat="43.43088" lon="6.43456">
        <ele>59</ele>
        <time>2022-10-14T14:23:43+02:00</time>
      </trkpt>
      <trkpt lat="43.4309" lon="6.4345">
        <ele>60</ele>
        <time>2022-10-14T14:23:43+02:00</time>
      </trkpt>
      <trkpt lat="43.43093" lon="6.43444">
        <ele>60</ele>
        <time>2022-10-14T14:23:43+02:00</time>
      </trkpt>
      <trkpt lat="43.43096" lon="6.43438">
        <ele>60</ele>
        <time>2022-10-14T14:23:43+02:00</time>
      </trkpt>
      <trkpt lat="43.43098" lon="6.43433">
        <ele>59</ele>
        <time>2022-10-14T14:23:43+02:00</time>
      </trkpt>
      <trkpt lat="43.43101" lon="6.43428">
        <ele>60</ele>
        <time>2022-10-14T14:23:43+02:00</time>
      </trkpt>
      <trkpt lat="43.43104" lon="6.43423">
        <ele>60</ele>
        <time>2022-10-14T14:23:43+02:00</time>
      </trkpt>
      <trkpt lat="43.43107" lon="6.43418">
        <ele>60</ele>
        <time>2022-10-14T14:23:43+02:00</time>
      </trkpt>
      <trkpt lat="43.4311" lon="6.43414">
        <ele>60</ele>
        <time>2022-10-14T14:23:43+02:00</time>
      </trkpt>
      <trkpt lat="43.43113" lon="6.4341">
        <ele>60</ele>
        <time>2022-10-14T14:23:43+02:00</time>
      </trkpt>
      <trkpt lat="43.43117" lon="6.43406">
        <ele>60</ele>
        <time>2022-10-14T14:23:43+02:00</time>
      </trkpt>
      <trkpt lat="43.4312" lon="6.43403">
        <ele>60</ele>
        <time>2022-10-14T14:23:43+02:00</time>
      </trkpt>
      <trkpt lat="43.43124" lon="6.43401">
        <ele>61</ele>
        <time>2022-10-14T14:23:43+02:00</time>
      </trkpt>
      <trkpt lat="43.43128" lon="6.43398">
        <ele>63</ele>
        <time>2022-10-14T14:23:43+02:00</time>
      </trkpt>
      <trkpt lat="43.43133" lon="6.43395">
        <ele>63</ele>
        <time>2022-10-14T14:23:43+02:00</time>
      </trkpt>
      <trkpt lat="43.43137" lon="6.43393">
        <ele>63</ele>
        <time>2022-10-14T14:23:43+02:00</time>
      </trkpt>
      <trkpt lat="43.43142" lon="6.4339">
        <ele>62</ele>
        <time>2022-10-14T14:23:43+02:00</time>
      </trkpt>
      <trkpt lat="43.43147" lon="6.43388">
        <ele>61</ele>
        <time>2022-10-14T14:23:43+02:00</time>
      </trkpt>
      <trkpt lat="43.43152" lon="6.43386">
        <ele>61</ele>
        <time>2022-10-14T14:23:43+02:00</time>
      </trkpt>
      <trkpt lat="43.43156" lon="6.43384">
        <ele>61</ele>
        <time>2022-10-14T14:23:43+02:00</time>
      </trkpt>
      <trkpt lat="43.43161" lon="6.43383">
        <ele>61</ele>
        <time>2022-10-14T14:23:43+02:00</time>
      </trkpt>
      <trkpt lat="43.43165" lon="6.43383">
        <ele>62</ele>
        <time>2022-10-14T14:23:43+02:00</time>
      </trkpt>
      <trkpt lat="43.43169" lon="6.43381">
        <ele>62</ele>
        <time>2022-10-14T14:23:43+02:00</time>
      </trkpt>
      <trkpt lat="43.43174" lon="6.4338">
        <ele>62</ele>
        <time>2022-10-14T14:23:43+02:00</time>
      </trkpt>
      <trkpt lat="43.43178" lon="6.43378">
        <ele>62</ele>
        <time>2022-10-14T14:23:43+02:00</time>
      </trkpt>
      <trkpt lat="43.43182" lon="6.43376">
        <ele>63</ele>
        <time>2022-10-14T14:23:43+02:00</time>
      </trkpt>
      <trkpt lat="43.43186" lon="6.43375">
        <ele>63</ele>
        <time>2022-10-14T14:23:43+02:00</time>
      </trkpt>
      <trkpt lat="43.4319" lon="6.43373">
        <ele>63</ele>
        <time>2022-10-14T14:23:43+02:00</time>
      </trkpt>
      <trkpt lat="43.43193" lon="6.4337">
        <ele>63</ele>
        <time>2022-10-14T14:23:43+02:00</time>
      </trkpt>
      <trkpt lat="43.43197" lon="6.43368">
        <ele>63</ele>
        <time>2022-10-14T14:23:43+02:00</time>
      </trkpt>
      <trkpt lat="43.432" lon="6.43366">
        <ele>63</ele>
        <time>2022-10-14T14:23:43+02:00</time>
      </trkpt>
      <trkpt lat="43.43205" lon="6.43365">
        <ele>63</ele>
        <time>2022-10-14T14:23:43+02:00</time>
      </trkpt>
      <trkpt lat="43.43209" lon="6.43363">
        <ele>62</ele>
        <time>2022-10-14T14:23:43+02:00</time>
      </trkpt>
      <trkpt lat="43.43214" lon="6.43362">
        <ele>60</ele>
        <time>2022-10-14T14:23:43+02:00</time>
      </trkpt>
      <trkpt lat="43.4322" lon="6.4336">
        <ele>60</ele>
        <time>2022-10-14T14:23:43+02:00</time>
      </trkpt>
      <trkpt lat="43.43225" lon="6.43357">
        <ele>60</ele>
        <time>2022-10-14T14:23:43+02:00</time>
      </trkpt>
      <trkpt lat="43.43231" lon="6.43354">
        <ele>59</ele>
        <time>2022-10-14T14:23:43+02:00</time>
      </trkpt>
      <trkpt lat="43.43238" lon="6.43352">
        <ele>58</ele>
        <time>2022-10-14T14:23:43+02:00</time>
      </trkpt>
      <trkpt lat="43.43244" lon="6.43349">
        <ele>58</ele>
        <time>2022-10-14T14:23:43+02:00</time>
      </trkpt>
      <trkpt lat="43.43252" lon="6.43348">
        <ele>58</ele>
        <time>2022-10-14T14:23:43+02:00</time>
      </trkpt>
      <trkpt lat="43.4326" lon="6.43347">
        <ele>57</ele>
        <time>2022-10-14T14:23:43+02:00</time>
      </trkpt>
      <trkpt lat="43.43268" lon="6.43348">
        <ele>56</ele>
        <time>2022-10-14T14:23:43+02:00</time>
      </trkpt>
      <trkpt lat="43.43276" lon="6.4335">
        <ele>56</ele>
        <time>2022-10-14T14:23:43+02:00</time>
      </trkpt>
      <trkpt lat="43.43284" lon="6.43355">
        <ele>56</ele>
        <time>2022-10-14T14:23:43+02:00</time>
      </trkpt>
      <trkpt lat="43.43292" lon="6.4336">
        <ele>56</ele>
        <time>2022-10-14T14:23:43+02:00</time>
      </trkpt>
      <trkpt lat="43.43299" lon="6.43366">
        <ele>55</ele>
        <time>2022-10-14T14:23:43+02:00</time>
      </trkpt>
      <trkpt lat="43.43306" lon="6.43372">
        <ele>55</ele>
        <time>2022-10-14T14:23:43+02:00</time>
      </trkpt>
      <trkpt lat="43.43313" lon="6.43378">
        <ele>55</ele>
        <time>2022-10-14T14:23:43+02:00</time>
      </trkpt>
      <trkpt lat="43.4332" lon="6.43383">
        <ele>55</ele>
        <time>2022-10-14T14:23:43+02:00</time>
      </trkpt>
      <trkpt lat="43.43327" lon="6.43389">
        <ele>54</ele>
        <time>2022-10-14T14:23:43+02:00</time>
      </trkpt>
      <trkpt lat="43.43333" lon="6.43393">
        <ele>54</ele>
        <time>2022-10-14T14:23:43+02:00</time>
      </trkpt>
      <trkpt lat="43.43339" lon="6.43395">
        <ele>54</ele>
        <time>2022-10-14T14:23:43+02:00</time>
      </trkpt>
      <trkpt lat="43.43345" lon="6.43392">
        <ele>54</ele>
        <time>2022-10-14T14:23:43+02:00</time>
      </trkpt>
      <trkpt lat="43.43349" lon="6.43387">
        <ele>54</ele>
        <time>2022-10-14T14:23:43+02:00</time>
      </trkpt>
      <trkpt lat="43.43351" lon="6.43381">
        <ele>54</ele>
        <time>2022-10-14T14:23:43+02:00</time>
      </trkpt>
      <trkpt lat="43.43353" lon="6.43373">
        <ele>54</ele>
        <time>2022-10-14T14:23:43+02:00</time>
      </trkpt>
      <trkpt lat="43.43354" lon="6.43366">
        <ele>55</ele>
        <time>2022-10-14T14:23:43+02:00</time>
      </trkpt>
      <trkpt lat="43.43355" lon="6.43358">
        <ele>55</ele>
        <time>2022-10-14T14:23:43+02:00</time>
      </trkpt>
      <trkpt lat="43.43356" lon="6.4335">
        <ele>55</ele>
        <time>2022-10-14T14:23:43+02:00</time>
      </trkpt>
      <trkpt lat="43.43358" lon="6.43342">
        <ele>55</ele>
        <time>2022-10-14T14:23:43+02:00</time>
      </trkpt>
      <trkpt lat="43.43359" lon="6.43334">
        <ele>54</ele>
        <time>2022-10-14T14:23:43+02:00</time>
      </trkpt>
      <trkpt lat="43.43361" lon="6.43326">
        <ele>54</ele>
        <time>2022-10-14T14:23:43+02:00</time>
      </trkpt>
      <trkpt lat="43.43363" lon="6.43318">
        <ele>54</ele>
        <time>2022-10-14T14:23:43+02:00</time>
      </trkpt>
      <trkpt lat="43.43365" lon="6.43311">
        <ele>54</ele>
        <time>2022-10-14T14:23:43+02:00</time>
      </trkpt>
      <trkpt lat="43.43367" lon="6.43304">
        <ele>54</ele>
        <time>2022-10-14T14:23:43+02:00</time>
      </trkpt>
      <trkpt lat="43.4337" lon="6.43298">
        <ele>54</ele>
        <time>2022-10-14T14:23:43+02:00</time>
      </trkpt>
      <trkpt lat="43.43371" lon="6.43295">
        <ele>54</ele>
        <time>2022-10-14T14:23:43+02:00</time>
      </trkpt>
      <trkpt lat="43.43371" lon="6.43291">
        <ele>54</ele>
        <time>2022-10-14T14:23:43+02:00</time>
      </trkpt>
      <trkpt lat="43.43369" lon="6.43288">
        <ele>54</ele>
        <time>2022-10-14T14:23:43+02:00</time>
      </trkpt>
      <trkpt lat="43.43366" lon="6.43286">
        <ele>54</ele>
        <time>2022-10-14T14:23:43+02:00</time>
      </trkpt>
      <trkpt lat="43.43361" lon="6.43286">
        <ele>54</ele>
        <time>2022-10-14T14:23:43+02:00</time>
      </trkpt>
      <trkpt lat="43.43355" lon="6.43286">
        <ele>54</ele>
        <time>2022-10-14T14:23:43+02:00</time>
      </trkpt>
      <trkpt lat="43.4335" lon="6.43285">
        <ele>53</ele>
        <time>2022-10-14T14:23:43+02:00</time>
      </trkpt>
      <trkpt lat="43.43344" lon="6.43285">
        <ele>52</ele>
        <time>2022-10-14T14:23:43+02:00</time>
      </trkpt>
      <trkpt lat="43.43339" lon="6.43285">
        <ele>52</ele>
        <time>2022-10-14T14:23:43+02:00</time>
      </trkpt>
      <trkpt lat="43.43333" lon="6.43285">
        <ele>52</ele>
        <time>2022-10-14T14:23:43+02:00</time>
      </trkpt>
      <trkpt lat="43.43327" lon="6.43284">
        <ele>53</ele>
        <time>2022-10-14T14:23:43+02:00</time>
      </trkpt>
      <trkpt lat="43.43323" lon="6.43283">
        <ele>54</ele>
        <time>2022-10-14T14:23:43+02:00</time>
      </trkpt>
      <trkpt lat="43.43319" lon="6.43279">
        <ele>54</ele>
        <time>2022-10-14T14:23:43+02:00</time>
      </trkpt>
      <trkpt lat="43.43318" lon="6.43274">
        <ele>54</ele>
        <time>2022-10-14T14:23:43+02:00</time>
      </trkpt>
      <trkpt lat="43.43318" lon="6.43267">
        <ele>54</ele>
        <time>2022-10-14T14:23:43+02:00</time>
      </trkpt>
      <trkpt lat="43.43319" lon="6.43261">
        <ele>52</ele>
        <time>2022-10-14T14:23:43+02:00</time>
      </trkpt>
      <trkpt lat="43.43319" lon="6.43254">
        <ele>52</ele>
        <time>2022-10-14T14:23:43+02:00</time>
      </trkpt>
      <trkpt lat="43.4332" lon="6.43247">
        <ele>52</ele>
        <time>2022-10-14T14:23:43+02:00</time>
      </trkpt>
      <trkpt lat="43.4332" lon="6.4324">
        <ele>51</ele>
        <time>2022-10-14T14:23:43+02:00</time>
      </trkpt>
      <trkpt lat="43.4332" lon="6.43232">
        <ele>51</ele>
        <time>2022-10-14T14:23:43+02:00</time>
      </trkpt>
      <trkpt lat="43.43321" lon="6.43224">
        <ele>51</ele>
        <time>2022-10-14T14:23:43+02:00</time>
      </trkpt>
      <trkpt lat="43.43322" lon="6.43216">
        <ele>51</ele>
        <time>2022-10-14T14:23:43+02:00</time>
      </trkpt>
      <trkpt lat="43.43324" lon="6.43207">
        <ele>51</ele>
        <time>2022-10-14T14:23:43+02:00</time>
      </trkpt>
      <trkpt lat="43.43325" lon="6.43199">
        <ele>51</ele>
        <time>2022-10-14T14:23:43+02:00</time>
      </trkpt>
      <trkpt lat="43.43326" lon="6.4319">
        <ele>51</ele>
        <time>2022-10-14T14:23:43+02:00</time>
      </trkpt>
      <trkpt lat="43.43328" lon="6.43181">
        <ele>51</ele>
        <time>2022-10-14T14:23:43+02:00</time>
      </trkpt>
      <trkpt lat="43.43329" lon="6.43172">
        <ele>51</ele>
        <time>2022-10-14T14:23:43+02:00</time>
      </trkpt>
      <trkpt lat="43.4333" lon="6.43163">
        <ele>50</ele>
        <time>2022-10-14T14:23:43+02:00</time>
      </trkpt>
      <trkpt lat="43.43331" lon="6.43154">
        <ele>50</ele>
        <time>2022-10-14T14:23:43+02:00</time>
      </trkpt>
      <trkpt lat="43.43333" lon="6.43145">
        <ele>50</ele>
        <time>2022-10-14T14:23:43+02:00</time>
      </trkpt>
      <trkpt lat="43.43334" lon="6.43137">
        <ele>49</ele>
        <time>2022-10-14T14:23:43+02:00</time>
      </trkpt>
      <trkpt lat="43.43335" lon="6.43128">
        <ele>48</ele>
        <time>2022-10-14T14:23:43+02:00</time>
      </trkpt>
      <trkpt lat="43.43337" lon="6.43119">
        <ele>48</ele>
        <time>2022-10-14T14:23:43+02:00</time>
      </trkpt>
      <trkpt lat="43.43338" lon="6.4311">
        <ele>48</ele>
        <time>2022-10-14T14:23:43+02:00</time>
      </trkpt>
      <trkpt lat="43.43339" lon="6.43101">
        <ele>49</ele>
        <time>2022-10-14T14:23:43+02:00</time>
      </trkpt>
      <trkpt lat="43.4334" lon="6.43093">
        <ele>49</ele>
        <time>2022-10-14T14:23:43+02:00</time>
      </trkpt>
      <trkpt lat="43.43341" lon="6.43084">
        <ele>49</ele>
        <time>2022-10-14T14:23:43+02:00</time>
      </trkpt>
      <trkpt lat="43.43342" lon="6.43075">
        <ele>49</ele>
        <time>2022-10-14T14:23:43+02:00</time>
      </trkpt>
      <trkpt lat="43.43344" lon="6.43066">
        <ele>49</ele>
        <time>2022-10-14T14:23:43+02:00</time>
      </trkpt>
      <trkpt lat="43.43345" lon="6.43058">
        <ele>48</ele>
        <time>2022-10-14T14:23:43+02:00</time>
      </trkpt>
      <trkpt lat="43.43346" lon="6.43049">
        <ele>48</ele>
        <time>2022-10-14T14:23:43+02:00</time>
      </trkpt>
      <trkpt lat="43.43347" lon="6.4304">
        <ele>48</ele>
        <time>2022-10-14T14:23:43+02:00</time>
      </trkpt>
      <trkpt lat="43.43348" lon="6.43032">
        <ele>49</ele>
        <time>2022-10-14T14:23:43+02:00</time>
      </trkpt>
      <trkpt lat="43.4335" lon="6.43024">
        <ele>49</ele>
        <time>2022-10-14T14:23:43+02:00</time>
      </trkpt>
      <trkpt lat="43.43351" lon="6.43016">
        <ele>49</ele>
        <time>2022-10-14T14:23:43+02:00</time>
      </trkpt>
      <trkpt lat="43.43352" lon="6.43009">
        <ele>49</ele>
        <time>2022-10-14T14:23:43+02:00</time>
      </trkpt>
      <trkpt lat="43.43353" lon="6.43002">
        <ele>50</ele>
        <time>2022-10-14T14:23:43+02:00</time>
      </trkpt>
      <trkpt lat="43.43355" lon="6.42995">
        <ele>50</ele>
        <time>2022-10-14T14:23:43+02:00</time>
      </trkpt>
      <trkpt lat="43.43355" lon="6.42989">
        <ele>50</ele>
        <time>2022-10-14T14:23:43+02:00</time>
      </trkpt>
      <trkpt lat="43.43354" lon="6.42983">
        <ele>50</ele>
        <time>2022-10-14T14:23:43+02:00</time>
      </trkpt>
      <trkpt lat="43.43353" lon="6.42979">
        <ele>50</ele>
        <time>2022-10-14T14:23:43+02:00</time>
      </trkpt>
      <trkpt lat="43.43353" lon="6.42977">
        <ele>51</ele>
        <time>2022-10-14T14:23:43+02:00</time>
      </trkpt>
      <trkpt lat="43.43352" lon="6.42977">
        <ele>51</ele>
        <time>2022-10-14T14:23:43+02:00</time>
      </trkpt>
      <trkpt lat="43.43352" lon="6.42977">
        <ele>51</ele>
        <time>2022-10-14T14:23:43+02:00</time>
      </trkpt>
      <trkpt lat="43.43352" lon="6.42977">
        <ele>51</ele>
        <time>2022-10-14T14:23:43+02:00</time>
      </trkpt>
      <trkpt lat="43.43352" lon="6.42977">
        <ele>51</ele>
        <time>2022-10-14T14:23:43+02:00</time>
      </trkpt>
      <trkpt lat="43.43352" lon="6.42977">
        <ele>51</ele>
        <time>2022-10-14T14:23:43+02:00</time>
      </trkpt>
      <trkpt lat="43.43352" lon="6.42977">
        <ele>51</ele>
        <time>2022-10-14T14:23:43+02:00</time>
      </trkpt>
      <trkpt lat="43.43351" lon="6.42975">
        <ele>50</ele>
        <time>2022-10-14T14:23:43+02:00</time>
      </trkpt>
      <trkpt lat="43.43349" lon="6.42971">
        <ele>50</ele>
        <time>2022-10-14T14:23:43+02:00</time>
      </trkpt>
      <trkpt lat="43.43347" lon="6.42966">
        <ele>50</ele>
        <time>2022-10-14T14:23:43+02:00</time>
      </trkpt>
      <trkpt lat="43.43346" lon="6.42961">
        <ele>50</ele>
        <time>2022-10-14T14:23:43+02:00</time>
      </trkpt>
      <trkpt lat="43.43346" lon="6.42955">
        <ele>49</ele>
        <time>2022-10-14T14:23:43+02:00</time>
      </trkpt>
      <trkpt lat="43.43346" lon="6.42948">
        <ele>49</ele>
        <time>2022-10-14T14:23:43+02:00</time>
      </trkpt>
      <trkpt lat="43.43345" lon="6.42942">
        <ele>49</ele>
        <time>2022-10-14T14:23:43+02:00</time>
      </trkpt>
      <trkpt lat="43.43345" lon="6.42934">
        <ele>49</ele>
        <time>2022-10-14T14:23:43+02:00</time>
      </trkpt>
      <trkpt lat="43.43345" lon="6.42927">
        <ele>49</ele>
        <time>2022-10-14T14:23:43+02:00</time>
      </trkpt>
      <trkpt lat="43.43345" lon="6.4292">
        <ele>49</ele>
        <time>2022-10-14T14:23:43+02:00</time>
      </trkpt>
      <trkpt lat="43.43345" lon="6.42913">
        <ele>49</ele>
        <time>2022-10-14T14:23:43+02:00</time>
      </trkpt>
      <trkpt lat="43.43345" lon="6.42906">
        <ele>49</ele>
        <time>2022-10-14T14:23:43+02:00</time>
      </trkpt>
      <trkpt lat="43.43346" lon="6.42898">
        <ele>48</ele>
        <time>2022-10-14T14:23:43+02:00</time>
      </trkpt>
      <trkpt lat="43.43346" lon="6.42891">
        <ele>48</ele>
        <time>2022-10-14T14:23:43+02:00</time>
      </trkpt>
      <trkpt lat="43.43347" lon="6.42883">
        <ele>48</ele>
        <time>2022-10-14T14:23:43+02:00</time>
      </trkpt>
      <trkpt lat="43.43347" lon="6.42876">
        <ele>48</ele>
        <time>2022-10-14T14:23:43+02:00</time>
      </trkpt>
      <trkpt lat="43.43348" lon="6.42868">
        <ele>48</ele>
        <time>2022-10-14T14:23:43+02:00</time>
      </trkpt>
      <trkpt lat="43.43348" lon="6.4286">
        <ele>48</ele>
        <time>2022-10-14T14:23:43+02:00</time>
      </trkpt>
      <trkpt lat="43.43349" lon="6.42852">
        <ele>48</ele>
        <time>2022-10-14T14:23:43+02:00</time>
      </trkpt>
      <trkpt lat="43.43349" lon="6.42844">
        <ele>48</ele>
        <time>2022-10-14T14:23:43+02:00</time>
      </trkpt>
      <trkpt lat="43.4335" lon="6.42837">
        <ele>48</ele>
        <time>2022-10-14T14:23:43+02:00</time>
      </trkpt>
      <trkpt lat="43.4335" lon="6.42829">
        <ele>48</ele>
        <time>2022-10-14T14:23:43+02:00</time>
      </trkpt>
      <trkpt lat="43.43351" lon="6.42821">
        <ele>48</ele>
        <time>2022-10-14T14:23:43+02:00</time>
      </trkpt>
      <trkpt lat="43.43351" lon="6.42814">
        <ele>48</ele>
        <time>2022-10-14T14:23:43+02:00</time>
      </trkpt>
      <trkpt lat="43.43352" lon="6.42806">
        <ele>48</ele>
        <time>2022-10-14T14:23:43+02:00</time>
      </trkpt>
      <trkpt lat="43.43352" lon="6.42798">
        <ele>48</ele>
        <time>2022-10-14T14:23:43+02:00</time>
      </trkpt>
      <trkpt lat="43.43353" lon="6.42791">
        <ele>48</ele>
        <time>2022-10-14T14:23:43+02:00</time>
      </trkpt>
      <trkpt lat="43.43354" lon="6.42784">
        <ele>48</ele>
        <time>2022-10-14T14:23:43+02:00</time>
      </trkpt>
      <trkpt lat="43.43354" lon="6.42776">
        <ele>48</ele>
        <time>2022-10-14T14:23:43+02:00</time>
      </trkpt>
      <trkpt lat="43.43354" lon="6.42769">
        <ele>51</ele>
        <time>2022-10-14T14:23:43+02:00</time>
      </trkpt>
      <trkpt lat="43.43355" lon="6.42762">
        <ele>51</ele>
        <time>2022-10-14T14:23:43+02:00</time>
      </trkpt>
      <trkpt lat="43.43355" lon="6.42755">
        <ele>51</ele>
        <time>2022-10-14T14:23:43+02:00</time>
      </trkpt>
      <trkpt lat="43.43356" lon="6.42747">
        <ele>50</ele>
        <time>2022-10-14T14:23:43+02:00</time>
      </trkpt>
      <trkpt lat="43.43357" lon="6.4274">
        <ele>49</ele>
        <time>2022-10-14T14:23:43+02:00</time>
      </trkpt>
      <trkpt lat="43.43358" lon="6.42733">
        <ele>49</ele>
        <time>2022-10-14T14:23:43+02:00</time>
      </trkpt>
      <trkpt lat="43.43359" lon="6.42726">
        <ele>49</ele>
        <time>2022-10-14T14:23:43+02:00</time>
      </trkpt>
      <trkpt lat="43.4336" lon="6.4272">
        <ele>49</ele>
        <time>2022-10-14T14:23:43+02:00</time>
      </trkpt>
      <trkpt lat="43.43361" lon="6.42713">
        <ele>49</ele>
        <time>2022-10-14T14:23:43+02:00</time>
      </trkpt>
      <trkpt lat="43.43363" lon="6.42706">
        <ele>49</ele>
        <time>2022-10-14T14:23:43+02:00</time>
      </trkpt>
      <trkpt lat="43.43364" lon="6.42698">
        <ele>49</ele>
        <time>2022-10-14T14:23:43+02:00</time>
      </trkpt>
      <trkpt lat="43.43366" lon="6.42691">
        <ele>50</ele>
        <time>2022-10-14T14:23:43+02:00</time>
      </trkpt>
      <trkpt lat="43.43367" lon="6.42684">
        <ele>49</ele>
        <time>2022-10-14T14:23:43+02:00</time>
      </trkpt>
      <trkpt lat="43.43369" lon="6.42677">
        <ele>49</ele>
        <time>2022-10-14T14:23:43+02:00</time>
      </trkpt>
      <trkpt lat="43.4337" lon="6.4267">
        <ele>49</ele>
        <time>2022-10-14T14:23:43+02:00</time>
      </trkpt>
      <trkpt lat="43.43371" lon="6.42662">
        <ele>49</ele>
        <time>2022-10-14T14:23:43+02:00</time>
      </trkpt>
      <trkpt lat="43.43372" lon="6.42655">
        <ele>50</ele>
        <time>2022-10-14T14:23:43+02:00</time>
      </trkpt>
      <trkpt lat="43.43372" lon="6.42648">
        <ele>50</ele>
        <time>2022-10-14T14:23:43+02:00</time>
      </trkpt>
      <trkpt lat="43.43371" lon="6.42641">
        <ele>50</ele>
        <time>2022-10-14T14:23:43+02:00</time>
      </trkpt>
      <trkpt lat="43.43368" lon="6.42635">
        <ele>50</ele>
        <time>2022-10-14T14:23:43+02:00</time>
      </trkpt>
      <trkpt lat="43.43363" lon="6.42632">
        <ele>47</ele>
        <time>2022-10-14T14:23:43+02:00</time>
      </trkpt>
      <trkpt lat="43.43358" lon="6.42631">
        <ele>47</ele>
        <time>2022-10-14T14:23:43+02:00</time>
      </trkpt>
      <trkpt lat="43.43353" lon="6.42633">
        <ele>47</ele>
        <time>2022-10-14T14:23:43+02:00</time>
      </trkpt>
      <trkpt lat="43.43347" lon="6.42634">
        <ele>48</ele>
        <time>2022-10-14T14:23:43+02:00</time>
      </trkpt>
      <trkpt lat="43.43342" lon="6.42635">
        <ele>48</ele>
        <time>2022-10-14T14:23:43+02:00</time>
      </trkpt>
      <trkpt lat="43.43337" lon="6.42636">
        <ele>48</ele>
        <time>2022-10-14T14:23:43+02:00</time>
      </trkpt>
      <trkpt lat="43.43331" lon="6.42636">
        <ele>48</ele>
        <time>2022-10-14T14:23:43+02:00</time>
      </trkpt>
      <trkpt lat="43.43326" lon="6.42637">
        <ele>49</ele>
        <time>2022-10-14T14:23:43+02:00</time>
      </trkpt>
      <trkpt lat="43.43322" lon="6.42637">
        <ele>49</ele>
        <time>2022-10-14T14:23:43+02:00</time>
      </trkpt>
      <trkpt lat="43.43317" lon="6.42638">
        <ele>49</ele>
        <time>2022-10-14T14:23:43+02:00</time>
      </trkpt>
      <trkpt lat="43.43313" lon="6.42639">
        <ele>49</ele>
        <time>2022-10-14T14:23:43+02:00</time>
      </trkpt>
      <trkpt lat="43.43308" lon="6.4264">
        <ele>50</ele>
        <time>2022-10-14T14:23:43+02:00</time>
      </trkpt>
      <trkpt lat="43.43303" lon="6.4264">
        <ele>50</ele>
        <time>2022-10-14T14:23:43+02:00</time>
      </trkpt>
      <trkpt lat="43.43299" lon="6.4264">
        <ele>50</ele>
        <time>2022-10-14T14:23:43+02:00</time>
      </trkpt>
      <trkpt lat="43.43294" lon="6.4264">
        <ele>50</ele>
        <time>2022-10-14T14:23:43+02:00</time>
      </trkpt>
      <trkpt lat="43.43288" lon="6.4264">
        <ele>50</ele>
        <time>2022-10-14T14:23:43+02:00</time>
      </trkpt>
      <trkpt lat="43.43283" lon="6.4264">
        <ele>49</ele>
        <time>2022-10-14T14:23:43+02:00</time>
      </trkpt>
      <trkpt lat="43.43278" lon="6.42639">
        <ele>49</ele>
        <time>2022-10-14T14:23:43+02:00</time>
      </trkpt>
      <trkpt lat="43.43272" lon="6.42639">
        <ele>49</ele>
        <time>2022-10-14T14:23:43+02:00</time>
      </trkpt>
      <trkpt lat="43.43266" lon="6.42639">
        <ele>49</ele>
        <time>2022-10-14T14:23:43+02:00</time>
      </trkpt>
      <trkpt lat="43.43261" lon="6.42639">
        <ele>49</ele>
        <time>2022-10-14T14:23:43+02:00</time>
      </trkpt>
      <trkpt lat="43.43255" lon="6.42639">
        <ele>49</ele>
        <time>2022-10-14T14:23:43+02:00</time>
      </trkpt>
      <trkpt lat="43.4325" lon="6.42637">
        <ele>49</ele>
        <time>2022-10-14T14:23:43+02:00</time>
      </trkpt>
      <trkpt lat="43.43246" lon="6.42634">
        <ele>49</ele>
        <time>2022-10-14T14:23:43+02:00</time>
      </trkpt>
      <trkpt lat="43.43241" lon="6.4263">
        <ele>48</ele>
        <time>2022-10-14T14:23:43+02:00</time>
      </trkpt>
      <trkpt lat="43.43236" lon="6.42624">
        <ele>48</ele>
        <time>2022-10-14T14:23:43+02:00</time>
      </trkpt>
      <trkpt lat="43.4323" lon="6.42621">
        <ele>48</ele>
        <time>2022-10-14T14:23:43+02:00</time>
      </trkpt>
      <trkpt lat="43.43224" lon="6.42617">
        <ele>47</ele>
        <time>2022-10-14T14:23:43+02:00</time>
      </trkpt>
      <trkpt lat="43.43218" lon="6.42616">
        <ele>46</ele>
        <time>2022-10-14T14:23:43+02:00</time>
      </trkpt>
      <trkpt lat="43.43213" lon="6.42616">
        <ele>46</ele>
        <time>2022-10-14T14:23:43+02:00</time>
      </trkpt>
      <trkpt lat="43.43207" lon="6.42616">
        <ele>46</ele>
        <time>2022-10-14T14:23:43+02:00</time>
      </trkpt>
      <trkpt lat="43.43201" lon="6.42615">
        <ele>46</ele>
        <time>2022-10-14T14:23:43+02:00</time>
      </trkpt>
      <trkpt lat="43.43195" lon="6.42615">
        <ele>47</ele>
        <time>2022-10-14T14:23:43+02:00</time>
      </trkpt>
      <trkpt lat="43.43189" lon="6.42615">
        <ele>47</ele>
        <time>2022-10-14T14:23:43+02:00</time>
      </trkpt>
      <trkpt lat="43.43183" lon="6.42614">
        <ele>47</ele>
        <time>2022-10-14T14:23:43+02:00</time>
      </trkpt>
      <trkpt lat="43.43178" lon="6.42614">
        <ele>47</ele>
        <time>2022-10-14T14:23:43+02:00</time>
      </trkpt>
      <trkpt lat="43.43173" lon="6.42614">
        <ele>47</ele>
        <time>2022-10-14T14:23:43+02:00</time>
      </trkpt>
      <trkpt lat="43.43167" lon="6.42615">
        <ele>47</ele>
        <time>2022-10-14T14:23:43+02:00</time>
      </trkpt>
      <trkpt lat="43.43162" lon="6.42616">
        <ele>47</ele>
        <time>2022-10-14T14:23:43+02:00</time>
      </trkpt>
      <trkpt lat="43.43157" lon="6.42617">
        <ele>47</ele>
        <time>2022-10-14T14:23:43+02:00</time>
      </trkpt>
      <trkpt lat="43.43151" lon="6.42617">
        <ele>47</ele>
        <time>2022-10-14T14:23:43+02:00</time>
      </trkpt>
      <trkpt lat="43.43146" lon="6.42617">
        <ele>47</ele>
        <time>2022-10-14T14:23:43+02:00</time>
      </trkpt>
      <trkpt lat="43.43141" lon="6.42615">
        <ele>47</ele>
        <time>2022-10-14T14:23:43+02:00</time>
      </trkpt>
      <trkpt lat="43.43135" lon="6.42613">
        <ele>47</ele>
        <time>2022-10-14T14:23:43+02:00</time>
      </trkpt>
      <trkpt lat="43.43131" lon="6.4261">
        <ele>47</ele>
        <time>2022-10-14T14:23:43+02:00</time>
      </trkpt>
      <trkpt lat="43.43126" lon="6.42605">
        <ele>47</ele>
        <time>2022-10-14T14:23:43+02:00</time>
      </trkpt>
      <trkpt lat="43.43121" lon="6.42601">
        <ele>47</ele>
        <time>2022-10-14T14:23:43+02:00</time>
      </trkpt>
      <trkpt lat="43.43115" lon="6.426">
        <ele>47</ele>
        <time>2022-10-14T14:23:43+02:00</time>
      </trkpt>
      <trkpt lat="43.43109" lon="6.42601">
        <ele>47</ele>
        <time>2022-10-14T14:23:43+02:00</time>
      </trkpt>
      <trkpt lat="43.43103" lon="6.42603">
        <ele>47</ele>
        <time>2022-10-14T14:23:43+02:00</time>
      </trkpt>
      <trkpt lat="43.43098" lon="6.42606">
        <ele>47</ele>
        <time>2022-10-14T14:23:43+02:00</time>
      </trkpt>
      <trkpt lat="43.43092" lon="6.4261">
        <ele>47</ele>
        <time>2022-10-14T14:23:43+02:00</time>
      </trkpt>
      <trkpt lat="43.43087" lon="6.42614">
        <ele>47</ele>
        <time>2022-10-14T14:23:43+02:00</time>
      </trkpt>
      <trkpt lat="43.43081" lon="6.42617">
        <ele>47</ele>
        <time>2022-10-14T14:23:43+02:00</time>
      </trkpt>
      <trkpt lat="43.43075" lon="6.42621">
        <ele>47</ele>
        <time>2022-10-14T14:23:43+02:00</time>
      </trkpt>
      <trkpt lat="43.43069" lon="6.42624">
        <ele>48</ele>
        <time>2022-10-14T14:23:43+02:00</time>
      </trkpt>
      <trkpt lat="43.43064" lon="6.42629">
        <ele>47</ele>
        <time>2022-10-14T14:23:43+02:00</time>
      </trkpt>
      <trkpt lat="43.43059" lon="6.42634">
        <ele>47</ele>
        <time>2022-10-14T14:23:43+02:00</time>
      </trkpt>
      <trkpt lat="43.43054" lon="6.42638">
        <ele>47</ele>
        <time>2022-10-14T14:23:43+02:00</time>
      </trkpt>
      <trkpt lat="43.4305" lon="6.42643">
        <ele>48</ele>
        <time>2022-10-14T14:23:43+02:00</time>
      </trkpt>
      <trkpt lat="43.43045" lon="6.42648">
        <ele>48</ele>
        <time>2022-10-14T14:23:43+02:00</time>
      </trkpt>
      <trkpt lat="43.43041" lon="6.42653">
        <ele>48</ele>
        <time>2022-10-14T14:23:43+02:00</time>
      </trkpt>
      <trkpt lat="43.43036" lon="6.42658">
        <ele>48</ele>
        <time>2022-10-14T14:23:43+02:00</time>
      </trkpt>
      <trkpt lat="43.43032" lon="6.42662">
        <ele>48</ele>
        <time>2022-10-14T14:23:43+02:00</time>
      </trkpt>
      <trkpt lat="43.43027" lon="6.42667">
        <ele>48</ele>
        <time>2022-10-14T14:23:43+02:00</time>
      </trkpt>
      <trkpt lat="43.43022" lon="6.42671">
        <ele>48</ele>
        <time>2022-10-14T14:23:43+02:00</time>
      </trkpt>
      <trkpt lat="43.43017" lon="6.42676">
        <ele>48</ele>
        <time>2022-10-14T14:23:43+02:00</time>
      </trkpt>
      <trkpt lat="43.43013" lon="6.42681">
        <ele>48</ele>
        <time>2022-10-14T14:23:43+02:00</time>
      </trkpt>
      <trkpt lat="43.43009" lon="6.42686">
        <ele>47</ele>
        <time>2022-10-14T14:23:43+02:00</time>
      </trkpt>
      <trkpt lat="43.43004" lon="6.42692">
        <ele>47</ele>
        <time>2022-10-14T14:23:43+02:00</time>
      </trkpt>
      <trkpt lat="43.43001" lon="6.42699">
        <ele>47</ele>
        <time>2022-10-14T14:23:43+02:00</time>
      </trkpt>
      <trkpt lat="43.42997" lon="6.42706">
        <ele>47</ele>
        <time>2022-10-14T14:23:43+02:00</time>
      </trkpt>
      <trkpt lat="43.42994" lon="6.42713">
        <ele>48</ele>
        <time>2022-10-14T14:23:43+02:00</time>
      </trkpt>
      <trkpt lat="43.42991" lon="6.42721">
        <ele>48</ele>
        <time>2022-10-14T14:23:43+02:00</time>
      </trkpt>
      <trkpt lat="43.42988" lon="6.42727">
        <ele>48</ele>
        <time>2022-10-14T14:23:43+02:00</time>
      </trkpt>
      <trkpt lat="43.42985" lon="6.42735">
        <ele>48</ele>
        <time>2022-10-14T14:23:43+02:00</time>
      </trkpt>
      <trkpt lat="43.42982" lon="6.42742">
        <ele>47</ele>
        <time>2022-10-14T14:23:43+02:00</time>
      </trkpt>
      <trkpt lat="43.4298" lon="6.42749">
        <ele>47</ele>
        <time>2022-10-14T14:23:43+02:00</time>
      </trkpt>
      <trkpt lat="43.42978" lon="6.42756">
        <ele>47</ele>
        <time>2022-10-14T14:23:43+02:00</time>
      </trkpt>
      <trkpt lat="43.42975" lon="6.42762">
        <ele>48</ele>
        <time>2022-10-14T14:23:43+02:00</time>
      </trkpt>
      <trkpt lat="43.42973" lon="6.42768">
        <ele>48</ele>
        <time>2022-10-14T14:23:43+02:00</time>
      </trkpt>
      <trkpt lat="43.42969" lon="6.42774">
        <ele>48</ele>
        <time>2022-10-14T14:23:43+02:00</time>
      </trkpt>
      <trkpt lat="43.42965" lon="6.4278">
        <ele>48</ele>
        <time>2022-10-14T14:23:43+02:00</time>
      </trkpt>
      <trkpt lat="43.42961" lon="6.42785">
        <ele>48</ele>
        <time>2022-10-14T14:23:43+02:00</time>
      </trkpt>
      <trkpt lat="43.42957" lon="6.42791">
        <ele>48</ele>
        <time>2022-10-14T14:23:43+02:00</time>
      </trkpt>
      <trkpt lat="43.42953" lon="6.42797">
        <ele>48</ele>
        <time>2022-10-14T14:23:43+02:00</time>
      </trkpt>
      <trkpt lat="43.42949" lon="6.42801">
        <ele>48</ele>
        <time>2022-10-14T14:23:43+02:00</time>
      </trkpt>
      <trkpt lat="43.42944" lon="6.42805">
        <ele>48</ele>
        <time>2022-10-14T14:23:43+02:00</time>
      </trkpt>
      <trkpt lat="43.42939" lon="6.42809">
        <ele>48</ele>
        <time>2022-10-14T14:23:43+02:00</time>
      </trkpt>
      <trkpt lat="43.42935" lon="6.42813">
        <ele>48</ele>
        <time>2022-10-14T14:23:43+02:00</time>
      </trkpt>
      <trkpt lat="43.42931" lon="6.42818">
        <ele>48</ele>
        <time>2022-10-14T14:23:43+02:00</time>
      </trkpt>
      <trkpt lat="43.42927" lon="6.42821">
        <ele>48</ele>
        <time>2022-10-14T14:23:43+02:00</time>
      </trkpt>
      <trkpt lat="43.42923" lon="6.42825">
        <ele>49</ele>
        <time>2022-10-14T14:23:43+02:00</time>
      </trkpt>
      <trkpt lat="43.4292" lon="6.42829">
        <ele>49</ele>
        <time>2022-10-14T14:23:43+02:00</time>
      </trkpt>
      <trkpt lat="43.42916" lon="6.42832">
        <ele>49</ele>
        <time>2022-10-14T14:23:43+02:00</time>
      </trkpt>
      <trkpt lat="43.42911" lon="6.42834">
        <ele>48</ele>
        <time>2022-10-14T14:23:43+02:00</time>
      </trkpt>
      <trkpt lat="43.42906" lon="6.42836">
        <ele>49</ele>
        <time>2022-10-14T14:23:43+02:00</time>
      </trkpt>
      <trkpt lat="43.42902" lon="6.42838">
        <ele>49</ele>
        <time>2022-10-14T14:23:43+02:00</time>
      </trkpt>
      <trkpt lat="43.42897" lon="6.42839">
        <ele>49</ele>
        <time>2022-10-14T14:23:43+02:00</time>
      </trkpt>
      <trkpt lat="43.42892" lon="6.42839">
        <ele>49</ele>
        <time>2022-10-14T14:23:43+02:00</time>
      </trkpt>
      <trkpt lat="43.42887" lon="6.4284">
        <ele>48</ele>
        <time>2022-10-14T14:23:43+02:00</time>
      </trkpt>
      <trkpt lat="43.42882" lon="6.42841">
        <ele>48</ele>
        <time>2022-10-14T14:23:43+02:00</time>
      </trkpt>
      <trkpt lat="43.42876" lon="6.42843">
        <ele>48</ele>
        <time>2022-10-14T14:23:43+02:00</time>
      </trkpt>
      <trkpt lat="43.42871" lon="6.42845">
        <ele>47</ele>
        <time>2022-10-14T14:23:43+02:00</time>
      </trkpt>
      <trkpt lat="43.42866" lon="6.42847">
        <ele>47</ele>
        <time>2022-10-14T14:23:43+02:00</time>
      </trkpt>
      <trkpt lat="43.42861" lon="6.42849">
        <ele>47</ele>
        <time>2022-10-14T14:23:43+02:00</time>
      </trkpt>
      <trkpt lat="43.42856" lon="6.42849">
        <ele>47</ele>
        <time>2022-10-14T14:23:43+02:00</time>
      </trkpt>
      <trkpt lat="43.42852" lon="6.42848">
        <ele>48</ele>
        <time>2022-10-14T14:23:43+02:00</time>
      </trkpt>
      <trkpt lat="43.42848" lon="6.42848">
        <ele>48</ele>
        <time>2022-10-14T14:23:43+02:00</time>
      </trkpt>
      <trkpt lat="43.42845" lon="6.42847">
        <ele>48</ele>
        <time>2022-10-14T14:23:43+02:00</time>
      </trkpt>
      <trkpt lat="43.42841" lon="6.42847">
        <ele>48</ele>
        <time>2022-10-14T14:23:43+02:00</time>
      </trkpt>
      <trkpt lat="43.42839" lon="6.42845">
        <ele>49</ele>
        <time>2022-10-14T14:23:43+02:00</time>
      </trkpt>
    </trkseg>
  </trk>
</gpx>